<?xml version="1.0" encoding="UTF-8" standalone="no" ?>
<gpx xmlns="http://www.topografix.com/GPX/1/1" xmlns:xsi="http://www.w3.org/2001/XMLSchema-instance" xsi:schemaLocation="http://www.topografix.com/GPX/1/1 http://www.topografix.com/GPX/1/1/gpx.xsd" version="1.1" creator="VisuGPX - https://www.visugpx.com">
  <metadata>
    <name>Trace Uzes 2025 modifiée</name>
  </metadata>
  <trk>
    <name><![CDATA[Uzes2025-Modifié]]></name>
    <extensions>
      <line xmlns="http://www.topografix.com/GPX/gpx_style/0/2">
        <width>4</width>
      </line>
    </extensions>
    <trkseg>
      <trkpt lat="44.0194" lon="4.47184">
        <ele>122</ele>
        <time>2025-01-26T11:05:39.000Z</time>
      </trkpt>
      <trkpt lat="44.0192" lon="4.4715">
        <ele>122.7</ele>
        <time>2025-01-26T11:05:39.239Z</time>
      </trkpt>
      <trkpt lat="44.01849" lon="4.47052">
        <ele>136.4</ele>
        <time>2025-01-26T11:05:40.000Z</time>
      </trkpt>
      <trkpt lat="44.01846" lon="4.47039">
        <ele>136</ele>
        <time>2025-01-26T11:05:42.000Z</time>
      </trkpt>
      <trkpt lat="44.01841" lon="4.46992">
        <ele>135.8</ele>
        <time>2025-01-26T11:05:49.000Z</time>
      </trkpt>
      <trkpt lat="44.01838" lon="4.46947">
        <ele>136</ele>
        <time>2025-01-26T11:05:56.000Z</time>
      </trkpt>
      <trkpt lat="44.01835" lon="4.46879">
        <ele>136.4</ele>
        <time>2025-01-26T11:06:06.000Z</time>
      </trkpt>
      <trkpt lat="44.01833" lon="4.46865">
        <ele>136.4</ele>
        <time>2025-01-26T11:06:08.000Z</time>
      </trkpt>
      <trkpt lat="44.0183" lon="4.46836">
        <ele>136.8</ele>
        <time>2025-01-26T11:06:13.000Z</time>
      </trkpt>
      <trkpt lat="44.01829" lon="4.4682">
        <ele>137.6</ele>
        <time>2025-01-26T11:06:18.000Z</time>
      </trkpt>
      <trkpt lat="44.01829" lon="4.46818">
        <ele>137.8</ele>
        <time>2025-01-26T11:06:19.000Z</time>
      </trkpt>
      <trkpt lat="44.01828" lon="4.46814">
        <ele>138.4</ele>
        <time>2025-01-26T11:06:21.000Z</time>
      </trkpt>
      <trkpt lat="44.01827" lon="4.46814">
        <ele>138.8</ele>
        <time>2025-01-26T11:06:22.000Z</time>
      </trkpt>
      <trkpt lat="44.01825" lon="4.46813">
        <ele>139.2</ele>
        <time>2025-01-26T11:06:23.000Z</time>
      </trkpt>
      <trkpt lat="44.01821" lon="4.46813">
        <ele>139.8</ele>
        <time>2025-01-26T11:06:25.000Z</time>
      </trkpt>
      <trkpt lat="44.01817" lon="4.46811">
        <ele>140.4</ele>
        <time>2025-01-26T11:06:27.000Z</time>
      </trkpt>
      <trkpt lat="44.01814" lon="4.46809">
        <ele>140.4</ele>
        <time>2025-01-26T11:06:29.000Z</time>
      </trkpt>
      <trkpt lat="44.01807" lon="4.46805">
        <ele>141</ele>
        <time>2025-01-26T11:06:33.000Z</time>
      </trkpt>
      <trkpt lat="44.018" lon="4.46802">
        <ele>141.8</ele>
        <time>2025-01-26T11:06:37.000Z</time>
      </trkpt>
      <trkpt lat="44.01799" lon="4.46802">
        <ele>142.2</ele>
        <time>2025-01-26T11:06:38.000Z</time>
      </trkpt>
      <trkpt lat="44.01792" lon="4.46801">
        <ele>143.2</ele>
        <time>2025-01-26T11:06:43.000Z</time>
      </trkpt>
      <trkpt lat="44.0179" lon="4.468">
        <ele>143.8</ele>
        <time>2025-01-26T11:06:44.000Z</time>
      </trkpt>
      <trkpt lat="44.01787" lon="4.46799">
        <ele>144.6</ele>
        <time>2025-01-26T11:06:47.000Z</time>
      </trkpt>
      <trkpt lat="44.01781" lon="4.46793">
        <ele>145.6</ele>
        <time>2025-01-26T11:06:52.000Z</time>
      </trkpt>
      <trkpt lat="44.0178" lon="4.46791">
        <ele>145.8</ele>
        <time>2025-01-26T11:06:53.000Z</time>
      </trkpt>
      <trkpt lat="44.01774" lon="4.46784">
        <ele>146.8</ele>
        <time>2025-01-26T11:06:58.000Z</time>
      </trkpt>
      <trkpt lat="44.01772" lon="4.4678">
        <ele>147.4</ele>
        <time>2025-01-26T11:07:00.000Z</time>
      </trkpt>
      <trkpt lat="44.01768" lon="4.46776">
        <ele>147.6</ele>
        <time>2025-01-26T11:07:03.000Z</time>
      </trkpt>
      <trkpt lat="44.01763" lon="4.46771">
        <ele>148.4</ele>
        <time>2025-01-26T11:07:07.000Z</time>
      </trkpt>
      <trkpt lat="44.01758" lon="4.46768">
        <ele>148.8</ele>
        <time>2025-01-26T11:07:10.000Z</time>
      </trkpt>
      <trkpt lat="44.01749" lon="4.46765">
        <ele>149.4</ele>
        <time>2025-01-26T11:07:14.000Z</time>
      </trkpt>
      <trkpt lat="44.01744" lon="4.46764">
        <ele>149.8</ele>
        <time>2025-01-26T11:07:17.000Z</time>
      </trkpt>
      <trkpt lat="44.01738" lon="4.46763">
        <ele>150</ele>
        <time>2025-01-26T11:07:20.000Z</time>
      </trkpt>
      <trkpt lat="44.01729" lon="4.46762">
        <ele>150.4</ele>
        <time>2025-01-26T11:07:25.000Z</time>
      </trkpt>
      <trkpt lat="44.01727" lon="4.4676">
        <ele>150.6</ele>
        <time>2025-01-26T11:07:26.000Z</time>
      </trkpt>
      <trkpt lat="44.01726" lon="4.46755">
        <ele>150.8</ele>
        <time>2025-01-26T11:07:28.000Z</time>
      </trkpt>
      <trkpt lat="44.01726" lon="4.46743">
        <ele>151.2</ele>
        <time>2025-01-26T11:07:31.000Z</time>
      </trkpt>
      <trkpt lat="44.01729" lon="4.46718">
        <ele>151.4</ele>
        <time>2025-01-26T11:07:37.000Z</time>
      </trkpt>
      <trkpt lat="44.01729" lon="4.46716">
        <ele>151.4</ele>
        <time>2025-01-26T11:07:38.000Z</time>
      </trkpt>
      <trkpt lat="44.01733" lon="4.4671">
        <ele>151</ele>
        <time>2025-01-26T11:07:42.000Z</time>
      </trkpt>
      <trkpt lat="44.0174" lon="4.46703">
        <ele>151</ele>
        <time>2025-01-26T11:07:48.000Z</time>
      </trkpt>
      <trkpt lat="44.01753" lon="4.46695">
        <ele>151.2</ele>
        <time>2025-01-26T11:07:54.000Z</time>
      </trkpt>
      <trkpt lat="44.01764" lon="4.4669">
        <ele>151.6</ele>
        <time>2025-01-26T11:08:00.000Z</time>
      </trkpt>
      <trkpt lat="44.01768" lon="4.46687">
        <ele>151.6</ele>
        <time>2025-01-26T11:08:02.000Z</time>
      </trkpt>
      <trkpt lat="44.01779" lon="4.46681">
        <ele>152.4</ele>
        <time>2025-01-26T11:08:07.000Z</time>
      </trkpt>
      <trkpt lat="44.01785" lon="4.46677">
        <ele>152.8</ele>
        <time>2025-01-26T11:08:10.000Z</time>
      </trkpt>
      <trkpt lat="44.01789" lon="4.46673">
        <ele>153.2</ele>
        <time>2025-01-26T11:08:13.000Z</time>
      </trkpt>
      <trkpt lat="44.01791" lon="4.46669">
        <ele>153.4</ele>
        <time>2025-01-26T11:08:15.000Z</time>
      </trkpt>
      <trkpt lat="44.01792" lon="4.46664">
        <ele>153.4</ele>
        <time>2025-01-26T11:08:17.000Z</time>
      </trkpt>
      <trkpt lat="44.01794" lon="4.46654">
        <ele>153.8</ele>
        <time>2025-01-26T11:08:21.000Z</time>
      </trkpt>
      <trkpt lat="44.01797" lon="4.46651">
        <ele>153.8</ele>
        <time>2025-01-26T11:08:23.000Z</time>
      </trkpt>
      <trkpt lat="44.01797" lon="4.46645">
        <ele>154.2</ele>
        <time>2025-01-26T11:08:26.000Z</time>
      </trkpt>
      <trkpt lat="44.01792" lon="4.46638">
        <ele>154.8</ele>
        <time>2025-01-26T11:08:29.000Z</time>
      </trkpt>
      <trkpt lat="44.01791" lon="4.46636">
        <ele>155.2</ele>
        <time>2025-01-26T11:08:30.000Z</time>
      </trkpt>
      <trkpt lat="44.01791" lon="4.46634">
        <ele>155.4</ele>
        <time>2025-01-26T11:08:31.000Z</time>
      </trkpt>
      <trkpt lat="44.01789" lon="4.46627">
        <ele>156.2</ele>
        <time>2025-01-26T11:08:35.000Z</time>
      </trkpt>
      <trkpt lat="44.01789" lon="4.46625">
        <ele>156.4</ele>
        <time>2025-01-26T11:08:36.000Z</time>
      </trkpt>
      <trkpt lat="44.01788" lon="4.46623">
        <ele>156.6</ele>
        <time>2025-01-26T11:08:37.000Z</time>
      </trkpt>
      <trkpt lat="44.01787" lon="4.46616">
        <ele>157.4</ele>
        <time>2025-01-26T11:08:41.000Z</time>
      </trkpt>
      <trkpt lat="44.01782" lon="4.46611">
        <ele>158.4</ele>
        <time>2025-01-26T11:08:44.000Z</time>
      </trkpt>
      <trkpt lat="44.01775" lon="4.46609">
        <ele>159</ele>
        <time>2025-01-26T11:08:47.000Z</time>
      </trkpt>
      <trkpt lat="44.01764" lon="4.46602">
        <ele>159.6</ele>
        <time>2025-01-26T11:08:54.000Z</time>
      </trkpt>
      <trkpt lat="44.01755" lon="4.46598">
        <ele>160.4</ele>
        <time>2025-01-26T11:09:00.000Z</time>
      </trkpt>
      <trkpt lat="44.01751" lon="4.46599">
        <ele>160.6</ele>
        <time>2025-01-26T11:09:02.000Z</time>
      </trkpt>
      <trkpt lat="44.01745" lon="4.466">
        <ele>160.8</ele>
        <time>2025-01-26T11:09:05.000Z</time>
      </trkpt>
      <trkpt lat="44.01732" lon="4.466">
        <ele>161.2</ele>
        <time>2025-01-26T11:09:11.000Z</time>
      </trkpt>
      <trkpt lat="44.01729" lon="4.46597">
        <ele>161.4</ele>
        <time>2025-01-26T11:09:13.000Z</time>
      </trkpt>
      <trkpt lat="44.01728" lon="4.46592">
        <ele>161.4</ele>
        <time>2025-01-26T11:09:15.000Z</time>
      </trkpt>
      <trkpt lat="44.01727" lon="4.46587">
        <ele>161.4</ele>
        <time>2025-01-26T11:09:18.000Z</time>
      </trkpt>
      <trkpt lat="44.01725" lon="4.46586">
        <ele>161.2</ele>
        <time>2025-01-26T11:09:20.000Z</time>
      </trkpt>
      <trkpt lat="44.01724" lon="4.46586">
        <ele>161.2</ele>
        <time>2025-01-26T11:09:21.000Z</time>
      </trkpt>
      <trkpt lat="44.01721" lon="4.46585">
        <ele>161.2</ele>
        <time>2025-01-26T11:09:23.000Z</time>
      </trkpt>
      <trkpt lat="44.01719" lon="4.46585">
        <ele>161.2</ele>
        <time>2025-01-26T11:09:24.000Z</time>
      </trkpt>
      <trkpt lat="44.01707" lon="4.46584">
        <ele>161.2</ele>
        <time>2025-01-26T11:09:31.000Z</time>
      </trkpt>
      <trkpt lat="44.01702" lon="4.46585">
        <ele>161.6</ele>
        <time>2025-01-26T11:09:34.000Z</time>
      </trkpt>
      <trkpt lat="44.01696" lon="4.46585">
        <ele>162.8</ele>
        <time>2025-01-26T11:09:37.000Z</time>
      </trkpt>
      <trkpt lat="44.01694" lon="4.46585">
        <ele>163</ele>
        <time>2025-01-26T11:09:38.000Z</time>
      </trkpt>
      <trkpt lat="44.01682" lon="4.46585">
        <ele>163.8</ele>
        <time>2025-01-26T11:09:44.000Z</time>
      </trkpt>
      <trkpt lat="44.0168" lon="4.46584">
        <ele>164</ele>
        <time>2025-01-26T11:09:45.000Z</time>
      </trkpt>
      <trkpt lat="44.01669" lon="4.46583">
        <ele>165</ele>
        <time>2025-01-26T11:09:50.000Z</time>
      </trkpt>
      <trkpt lat="44.01666" lon="4.46582">
        <ele>165.2</ele>
        <time>2025-01-26T11:09:51.000Z</time>
      </trkpt>
      <trkpt lat="44.01658" lon="4.46581">
        <ele>166</ele>
        <time>2025-01-26T11:09:56.000Z</time>
      </trkpt>
      <trkpt lat="44.01656" lon="4.4658">
        <ele>166.6</ele>
        <time>2025-01-26T11:09:58.000Z</time>
      </trkpt>
      <trkpt lat="44.01655" lon="4.46579">
        <ele>166.8</ele>
        <time>2025-01-26T11:09:59.000Z</time>
      </trkpt>
      <trkpt lat="44.01654" lon="4.46575">
        <ele>167.2</ele>
        <time>2025-01-26T11:10:01.000Z</time>
      </trkpt>
      <trkpt lat="44.01652" lon="4.46566">
        <ele>168.4</ele>
        <time>2025-01-26T11:10:05.000Z</time>
      </trkpt>
      <trkpt lat="44.01648" lon="4.46552">
        <ele>169</ele>
        <time>2025-01-26T11:10:11.000Z</time>
      </trkpt>
      <trkpt lat="44.01649" lon="4.46538">
        <ele>169.4</ele>
        <time>2025-01-26T11:10:17.000Z</time>
      </trkpt>
      <trkpt lat="44.01649" lon="4.46535">
        <ele>169.4</ele>
        <time>2025-01-26T11:10:18.000Z</time>
      </trkpt>
      <trkpt lat="44.01645" lon="4.46521">
        <ele>169.4</ele>
        <time>2025-01-26T11:10:23.000Z</time>
      </trkpt>
      <trkpt lat="44.01643" lon="4.46519">
        <ele>169.4</ele>
        <time>2025-01-26T11:10:24.000Z</time>
      </trkpt>
      <trkpt lat="44.01634" lon="4.46519">
        <ele>169.4</ele>
        <time>2025-01-26T11:10:27.000Z</time>
      </trkpt>
      <trkpt lat="44.0163" lon="4.4652">
        <ele>169.4</ele>
        <time>2025-01-26T11:10:29.000Z</time>
      </trkpt>
      <trkpt lat="44.0162" lon="4.46522">
        <ele>169</ele>
        <time>2025-01-26T11:10:33.000Z</time>
      </trkpt>
      <trkpt lat="44.01607" lon="4.46518">
        <ele>168.6</ele>
        <time>2025-01-26T11:10:39.000Z</time>
      </trkpt>
      <trkpt lat="44.01601" lon="4.46503">
        <ele>168.4</ele>
        <time>2025-01-26T11:10:43.000Z</time>
      </trkpt>
      <trkpt lat="44.01599" lon="4.46498">
        <ele>168.4</ele>
        <time>2025-01-26T11:10:44.000Z</time>
      </trkpt>
      <trkpt lat="44.01595" lon="4.46474">
        <ele>167.4</ele>
        <time>2025-01-26T11:10:49.000Z</time>
      </trkpt>
      <trkpt lat="44.01593" lon="4.46462">
        <ele>167</ele>
        <time>2025-01-26T11:10:53.000Z</time>
      </trkpt>
      <trkpt lat="44.01592" lon="4.46456">
        <ele>167</ele>
        <time>2025-01-26T11:10:56.000Z</time>
      </trkpt>
      <trkpt lat="44.01591" lon="4.4645">
        <ele>167</ele>
        <time>2025-01-26T11:10:59.000Z</time>
      </trkpt>
      <trkpt lat="44.0159" lon="4.46446">
        <ele>167.8</ele>
        <time>2025-01-26T11:11:01.000Z</time>
      </trkpt>
      <trkpt lat="44.0159" lon="4.46444">
        <ele>168.8</ele>
        <time>2025-01-26T11:11:02.000Z</time>
      </trkpt>
      <trkpt lat="44.01587" lon="4.46436">
        <ele>170.2</ele>
        <time>2025-01-26T11:11:05.000Z</time>
      </trkpt>
      <trkpt lat="44.01586" lon="4.46431">
        <ele>171.4</ele>
        <time>2025-01-26T11:11:08.000Z</time>
      </trkpt>
      <trkpt lat="44.01585" lon="4.46429">
        <ele>171.6</ele>
        <time>2025-01-26T11:11:09.000Z</time>
      </trkpt>
      <trkpt lat="44.01584" lon="4.46425">
        <ele>172.4</ele>
        <time>2025-01-26T11:11:12.000Z</time>
      </trkpt>
      <trkpt lat="44.01583" lon="4.46424">
        <ele>172.6</ele>
        <time>2025-01-26T11:11:13.000Z</time>
      </trkpt>
      <trkpt lat="44.01582" lon="4.46421">
        <ele>173.8</ele>
        <time>2025-01-26T11:11:15.000Z</time>
      </trkpt>
      <trkpt lat="44.01579" lon="4.46417">
        <ele>175</ele>
        <time>2025-01-26T11:11:20.000Z</time>
      </trkpt>
      <trkpt lat="44.01579" lon="4.46417">
        <ele>175.2</ele>
        <time>2025-01-26T11:11:21.000Z</time>
      </trkpt>
      <trkpt lat="44.01578" lon="4.46415">
        <ele>176</ele>
        <time>2025-01-26T11:11:25.000Z</time>
      </trkpt>
      <trkpt lat="44.01577" lon="4.46405">
        <ele>176.4</ele>
        <time>2025-01-26T11:11:30.000Z</time>
      </trkpt>
      <trkpt lat="44.01576" lon="4.46403">
        <ele>176.4</ele>
        <time>2025-01-26T11:11:31.000Z</time>
      </trkpt>
      <trkpt lat="44.01574" lon="4.46392">
        <ele>177</ele>
        <time>2025-01-26T11:11:37.000Z</time>
      </trkpt>
      <trkpt lat="44.01573" lon="4.46391">
        <ele>177.2</ele>
        <time>2025-01-26T11:11:38.000Z</time>
      </trkpt>
      <trkpt lat="44.01572" lon="4.4639">
        <ele>177.4</ele>
        <time>2025-01-26T11:11:39.000Z</time>
      </trkpt>
      <trkpt lat="44.01571" lon="4.46389">
        <ele>177.8</ele>
        <time>2025-01-26T11:11:40.000Z</time>
      </trkpt>
      <trkpt lat="44.0157" lon="4.46387">
        <ele>178.4</ele>
        <time>2025-01-26T11:11:42.000Z</time>
      </trkpt>
      <trkpt lat="44.0157" lon="4.46385">
        <ele>179.2</ele>
        <time>2025-01-26T11:11:44.000Z</time>
      </trkpt>
      <trkpt lat="44.0157" lon="4.46385">
        <ele>179.6</ele>
        <time>2025-01-26T11:11:45.000Z</time>
      </trkpt>
      <trkpt lat="44.01571" lon="4.46377">
        <ele>180</ele>
        <time>2025-01-26T11:12:07.000Z</time>
      </trkpt>
      <trkpt lat="44.01574" lon="4.46373">
        <ele>180</ele>
        <time>2025-01-26T11:12:09.000Z</time>
      </trkpt>
      <trkpt lat="44.01581" lon="4.4636">
        <ele>180</ele>
        <time>2025-01-26T11:12:14.000Z</time>
      </trkpt>
      <trkpt lat="44.01592" lon="4.46355">
        <ele>179</ele>
        <time>2025-01-26T11:12:18.000Z</time>
      </trkpt>
      <trkpt lat="44.01597" lon="4.46348">
        <ele>178.2</ele>
        <time>2025-01-26T11:12:20.000Z</time>
      </trkpt>
      <trkpt lat="44.01598" lon="4.46343">
        <ele>177.6</ele>
        <time>2025-01-26T11:12:21.000Z</time>
      </trkpt>
      <trkpt lat="44.01598" lon="4.46337">
        <ele>177</ele>
        <time>2025-01-26T11:12:22.000Z</time>
      </trkpt>
      <trkpt lat="44.01602" lon="4.46322">
        <ele>176</ele>
        <time>2025-01-26T11:12:24.000Z</time>
      </trkpt>
      <trkpt lat="44.01604" lon="4.46314">
        <ele>175.2</ele>
        <time>2025-01-26T11:12:25.000Z</time>
      </trkpt>
      <trkpt lat="44.01606" lon="4.46308">
        <ele>174.6</ele>
        <time>2025-01-26T11:12:26.000Z</time>
      </trkpt>
      <trkpt lat="44.01608" lon="4.46303">
        <ele>173.4</ele>
        <time>2025-01-26T11:12:27.000Z</time>
      </trkpt>
      <trkpt lat="44.01613" lon="4.46295">
        <ele>172.4</ele>
        <time>2025-01-26T11:12:29.000Z</time>
      </trkpt>
      <trkpt lat="44.01617" lon="4.46291">
        <ele>171.8</ele>
        <time>2025-01-26T11:12:30.000Z</time>
      </trkpt>
      <trkpt lat="44.01621" lon="4.46287">
        <ele>171.2</ele>
        <time>2025-01-26T11:12:31.000Z</time>
      </trkpt>
      <trkpt lat="44.01626" lon="4.46282">
        <ele>170.4</ele>
        <time>2025-01-26T11:12:32.000Z</time>
      </trkpt>
      <trkpt lat="44.01632" lon="4.46278">
        <ele>169.4</ele>
        <time>2025-01-26T11:12:33.000Z</time>
      </trkpt>
      <trkpt lat="44.01637" lon="4.46274">
        <ele>168.8</ele>
        <time>2025-01-26T11:12:34.000Z</time>
      </trkpt>
      <trkpt lat="44.01646" lon="4.46267">
        <ele>167.4</ele>
        <time>2025-01-26T11:12:36.000Z</time>
      </trkpt>
      <trkpt lat="44.01656" lon="4.46264">
        <ele>165.6</ele>
        <time>2025-01-26T11:12:38.000Z</time>
      </trkpt>
      <trkpt lat="44.01661" lon="4.46263">
        <ele>164.6</ele>
        <time>2025-01-26T11:12:39.000Z</time>
      </trkpt>
      <trkpt lat="44.01666" lon="4.46262">
        <ele>163.6</ele>
        <time>2025-01-26T11:12:40.000Z</time>
      </trkpt>
      <trkpt lat="44.01671" lon="4.46261">
        <ele>162.6</ele>
        <time>2025-01-26T11:12:41.000Z</time>
      </trkpt>
      <trkpt lat="44.01675" lon="4.4626">
        <ele>161.4</ele>
        <time>2025-01-26T11:12:42.000Z</time>
      </trkpt>
      <trkpt lat="44.01679" lon="4.4626">
        <ele>160.4</ele>
        <time>2025-01-26T11:12:43.000Z</time>
      </trkpt>
      <trkpt lat="44.01681" lon="4.46259">
        <ele>159.4</ele>
        <time>2025-01-26T11:12:44.000Z</time>
      </trkpt>
      <trkpt lat="44.01683" lon="4.46257">
        <ele>158.2</ele>
        <time>2025-01-26T11:12:45.000Z</time>
      </trkpt>
      <trkpt lat="44.01684" lon="4.46254">
        <ele>157.2</ele>
        <time>2025-01-26T11:12:46.000Z</time>
      </trkpt>
      <trkpt lat="44.01684" lon="4.46251">
        <ele>156</ele>
        <time>2025-01-26T11:12:47.000Z</time>
      </trkpt>
      <trkpt lat="44.01685" lon="4.46247">
        <ele>153.6</ele>
        <time>2025-01-26T11:12:49.000Z</time>
      </trkpt>
      <trkpt lat="44.01685" lon="4.46244">
        <ele>151.8</ele>
        <time>2025-01-26T11:12:51.000Z</time>
      </trkpt>
      <trkpt lat="44.01684" lon="4.46243">
        <ele>151.2</ele>
        <time>2025-01-26T11:12:52.000Z</time>
      </trkpt>
      <trkpt lat="44.01685" lon="4.46241">
        <ele>150.8</ele>
        <time>2025-01-26T11:12:53.000Z</time>
      </trkpt>
      <trkpt lat="44.01684" lon="4.46238">
        <ele>149.6</ele>
        <time>2025-01-26T11:12:56.000Z</time>
      </trkpt>
      <trkpt lat="44.01685" lon="4.46236">
        <ele>149.4</ele>
        <time>2025-01-26T11:12:57.000Z</time>
      </trkpt>
      <trkpt lat="44.01686" lon="4.46232">
        <ele>149.4</ele>
        <time>2025-01-26T11:12:59.000Z</time>
      </trkpt>
      <trkpt lat="44.01687" lon="4.46229">
        <ele>149.2</ele>
        <time>2025-01-26T11:13:03.000Z</time>
      </trkpt>
      <trkpt lat="44.01686" lon="4.46227">
        <ele>148.6</ele>
        <time>2025-01-26T11:13:12.000Z</time>
      </trkpt>
      <trkpt lat="44.01686" lon="4.46225">
        <ele>148.6</ele>
        <time>2025-01-26T11:13:13.000Z</time>
      </trkpt>
      <trkpt lat="44.01686" lon="4.46211">
        <ele>148.6</ele>
        <time>2025-01-26T11:13:17.000Z</time>
      </trkpt>
      <trkpt lat="44.01685" lon="4.46202">
        <ele>148.4</ele>
        <time>2025-01-26T11:13:19.000Z</time>
      </trkpt>
      <trkpt lat="44.01682" lon="4.46178">
        <ele>147.4</ele>
        <time>2025-01-26T11:13:24.000Z</time>
      </trkpt>
      <trkpt lat="44.01676" lon="4.46141">
        <ele>146.4</ele>
        <time>2025-01-26T11:13:32.000Z</time>
      </trkpt>
      <trkpt lat="44.01674" lon="4.46118">
        <ele>146.2</ele>
        <time>2025-01-26T11:13:37.000Z</time>
      </trkpt>
      <trkpt lat="44.01674" lon="4.46109">
        <ele>146.2</ele>
        <time>2025-01-26T11:13:39.000Z</time>
      </trkpt>
      <trkpt lat="44.01675" lon="4.46101">
        <ele>146.2</ele>
        <time>2025-01-26T11:13:41.000Z</time>
      </trkpt>
      <trkpt lat="44.01674" lon="4.46084">
        <ele>146.8</ele>
        <time>2025-01-26T11:13:46.000Z</time>
      </trkpt>
      <trkpt lat="44.01672" lon="4.46079">
        <ele>147.4</ele>
        <time>2025-01-26T11:13:48.000Z</time>
      </trkpt>
      <trkpt lat="44.01669" lon="4.46071">
        <ele>148</ele>
        <time>2025-01-26T11:13:51.000Z</time>
      </trkpt>
      <trkpt lat="44.01669" lon="4.46064">
        <ele>148.6</ele>
        <time>2025-01-26T11:13:54.000Z</time>
      </trkpt>
      <trkpt lat="44.0167" lon="4.46062">
        <ele>148.8</ele>
        <time>2025-01-26T11:13:55.000Z</time>
      </trkpt>
      <trkpt lat="44.01674" lon="4.46055">
        <ele>149.8</ele>
        <time>2025-01-26T11:13:58.000Z</time>
      </trkpt>
      <trkpt lat="44.01678" lon="4.46048">
        <ele>150.8</ele>
        <time>2025-01-26T11:14:01.000Z</time>
      </trkpt>
      <trkpt lat="44.01683" lon="4.46035">
        <ele>151.2</ele>
        <time>2025-01-26T11:14:06.000Z</time>
      </trkpt>
      <trkpt lat="44.0169" lon="4.46023">
        <ele>151.2</ele>
        <time>2025-01-26T11:14:11.000Z</time>
      </trkpt>
      <trkpt lat="44.01698" lon="4.4601">
        <ele>151.4</ele>
        <time>2025-01-26T11:14:17.000Z</time>
      </trkpt>
      <trkpt lat="44.01703" lon="4.45989">
        <ele>151.4</ele>
        <time>2025-01-26T11:14:22.000Z</time>
      </trkpt>
      <trkpt lat="44.01709" lon="4.45975">
        <ele>151.6</ele>
        <time>2025-01-26T11:14:26.000Z</time>
      </trkpt>
      <trkpt lat="44.01708" lon="4.45972">
        <ele>151.8</ele>
        <time>2025-01-26T11:14:28.000Z</time>
      </trkpt>
      <trkpt lat="44.01707" lon="4.45971">
        <ele>151.8</ele>
        <time>2025-01-26T11:14:29.000Z</time>
      </trkpt>
      <trkpt lat="44.01703" lon="4.45961">
        <ele>151.8</ele>
        <time>2025-01-26T11:14:33.000Z</time>
      </trkpt>
      <trkpt lat="44.01702" lon="4.45958">
        <ele>152</ele>
        <time>2025-01-26T11:14:35.000Z</time>
      </trkpt>
      <trkpt lat="44.01697" lon="4.45953">
        <ele>152.2</ele>
        <time>2025-01-26T11:14:38.000Z</time>
      </trkpt>
      <trkpt lat="44.01693" lon="4.45953">
        <ele>152.8</ele>
        <time>2025-01-26T11:14:40.000Z</time>
      </trkpt>
      <trkpt lat="44.01691" lon="4.45954">
        <ele>153.4</ele>
        <time>2025-01-26T11:14:41.000Z</time>
      </trkpt>
      <trkpt lat="44.01685" lon="4.45954">
        <ele>154.4</ele>
        <time>2025-01-26T11:14:44.000Z</time>
      </trkpt>
      <trkpt lat="44.01683" lon="4.45955">
        <ele>154.4</ele>
        <time>2025-01-26T11:14:45.000Z</time>
      </trkpt>
      <trkpt lat="44.0168" lon="4.45958">
        <ele>154.6</ele>
        <time>2025-01-26T11:14:47.000Z</time>
      </trkpt>
      <trkpt lat="44.01677" lon="4.4596">
        <ele>154.6</ele>
        <time>2025-01-26T11:14:49.000Z</time>
      </trkpt>
      <trkpt lat="44.01672" lon="4.4596">
        <ele>154.8</ele>
        <time>2025-01-26T11:14:52.000Z</time>
      </trkpt>
      <trkpt lat="44.01669" lon="4.45958">
        <ele>155</ele>
        <time>2025-01-26T11:14:54.000Z</time>
      </trkpt>
      <trkpt lat="44.01655" lon="4.45958">
        <ele>155.6</ele>
        <time>2025-01-26T11:14:59.000Z</time>
      </trkpt>
      <trkpt lat="44.01654" lon="4.45958">
        <ele>155.8</ele>
        <time>2025-01-26T11:15:00.000Z</time>
      </trkpt>
      <trkpt lat="44.01644" lon="4.45956">
        <ele>156.2</ele>
        <time>2025-01-26T11:15:05.000Z</time>
      </trkpt>
      <trkpt lat="44.01643" lon="4.45958">
        <ele>156.4</ele>
        <time>2025-01-26T11:15:06.000Z</time>
      </trkpt>
      <trkpt lat="44.01642" lon="4.45962">
        <ele>156.8</ele>
        <time>2025-01-26T11:15:08.000Z</time>
      </trkpt>
      <trkpt lat="44.01641" lon="4.45964">
        <ele>157</ele>
        <time>2025-01-26T11:15:09.000Z</time>
      </trkpt>
      <trkpt lat="44.01639" lon="4.45972">
        <ele>157.8</ele>
        <time>2025-01-26T11:15:12.000Z</time>
      </trkpt>
      <trkpt lat="44.01636" lon="4.45981">
        <ele>158.8</ele>
        <time>2025-01-26T11:15:16.000Z</time>
      </trkpt>
      <trkpt lat="44.01635" lon="4.45987">
        <ele>159</ele>
        <time>2025-01-26T11:15:19.000Z</time>
      </trkpt>
      <trkpt lat="44.01633" lon="4.46004">
        <ele>160</ele>
        <time>2025-01-26T11:15:25.000Z</time>
      </trkpt>
      <trkpt lat="44.01631" lon="4.46024">
        <ele>160.4</ele>
        <time>2025-01-26T11:15:32.000Z</time>
      </trkpt>
      <trkpt lat="44.01627" lon="4.46032">
        <ele>161</ele>
        <time>2025-01-26T11:15:36.000Z</time>
      </trkpt>
      <trkpt lat="44.01626" lon="4.46031">
        <ele>161.2</ele>
        <time>2025-01-26T11:15:37.000Z</time>
      </trkpt>
      <trkpt lat="44.01621" lon="4.46026">
        <ele>162.2</ele>
        <time>2025-01-26T11:15:41.000Z</time>
      </trkpt>
      <trkpt lat="44.0162" lon="4.46025">
        <ele>162.6</ele>
        <time>2025-01-26T11:15:42.000Z</time>
      </trkpt>
      <trkpt lat="44.01616" lon="4.46022">
        <ele>163.2</ele>
        <time>2025-01-26T11:15:45.000Z</time>
      </trkpt>
      <trkpt lat="44.01612" lon="4.4602">
        <ele>163.6</ele>
        <time>2025-01-26T11:15:47.000Z</time>
      </trkpt>
      <trkpt lat="44.01608" lon="4.4602">
        <ele>164.2</ele>
        <time>2025-01-26T11:15:49.000Z</time>
      </trkpt>
      <trkpt lat="44.01603" lon="4.4602">
        <ele>165.4</ele>
        <time>2025-01-26T11:15:52.000Z</time>
      </trkpt>
      <trkpt lat="44.01601" lon="4.46023">
        <ele>165.8</ele>
        <time>2025-01-26T11:15:54.000Z</time>
      </trkpt>
      <trkpt lat="44.01594" lon="4.46037">
        <ele>167.8</ele>
        <time>2025-01-26T11:16:02.000Z</time>
      </trkpt>
      <trkpt lat="44.01594" lon="4.46039">
        <ele>168</ele>
        <time>2025-01-26T11:16:03.000Z</time>
      </trkpt>
      <trkpt lat="44.01591" lon="4.46045">
        <ele>169</ele>
        <time>2025-01-26T11:16:07.000Z</time>
      </trkpt>
      <trkpt lat="44.01587" lon="4.46053">
        <ele>170.2</ele>
        <time>2025-01-26T11:16:12.000Z</time>
      </trkpt>
      <trkpt lat="44.01586" lon="4.46053">
        <ele>170.4</ele>
        <time>2025-01-26T11:16:13.000Z</time>
      </trkpt>
      <trkpt lat="44.01583" lon="4.46055">
        <ele>171.2</ele>
        <time>2025-01-26T11:16:16.000Z</time>
      </trkpt>
      <trkpt lat="44.0158" lon="4.46057">
        <ele>172</ele>
        <time>2025-01-26T11:16:19.000Z</time>
      </trkpt>
      <trkpt lat="44.01579" lon="4.46057">
        <ele>172.2</ele>
        <time>2025-01-26T11:16:20.000Z</time>
      </trkpt>
      <trkpt lat="44.01569" lon="4.46056">
        <ele>173.4</ele>
        <time>2025-01-26T11:16:27.000Z</time>
      </trkpt>
      <trkpt lat="44.01559" lon="4.46058">
        <ele>174.6</ele>
        <time>2025-01-26T11:16:34.000Z</time>
      </trkpt>
      <trkpt lat="44.01551" lon="4.46058">
        <ele>175.6</ele>
        <time>2025-01-26T11:16:39.000Z</time>
      </trkpt>
      <trkpt lat="44.0155" lon="4.46059">
        <ele>175.8</ele>
        <time>2025-01-26T11:16:40.000Z</time>
      </trkpt>
      <trkpt lat="44.01542" lon="4.4606">
        <ele>176.8</ele>
        <time>2025-01-26T11:16:45.000Z</time>
      </trkpt>
      <trkpt lat="44.01539" lon="4.46061">
        <ele>177.4</ele>
        <time>2025-01-26T11:16:47.000Z</time>
      </trkpt>
      <trkpt lat="44.01535" lon="4.46061">
        <ele>178</ele>
        <time>2025-01-26T11:16:50.000Z</time>
      </trkpt>
      <trkpt lat="44.01526" lon="4.46062">
        <ele>179</ele>
        <time>2025-01-26T11:16:56.000Z</time>
      </trkpt>
      <trkpt lat="44.01524" lon="4.46062">
        <ele>179</ele>
        <time>2025-01-26T11:16:57.000Z</time>
      </trkpt>
      <trkpt lat="44.01514" lon="4.46062">
        <ele>179.8</ele>
        <time>2025-01-26T11:17:04.000Z</time>
      </trkpt>
      <trkpt lat="44.01509" lon="4.46062">
        <ele>180.2</ele>
        <time>2025-01-26T11:17:07.000Z</time>
      </trkpt>
      <trkpt lat="44.015" lon="4.46062">
        <ele>181.2</ele>
        <time>2025-01-26T11:17:13.000Z</time>
      </trkpt>
      <trkpt lat="44.01498" lon="4.46063">
        <ele>181.4</ele>
        <time>2025-01-26T11:17:14.000Z</time>
      </trkpt>
      <trkpt lat="44.01489" lon="4.46064">
        <ele>182</ele>
        <time>2025-01-26T11:17:20.000Z</time>
      </trkpt>
      <trkpt lat="44.01485" lon="4.46064">
        <ele>182.4</ele>
        <time>2025-01-26T11:17:22.000Z</time>
      </trkpt>
      <trkpt lat="44.01476" lon="4.46065">
        <ele>183</ele>
        <time>2025-01-26T11:17:27.000Z</time>
      </trkpt>
      <trkpt lat="44.01472" lon="4.46066">
        <ele>183.4</ele>
        <time>2025-01-26T11:17:30.000Z</time>
      </trkpt>
      <trkpt lat="44.01467" lon="4.46067">
        <ele>184</ele>
        <time>2025-01-26T11:17:33.000Z</time>
      </trkpt>
      <trkpt lat="44.01462" lon="4.46066">
        <ele>184.4</ele>
        <time>2025-01-26T11:17:36.000Z</time>
      </trkpt>
      <trkpt lat="44.01459" lon="4.46066">
        <ele>184.6</ele>
        <time>2025-01-26T11:17:38.000Z</time>
      </trkpt>
      <trkpt lat="44.0145" lon="4.46062">
        <ele>185.4</ele>
        <time>2025-01-26T11:17:44.000Z</time>
      </trkpt>
      <trkpt lat="44.01447" lon="4.46059">
        <ele>185.6</ele>
        <time>2025-01-26T11:17:46.000Z</time>
      </trkpt>
      <trkpt lat="44.01446" lon="4.46057">
        <ele>185.6</ele>
        <time>2025-01-26T11:17:47.000Z</time>
      </trkpt>
      <trkpt lat="44.01441" lon="4.46048">
        <ele>186.2</ele>
        <time>2025-01-26T11:17:51.000Z</time>
      </trkpt>
      <trkpt lat="44.01429" lon="4.46025">
        <ele>186.6</ele>
        <time>2025-01-26T11:17:59.000Z</time>
      </trkpt>
      <trkpt lat="44.01418" lon="4.45997">
        <ele>186</ele>
        <time>2025-01-26T11:18:06.000Z</time>
      </trkpt>
      <trkpt lat="44.01403" lon="4.45972">
        <ele>185.2</ele>
        <time>2025-01-26T11:18:14.000Z</time>
      </trkpt>
      <trkpt lat="44.01391" lon="4.4597">
        <ele>185.2</ele>
        <time>2025-01-26T11:18:19.000Z</time>
      </trkpt>
      <trkpt lat="44.01376" lon="4.45967">
        <ele>185.8</ele>
        <time>2025-01-26T11:18:26.000Z</time>
      </trkpt>
      <trkpt lat="44.01358" lon="4.4596">
        <ele>186.8</ele>
        <time>2025-01-26T11:18:32.000Z</time>
      </trkpt>
      <trkpt lat="44.01338" lon="4.45958">
        <ele>186.8</ele>
        <time>2025-01-26T11:18:38.000Z</time>
      </trkpt>
      <trkpt lat="44.01314" lon="4.45951">
        <ele>186.6</ele>
        <time>2025-01-26T11:18:45.000Z</time>
      </trkpt>
      <trkpt lat="44.01292" lon="4.45946">
        <ele>186.4</ele>
        <time>2025-01-26T11:18:51.000Z</time>
      </trkpt>
      <trkpt lat="44.01273" lon="4.45932">
        <ele>186</ele>
        <time>2025-01-26T11:18:56.000Z</time>
      </trkpt>
      <trkpt lat="44.01269" lon="4.45929">
        <ele>186</ele>
        <time>2025-01-26T11:18:57.000Z</time>
      </trkpt>
      <trkpt lat="44.01261" lon="4.45925">
        <ele>186</ele>
        <time>2025-01-26T11:18:59.000Z</time>
      </trkpt>
      <trkpt lat="44.01257" lon="4.45922">
        <ele>185.8</ele>
        <time>2025-01-26T11:19:00.000Z</time>
      </trkpt>
      <trkpt lat="44.01249" lon="4.45916">
        <ele>185.6</ele>
        <time>2025-01-26T11:19:02.000Z</time>
      </trkpt>
      <trkpt lat="44.01241" lon="4.45914">
        <ele>185</ele>
        <time>2025-01-26T11:19:04.000Z</time>
      </trkpt>
      <trkpt lat="44.01238" lon="4.45912">
        <ele>184.8</ele>
        <time>2025-01-26T11:19:05.000Z</time>
      </trkpt>
      <trkpt lat="44.01234" lon="4.45909">
        <ele>184.4</ele>
        <time>2025-01-26T11:19:06.000Z</time>
      </trkpt>
      <trkpt lat="44.01226" lon="4.45904">
        <ele>184.2</ele>
        <time>2025-01-26T11:19:08.000Z</time>
      </trkpt>
      <trkpt lat="44.01217" lon="4.45903">
        <ele>183.6</ele>
        <time>2025-01-26T11:19:10.000Z</time>
      </trkpt>
      <trkpt lat="44.01208" lon="4.45901">
        <ele>183.4</ele>
        <time>2025-01-26T11:19:12.000Z</time>
      </trkpt>
      <trkpt lat="44.01194" lon="4.45886">
        <ele>182.8</ele>
        <time>2025-01-26T11:19:16.000Z</time>
      </trkpt>
      <trkpt lat="44.01188" lon="4.45882">
        <ele>182.4</ele>
        <time>2025-01-26T11:19:18.000Z</time>
      </trkpt>
      <trkpt lat="44.0118" lon="4.4588">
        <ele>182.2</ele>
        <time>2025-01-26T11:19:20.000Z</time>
      </trkpt>
      <trkpt lat="44.01176" lon="4.45878">
        <ele>181.8</ele>
        <time>2025-01-26T11:19:21.000Z</time>
      </trkpt>
      <trkpt lat="44.01164" lon="4.45864">
        <ele>181.4</ele>
        <time>2025-01-26T11:19:25.000Z</time>
      </trkpt>
      <trkpt lat="44.01154" lon="4.45855">
        <ele>181.2</ele>
        <time>2025-01-26T11:19:28.000Z</time>
      </trkpt>
      <trkpt lat="44.0115" lon="4.45853">
        <ele>181</ele>
        <time>2025-01-26T11:19:29.000Z</time>
      </trkpt>
      <trkpt lat="44.01138" lon="4.45844">
        <ele>180</ele>
        <time>2025-01-26T11:19:33.000Z</time>
      </trkpt>
      <trkpt lat="44.01136" lon="4.45841">
        <ele>179.4</ele>
        <time>2025-01-26T11:19:34.000Z</time>
      </trkpt>
      <trkpt lat="44.01133" lon="4.45838">
        <ele>178.8</ele>
        <time>2025-01-26T11:19:35.000Z</time>
      </trkpt>
      <trkpt lat="44.01124" lon="4.45827">
        <ele>178</ele>
        <time>2025-01-26T11:19:39.000Z</time>
      </trkpt>
      <trkpt lat="44.01125" lon="4.45814">
        <ele>178</ele>
        <time>2025-01-26T11:19:42.000Z</time>
      </trkpt>
      <trkpt lat="44.01125" lon="4.45807">
        <ele>178</ele>
        <time>2025-01-26T11:19:44.000Z</time>
      </trkpt>
      <trkpt lat="44.01127" lon="4.45794">
        <ele>178.2</ele>
        <time>2025-01-26T11:19:48.000Z</time>
      </trkpt>
      <trkpt lat="44.01129" lon="4.45785">
        <ele>180.2</ele>
        <time>2025-01-26T11:19:52.000Z</time>
      </trkpt>
      <trkpt lat="44.0113" lon="4.45778">
        <ele>181.4</ele>
        <time>2025-01-26T11:19:55.000Z</time>
      </trkpt>
      <trkpt lat="44.01131" lon="4.45773">
        <ele>182.2</ele>
        <time>2025-01-26T11:19:57.000Z</time>
      </trkpt>
      <trkpt lat="44.0113" lon="4.45768">
        <ele>182.6</ele>
        <time>2025-01-26T11:19:59.000Z</time>
      </trkpt>
      <trkpt lat="44.0113" lon="4.45756">
        <ele>183.6</ele>
        <time>2025-01-26T11:20:04.000Z</time>
      </trkpt>
      <trkpt lat="44.0113" lon="4.45739">
        <ele>184.8</ele>
        <time>2025-01-26T11:20:11.000Z</time>
      </trkpt>
      <trkpt lat="44.01136" lon="4.45724">
        <ele>185.6</ele>
        <time>2025-01-26T11:20:18.000Z</time>
      </trkpt>
      <trkpt lat="44.01138" lon="4.45723">
        <ele>185.8</ele>
        <time>2025-01-26T11:20:19.000Z</time>
      </trkpt>
      <trkpt lat="44.01145" lon="4.45714">
        <ele>186.4</ele>
        <time>2025-01-26T11:20:24.000Z</time>
      </trkpt>
      <trkpt lat="44.01145" lon="4.45711">
        <ele>186.6</ele>
        <time>2025-01-26T11:20:25.000Z</time>
      </trkpt>
      <trkpt lat="44.01144" lon="4.45703">
        <ele>186.8</ele>
        <time>2025-01-26T11:20:28.000Z</time>
      </trkpt>
      <trkpt lat="44.01144" lon="4.457">
        <ele>186.8</ele>
        <time>2025-01-26T11:20:29.000Z</time>
      </trkpt>
      <trkpt lat="44.01147" lon="4.45681">
        <ele>187.6</ele>
        <time>2025-01-26T11:20:36.000Z</time>
      </trkpt>
      <trkpt lat="44.0115" lon="4.45674">
        <ele>188</ele>
        <time>2025-01-26T11:20:39.000Z</time>
      </trkpt>
      <trkpt lat="44.01159" lon="4.45657">
        <ele>188.4</ele>
        <time>2025-01-26T11:20:46.000Z</time>
      </trkpt>
      <trkpt lat="44.0116" lon="4.45645">
        <ele>188.8</ele>
        <time>2025-01-26T11:20:51.000Z</time>
      </trkpt>
      <trkpt lat="44.01153" lon="4.45641">
        <ele>189.2</ele>
        <time>2025-01-26T11:20:55.000Z</time>
      </trkpt>
      <trkpt lat="44.01151" lon="4.45641">
        <ele>189.2</ele>
        <time>2025-01-26T11:20:56.000Z</time>
      </trkpt>
      <trkpt lat="44.01141" lon="4.4564">
        <ele>189.8</ele>
        <time>2025-01-26T11:21:00.000Z</time>
      </trkpt>
      <trkpt lat="44.01136" lon="4.45639">
        <ele>189.8</ele>
        <time>2025-01-26T11:21:02.000Z</time>
      </trkpt>
      <trkpt lat="44.01117" lon="4.45638">
        <ele>189.8</ele>
        <time>2025-01-26T11:21:08.000Z</time>
      </trkpt>
      <trkpt lat="44.01095" lon="4.45641">
        <ele>189.6</ele>
        <time>2025-01-26T11:21:14.000Z</time>
      </trkpt>
      <trkpt lat="44.01066" lon="4.45649">
        <ele>189</ele>
        <time>2025-01-26T11:21:21.000Z</time>
      </trkpt>
      <trkpt lat="44.01058" lon="4.45651">
        <ele>188.6</ele>
        <time>2025-01-26T11:21:23.000Z</time>
      </trkpt>
      <trkpt lat="44.01042" lon="4.45655">
        <ele>188</ele>
        <time>2025-01-26T11:21:27.000Z</time>
      </trkpt>
      <trkpt lat="44.01037" lon="4.45645">
        <ele>187.4</ele>
        <time>2025-01-26T11:21:30.000Z</time>
      </trkpt>
      <trkpt lat="44.01037" lon="4.45622">
        <ele>187.2</ele>
        <time>2025-01-26T11:21:35.000Z</time>
      </trkpt>
      <trkpt lat="44.01041" lon="4.45578">
        <ele>187.2</ele>
        <time>2025-01-26T11:21:43.000Z</time>
      </trkpt>
      <trkpt lat="44.01047" lon="4.45544">
        <ele>187.2</ele>
        <time>2025-01-26T11:21:49.000Z</time>
      </trkpt>
      <trkpt lat="44.01053" lon="4.45498">
        <ele>186.8</ele>
        <time>2025-01-26T11:21:56.000Z</time>
      </trkpt>
      <trkpt lat="44.01059" lon="4.45473">
        <ele>186.6</ele>
        <time>2025-01-26T11:22:00.000Z</time>
      </trkpt>
      <trkpt lat="44.0106" lon="4.45466">
        <ele>186.6</ele>
        <time>2025-01-26T11:22:01.000Z</time>
      </trkpt>
      <trkpt lat="44.01063" lon="4.45454">
        <ele>186.4</ele>
        <time>2025-01-26T11:22:03.000Z</time>
      </trkpt>
      <trkpt lat="44.01069" lon="4.45423">
        <ele>186</ele>
        <time>2025-01-26T11:22:08.000Z</time>
      </trkpt>
      <trkpt lat="44.01073" lon="4.45389">
        <ele>185.8</ele>
        <time>2025-01-26T11:22:14.000Z</time>
      </trkpt>
      <trkpt lat="44.01074" lon="4.45382">
        <ele>185.8</ele>
        <time>2025-01-26T11:22:15.000Z</time>
      </trkpt>
      <trkpt lat="44.01075" lon="4.45352">
        <ele>185.6</ele>
        <time>2025-01-26T11:22:20.000Z</time>
      </trkpt>
      <trkpt lat="44.01078" lon="4.45342">
        <ele>185.6</ele>
        <time>2025-01-26T11:22:22.000Z</time>
      </trkpt>
      <trkpt lat="44.01088" lon="4.45336">
        <ele>185.8</ele>
        <time>2025-01-26T11:22:25.000Z</time>
      </trkpt>
      <trkpt lat="44.01103" lon="4.45335">
        <ele>185.8</ele>
        <time>2025-01-26T11:22:30.000Z</time>
      </trkpt>
      <trkpt lat="44.0111" lon="4.45324">
        <ele>186.2</ele>
        <time>2025-01-26T11:22:34.000Z</time>
      </trkpt>
      <trkpt lat="44.01112" lon="4.45322">
        <ele>186.2</ele>
        <time>2025-01-26T11:22:35.000Z</time>
      </trkpt>
      <trkpt lat="44.01122" lon="4.45306">
        <ele>186.4</ele>
        <time>2025-01-26T11:22:40.000Z</time>
      </trkpt>
      <trkpt lat="44.01137" lon="4.45281">
        <ele>186.6</ele>
        <time>2025-01-26T11:22:47.000Z</time>
      </trkpt>
      <trkpt lat="44.01149" lon="4.45257">
        <ele>187.2</ele>
        <time>2025-01-26T11:22:53.000Z</time>
      </trkpt>
      <trkpt lat="44.01157" lon="4.45243">
        <ele>187.2</ele>
        <time>2025-01-26T11:22:56.000Z</time>
      </trkpt>
      <trkpt lat="44.01165" lon="4.45231">
        <ele>187.4</ele>
        <time>2025-01-26T11:22:59.000Z</time>
      </trkpt>
      <trkpt lat="44.0118" lon="4.45212">
        <ele>187.4</ele>
        <time>2025-01-26T11:23:04.000Z</time>
      </trkpt>
      <trkpt lat="44.01183" lon="4.45208">
        <ele>187.4</ele>
        <time>2025-01-26T11:23:05.000Z</time>
      </trkpt>
      <trkpt lat="44.01194" lon="4.45197">
        <ele>187.4</ele>
        <time>2025-01-26T11:23:08.000Z</time>
      </trkpt>
      <trkpt lat="44.01202" lon="4.4519">
        <ele>187.4</ele>
        <time>2025-01-26T11:23:10.000Z</time>
      </trkpt>
      <trkpt lat="44.01219" lon="4.45169">
        <ele>186.8</ele>
        <time>2025-01-26T11:23:14.000Z</time>
      </trkpt>
      <trkpt lat="44.01222" lon="4.45162">
        <ele>186.6</ele>
        <time>2025-01-26T11:23:15.000Z</time>
      </trkpt>
      <trkpt lat="44.01225" lon="4.45147">
        <ele>186.2</ele>
        <time>2025-01-26T11:23:17.000Z</time>
      </trkpt>
      <trkpt lat="44.01229" lon="4.45136">
        <ele>185.2</ele>
        <time>2025-01-26T11:23:19.000Z</time>
      </trkpt>
      <trkpt lat="44.01233" lon="4.4513">
        <ele>185</ele>
        <time>2025-01-26T11:23:20.000Z</time>
      </trkpt>
      <trkpt lat="44.01238" lon="4.45119">
        <ele>184.4</ele>
        <time>2025-01-26T11:23:22.000Z</time>
      </trkpt>
      <trkpt lat="44.01241" lon="4.45113">
        <ele>184</ele>
        <time>2025-01-26T11:23:23.000Z</time>
      </trkpt>
      <trkpt lat="44.01243" lon="4.45107">
        <ele>183.4</ele>
        <time>2025-01-26T11:23:24.000Z</time>
      </trkpt>
      <trkpt lat="44.01244" lon="4.45102">
        <ele>183</ele>
        <time>2025-01-26T11:23:25.000Z</time>
      </trkpt>
      <trkpt lat="44.01247" lon="4.4509">
        <ele>182.6</ele>
        <time>2025-01-26T11:23:28.000Z</time>
      </trkpt>
      <trkpt lat="44.01252" lon="4.45075">
        <ele>182.6</ele>
        <time>2025-01-26T11:23:33.000Z</time>
      </trkpt>
      <trkpt lat="44.01255" lon="4.45065">
        <ele>184.2</ele>
        <time>2025-01-26T11:23:36.000Z</time>
      </trkpt>
      <trkpt lat="44.01256" lon="4.45057">
        <ele>185.6</ele>
        <time>2025-01-26T11:23:39.000Z</time>
      </trkpt>
      <trkpt lat="44.01257" lon="4.45049">
        <ele>187</ele>
        <time>2025-01-26T11:23:42.000Z</time>
      </trkpt>
      <trkpt lat="44.01257" lon="4.45037">
        <ele>188.2</ele>
        <time>2025-01-26T11:23:46.000Z</time>
      </trkpt>
      <trkpt lat="44.01258" lon="4.45027">
        <ele>189.4</ele>
        <time>2025-01-26T11:23:50.000Z</time>
      </trkpt>
      <trkpt lat="44.01258" lon="4.45019">
        <ele>190.4</ele>
        <time>2025-01-26T11:23:53.000Z</time>
      </trkpt>
      <trkpt lat="44.01258" lon="4.45017">
        <ele>190.6</ele>
        <time>2025-01-26T11:23:54.000Z</time>
      </trkpt>
      <trkpt lat="44.01257" lon="4.45006">
        <ele>191.6</ele>
        <time>2025-01-26T11:23:58.000Z</time>
      </trkpt>
      <trkpt lat="44.01257" lon="4.44999">
        <ele>192.4</ele>
        <time>2025-01-26T11:24:01.000Z</time>
      </trkpt>
      <trkpt lat="44.01257" lon="4.44991">
        <ele>192.8</ele>
        <time>2025-01-26T11:24:04.000Z</time>
      </trkpt>
      <trkpt lat="44.01258" lon="4.44982">
        <ele>192.8</ele>
        <time>2025-01-26T11:24:07.000Z</time>
      </trkpt>
      <trkpt lat="44.0126" lon="4.44961">
        <ele>192.8</ele>
        <time>2025-01-26T11:24:12.000Z</time>
      </trkpt>
      <trkpt lat="44.01263" lon="4.44954">
        <ele>192.6</ele>
        <time>2025-01-26T11:24:14.000Z</time>
      </trkpt>
      <trkpt lat="44.01267" lon="4.44947">
        <ele>192.6</ele>
        <time>2025-01-26T11:24:16.000Z</time>
      </trkpt>
      <trkpt lat="44.01275" lon="4.44942">
        <ele>192</ele>
        <time>2025-01-26T11:24:18.000Z</time>
      </trkpt>
      <trkpt lat="44.01279" lon="4.44939">
        <ele>191.6</ele>
        <time>2025-01-26T11:24:19.000Z</time>
      </trkpt>
      <trkpt lat="44.01282" lon="4.44934">
        <ele>191.2</ele>
        <time>2025-01-26T11:24:20.000Z</time>
      </trkpt>
      <trkpt lat="44.01289" lon="4.44916">
        <ele>190.4</ele>
        <time>2025-01-26T11:24:23.000Z</time>
      </trkpt>
      <trkpt lat="44.01289" lon="4.4491">
        <ele>189.8</ele>
        <time>2025-01-26T11:24:24.000Z</time>
      </trkpt>
      <trkpt lat="44.0129" lon="4.44904">
        <ele>189.2</ele>
        <time>2025-01-26T11:24:25.000Z</time>
      </trkpt>
      <trkpt lat="44.0129" lon="4.44898">
        <ele>188.4</ele>
        <time>2025-01-26T11:24:26.000Z</time>
      </trkpt>
      <trkpt lat="44.01291" lon="4.44891">
        <ele>187.8</ele>
        <time>2025-01-26T11:24:27.000Z</time>
      </trkpt>
      <trkpt lat="44.01293" lon="4.44876">
        <ele>186.4</ele>
        <time>2025-01-26T11:24:29.000Z</time>
      </trkpt>
      <trkpt lat="44.01294" lon="4.44869">
        <ele>184.8</ele>
        <time>2025-01-26T11:24:30.000Z</time>
      </trkpt>
      <trkpt lat="44.01293" lon="4.44856">
        <ele>183.4</ele>
        <time>2025-01-26T11:24:32.000Z</time>
      </trkpt>
      <trkpt lat="44.01291" lon="4.4485">
        <ele>182.8</ele>
        <time>2025-01-26T11:24:33.000Z</time>
      </trkpt>
      <trkpt lat="44.01288" lon="4.44845">
        <ele>181.8</ele>
        <time>2025-01-26T11:24:34.000Z</time>
      </trkpt>
      <trkpt lat="44.01282" lon="4.44837">
        <ele>180</ele>
        <time>2025-01-26T11:24:36.000Z</time>
      </trkpt>
      <trkpt lat="44.01279" lon="4.44835">
        <ele>179.2</ele>
        <time>2025-01-26T11:24:37.000Z</time>
      </trkpt>
      <trkpt lat="44.01277" lon="4.44832">
        <ele>178.4</ele>
        <time>2025-01-26T11:24:38.000Z</time>
      </trkpt>
      <trkpt lat="44.01266" lon="4.44823">
        <ele>177.8</ele>
        <time>2025-01-26T11:24:43.000Z</time>
      </trkpt>
      <trkpt lat="44.01259" lon="4.44821">
        <ele>177.6</ele>
        <time>2025-01-26T11:24:47.000Z</time>
      </trkpt>
      <trkpt lat="44.01248" lon="4.44818">
        <ele>178.8</ele>
        <time>2025-01-26T11:24:52.000Z</time>
      </trkpt>
      <trkpt lat="44.01239" lon="4.44815">
        <ele>179.6</ele>
        <time>2025-01-26T11:24:56.000Z</time>
      </trkpt>
      <trkpt lat="44.01234" lon="4.44811">
        <ele>180.6</ele>
        <time>2025-01-26T11:24:59.000Z</time>
      </trkpt>
      <trkpt lat="44.01228" lon="4.44806">
        <ele>181.8</ele>
        <time>2025-01-26T11:25:03.000Z</time>
      </trkpt>
      <trkpt lat="44.01222" lon="4.44803">
        <ele>183</ele>
        <time>2025-01-26T11:25:06.000Z</time>
      </trkpt>
      <trkpt lat="44.01221" lon="4.44803">
        <ele>183.4</ele>
        <time>2025-01-26T11:25:07.000Z</time>
      </trkpt>
      <trkpt lat="44.01215" lon="4.44803">
        <ele>184.2</ele>
        <time>2025-01-26T11:25:10.000Z</time>
      </trkpt>
      <trkpt lat="44.01208" lon="4.44801">
        <ele>184.8</ele>
        <time>2025-01-26T11:25:14.000Z</time>
      </trkpt>
      <trkpt lat="44.01204" lon="4.44797">
        <ele>185.4</ele>
        <time>2025-01-26T11:25:17.000Z</time>
      </trkpt>
      <trkpt lat="44.01196" lon="4.44792">
        <ele>186</ele>
        <time>2025-01-26T11:25:22.000Z</time>
      </trkpt>
      <trkpt lat="44.01185" lon="4.44791">
        <ele>186.4</ele>
        <time>2025-01-26T11:25:28.000Z</time>
      </trkpt>
      <trkpt lat="44.01184" lon="4.44791">
        <ele>186.6</ele>
        <time>2025-01-26T11:25:29.000Z</time>
      </trkpt>
      <trkpt lat="44.01173" lon="4.44785">
        <ele>187</ele>
        <time>2025-01-26T11:25:35.000Z</time>
      </trkpt>
      <trkpt lat="44.0117" lon="4.44781">
        <ele>187.2</ele>
        <time>2025-01-26T11:25:37.000Z</time>
      </trkpt>
      <trkpt lat="44.01168" lon="4.44779">
        <ele>187.4</ele>
        <time>2025-01-26T11:25:39.000Z</time>
      </trkpt>
      <trkpt lat="44.01167" lon="4.44779">
        <ele>187.6</ele>
        <time>2025-01-26T11:25:40.000Z</time>
      </trkpt>
      <trkpt lat="44.01167" lon="4.44778">
        <ele>187.6</ele>
        <time>2025-01-26T11:25:42.000Z</time>
      </trkpt>
      <trkpt lat="44.01165" lon="4.44776">
        <ele>187.8</ele>
        <time>2025-01-26T11:26:01.000Z</time>
      </trkpt>
      <trkpt lat="44.01164" lon="4.44774">
        <ele>187.8</ele>
        <time>2025-01-26T11:26:05.000Z</time>
      </trkpt>
      <trkpt lat="44.01164" lon="4.44773">
        <ele>187.6</ele>
        <time>2025-01-26T11:26:13.000Z</time>
      </trkpt>
      <trkpt lat="44.01164" lon="4.44772">
        <ele>187.6</ele>
        <time>2025-01-26T11:26:15.000Z</time>
      </trkpt>
      <trkpt lat="44.01163" lon="4.44769">
        <ele>187.6</ele>
        <time>2025-01-26T11:27:16.000Z</time>
      </trkpt>
      <trkpt lat="44.0116" lon="4.44762">
        <ele>187.6</ele>
        <time>2025-01-26T11:27:19.000Z</time>
      </trkpt>
      <trkpt lat="44.01149" lon="4.4475">
        <ele>187.6</ele>
        <time>2025-01-26T11:27:24.000Z</time>
      </trkpt>
      <trkpt lat="44.01142" lon="4.44732">
        <ele>186.4</ele>
        <time>2025-01-26T11:27:29.000Z</time>
      </trkpt>
      <trkpt lat="44.01143" lon="4.44727">
        <ele>186.4</ele>
        <time>2025-01-26T11:27:30.000Z</time>
      </trkpt>
      <trkpt lat="44.0115" lon="4.44707">
        <ele>186.2</ele>
        <time>2025-01-26T11:27:34.000Z</time>
      </trkpt>
      <trkpt lat="44.01161" lon="4.447">
        <ele>185.2</ele>
        <time>2025-01-26T11:27:38.000Z</time>
      </trkpt>
      <trkpt lat="44.01164" lon="4.447">
        <ele>184.8</ele>
        <time>2025-01-26T11:27:39.000Z</time>
      </trkpt>
      <trkpt lat="44.01167" lon="4.447">
        <ele>184.2</ele>
        <time>2025-01-26T11:27:40.000Z</time>
      </trkpt>
      <trkpt lat="44.01173" lon="4.447">
        <ele>182.8</ele>
        <time>2025-01-26T11:27:42.000Z</time>
      </trkpt>
      <trkpt lat="44.01175" lon="4.447">
        <ele>182</ele>
        <time>2025-01-26T11:27:43.000Z</time>
      </trkpt>
      <trkpt lat="44.01177" lon="4.44698">
        <ele>181.2</ele>
        <time>2025-01-26T11:27:44.000Z</time>
      </trkpt>
      <trkpt lat="44.01181" lon="4.44691">
        <ele>180</ele>
        <time>2025-01-26T11:27:46.000Z</time>
      </trkpt>
      <trkpt lat="44.01183" lon="4.44683">
        <ele>179.4</ele>
        <time>2025-01-26T11:27:48.000Z</time>
      </trkpt>
      <trkpt lat="44.01181" lon="4.44661">
        <ele>179.2</ele>
        <time>2025-01-26T11:27:54.000Z</time>
      </trkpt>
      <trkpt lat="44.01181" lon="4.44638">
        <ele>180.8</ele>
        <time>2025-01-26T11:28:01.000Z</time>
      </trkpt>
      <trkpt lat="44.01181" lon="4.44635">
        <ele>181</ele>
        <time>2025-01-26T11:28:02.000Z</time>
      </trkpt>
      <trkpt lat="44.01174" lon="4.44625">
        <ele>182.2</ele>
        <time>2025-01-26T11:28:06.000Z</time>
      </trkpt>
      <trkpt lat="44.0117" lon="4.44614">
        <ele>182.4</ele>
        <time>2025-01-26T11:28:10.000Z</time>
      </trkpt>
      <trkpt lat="44.01167" lon="4.44606">
        <ele>182.6</ele>
        <time>2025-01-26T11:28:13.000Z</time>
      </trkpt>
      <trkpt lat="44.01165" lon="4.446">
        <ele>182.6</ele>
        <time>2025-01-26T11:28:15.000Z</time>
      </trkpt>
      <trkpt lat="44.01163" lon="4.44593">
        <ele>182.6</ele>
        <time>2025-01-26T11:28:18.000Z</time>
      </trkpt>
      <trkpt lat="44.01157" lon="4.44584">
        <ele>181.6</ele>
        <time>2025-01-26T11:28:23.000Z</time>
      </trkpt>
      <trkpt lat="44.01154" lon="4.44583">
        <ele>181</ele>
        <time>2025-01-26T11:28:26.000Z</time>
      </trkpt>
      <trkpt lat="44.01152" lon="4.44582">
        <ele>180.6</ele>
        <time>2025-01-26T11:28:28.000Z</time>
      </trkpt>
      <trkpt lat="44.0115" lon="4.44579">
        <ele>180.2</ele>
        <time>2025-01-26T11:28:31.000Z</time>
      </trkpt>
      <trkpt lat="44.01149" lon="4.44574">
        <ele>180</ele>
        <time>2025-01-26T11:28:36.000Z</time>
      </trkpt>
      <trkpt lat="44.01148" lon="4.44573">
        <ele>179.8</ele>
        <time>2025-01-26T11:28:38.000Z</time>
      </trkpt>
      <trkpt lat="44.01148" lon="4.44568">
        <ele>179.8</ele>
        <time>2025-01-26T11:28:43.000Z</time>
      </trkpt>
      <trkpt lat="44.01146" lon="4.44559">
        <ele>179.6</ele>
        <time>2025-01-26T11:28:47.000Z</time>
      </trkpt>
      <trkpt lat="44.01145" lon="4.44541">
        <ele>179.8</ele>
        <time>2025-01-26T11:28:54.000Z</time>
      </trkpt>
      <trkpt lat="44.01153" lon="4.44532">
        <ele>180.4</ele>
        <time>2025-01-26T11:28:59.000Z</time>
      </trkpt>
      <trkpt lat="44.01157" lon="4.44527">
        <ele>181</ele>
        <time>2025-01-26T11:29:02.000Z</time>
      </trkpt>
      <trkpt lat="44.01157" lon="4.44522">
        <ele>181.2</ele>
        <time>2025-01-26T11:29:04.000Z</time>
      </trkpt>
      <trkpt lat="44.01153" lon="4.44515">
        <ele>181.4</ele>
        <time>2025-01-26T11:29:09.000Z</time>
      </trkpt>
      <trkpt lat="44.0115" lon="4.44509">
        <ele>181.4</ele>
        <time>2025-01-26T11:29:12.000Z</time>
      </trkpt>
      <trkpt lat="44.01148" lon="4.44502">
        <ele>182.2</ele>
        <time>2025-01-26T11:29:15.000Z</time>
      </trkpt>
      <trkpt lat="44.01149" lon="4.44494">
        <ele>183.2</ele>
        <time>2025-01-26T11:29:18.000Z</time>
      </trkpt>
      <trkpt lat="44.0115" lon="4.44489">
        <ele>183.8</ele>
        <time>2025-01-26T11:29:20.000Z</time>
      </trkpt>
      <trkpt lat="44.0115" lon="4.44481">
        <ele>184.6</ele>
        <time>2025-01-26T11:29:23.000Z</time>
      </trkpt>
      <trkpt lat="44.01149" lon="4.44474">
        <ele>185.2</ele>
        <time>2025-01-26T11:29:26.000Z</time>
      </trkpt>
      <trkpt lat="44.01148" lon="4.4446">
        <ele>185.6</ele>
        <time>2025-01-26T11:29:31.000Z</time>
      </trkpt>
      <trkpt lat="44.01148" lon="4.44455">
        <ele>185.6</ele>
        <time>2025-01-26T11:29:33.000Z</time>
      </trkpt>
      <trkpt lat="44.01151" lon="4.44435">
        <ele>186.2</ele>
        <time>2025-01-26T11:29:40.000Z</time>
      </trkpt>
      <trkpt lat="44.01152" lon="4.44432">
        <ele>186.4</ele>
        <time>2025-01-26T11:29:42.000Z</time>
      </trkpt>
      <trkpt lat="44.01156" lon="4.44428">
        <ele>186.4</ele>
        <time>2025-01-26T11:29:45.000Z</time>
      </trkpt>
      <trkpt lat="44.01164" lon="4.44416">
        <ele>186.4</ele>
        <time>2025-01-26T11:29:50.000Z</time>
      </trkpt>
      <trkpt lat="44.01173" lon="4.44395">
        <ele>186.4</ele>
        <time>2025-01-26T11:29:55.000Z</time>
      </trkpt>
      <trkpt lat="44.01178" lon="4.44384">
        <ele>186</ele>
        <time>2025-01-26T11:29:57.000Z</time>
      </trkpt>
      <trkpt lat="44.01187" lon="4.44367">
        <ele>185.4</ele>
        <time>2025-01-26T11:30:00.000Z</time>
      </trkpt>
      <trkpt lat="44.01196" lon="4.44357">
        <ele>184.8</ele>
        <time>2025-01-26T11:30:02.000Z</time>
      </trkpt>
      <trkpt lat="44.01206" lon="4.44349">
        <ele>184.2</ele>
        <time>2025-01-26T11:30:04.000Z</time>
      </trkpt>
      <trkpt lat="44.01211" lon="4.44343">
        <ele>183.8</ele>
        <time>2025-01-26T11:30:05.000Z</time>
      </trkpt>
      <trkpt lat="44.01219" lon="4.44323">
        <ele>183</ele>
        <time>2025-01-26T11:30:08.000Z</time>
      </trkpt>
      <trkpt lat="44.01226" lon="4.4431">
        <ele>181.6</ele>
        <time>2025-01-26T11:30:11.000Z</time>
      </trkpt>
      <trkpt lat="44.01227" lon="4.44303">
        <ele>180.6</ele>
        <time>2025-01-26T11:30:13.000Z</time>
      </trkpt>
      <trkpt lat="44.01225" lon="4.44297">
        <ele>179.4</ele>
        <time>2025-01-26T11:30:15.000Z</time>
      </trkpt>
      <trkpt lat="44.01223" lon="4.44289">
        <ele>179.2</ele>
        <time>2025-01-26T11:30:17.000Z</time>
      </trkpt>
      <trkpt lat="44.01215" lon="4.44278">
        <ele>179</ele>
        <time>2025-01-26T11:30:21.000Z</time>
      </trkpt>
      <trkpt lat="44.01202" lon="4.44275">
        <ele>178.8</ele>
        <time>2025-01-26T11:30:26.000Z</time>
      </trkpt>
      <trkpt lat="44.01199" lon="4.4428">
        <ele>179</ele>
        <time>2025-01-26T11:30:31.000Z</time>
      </trkpt>
      <trkpt lat="44.01199" lon="4.4428">
        <ele>179</ele>
        <time>2025-01-26T11:30:32.000Z</time>
      </trkpt>
      <trkpt lat="44.01198" lon="4.44277">
        <ele>179</ele>
        <time>2025-01-26T11:30:38.000Z</time>
      </trkpt>
      <trkpt lat="44.01197" lon="4.44275">
        <ele>179</ele>
        <time>2025-01-26T11:30:39.000Z</time>
      </trkpt>
      <trkpt lat="44.01195" lon="4.44272">
        <ele>179</ele>
        <time>2025-01-26T11:30:41.000Z</time>
      </trkpt>
      <trkpt lat="44.01186" lon="4.44268">
        <ele>179</ele>
        <time>2025-01-26T11:30:45.000Z</time>
      </trkpt>
      <trkpt lat="44.0118" lon="4.44265">
        <ele>178.8</ele>
        <time>2025-01-26T11:30:47.000Z</time>
      </trkpt>
      <trkpt lat="44.01174" lon="4.44263">
        <ele>178.6</ele>
        <time>2025-01-26T11:30:49.000Z</time>
      </trkpt>
      <trkpt lat="44.01163" lon="4.4426">
        <ele>178.4</ele>
        <time>2025-01-26T11:30:53.000Z</time>
      </trkpt>
      <trkpt lat="44.01151" lon="4.44263">
        <ele>178.4</ele>
        <time>2025-01-26T11:30:57.000Z</time>
      </trkpt>
      <trkpt lat="44.01149" lon="4.44265">
        <ele>178.4</ele>
        <time>2025-01-26T11:30:58.000Z</time>
      </trkpt>
      <trkpt lat="44.01142" lon="4.44279">
        <ele>178.4</ele>
        <time>2025-01-26T11:31:02.000Z</time>
      </trkpt>
      <trkpt lat="44.01138" lon="4.44285">
        <ele>178.4</ele>
        <time>2025-01-26T11:31:04.000Z</time>
      </trkpt>
      <trkpt lat="44.01135" lon="4.44293">
        <ele>178.6</ele>
        <time>2025-01-26T11:31:07.000Z</time>
      </trkpt>
      <trkpt lat="44.01134" lon="4.44296">
        <ele>178.8</ele>
        <time>2025-01-26T11:31:08.000Z</time>
      </trkpt>
      <trkpt lat="44.01134" lon="4.44303">
        <ele>179.2</ele>
        <time>2025-01-26T11:31:11.000Z</time>
      </trkpt>
      <trkpt lat="44.01132" lon="4.44308">
        <ele>179.8</ele>
        <time>2025-01-26T11:31:13.000Z</time>
      </trkpt>
      <trkpt lat="44.01129" lon="4.44311">
        <ele>180.6</ele>
        <time>2025-01-26T11:31:15.000Z</time>
      </trkpt>
      <trkpt lat="44.01126" lon="4.44311">
        <ele>181</ele>
        <time>2025-01-26T11:31:16.000Z</time>
      </trkpt>
      <trkpt lat="44.01121" lon="4.44311">
        <ele>181.6</ele>
        <time>2025-01-26T11:31:18.000Z</time>
      </trkpt>
      <trkpt lat="44.01116" lon="4.44311">
        <ele>181.8</ele>
        <time>2025-01-26T11:31:20.000Z</time>
      </trkpt>
      <trkpt lat="44.01109" lon="4.44313">
        <ele>182</ele>
        <time>2025-01-26T11:31:23.000Z</time>
      </trkpt>
      <trkpt lat="44.01101" lon="4.44313">
        <ele>182.4</ele>
        <time>2025-01-26T11:31:27.000Z</time>
      </trkpt>
      <trkpt lat="44.01095" lon="4.44313">
        <ele>182.8</ele>
        <time>2025-01-26T11:31:30.000Z</time>
      </trkpt>
      <trkpt lat="44.01091" lon="4.44317">
        <ele>182.8</ele>
        <time>2025-01-26T11:31:32.000Z</time>
      </trkpt>
      <trkpt lat="44.01083" lon="4.44324">
        <ele>183</ele>
        <time>2025-01-26T11:31:37.000Z</time>
      </trkpt>
      <trkpt lat="44.01082" lon="4.44329">
        <ele>183.2</ele>
        <time>2025-01-26T11:31:39.000Z</time>
      </trkpt>
      <trkpt lat="44.01082" lon="4.44331">
        <ele>183.2</ele>
        <time>2025-01-26T11:31:40.000Z</time>
      </trkpt>
      <trkpt lat="44.01082" lon="4.44336">
        <ele>183.6</ele>
        <time>2025-01-26T11:31:42.000Z</time>
      </trkpt>
      <trkpt lat="44.01083" lon="4.44345">
        <ele>184.2</ele>
        <time>2025-01-26T11:31:45.000Z</time>
      </trkpt>
      <trkpt lat="44.01083" lon="4.44357">
        <ele>184.6</ele>
        <time>2025-01-26T11:31:49.000Z</time>
      </trkpt>
      <trkpt lat="44.01082" lon="4.44374">
        <ele>185.4</ele>
        <time>2025-01-26T11:31:54.000Z</time>
      </trkpt>
      <trkpt lat="44.01082" lon="4.44381">
        <ele>185.6</ele>
        <time>2025-01-26T11:31:56.000Z</time>
      </trkpt>
      <trkpt lat="44.0108" lon="4.44401">
        <ele>186.4</ele>
        <time>2025-01-26T11:32:02.000Z</time>
      </trkpt>
      <trkpt lat="44.0108" lon="4.44404">
        <ele>186.6</ele>
        <time>2025-01-26T11:32:03.000Z</time>
      </trkpt>
      <trkpt lat="44.01079" lon="4.44421">
        <ele>187.4</ele>
        <time>2025-01-26T11:32:08.000Z</time>
      </trkpt>
      <trkpt lat="44.01078" lon="4.44431">
        <ele>188.4</ele>
        <time>2025-01-26T11:32:11.000Z</time>
      </trkpt>
      <trkpt lat="44.01078" lon="4.44438">
        <ele>188.6</ele>
        <time>2025-01-26T11:32:13.000Z</time>
      </trkpt>
      <trkpt lat="44.01077" lon="4.4445">
        <ele>188.8</ele>
        <time>2025-01-26T11:32:16.000Z</time>
      </trkpt>
      <trkpt lat="44.01075" lon="4.44453">
        <ele>189</ele>
        <time>2025-01-26T11:32:17.000Z</time>
      </trkpt>
      <trkpt lat="44.01066" lon="4.44458">
        <ele>189.4</ele>
        <time>2025-01-26T11:32:21.000Z</time>
      </trkpt>
      <trkpt lat="44.01056" lon="4.44463">
        <ele>189.6</ele>
        <time>2025-01-26T11:32:25.000Z</time>
      </trkpt>
      <trkpt lat="44.01049" lon="4.44466">
        <ele>189.8</ele>
        <time>2025-01-26T11:32:28.000Z</time>
      </trkpt>
      <trkpt lat="44.01029" lon="4.44472">
        <ele>190.6</ele>
        <time>2025-01-26T11:32:36.000Z</time>
      </trkpt>
      <trkpt lat="44.01027" lon="4.44474">
        <ele>190.6</ele>
        <time>2025-01-26T11:32:37.000Z</time>
      </trkpt>
      <trkpt lat="44.01012" lon="4.44477">
        <ele>191.2</ele>
        <time>2025-01-26T11:32:44.000Z</time>
      </trkpt>
      <trkpt lat="44.00994" lon="4.44487">
        <ele>191.6</ele>
        <time>2025-01-26T11:32:51.000Z</time>
      </trkpt>
      <trkpt lat="44.00987" lon="4.44504">
        <ele>191.8</ele>
        <time>2025-01-26T11:32:56.000Z</time>
      </trkpt>
      <trkpt lat="44.00985" lon="4.44512">
        <ele>191.8</ele>
        <time>2025-01-26T11:32:58.000Z</time>
      </trkpt>
      <trkpt lat="44.00975" lon="4.44526">
        <ele>192.2</ele>
        <time>2025-01-26T11:33:03.000Z</time>
      </trkpt>
      <trkpt lat="44.0096" lon="4.44531">
        <ele>193</ele>
        <time>2025-01-26T11:33:08.000Z</time>
      </trkpt>
      <trkpt lat="44.00951" lon="4.44535">
        <ele>193.2</ele>
        <time>2025-01-26T11:33:11.000Z</time>
      </trkpt>
      <trkpt lat="44.00939" lon="4.44547">
        <ele>193.4</ele>
        <time>2025-01-26T11:33:16.000Z</time>
      </trkpt>
      <trkpt lat="44.00928" lon="4.44542">
        <ele>193.6</ele>
        <time>2025-01-26T11:33:20.000Z</time>
      </trkpt>
      <trkpt lat="44.00923" lon="4.44527">
        <ele>193.8</ele>
        <time>2025-01-26T11:33:24.000Z</time>
      </trkpt>
      <trkpt lat="44.0092" lon="4.445">
        <ele>193.8</ele>
        <time>2025-01-26T11:33:29.000Z</time>
      </trkpt>
      <trkpt lat="44.00919" lon="4.44494">
        <ele>193.8</ele>
        <time>2025-01-26T11:33:30.000Z</time>
      </trkpt>
      <trkpt lat="44.00915" lon="4.44466">
        <ele>193.8</ele>
        <time>2025-01-26T11:33:34.000Z</time>
      </trkpt>
      <trkpt lat="44.00912" lon="4.4445">
        <ele>193.8</ele>
        <time>2025-01-26T11:33:36.000Z</time>
      </trkpt>
      <trkpt lat="44.00902" lon="4.44401">
        <ele>192.4</ele>
        <time>2025-01-26T11:33:42.000Z</time>
      </trkpt>
      <trkpt lat="44.00901" lon="4.44392">
        <ele>192</ele>
        <time>2025-01-26T11:33:43.000Z</time>
      </trkpt>
      <trkpt lat="44.00897" lon="4.44358">
        <ele>191.2</ele>
        <time>2025-01-26T11:33:47.000Z</time>
      </trkpt>
      <trkpt lat="44.00897" lon="4.44349">
        <ele>190.8</ele>
        <time>2025-01-26T11:33:48.000Z</time>
      </trkpt>
      <trkpt lat="44.009" lon="4.44321">
        <ele>190</ele>
        <time>2025-01-26T11:33:51.000Z</time>
      </trkpt>
      <trkpt lat="44.00901" lon="4.44312">
        <ele>189.6</ele>
        <time>2025-01-26T11:33:52.000Z</time>
      </trkpt>
      <trkpt lat="44.00902" lon="4.44302">
        <ele>189.4</ele>
        <time>2025-01-26T11:33:53.000Z</time>
      </trkpt>
      <trkpt lat="44.00903" lon="4.44283">
        <ele>188.8</ele>
        <time>2025-01-26T11:33:55.000Z</time>
      </trkpt>
      <trkpt lat="44.00902" lon="4.44275">
        <ele>188.4</ele>
        <time>2025-01-26T11:33:56.000Z</time>
      </trkpt>
      <trkpt lat="44.00901" lon="4.44266">
        <ele>188</ele>
        <time>2025-01-26T11:33:57.000Z</time>
      </trkpt>
      <trkpt lat="44.00898" lon="4.44244">
        <ele>187.4</ele>
        <time>2025-01-26T11:34:00.000Z</time>
      </trkpt>
      <trkpt lat="44.00896" lon="4.44237">
        <ele>187.2</ele>
        <time>2025-01-26T11:34:01.000Z</time>
      </trkpt>
      <trkpt lat="44.00893" lon="4.4423">
        <ele>187</ele>
        <time>2025-01-26T11:34:02.000Z</time>
      </trkpt>
      <trkpt lat="44.00884" lon="4.44205">
        <ele>186.8</ele>
        <time>2025-01-26T11:34:06.000Z</time>
      </trkpt>
      <trkpt lat="44.00883" lon="4.44199">
        <ele>186.8</ele>
        <time>2025-01-26T11:34:07.000Z</time>
      </trkpt>
      <trkpt lat="44.00887" lon="4.44169">
        <ele>187</ele>
        <time>2025-01-26T11:34:12.000Z</time>
      </trkpt>
      <trkpt lat="44.00897" lon="4.44117">
        <ele>187.6</ele>
        <time>2025-01-26T11:34:20.000Z</time>
      </trkpt>
      <trkpt lat="44.00903" lon="4.44081">
        <ele>188.2</ele>
        <time>2025-01-26T11:34:26.000Z</time>
      </trkpt>
      <trkpt lat="44.00904" lon="4.44075">
        <ele>188.4</ele>
        <time>2025-01-26T11:34:27.000Z</time>
      </trkpt>
      <trkpt lat="44.00908" lon="4.44046">
        <ele>189.2</ele>
        <time>2025-01-26T11:34:33.000Z</time>
      </trkpt>
      <trkpt lat="44.0091" lon="4.44036">
        <ele>189.4</ele>
        <time>2025-01-26T11:34:35.000Z</time>
      </trkpt>
      <trkpt lat="44.0091" lon="4.44022">
        <ele>190.4</ele>
        <time>2025-01-26T11:34:39.000Z</time>
      </trkpt>
      <trkpt lat="44.00915" lon="4.43995">
        <ele>191.6</ele>
        <time>2025-01-26T11:34:46.000Z</time>
      </trkpt>
      <trkpt lat="44.00925" lon="4.43958">
        <ele>191.6</ele>
        <time>2025-01-26T11:34:53.000Z</time>
      </trkpt>
      <trkpt lat="44.00927" lon="4.43952">
        <ele>191.6</ele>
        <time>2025-01-26T11:34:54.000Z</time>
      </trkpt>
      <trkpt lat="44.00935" lon="4.43932">
        <ele>191.6</ele>
        <time>2025-01-26T11:34:57.000Z</time>
      </trkpt>
      <trkpt lat="44.00937" lon="4.43924">
        <ele>191.4</ele>
        <time>2025-01-26T11:34:58.000Z</time>
      </trkpt>
      <trkpt lat="44.00949" lon="4.43895">
        <ele>190.4</ele>
        <time>2025-01-26T11:35:02.000Z</time>
      </trkpt>
      <trkpt lat="44.00956" lon="4.43883">
        <ele>189.4</ele>
        <time>2025-01-26T11:35:04.000Z</time>
      </trkpt>
      <trkpt lat="44.00959" lon="4.43877">
        <ele>188.4</ele>
        <time>2025-01-26T11:35:05.000Z</time>
      </trkpt>
      <trkpt lat="44.00969" lon="4.4386">
        <ele>187.4</ele>
        <time>2025-01-26T11:35:08.000Z</time>
      </trkpt>
      <trkpt lat="44.0098" lon="4.43842">
        <ele>187.2</ele>
        <time>2025-01-26T11:35:11.000Z</time>
      </trkpt>
      <trkpt lat="44.00982" lon="4.43835">
        <ele>187.2</ele>
        <time>2025-01-26T11:35:12.000Z</time>
      </trkpt>
      <trkpt lat="44.00987" lon="4.43812">
        <ele>187.2</ele>
        <time>2025-01-26T11:35:16.000Z</time>
      </trkpt>
      <trkpt lat="44.00994" lon="4.43799">
        <ele>187.2</ele>
        <time>2025-01-26T11:35:19.000Z</time>
      </trkpt>
      <trkpt lat="44.00998" lon="4.43795">
        <ele>187.4</ele>
        <time>2025-01-26T11:35:20.000Z</time>
      </trkpt>
      <trkpt lat="44.0101" lon="4.4378">
        <ele>188.4</ele>
        <time>2025-01-26T11:35:24.000Z</time>
      </trkpt>
      <trkpt lat="44.01018" lon="4.43773">
        <ele>189</ele>
        <time>2025-01-26T11:35:26.000Z</time>
      </trkpt>
      <trkpt lat="44.01047" lon="4.43744">
        <ele>189.4</ele>
        <time>2025-01-26T11:35:33.000Z</time>
      </trkpt>
      <trkpt lat="44.01055" lon="4.43734">
        <ele>189.2</ele>
        <time>2025-01-26T11:35:35.000Z</time>
      </trkpt>
      <trkpt lat="44.01065" lon="4.43717">
        <ele>188.8</ele>
        <time>2025-01-26T11:35:38.000Z</time>
      </trkpt>
      <trkpt lat="44.01073" lon="4.43708">
        <ele>188.8</ele>
        <time>2025-01-26T11:35:40.000Z</time>
      </trkpt>
      <trkpt lat="44.01082" lon="4.43706">
        <ele>188.8</ele>
        <time>2025-01-26T11:35:42.000Z</time>
      </trkpt>
      <trkpt lat="44.01095" lon="4.43712">
        <ele>188.8</ele>
        <time>2025-01-26T11:35:45.000Z</time>
      </trkpt>
      <trkpt lat="44.01099" lon="4.43715">
        <ele>188.6</ele>
        <time>2025-01-26T11:35:46.000Z</time>
      </trkpt>
      <trkpt lat="44.0113" lon="4.4373">
        <ele>188.6</ele>
        <time>2025-01-26T11:35:53.000Z</time>
      </trkpt>
      <trkpt lat="44.01147" lon="4.43737">
        <ele>188.2</ele>
        <time>2025-01-26T11:35:58.000Z</time>
      </trkpt>
      <trkpt lat="44.01148" lon="4.43738">
        <ele>187.8</ele>
        <time>2025-01-26T11:36:01.000Z</time>
      </trkpt>
      <trkpt lat="44.0115" lon="4.43738">
        <ele>188</ele>
        <time>2025-01-26T11:36:25.000Z</time>
      </trkpt>
      <trkpt lat="44.01151" lon="4.43738">
        <ele>188</ele>
        <time>2025-01-26T11:36:26.000Z</time>
      </trkpt>
      <trkpt lat="44.01162" lon="4.43741">
        <ele>188</ele>
        <time>2025-01-26T11:36:31.000Z</time>
      </trkpt>
      <trkpt lat="44.01182" lon="4.43747">
        <ele>187.8</ele>
        <time>2025-01-26T11:36:36.000Z</time>
      </trkpt>
      <trkpt lat="44.01187" lon="4.43748">
        <ele>187.6</ele>
        <time>2025-01-26T11:36:37.000Z</time>
      </trkpt>
      <trkpt lat="44.0121" lon="4.43751">
        <ele>186.6</ele>
        <time>2025-01-26T11:36:41.000Z</time>
      </trkpt>
      <trkpt lat="44.01216" lon="4.43752">
        <ele>186.4</ele>
        <time>2025-01-26T11:36:42.000Z</time>
      </trkpt>
      <trkpt lat="44.01229" lon="4.43753">
        <ele>185.6</ele>
        <time>2025-01-26T11:36:44.000Z</time>
      </trkpt>
      <trkpt lat="44.01248" lon="4.43753">
        <ele>184.4</ele>
        <time>2025-01-26T11:36:47.000Z</time>
      </trkpt>
      <trkpt lat="44.01255" lon="4.43752">
        <ele>184</ele>
        <time>2025-01-26T11:36:48.000Z</time>
      </trkpt>
      <trkpt lat="44.0126" lon="4.43749">
        <ele>183.4</ele>
        <time>2025-01-26T11:36:49.000Z</time>
      </trkpt>
      <trkpt lat="44.01269" lon="4.43742">
        <ele>182.6</ele>
        <time>2025-01-26T11:36:51.000Z</time>
      </trkpt>
      <trkpt lat="44.01275" lon="4.43735">
        <ele>182.4</ele>
        <time>2025-01-26T11:36:53.000Z</time>
      </trkpt>
      <trkpt lat="44.01282" lon="4.43727">
        <ele>182.4</ele>
        <time>2025-01-26T11:36:56.000Z</time>
      </trkpt>
      <trkpt lat="44.01292" lon="4.43715">
        <ele>183.2</ele>
        <time>2025-01-26T11:37:02.000Z</time>
      </trkpt>
      <trkpt lat="44.01299" lon="4.43707">
        <ele>184.4</ele>
        <time>2025-01-26T11:37:06.000Z</time>
      </trkpt>
      <trkpt lat="44.01305" lon="4.43697">
        <ele>185</ele>
        <time>2025-01-26T11:37:10.000Z</time>
      </trkpt>
      <trkpt lat="44.01306" lon="4.4368">
        <ele>185.4</ele>
        <time>2025-01-26T11:37:15.000Z</time>
      </trkpt>
      <trkpt lat="44.01304" lon="4.4366">
        <ele>185.4</ele>
        <time>2025-01-26T11:37:20.000Z</time>
      </trkpt>
      <trkpt lat="44.01293" lon="4.43645">
        <ele>185.2</ele>
        <time>2025-01-26T11:37:25.000Z</time>
      </trkpt>
      <trkpt lat="44.01285" lon="4.43636">
        <ele>185.2</ele>
        <time>2025-01-26T11:37:31.000Z</time>
      </trkpt>
      <trkpt lat="44.01282" lon="4.43632">
        <ele>185.8</ele>
        <time>2025-01-26T11:37:34.000Z</time>
      </trkpt>
      <trkpt lat="44.01278" lon="4.43626">
        <ele>187.2</ele>
        <time>2025-01-26T11:37:38.000Z</time>
      </trkpt>
      <trkpt lat="44.01277" lon="4.43624">
        <ele>187.4</ele>
        <time>2025-01-26T11:37:39.000Z</time>
      </trkpt>
      <trkpt lat="44.01274" lon="4.43621">
        <ele>188.2</ele>
        <time>2025-01-26T11:37:41.000Z</time>
      </trkpt>
      <trkpt lat="44.01268" lon="4.43616">
        <ele>189.4</ele>
        <time>2025-01-26T11:37:45.000Z</time>
      </trkpt>
      <trkpt lat="44.01266" lon="4.43615">
        <ele>189.6</ele>
        <time>2025-01-26T11:37:46.000Z</time>
      </trkpt>
      <trkpt lat="44.0126" lon="4.43611">
        <ele>190.4</ele>
        <time>2025-01-26T11:37:49.000Z</time>
      </trkpt>
      <trkpt lat="44.01255" lon="4.43606">
        <ele>190.8</ele>
        <time>2025-01-26T11:37:52.000Z</time>
      </trkpt>
      <trkpt lat="44.01247" lon="4.43601">
        <ele>191.4</ele>
        <time>2025-01-26T11:37:57.000Z</time>
      </trkpt>
      <trkpt lat="44.01245" lon="4.436">
        <ele>191.8</ele>
        <time>2025-01-26T11:37:59.000Z</time>
      </trkpt>
      <trkpt lat="44.01243" lon="4.43599">
        <ele>192.8</ele>
        <time>2025-01-26T11:38:03.000Z</time>
      </trkpt>
      <trkpt lat="44.01242" lon="4.43599">
        <ele>193</ele>
        <time>2025-01-26T11:38:04.000Z</time>
      </trkpt>
      <trkpt lat="44.0124" lon="4.436">
        <ele>195.2</ele>
        <time>2025-01-26T11:40:24.000Z</time>
      </trkpt>
      <trkpt lat="44.01232" lon="4.43599">
        <ele>195.6</ele>
        <time>2025-01-26T11:40:29.000Z</time>
      </trkpt>
      <trkpt lat="44.01217" lon="4.43592">
        <ele>195.8</ele>
        <time>2025-01-26T11:40:36.000Z</time>
      </trkpt>
      <trkpt lat="44.01203" lon="4.43584">
        <ele>196</ele>
        <time>2025-01-26T11:40:42.000Z</time>
      </trkpt>
      <trkpt lat="44.01199" lon="4.43579">
        <ele>196.4</ele>
        <time>2025-01-26T11:40:44.000Z</time>
      </trkpt>
      <trkpt lat="44.01196" lon="4.43571">
        <ele>196.6</ele>
        <time>2025-01-26T11:40:47.000Z</time>
      </trkpt>
      <trkpt lat="44.01196" lon="4.4357">
        <ele>196.8</ele>
        <time>2025-01-26T11:40:48.000Z</time>
      </trkpt>
      <trkpt lat="44.01196" lon="4.43568">
        <ele>197</ele>
        <time>2025-01-26T11:40:50.000Z</time>
      </trkpt>
      <trkpt lat="44.01197" lon="4.43568">
        <ele>197.2</ele>
        <time>2025-01-26T11:46:52.000Z</time>
      </trkpt>
      <trkpt lat="44.01196" lon="4.43568">
        <ele>197.2</ele>
        <time>2025-01-26T11:46:54.000Z</time>
      </trkpt>
      <trkpt lat="44.01195" lon="4.4357">
        <ele>197.8</ele>
        <time>2025-01-26T11:47:05.000Z</time>
      </trkpt>
      <trkpt lat="44.01194" lon="4.43571">
        <ele>197.8</ele>
        <time>2025-01-26T11:47:07.000Z</time>
      </trkpt>
      <trkpt lat="44.01193" lon="4.4357">
        <ele>197.8</ele>
        <time>2025-01-26T11:47:10.000Z</time>
      </trkpt>
      <trkpt lat="44.01191" lon="4.43569">
        <ele>198.6</ele>
        <time>2025-01-26T11:48:29.000Z</time>
      </trkpt>
      <trkpt lat="44.0119" lon="4.43568">
        <ele>198.6</ele>
        <time>2025-01-26T11:48:30.000Z</time>
      </trkpt>
      <trkpt lat="44.01184" lon="4.43555">
        <ele>198.6</ele>
        <time>2025-01-26T11:48:35.000Z</time>
      </trkpt>
      <trkpt lat="44.01178" lon="4.43539">
        <ele>198.2</ele>
        <time>2025-01-26T11:48:40.000Z</time>
      </trkpt>
      <trkpt lat="44.01176" lon="4.43525">
        <ele>198</ele>
        <time>2025-01-26T11:48:43.000Z</time>
      </trkpt>
      <trkpt lat="44.01174" lon="4.43515">
        <ele>197.8</ele>
        <time>2025-01-26T11:48:45.000Z</time>
      </trkpt>
      <trkpt lat="44.01165" lon="4.43494">
        <ele>197.2</ele>
        <time>2025-01-26T11:48:49.000Z</time>
      </trkpt>
      <trkpt lat="44.01161" lon="4.43484">
        <ele>196.8</ele>
        <time>2025-01-26T11:48:51.000Z</time>
      </trkpt>
      <trkpt lat="44.01157" lon="4.43469">
        <ele>196.2</ele>
        <time>2025-01-26T11:48:54.000Z</time>
      </trkpt>
      <trkpt lat="44.01158" lon="4.43456">
        <ele>195.6</ele>
        <time>2025-01-26T11:48:56.000Z</time>
      </trkpt>
      <trkpt lat="44.0116" lon="4.4345">
        <ele>195</ele>
        <time>2025-01-26T11:48:57.000Z</time>
      </trkpt>
      <trkpt lat="44.01168" lon="4.43442">
        <ele>194.4</ele>
        <time>2025-01-26T11:48:59.000Z</time>
      </trkpt>
      <trkpt lat="44.01172" lon="4.43439">
        <ele>194.4</ele>
        <time>2025-01-26T11:49:00.000Z</time>
      </trkpt>
      <trkpt lat="44.01176" lon="4.43437">
        <ele>194</ele>
        <time>2025-01-26T11:49:01.000Z</time>
      </trkpt>
      <trkpt lat="44.0118" lon="4.43434">
        <ele>193.4</ele>
        <time>2025-01-26T11:49:02.000Z</time>
      </trkpt>
      <trkpt lat="44.01184" lon="4.43429">
        <ele>192.8</ele>
        <time>2025-01-26T11:49:03.000Z</time>
      </trkpt>
      <trkpt lat="44.01187" lon="4.43424">
        <ele>192.2</ele>
        <time>2025-01-26T11:49:04.000Z</time>
      </trkpt>
      <trkpt lat="44.01188" lon="4.43419">
        <ele>191.6</ele>
        <time>2025-01-26T11:49:05.000Z</time>
      </trkpt>
      <trkpt lat="44.01189" lon="4.43409">
        <ele>191</ele>
        <time>2025-01-26T11:49:07.000Z</time>
      </trkpt>
      <trkpt lat="44.01185" lon="4.43402">
        <ele>190.4</ele>
        <time>2025-01-26T11:49:09.000Z</time>
      </trkpt>
      <trkpt lat="44.01183" lon="4.43393">
        <ele>189.6</ele>
        <time>2025-01-26T11:49:11.000Z</time>
      </trkpt>
      <trkpt lat="44.01183" lon="4.43388">
        <ele>189.2</ele>
        <time>2025-01-26T11:49:12.000Z</time>
      </trkpt>
      <trkpt lat="44.01181" lon="4.43376">
        <ele>188.2</ele>
        <time>2025-01-26T11:49:14.000Z</time>
      </trkpt>
      <trkpt lat="44.0118" lon="4.4337">
        <ele>188</ele>
        <time>2025-01-26T11:49:15.000Z</time>
      </trkpt>
      <trkpt lat="44.01179" lon="4.43365">
        <ele>188</ele>
        <time>2025-01-26T11:49:16.000Z</time>
      </trkpt>
      <trkpt lat="44.01173" lon="4.43347">
        <ele>186.4</ele>
        <time>2025-01-26T11:49:20.000Z</time>
      </trkpt>
      <trkpt lat="44.0117" lon="4.43338">
        <ele>185.2</ele>
        <time>2025-01-26T11:49:22.000Z</time>
      </trkpt>
      <trkpt lat="44.0117" lon="4.43328">
        <ele>184.4</ele>
        <time>2025-01-26T11:49:24.000Z</time>
      </trkpt>
      <trkpt lat="44.01171" lon="4.43323">
        <ele>184.2</ele>
        <time>2025-01-26T11:49:25.000Z</time>
      </trkpt>
      <trkpt lat="44.01172" lon="4.43309">
        <ele>183.6</ele>
        <time>2025-01-26T11:49:28.000Z</time>
      </trkpt>
      <trkpt lat="44.01172" lon="4.43301">
        <ele>183.2</ele>
        <time>2025-01-26T11:49:30.000Z</time>
      </trkpt>
      <trkpt lat="44.01172" lon="4.4329">
        <ele>182.2</ele>
        <time>2025-01-26T11:49:33.000Z</time>
      </trkpt>
      <trkpt lat="44.01173" lon="4.43286">
        <ele>181.8</ele>
        <time>2025-01-26T11:49:34.000Z</time>
      </trkpt>
      <trkpt lat="44.01172" lon="4.43272">
        <ele>180.6</ele>
        <time>2025-01-26T11:49:38.000Z</time>
      </trkpt>
      <trkpt lat="44.0117" lon="4.43257">
        <ele>179.6</ele>
        <time>2025-01-26T11:49:43.000Z</time>
      </trkpt>
      <trkpt lat="44.01168" lon="4.43253">
        <ele>178.8</ele>
        <time>2025-01-26T11:49:45.000Z</time>
      </trkpt>
      <trkpt lat="44.01167" lon="4.43252">
        <ele>178.4</ele>
        <time>2025-01-26T11:49:46.000Z</time>
      </trkpt>
      <trkpt lat="44.01165" lon="4.43252">
        <ele>178</ele>
        <time>2025-01-26T11:49:47.000Z</time>
      </trkpt>
      <trkpt lat="44.01161" lon="4.43253">
        <ele>177.4</ele>
        <time>2025-01-26T11:49:49.000Z</time>
      </trkpt>
      <trkpt lat="44.01153" lon="4.43254">
        <ele>176</ele>
        <time>2025-01-26T11:49:52.000Z</time>
      </trkpt>
      <trkpt lat="44.01151" lon="4.43254">
        <ele>175.6</ele>
        <time>2025-01-26T11:49:53.000Z</time>
      </trkpt>
      <trkpt lat="44.01145" lon="4.43256">
        <ele>175</ele>
        <time>2025-01-26T11:49:55.000Z</time>
      </trkpt>
      <trkpt lat="44.01134" lon="4.43261">
        <ele>174.4</ele>
        <time>2025-01-26T11:49:59.000Z</time>
      </trkpt>
      <trkpt lat="44.01121" lon="4.43268">
        <ele>174.4</ele>
        <time>2025-01-26T11:50:04.000Z</time>
      </trkpt>
      <trkpt lat="44.01115" lon="4.43271">
        <ele>175.2</ele>
        <time>2025-01-26T11:50:09.000Z</time>
      </trkpt>
      <trkpt lat="44.01115" lon="4.43271">
        <ele>175.4</ele>
        <time>2025-01-26T11:50:10.000Z</time>
      </trkpt>
      <trkpt lat="44.01114" lon="4.4327">
        <ele>176.4</ele>
        <time>2025-01-26T11:50:13.000Z</time>
      </trkpt>
      <trkpt lat="44.01113" lon="4.43268">
        <ele>176.6</ele>
        <time>2025-01-26T11:50:14.000Z</time>
      </trkpt>
      <trkpt lat="44.0111" lon="4.43264">
        <ele>177</ele>
        <time>2025-01-26T11:50:17.000Z</time>
      </trkpt>
      <trkpt lat="44.01105" lon="4.43256">
        <ele>177</ele>
        <time>2025-01-26T11:50:20.000Z</time>
      </trkpt>
      <trkpt lat="44.01103" lon="4.43255">
        <ele>177</ele>
        <time>2025-01-26T11:50:21.000Z</time>
      </trkpt>
      <trkpt lat="44.01091" lon="4.43247">
        <ele>177</ele>
        <time>2025-01-26T11:50:26.000Z</time>
      </trkpt>
      <trkpt lat="44.01075" lon="4.43239">
        <ele>177</ele>
        <time>2025-01-26T11:50:32.000Z</time>
      </trkpt>
      <trkpt lat="44.01071" lon="4.43222">
        <ele>177</ele>
        <time>2025-01-26T11:50:37.000Z</time>
      </trkpt>
      <trkpt lat="44.0107" lon="4.43203">
        <ele>177</ele>
        <time>2025-01-26T11:50:42.000Z</time>
      </trkpt>
      <trkpt lat="44.01074" lon="4.43198">
        <ele>176.6</ele>
        <time>2025-01-26T11:50:45.000Z</time>
      </trkpt>
      <trkpt lat="44.01083" lon="4.43195">
        <ele>176.2</ele>
        <time>2025-01-26T11:50:49.000Z</time>
      </trkpt>
      <trkpt lat="44.01085" lon="4.43194">
        <ele>176.2</ele>
        <time>2025-01-26T11:50:50.000Z</time>
      </trkpt>
      <trkpt lat="44.01092" lon="4.43188">
        <ele>176.2</ele>
        <time>2025-01-26T11:50:54.000Z</time>
      </trkpt>
      <trkpt lat="44.01092" lon="4.43187">
        <ele>176</ele>
        <time>2025-01-26T11:50:55.000Z</time>
      </trkpt>
      <trkpt lat="44.01092" lon="4.43186">
        <ele>175.6</ele>
        <time>2025-01-26T11:50:57.000Z</time>
      </trkpt>
      <trkpt lat="44.01094" lon="4.43184">
        <ele>175</ele>
        <time>2025-01-26T11:50:59.000Z</time>
      </trkpt>
      <trkpt lat="44.01094" lon="4.43182">
        <ele>175</ele>
        <time>2025-01-26T11:51:01.000Z</time>
      </trkpt>
      <trkpt lat="44.01097" lon="4.43174">
        <ele>174.8</ele>
        <time>2025-01-26T11:51:07.000Z</time>
      </trkpt>
      <trkpt lat="44.01107" lon="4.43165">
        <ele>174.8</ele>
        <time>2025-01-26T11:51:12.000Z</time>
      </trkpt>
      <trkpt lat="44.01108" lon="4.43163">
        <ele>174.8</ele>
        <time>2025-01-26T11:51:13.000Z</time>
      </trkpt>
      <trkpt lat="44.01111" lon="4.43152">
        <ele>175.2</ele>
        <time>2025-01-26T11:51:18.000Z</time>
      </trkpt>
      <trkpt lat="44.01111" lon="4.43147">
        <ele>175.4</ele>
        <time>2025-01-26T11:51:21.000Z</time>
      </trkpt>
      <trkpt lat="44.01109" lon="4.43144">
        <ele>175.4</ele>
        <time>2025-01-26T11:51:23.000Z</time>
      </trkpt>
      <trkpt lat="44.01102" lon="4.4314">
        <ele>176.4</ele>
        <time>2025-01-26T11:51:27.000Z</time>
      </trkpt>
      <trkpt lat="44.01099" lon="4.43139">
        <ele>176.4</ele>
        <time>2025-01-26T11:51:28.000Z</time>
      </trkpt>
      <trkpt lat="44.0109" lon="4.43135">
        <ele>176.6</ele>
        <time>2025-01-26T11:51:33.000Z</time>
      </trkpt>
      <trkpt lat="44.01087" lon="4.43137">
        <ele>176.6</ele>
        <time>2025-01-26T11:51:36.000Z</time>
      </trkpt>
      <trkpt lat="44.01086" lon="4.43138">
        <ele>177.2</ele>
        <time>2025-01-26T11:51:39.000Z</time>
      </trkpt>
      <trkpt lat="44.01084" lon="4.43139">
        <ele>177.6</ele>
        <time>2025-01-26T11:52:12.000Z</time>
      </trkpt>
      <trkpt lat="44.01081" lon="4.43144">
        <ele>177.6</ele>
        <time>2025-01-26T11:52:15.000Z</time>
      </trkpt>
      <trkpt lat="44.01065" lon="4.4316">
        <ele>177.2</ele>
        <time>2025-01-26T11:52:22.000Z</time>
      </trkpt>
      <trkpt lat="44.01043" lon="4.43169">
        <ele>177</ele>
        <time>2025-01-26T11:52:29.000Z</time>
      </trkpt>
      <trkpt lat="44.01033" lon="4.43178">
        <ele>177</ele>
        <time>2025-01-26T11:52:32.000Z</time>
      </trkpt>
      <trkpt lat="44.01028" lon="4.43187">
        <ele>177</ele>
        <time>2025-01-26T11:52:34.000Z</time>
      </trkpt>
      <trkpt lat="44.01023" lon="4.43199">
        <ele>176.8</ele>
        <time>2025-01-26T11:52:36.000Z</time>
      </trkpt>
      <trkpt lat="44.01016" lon="4.43218">
        <ele>176.6</ele>
        <time>2025-01-26T11:52:39.000Z</time>
      </trkpt>
      <trkpt lat="44.01006" lon="4.4322">
        <ele>175.8</ele>
        <time>2025-01-26T11:52:42.000Z</time>
      </trkpt>
      <trkpt lat="44.01003" lon="4.43216">
        <ele>175.4</ele>
        <time>2025-01-26T11:52:43.000Z</time>
      </trkpt>
      <trkpt lat="44.00993" lon="4.43203">
        <ele>174</ele>
        <time>2025-01-26T11:52:46.000Z</time>
      </trkpt>
      <trkpt lat="44.0099" lon="4.432">
        <ele>173.6</ele>
        <time>2025-01-26T11:52:47.000Z</time>
      </trkpt>
      <trkpt lat="44.00983" lon="4.43193">
        <ele>172.8</ele>
        <time>2025-01-26T11:52:49.000Z</time>
      </trkpt>
      <trkpt lat="44.00976" lon="4.43186">
        <ele>171.6</ele>
        <time>2025-01-26T11:52:51.000Z</time>
      </trkpt>
      <trkpt lat="44.0097" lon="4.43178">
        <ele>171.4</ele>
        <time>2025-01-26T11:52:53.000Z</time>
      </trkpt>
      <trkpt lat="44.0095" lon="4.4315">
        <ele>171.4</ele>
        <time>2025-01-26T11:53:01.000Z</time>
      </trkpt>
      <trkpt lat="44.00937" lon="4.43128">
        <ele>172.8</ele>
        <time>2025-01-26T11:53:07.000Z</time>
      </trkpt>
      <trkpt lat="44.00933" lon="4.43123">
        <ele>173.2</ele>
        <time>2025-01-26T11:53:09.000Z</time>
      </trkpt>
      <trkpt lat="44.00929" lon="4.43117">
        <ele>173.2</ele>
        <time>2025-01-26T11:53:11.000Z</time>
      </trkpt>
      <trkpt lat="44.0093" lon="4.43108">
        <ele>173.2</ele>
        <time>2025-01-26T11:53:13.000Z</time>
      </trkpt>
      <trkpt lat="44.00933" lon="4.43099">
        <ele>173.2</ele>
        <time>2025-01-26T11:53:15.000Z</time>
      </trkpt>
      <trkpt lat="44.00939" lon="4.4308">
        <ele>173.2</ele>
        <time>2025-01-26T11:53:19.000Z</time>
      </trkpt>
      <trkpt lat="44.00947" lon="4.43051">
        <ele>173</ele>
        <time>2025-01-26T11:53:26.000Z</time>
      </trkpt>
      <trkpt lat="44.00945" lon="4.43035">
        <ele>172.8</ele>
        <time>2025-01-26T11:53:31.000Z</time>
      </trkpt>
      <trkpt lat="44.00939" lon="4.43023">
        <ele>172.6</ele>
        <time>2025-01-26T11:53:37.000Z</time>
      </trkpt>
      <trkpt lat="44.0093" lon="4.43013">
        <ele>172.4</ele>
        <time>2025-01-26T11:53:41.000Z</time>
      </trkpt>
      <trkpt lat="44.00925" lon="4.43002">
        <ele>171.8</ele>
        <time>2025-01-26T11:53:44.000Z</time>
      </trkpt>
      <trkpt lat="44.00924" lon="4.42997">
        <ele>171.4</ele>
        <time>2025-01-26T11:53:45.000Z</time>
      </trkpt>
      <trkpt lat="44.00923" lon="4.42988">
        <ele>170.6</ele>
        <time>2025-01-26T11:53:47.000Z</time>
      </trkpt>
      <trkpt lat="44.00919" lon="4.42975">
        <ele>169.4</ele>
        <time>2025-01-26T11:53:50.000Z</time>
      </trkpt>
      <trkpt lat="44.00917" lon="4.42971">
        <ele>168.8</ele>
        <time>2025-01-26T11:53:51.000Z</time>
      </trkpt>
      <trkpt lat="44.00912" lon="4.42964">
        <ele>168</ele>
        <time>2025-01-26T11:53:53.000Z</time>
      </trkpt>
      <trkpt lat="44.00908" lon="4.42957">
        <ele>167</ele>
        <time>2025-01-26T11:53:55.000Z</time>
      </trkpt>
      <trkpt lat="44.00905" lon="4.42949">
        <ele>165.6</ele>
        <time>2025-01-26T11:53:57.000Z</time>
      </trkpt>
      <trkpt lat="44.00906" lon="4.42945">
        <ele>165</ele>
        <time>2025-01-26T11:53:58.000Z</time>
      </trkpt>
      <trkpt lat="44.00908" lon="4.42942">
        <ele>164.4</ele>
        <time>2025-01-26T11:53:59.000Z</time>
      </trkpt>
      <trkpt lat="44.0091" lon="4.42939">
        <ele>164</ele>
        <time>2025-01-26T11:54:00.000Z</time>
      </trkpt>
      <trkpt lat="44.00914" lon="4.42934">
        <ele>163.2</ele>
        <time>2025-01-26T11:54:02.000Z</time>
      </trkpt>
      <trkpt lat="44.00915" lon="4.42931">
        <ele>162.8</ele>
        <time>2025-01-26T11:54:03.000Z</time>
      </trkpt>
      <trkpt lat="44.00916" lon="4.42929">
        <ele>162.4</ele>
        <time>2025-01-26T11:54:04.000Z</time>
      </trkpt>
      <trkpt lat="44.00916" lon="4.42926">
        <ele>162.2</ele>
        <time>2025-01-26T11:54:05.000Z</time>
      </trkpt>
      <trkpt lat="44.00917" lon="4.42924">
        <ele>161.8</ele>
        <time>2025-01-26T11:54:06.000Z</time>
      </trkpt>
      <trkpt lat="44.0092" lon="4.42922">
        <ele>161.6</ele>
        <time>2025-01-26T11:54:09.000Z</time>
      </trkpt>
      <trkpt lat="44.00924" lon="4.42921">
        <ele>161</ele>
        <time>2025-01-26T11:54:11.000Z</time>
      </trkpt>
      <trkpt lat="44.00926" lon="4.42917">
        <ele>160.4</ele>
        <time>2025-01-26T11:54:13.000Z</time>
      </trkpt>
      <trkpt lat="44.00927" lon="4.42914">
        <ele>160.4</ele>
        <time>2025-01-26T11:54:14.000Z</time>
      </trkpt>
      <trkpt lat="44.00934" lon="4.42906">
        <ele>160.2</ele>
        <time>2025-01-26T11:54:18.000Z</time>
      </trkpt>
      <trkpt lat="44.00938" lon="4.42903">
        <ele>159.6</ele>
        <time>2025-01-26T11:54:20.000Z</time>
      </trkpt>
      <trkpt lat="44.00939" lon="4.42899">
        <ele>159</ele>
        <time>2025-01-26T11:54:22.000Z</time>
      </trkpt>
      <trkpt lat="44.0094" lon="4.42896">
        <ele>159</ele>
        <time>2025-01-26T11:54:23.000Z</time>
      </trkpt>
      <trkpt lat="44.00942" lon="4.4288">
        <ele>158.4</ele>
        <time>2025-01-26T11:54:28.000Z</time>
      </trkpt>
      <trkpt lat="44.00943" lon="4.42874">
        <ele>157.8</ele>
        <time>2025-01-26T11:54:30.000Z</time>
      </trkpt>
      <trkpt lat="44.00945" lon="4.42862">
        <ele>156.6</ele>
        <time>2025-01-26T11:54:33.000Z</time>
      </trkpt>
      <trkpt lat="44.00945" lon="4.42858">
        <ele>156.4</ele>
        <time>2025-01-26T11:54:34.000Z</time>
      </trkpt>
      <trkpt lat="44.00946" lon="4.42854">
        <ele>155.8</ele>
        <time>2025-01-26T11:54:35.000Z</time>
      </trkpt>
      <trkpt lat="44.00946" lon="4.42842">
        <ele>154</ele>
        <time>2025-01-26T11:54:38.000Z</time>
      </trkpt>
      <trkpt lat="44.00947" lon="4.42837">
        <ele>153.8</ele>
        <time>2025-01-26T11:54:39.000Z</time>
      </trkpt>
      <trkpt lat="44.00947" lon="4.42833">
        <ele>153.2</ele>
        <time>2025-01-26T11:54:40.000Z</time>
      </trkpt>
      <trkpt lat="44.00948" lon="4.42825">
        <ele>152.2</ele>
        <time>2025-01-26T11:54:42.000Z</time>
      </trkpt>
      <trkpt lat="44.0095" lon="4.42822">
        <ele>151.6</ele>
        <time>2025-01-26T11:54:43.000Z</time>
      </trkpt>
      <trkpt lat="44.00952" lon="4.4282">
        <ele>151</ele>
        <time>2025-01-26T11:54:44.000Z</time>
      </trkpt>
      <trkpt lat="44.00956" lon="4.42816">
        <ele>149.8</ele>
        <time>2025-01-26T11:54:46.000Z</time>
      </trkpt>
      <trkpt lat="44.00961" lon="4.42814">
        <ele>148.2</ele>
        <time>2025-01-26T11:54:48.000Z</time>
      </trkpt>
      <trkpt lat="44.00963" lon="4.42815">
        <ele>147.6</ele>
        <time>2025-01-26T11:54:49.000Z</time>
      </trkpt>
      <trkpt lat="44.00965" lon="4.42815">
        <ele>147</ele>
        <time>2025-01-26T11:54:50.000Z</time>
      </trkpt>
      <trkpt lat="44.0097" lon="4.42813">
        <ele>146.4</ele>
        <time>2025-01-26T11:54:52.000Z</time>
      </trkpt>
      <trkpt lat="44.00981" lon="4.42805">
        <ele>146.2</ele>
        <time>2025-01-26T11:54:58.000Z</time>
      </trkpt>
      <trkpt lat="44.00985" lon="4.42797">
        <ele>146.2</ele>
        <time>2025-01-26T11:55:02.000Z</time>
      </trkpt>
      <trkpt lat="44.00986" lon="4.42796">
        <ele>146.2</ele>
        <time>2025-01-26T11:55:03.000Z</time>
      </trkpt>
      <trkpt lat="44.00992" lon="4.42789">
        <ele>146.2</ele>
        <time>2025-01-26T11:55:08.000Z</time>
      </trkpt>
      <trkpt lat="44.00994" lon="4.42788">
        <ele>146.2</ele>
        <time>2025-01-26T11:55:09.000Z</time>
      </trkpt>
      <trkpt lat="44.01001" lon="4.42788">
        <ele>146.6</ele>
        <time>2025-01-26T11:55:13.000Z</time>
      </trkpt>
      <trkpt lat="44.01002" lon="4.42786">
        <ele>146.6</ele>
        <time>2025-01-26T11:55:14.000Z</time>
      </trkpt>
      <trkpt lat="44.01004" lon="4.42771">
        <ele>146.2</ele>
        <time>2025-01-26T11:55:18.000Z</time>
      </trkpt>
      <trkpt lat="44.01004" lon="4.42767">
        <ele>146</ele>
        <time>2025-01-26T11:55:19.000Z</time>
      </trkpt>
      <trkpt lat="44.01008" lon="4.42755">
        <ele>146</ele>
        <time>2025-01-26T11:55:23.000Z</time>
      </trkpt>
      <trkpt lat="44.01018" lon="4.42748">
        <ele>145.2</ele>
        <time>2025-01-26T11:55:29.000Z</time>
      </trkpt>
      <trkpt lat="44.01019" lon="4.42745">
        <ele>145</ele>
        <time>2025-01-26T11:55:31.000Z</time>
      </trkpt>
      <trkpt lat="44.01021" lon="4.42744">
        <ele>145</ele>
        <time>2025-01-26T11:55:32.000Z</time>
      </trkpt>
      <trkpt lat="44.01022" lon="4.42738">
        <ele>144.6</ele>
        <time>2025-01-26T11:55:35.000Z</time>
      </trkpt>
      <trkpt lat="44.01017" lon="4.42732">
        <ele>144.2</ele>
        <time>2025-01-26T11:55:38.000Z</time>
      </trkpt>
      <trkpt lat="44.01014" lon="4.42728">
        <ele>143.8</ele>
        <time>2025-01-26T11:55:40.000Z</time>
      </trkpt>
      <trkpt lat="44.01008" lon="4.42721">
        <ele>142.6</ele>
        <time>2025-01-26T11:55:43.000Z</time>
      </trkpt>
      <trkpt lat="44.01004" lon="4.42715">
        <ele>141.6</ele>
        <time>2025-01-26T11:55:46.000Z</time>
      </trkpt>
      <trkpt lat="44.01004" lon="4.42714">
        <ele>141</ele>
        <time>2025-01-26T11:55:48.000Z</time>
      </trkpt>
      <trkpt lat="44.01003" lon="4.42713">
        <ele>140.8</ele>
        <time>2025-01-26T11:56:19.000Z</time>
      </trkpt>
      <trkpt lat="44.01001" lon="4.42712">
        <ele>141</ele>
        <time>2025-01-26T11:56:20.000Z</time>
      </trkpt>
      <trkpt lat="44.0099" lon="4.42704">
        <ele>141</ele>
        <time>2025-01-26T11:56:26.000Z</time>
      </trkpt>
      <trkpt lat="44.00971" lon="4.42689">
        <ele>140.4</ele>
        <time>2025-01-26T11:56:34.000Z</time>
      </trkpt>
      <trkpt lat="44.00964" lon="4.4268">
        <ele>139.8</ele>
        <time>2025-01-26T11:56:37.000Z</time>
      </trkpt>
      <trkpt lat="44.00957" lon="4.42671">
        <ele>139.2</ele>
        <time>2025-01-26T11:56:40.000Z</time>
      </trkpt>
      <trkpt lat="44.00949" lon="4.42661">
        <ele>138.6</ele>
        <time>2025-01-26T11:56:43.000Z</time>
      </trkpt>
      <trkpt lat="44.00941" lon="4.42651">
        <ele>137.6</ele>
        <time>2025-01-26T11:56:46.000Z</time>
      </trkpt>
      <trkpt lat="44.00939" lon="4.42648">
        <ele>137.6</ele>
        <time>2025-01-26T11:56:47.000Z</time>
      </trkpt>
      <trkpt lat="44.00927" lon="4.42637">
        <ele>136.4</ele>
        <time>2025-01-26T11:56:51.000Z</time>
      </trkpt>
      <trkpt lat="44.00916" lon="4.42637">
        <ele>135.4</ele>
        <time>2025-01-26T11:56:55.000Z</time>
      </trkpt>
      <trkpt lat="44.00914" lon="4.42639">
        <ele>135.2</ele>
        <time>2025-01-26T11:56:56.000Z</time>
      </trkpt>
      <trkpt lat="44.00907" lon="4.42645">
        <ele>134.8</ele>
        <time>2025-01-26T11:57:00.000Z</time>
      </trkpt>
      <trkpt lat="44.009" lon="4.42646">
        <ele>134.8</ele>
        <time>2025-01-26T11:57:04.000Z</time>
      </trkpt>
      <trkpt lat="44.00899" lon="4.42645">
        <ele>134.8</ele>
        <time>2025-01-26T11:57:05.000Z</time>
      </trkpt>
      <trkpt lat="44.00891" lon="4.42644">
        <ele>134.6</ele>
        <time>2025-01-26T11:57:10.000Z</time>
      </trkpt>
      <trkpt lat="44.0089" lon="4.42651">
        <ele>134.6</ele>
        <time>2025-01-26T11:57:12.000Z</time>
      </trkpt>
      <trkpt lat="44.0089" lon="4.42656">
        <ele>135</ele>
        <time>2025-01-26T11:57:15.000Z</time>
      </trkpt>
      <trkpt lat="44.00889" lon="4.42658">
        <ele>135</ele>
        <time>2025-01-26T11:57:18.000Z</time>
      </trkpt>
      <trkpt lat="44.00888" lon="4.42659">
        <ele>135</ele>
        <time>2025-01-26T11:57:21.000Z</time>
      </trkpt>
      <trkpt lat="44.00887" lon="4.42661">
        <ele>135</ele>
        <time>2025-01-26T11:57:22.000Z</time>
      </trkpt>
      <trkpt lat="44.0088" lon="4.42669">
        <ele>135</ele>
        <time>2025-01-26T11:57:27.000Z</time>
      </trkpt>
      <trkpt lat="44.00878" lon="4.4267">
        <ele>135</ele>
        <time>2025-01-26T11:57:28.000Z</time>
      </trkpt>
      <trkpt lat="44.00877" lon="4.42678">
        <ele>135.2</ele>
        <time>2025-01-26T11:57:31.000Z</time>
      </trkpt>
      <trkpt lat="44.00874" lon="4.42689">
        <ele>134.2</ele>
        <time>2025-01-26T11:57:35.000Z</time>
      </trkpt>
      <trkpt lat="44.00874" lon="4.42692">
        <ele>133.8</ele>
        <time>2025-01-26T11:57:36.000Z</time>
      </trkpt>
      <trkpt lat="44.00873" lon="4.42698">
        <ele>133</ele>
        <time>2025-01-26T11:57:38.000Z</time>
      </trkpt>
      <trkpt lat="44.00873" lon="4.42703">
        <ele>132.8</ele>
        <time>2025-01-26T11:57:40.000Z</time>
      </trkpt>
      <trkpt lat="44.00872" lon="4.42709">
        <ele>132</ele>
        <time>2025-01-26T11:57:43.000Z</time>
      </trkpt>
      <trkpt lat="44.00872" lon="4.42713">
        <ele>131.4</ele>
        <time>2025-01-26T11:57:45.000Z</time>
      </trkpt>
      <trkpt lat="44.00872" lon="4.42717">
        <ele>130.8</ele>
        <time>2025-01-26T11:57:47.000Z</time>
      </trkpt>
      <trkpt lat="44.00871" lon="4.42718">
        <ele>130.6</ele>
        <time>2025-01-26T11:57:49.000Z</time>
      </trkpt>
      <trkpt lat="44.00871" lon="4.42717">
        <ele>130.4</ele>
        <time>2025-01-26T11:57:50.000Z</time>
      </trkpt>
      <trkpt lat="44.00868" lon="4.42715">
        <ele>129.8</ele>
        <time>2025-01-26T11:57:52.000Z</time>
      </trkpt>
      <trkpt lat="44.00864" lon="4.42715">
        <ele>128.8</ele>
        <time>2025-01-26T11:57:54.000Z</time>
      </trkpt>
      <trkpt lat="44.00861" lon="4.42715">
        <ele>128.4</ele>
        <time>2025-01-26T11:57:55.000Z</time>
      </trkpt>
      <trkpt lat="44.00858" lon="4.42715">
        <ele>128.2</ele>
        <time>2025-01-26T11:57:57.000Z</time>
      </trkpt>
      <trkpt lat="44.00857" lon="4.42715">
        <ele>128</ele>
        <time>2025-01-26T11:57:58.000Z</time>
      </trkpt>
      <trkpt lat="44.00849" lon="4.42709">
        <ele>127.8</ele>
        <time>2025-01-26T11:58:04.000Z</time>
      </trkpt>
      <trkpt lat="44.00848" lon="4.42709">
        <ele>127.6</ele>
        <time>2025-01-26T11:58:07.000Z</time>
      </trkpt>
      <trkpt lat="44.00846" lon="4.42708">
        <ele>127.4</ele>
        <time>2025-01-26T11:58:09.000Z</time>
      </trkpt>
      <trkpt lat="44.00846" lon="4.42707">
        <ele>127.4</ele>
        <time>2025-01-26T11:58:10.000Z</time>
      </trkpt>
      <trkpt lat="44.00842" lon="4.42699">
        <ele>127.2</ele>
        <time>2025-01-26T11:58:15.000Z</time>
      </trkpt>
      <trkpt lat="44.00841" lon="4.42697">
        <ele>127.2</ele>
        <time>2025-01-26T11:58:16.000Z</time>
      </trkpt>
      <trkpt lat="44.00837" lon="4.42694">
        <ele>126.8</ele>
        <time>2025-01-26T11:58:19.000Z</time>
      </trkpt>
      <trkpt lat="44.00835" lon="4.42693">
        <ele>126.4</ele>
        <time>2025-01-26T11:58:20.000Z</time>
      </trkpt>
      <trkpt lat="44.00834" lon="4.42692">
        <ele>126.2</ele>
        <time>2025-01-26T11:58:21.000Z</time>
      </trkpt>
      <trkpt lat="44.00828" lon="4.42685">
        <ele>125.6</ele>
        <time>2025-01-26T11:58:26.000Z</time>
      </trkpt>
      <trkpt lat="44.00821" lon="4.42677">
        <ele>125</ele>
        <time>2025-01-26T11:58:30.000Z</time>
      </trkpt>
      <trkpt lat="44.00819" lon="4.42675">
        <ele>124.8</ele>
        <time>2025-01-26T11:58:31.000Z</time>
      </trkpt>
      <trkpt lat="44.00812" lon="4.42665">
        <ele>123.8</ele>
        <time>2025-01-26T11:58:36.000Z</time>
      </trkpt>
      <trkpt lat="44.0081" lon="4.42661">
        <ele>123</ele>
        <time>2025-01-26T11:58:38.000Z</time>
      </trkpt>
      <trkpt lat="44.00808" lon="4.42659">
        <ele>122.6</ele>
        <time>2025-01-26T11:58:39.000Z</time>
      </trkpt>
      <trkpt lat="44.00801" lon="4.42647">
        <ele>121.6</ele>
        <time>2025-01-26T11:58:44.000Z</time>
      </trkpt>
      <trkpt lat="44.00796" lon="4.4264">
        <ele>120.6</ele>
        <time>2025-01-26T11:58:49.000Z</time>
      </trkpt>
      <trkpt lat="44.00795" lon="4.42639">
        <ele>120.4</ele>
        <time>2025-01-26T11:58:50.000Z</time>
      </trkpt>
      <trkpt lat="44.0079" lon="4.42635">
        <ele>120.4</ele>
        <time>2025-01-26T11:58:56.000Z</time>
      </trkpt>
      <trkpt lat="44.00789" lon="4.42635">
        <ele>120.4</ele>
        <time>2025-01-26T11:58:57.000Z</time>
      </trkpt>
      <trkpt lat="44.00788" lon="4.42633">
        <ele>120.4</ele>
        <time>2025-01-26T11:59:00.000Z</time>
      </trkpt>
      <trkpt lat="44.00784" lon="4.4263">
        <ele>120.6</ele>
        <time>2025-01-26T11:59:05.000Z</time>
      </trkpt>
      <trkpt lat="44.00783" lon="4.42628">
        <ele>120.6</ele>
        <time>2025-01-26T11:59:07.000Z</time>
      </trkpt>
      <trkpt lat="44.00783" lon="4.42626">
        <ele>120.6</ele>
        <time>2025-01-26T11:59:09.000Z</time>
      </trkpt>
      <trkpt lat="44.00782" lon="4.42622">
        <ele>120.6</ele>
        <time>2025-01-26T11:59:11.000Z</time>
      </trkpt>
      <trkpt lat="44.00778" lon="4.42609">
        <ele>120.4</ele>
        <time>2025-01-26T11:59:18.000Z</time>
      </trkpt>
      <trkpt lat="44.00774" lon="4.42602">
        <ele>119.2</ele>
        <time>2025-01-26T11:59:22.000Z</time>
      </trkpt>
      <trkpt lat="44.00773" lon="4.42596">
        <ele>118.4</ele>
        <time>2025-01-26T11:59:25.000Z</time>
      </trkpt>
      <trkpt lat="44.00772" lon="4.42594">
        <ele>118.2</ele>
        <time>2025-01-26T11:59:26.000Z</time>
      </trkpt>
      <trkpt lat="44.00771" lon="4.42591">
        <ele>117.8</ele>
        <time>2025-01-26T11:59:28.000Z</time>
      </trkpt>
      <trkpt lat="44.00768" lon="4.42588">
        <ele>117.6</ele>
        <time>2025-01-26T11:59:30.000Z</time>
      </trkpt>
      <trkpt lat="44.00765" lon="4.42581">
        <ele>116.8</ele>
        <time>2025-01-26T11:59:34.000Z</time>
      </trkpt>
      <trkpt lat="44.00763" lon="4.42577">
        <ele>116.4</ele>
        <time>2025-01-26T11:59:36.000Z</time>
      </trkpt>
      <trkpt lat="44.0076" lon="4.42571">
        <ele>115.8</ele>
        <time>2025-01-26T11:59:39.000Z</time>
      </trkpt>
      <trkpt lat="44.00755" lon="4.42563">
        <ele>114.6</ele>
        <time>2025-01-26T11:59:43.000Z</time>
      </trkpt>
      <trkpt lat="44.00755" lon="4.42561">
        <ele>114.2</ele>
        <time>2025-01-26T11:59:44.000Z</time>
      </trkpt>
      <trkpt lat="44.00751" lon="4.42554">
        <ele>113.4</ele>
        <time>2025-01-26T11:59:47.000Z</time>
      </trkpt>
      <trkpt lat="44.00747" lon="4.42548">
        <ele>112.6</ele>
        <time>2025-01-26T11:59:50.000Z</time>
      </trkpt>
      <trkpt lat="44.00746" lon="4.42547">
        <ele>112.4</ele>
        <time>2025-01-26T11:59:51.000Z</time>
      </trkpt>
      <trkpt lat="44.00742" lon="4.42541">
        <ele>111.2</ele>
        <time>2025-01-26T11:59:54.000Z</time>
      </trkpt>
      <trkpt lat="44.00739" lon="4.42538">
        <ele>110.4</ele>
        <time>2025-01-26T11:59:56.000Z</time>
      </trkpt>
      <trkpt lat="44.00737" lon="4.42536">
        <ele>110.2</ele>
        <time>2025-01-26T11:59:57.000Z</time>
      </trkpt>
      <trkpt lat="44.00734" lon="4.42533">
        <ele>109</ele>
        <time>2025-01-26T12:00:00.000Z</time>
      </trkpt>
      <trkpt lat="44.00731" lon="4.42529">
        <ele>108.4</ele>
        <time>2025-01-26T12:00:02.000Z</time>
      </trkpt>
      <trkpt lat="44.00729" lon="4.42528">
        <ele>108</ele>
        <time>2025-01-26T12:00:03.000Z</time>
      </trkpt>
      <trkpt lat="44.00726" lon="4.42527">
        <ele>106.6</ele>
        <time>2025-01-26T12:00:05.000Z</time>
      </trkpt>
      <trkpt lat="44.00724" lon="4.42525">
        <ele>106</ele>
        <time>2025-01-26T12:00:07.000Z</time>
      </trkpt>
      <trkpt lat="44.00722" lon="4.42525">
        <ele>105.4</ele>
        <time>2025-01-26T12:00:09.000Z</time>
      </trkpt>
      <trkpt lat="44.00722" lon="4.42523">
        <ele>104.8</ele>
        <time>2025-01-26T12:00:11.000Z</time>
      </trkpt>
      <trkpt lat="44.00722" lon="4.42521">
        <ele>104.6</ele>
        <time>2025-01-26T12:00:12.000Z</time>
      </trkpt>
      <trkpt lat="44.00721" lon="4.4252">
        <ele>104.4</ele>
        <time>2025-01-26T12:00:13.000Z</time>
      </trkpt>
      <trkpt lat="44.00716" lon="4.42515">
        <ele>104</ele>
        <time>2025-01-26T12:00:17.000Z</time>
      </trkpt>
      <trkpt lat="44.00714" lon="4.42512">
        <ele>104</ele>
        <time>2025-01-26T12:00:19.000Z</time>
      </trkpt>
      <trkpt lat="44.00715" lon="4.42505">
        <ele>103.2</ele>
        <time>2025-01-26T12:00:22.000Z</time>
      </trkpt>
      <trkpt lat="44.00716" lon="4.42502">
        <ele>103</ele>
        <time>2025-01-26T12:00:23.000Z</time>
      </trkpt>
      <trkpt lat="44.00718" lon="4.42498">
        <ele>102.2</ele>
        <time>2025-01-26T12:00:25.000Z</time>
      </trkpt>
      <trkpt lat="44.00719" lon="4.42496">
        <ele>102</ele>
        <time>2025-01-26T12:00:26.000Z</time>
      </trkpt>
      <trkpt lat="44.00719" lon="4.42494">
        <ele>101.8</ele>
        <time>2025-01-26T12:00:27.000Z</time>
      </trkpt>
      <trkpt lat="44.00719" lon="4.4249">
        <ele>101</ele>
        <time>2025-01-26T12:00:29.000Z</time>
      </trkpt>
      <trkpt lat="44.00719" lon="4.42488">
        <ele>100.4</ele>
        <time>2025-01-26T12:00:30.000Z</time>
      </trkpt>
      <trkpt lat="44.00718" lon="4.42486">
        <ele>99.8</ele>
        <time>2025-01-26T12:00:31.000Z</time>
      </trkpt>
      <trkpt lat="44.00717" lon="4.42485">
        <ele>99.6</ele>
        <time>2025-01-26T12:00:32.000Z</time>
      </trkpt>
      <trkpt lat="44.00714" lon="4.42485">
        <ele>98.6</ele>
        <time>2025-01-26T12:00:35.000Z</time>
      </trkpt>
      <trkpt lat="44.00712" lon="4.42486">
        <ele>98</ele>
        <time>2025-01-26T12:00:37.000Z</time>
      </trkpt>
      <trkpt lat="44.00711" lon="4.42487">
        <ele>97.4</ele>
        <time>2025-01-26T12:00:39.000Z</time>
      </trkpt>
      <trkpt lat="44.00712" lon="4.42487">
        <ele>97.2</ele>
        <time>2025-01-26T12:00:40.000Z</time>
      </trkpt>
      <trkpt lat="44.00708" lon="4.42485">
        <ele>97</ele>
        <time>2025-01-26T12:00:49.000Z</time>
      </trkpt>
      <trkpt lat="44.00708" lon="4.42484">
        <ele>96.8</ele>
        <time>2025-01-26T12:00:50.000Z</time>
      </trkpt>
      <trkpt lat="44.00709" lon="4.42482">
        <ele>96.8</ele>
        <time>2025-01-26T12:00:52.000Z</time>
      </trkpt>
      <trkpt lat="44.00712" lon="4.42477">
        <ele>96.6</ele>
        <time>2025-01-26T12:00:55.000Z</time>
      </trkpt>
      <trkpt lat="44.00713" lon="4.42473">
        <ele>96.2</ele>
        <time>2025-01-26T12:00:57.000Z</time>
      </trkpt>
      <trkpt lat="44.00716" lon="4.42465">
        <ele>95.4</ele>
        <time>2025-01-26T12:01:01.000Z</time>
      </trkpt>
      <trkpt lat="44.00717" lon="4.42464">
        <ele>95.2</ele>
        <time>2025-01-26T12:01:02.000Z</time>
      </trkpt>
      <trkpt lat="44.00721" lon="4.42457">
        <ele>94.2</ele>
        <time>2025-01-26T12:01:06.000Z</time>
      </trkpt>
      <trkpt lat="44.00721" lon="4.42455">
        <ele>94</ele>
        <time>2025-01-26T12:01:07.000Z</time>
      </trkpt>
      <trkpt lat="44.00724" lon="4.42451">
        <ele>93</ele>
        <time>2025-01-26T12:01:10.000Z</time>
      </trkpt>
      <trkpt lat="44.00729" lon="4.42449">
        <ele>92</ele>
        <time>2025-01-26T12:01:13.000Z</time>
      </trkpt>
      <trkpt lat="44.00734" lon="4.42447">
        <ele>91</ele>
        <time>2025-01-26T12:01:17.000Z</time>
      </trkpt>
      <trkpt lat="44.00736" lon="4.42445">
        <ele>90.8</ele>
        <time>2025-01-26T12:01:20.000Z</time>
      </trkpt>
      <trkpt lat="44.00738" lon="4.42441">
        <ele>90.6</ele>
        <time>2025-01-26T12:01:22.000Z</time>
      </trkpt>
      <trkpt lat="44.0074" lon="4.42438">
        <ele>90.6</ele>
        <time>2025-01-26T12:01:24.000Z</time>
      </trkpt>
      <trkpt lat="44.00742" lon="4.42434">
        <ele>90.4</ele>
        <time>2025-01-26T12:01:27.000Z</time>
      </trkpt>
      <trkpt lat="44.00743" lon="4.42433">
        <ele>90.4</ele>
        <time>2025-01-26T12:01:28.000Z</time>
      </trkpt>
      <trkpt lat="44.00748" lon="4.42429">
        <ele>85.6</ele>
        <time>2025-01-26T12:03:31.000Z</time>
      </trkpt>
      <trkpt lat="44.00753" lon="4.42433">
        <ele>85.6</ele>
        <time>2025-01-26T12:03:36.000Z</time>
      </trkpt>
      <trkpt lat="44.00755" lon="4.42436">
        <ele>85.4</ele>
        <time>2025-01-26T12:03:38.000Z</time>
      </trkpt>
      <trkpt lat="44.0076" lon="4.42439">
        <ele>85</ele>
        <time>2025-01-26T12:03:42.000Z</time>
      </trkpt>
      <trkpt lat="44.00763" lon="4.42441">
        <ele>84.8</ele>
        <time>2025-01-26T12:03:47.000Z</time>
      </trkpt>
      <trkpt lat="44.00771" lon="4.4244">
        <ele>84.8</ele>
        <time>2025-01-26T12:03:56.000Z</time>
      </trkpt>
      <trkpt lat="44.00777" lon="4.42441">
        <ele>84.6</ele>
        <time>2025-01-26T12:04:00.000Z</time>
      </trkpt>
      <trkpt lat="44.00779" lon="4.42442">
        <ele>84.6</ele>
        <time>2025-01-26T12:04:01.000Z</time>
      </trkpt>
      <trkpt lat="44.00789" lon="4.42445">
        <ele>83.6</ele>
        <time>2025-01-26T12:04:05.000Z</time>
      </trkpt>
      <trkpt lat="44.00805" lon="4.42453">
        <ele>83.4</ele>
        <time>2025-01-26T12:04:12.000Z</time>
      </trkpt>
      <trkpt lat="44.00817" lon="4.4246">
        <ele>83.6</ele>
        <time>2025-01-26T12:04:18.000Z</time>
      </trkpt>
      <trkpt lat="44.00833" lon="4.42471">
        <ele>84</ele>
        <time>2025-01-26T12:04:25.000Z</time>
      </trkpt>
      <trkpt lat="44.00852" lon="4.42482">
        <ele>84.2</ele>
        <time>2025-01-26T12:04:32.000Z</time>
      </trkpt>
      <trkpt lat="44.00863" lon="4.42489">
        <ele>84.2</ele>
        <time>2025-01-26T12:04:38.000Z</time>
      </trkpt>
      <trkpt lat="44.00867" lon="4.4249">
        <ele>84.2</ele>
        <time>2025-01-26T12:04:40.000Z</time>
      </trkpt>
      <trkpt lat="44.00876" lon="4.42494">
        <ele>84.2</ele>
        <time>2025-01-26T12:04:44.000Z</time>
      </trkpt>
      <trkpt lat="44.00885" lon="4.42501">
        <ele>84.2</ele>
        <time>2025-01-26T12:04:50.000Z</time>
      </trkpt>
      <trkpt lat="44.0089" lon="4.42509">
        <ele>84.2</ele>
        <time>2025-01-26T12:04:56.000Z</time>
      </trkpt>
      <trkpt lat="44.00901" lon="4.42516">
        <ele>84.4</ele>
        <time>2025-01-26T12:05:00.000Z</time>
      </trkpt>
      <trkpt lat="44.00903" lon="4.42518">
        <ele>84.4</ele>
        <time>2025-01-26T12:05:01.000Z</time>
      </trkpt>
      <trkpt lat="44.00913" lon="4.42526">
        <ele>84.4</ele>
        <time>2025-01-26T12:05:05.000Z</time>
      </trkpt>
      <trkpt lat="44.0092" lon="4.42531">
        <ele>84.4</ele>
        <time>2025-01-26T12:05:09.000Z</time>
      </trkpt>
      <trkpt lat="44.00929" lon="4.42539">
        <ele>84.6</ele>
        <time>2025-01-26T12:05:14.000Z</time>
      </trkpt>
      <trkpt lat="44.00945" lon="4.42546">
        <ele>84.6</ele>
        <time>2025-01-26T12:05:20.000Z</time>
      </trkpt>
      <trkpt lat="44.00952" lon="4.42549">
        <ele>84.8</ele>
        <time>2025-01-26T12:05:23.000Z</time>
      </trkpt>
      <trkpt lat="44.00958" lon="4.42554">
        <ele>84.8</ele>
        <time>2025-01-26T12:05:26.000Z</time>
      </trkpt>
      <trkpt lat="44.00963" lon="4.42558">
        <ele>85</ele>
        <time>2025-01-26T12:05:28.000Z</time>
      </trkpt>
      <trkpt lat="44.00968" lon="4.42565">
        <ele>85</ele>
        <time>2025-01-26T12:05:31.000Z</time>
      </trkpt>
      <trkpt lat="44.00981" lon="4.42575">
        <ele>85.2</ele>
        <time>2025-01-26T12:05:37.000Z</time>
      </trkpt>
      <trkpt lat="44.0099" lon="4.4258">
        <ele>85.8</ele>
        <time>2025-01-26T12:05:43.000Z</time>
      </trkpt>
      <trkpt lat="44.00991" lon="4.4258">
        <ele>86</ele>
        <time>2025-01-26T12:05:44.000Z</time>
      </trkpt>
      <trkpt lat="44.01" lon="4.42583">
        <ele>86.6</ele>
        <time>2025-01-26T12:05:50.000Z</time>
      </trkpt>
      <trkpt lat="44.01002" lon="4.42584">
        <ele>86.6</ele>
        <time>2025-01-26T12:05:51.000Z</time>
      </trkpt>
      <trkpt lat="44.01007" lon="4.42585">
        <ele>86.6</ele>
        <time>2025-01-26T12:05:54.000Z</time>
      </trkpt>
      <trkpt lat="44.01019" lon="4.42592">
        <ele>85.8</ele>
        <time>2025-01-26T12:06:01.000Z</time>
      </trkpt>
      <trkpt lat="44.01028" lon="4.426">
        <ele>85.8</ele>
        <time>2025-01-26T12:06:08.000Z</time>
      </trkpt>
      <trkpt lat="44.01035" lon="4.42604">
        <ele>86.2</ele>
        <time>2025-01-26T12:06:14.000Z</time>
      </trkpt>
      <trkpt lat="44.01042" lon="4.42607">
        <ele>86.6</ele>
        <time>2025-01-26T12:06:22.000Z</time>
      </trkpt>
      <trkpt lat="44.01043" lon="4.42608">
        <ele>86.6</ele>
        <time>2025-01-26T12:06:24.000Z</time>
      </trkpt>
      <trkpt lat="44.0105" lon="4.42611">
        <ele>89.4</ele>
        <time>2025-01-26T12:08:33.000Z</time>
      </trkpt>
      <trkpt lat="44.01053" lon="4.42614">
        <ele>89.4</ele>
        <time>2025-01-26T12:08:35.000Z</time>
      </trkpt>
      <trkpt lat="44.01056" lon="4.42619">
        <ele>89.4</ele>
        <time>2025-01-26T12:08:37.000Z</time>
      </trkpt>
      <trkpt lat="44.01061" lon="4.42625">
        <ele>89.4</ele>
        <time>2025-01-26T12:08:41.000Z</time>
      </trkpt>
      <trkpt lat="44.01066" lon="4.42627">
        <ele>90.4</ele>
        <time>2025-01-26T12:08:46.000Z</time>
      </trkpt>
      <trkpt lat="44.01068" lon="4.42628">
        <ele>91.6</ele>
        <time>2025-01-26T12:08:48.000Z</time>
      </trkpt>
      <trkpt lat="44.0107" lon="4.42629">
        <ele>92.4</ele>
        <time>2025-01-26T12:08:50.000Z</time>
      </trkpt>
      <trkpt lat="44.01071" lon="4.4263">
        <ele>92.6</ele>
        <time>2025-01-26T12:08:51.000Z</time>
      </trkpt>
      <trkpt lat="44.01077" lon="4.42631">
        <ele>93.4</ele>
        <time>2025-01-26T12:08:55.000Z</time>
      </trkpt>
      <trkpt lat="44.01083" lon="4.42631">
        <ele>93.4</ele>
        <time>2025-01-26T12:08:58.000Z</time>
      </trkpt>
      <trkpt lat="44.01092" lon="4.42633">
        <ele>93.4</ele>
        <time>2025-01-26T12:09:03.000Z</time>
      </trkpt>
      <trkpt lat="44.011" lon="4.42638">
        <ele>93.4</ele>
        <time>2025-01-26T12:09:07.000Z</time>
      </trkpt>
      <trkpt lat="44.01103" lon="4.42639">
        <ele>93.4</ele>
        <time>2025-01-26T12:09:09.000Z</time>
      </trkpt>
      <trkpt lat="44.01117" lon="4.4264">
        <ele>93</ele>
        <time>2025-01-26T12:09:15.000Z</time>
      </trkpt>
      <trkpt lat="44.01133" lon="4.4264">
        <ele>92.8</ele>
        <time>2025-01-26T12:09:20.000Z</time>
      </trkpt>
      <trkpt lat="44.01148" lon="4.42645">
        <ele>93</ele>
        <time>2025-01-26T12:09:26.000Z</time>
      </trkpt>
      <trkpt lat="44.0116" lon="4.42643">
        <ele>93</ele>
        <time>2025-01-26T12:09:31.000Z</time>
      </trkpt>
      <trkpt lat="44.01176" lon="4.42645">
        <ele>93.4</ele>
        <time>2025-01-26T12:09:36.000Z</time>
      </trkpt>
      <trkpt lat="44.01193" lon="4.42648">
        <ele>93.6</ele>
        <time>2025-01-26T12:09:42.000Z</time>
      </trkpt>
      <trkpt lat="44.01195" lon="4.42647">
        <ele>93.8</ele>
        <time>2025-01-26T12:09:43.000Z</time>
      </trkpt>
      <trkpt lat="44.01214" lon="4.42638">
        <ele>94.2</ele>
        <time>2025-01-26T12:09:49.000Z</time>
      </trkpt>
      <trkpt lat="44.01231" lon="4.42634">
        <ele>94.2</ele>
        <time>2025-01-26T12:09:54.000Z</time>
      </trkpt>
      <trkpt lat="44.01249" lon="4.42634">
        <ele>93.6</ele>
        <time>2025-01-26T12:10:00.000Z</time>
      </trkpt>
      <trkpt lat="44.01267" lon="4.4263">
        <ele>93.6</ele>
        <time>2025-01-26T12:10:05.000Z</time>
      </trkpt>
      <trkpt lat="44.01282" lon="4.42628">
        <ele>93.4</ele>
        <time>2025-01-26T12:10:10.000Z</time>
      </trkpt>
      <trkpt lat="44.0129" lon="4.42625">
        <ele>93.2</ele>
        <time>2025-01-26T12:10:12.000Z</time>
      </trkpt>
      <trkpt lat="44.013" lon="4.42624">
        <ele>93</ele>
        <time>2025-01-26T12:10:14.000Z</time>
      </trkpt>
      <trkpt lat="44.01314" lon="4.4263">
        <ele>92.8</ele>
        <time>2025-01-26T12:10:18.000Z</time>
      </trkpt>
      <trkpt lat="44.01317" lon="4.42632">
        <ele>92.6</ele>
        <time>2025-01-26T12:10:19.000Z</time>
      </trkpt>
      <trkpt lat="44.01326" lon="4.42639">
        <ele>91.4</ele>
        <time>2025-01-26T12:10:22.000Z</time>
      </trkpt>
      <trkpt lat="44.01329" lon="4.42642">
        <ele>91.2</ele>
        <time>2025-01-26T12:10:23.000Z</time>
      </trkpt>
      <trkpt lat="44.01341" lon="4.42652">
        <ele>91</ele>
        <time>2025-01-26T12:10:28.000Z</time>
      </trkpt>
      <trkpt lat="44.01363" lon="4.42684">
        <ele>90.8</ele>
        <time>2025-01-26T12:10:36.000Z</time>
      </trkpt>
      <trkpt lat="44.0137" lon="4.42718">
        <ele>91</ele>
        <time>2025-01-26T12:10:43.000Z</time>
      </trkpt>
      <trkpt lat="44.0138" lon="4.42754">
        <ele>91.8</ele>
        <time>2025-01-26T12:10:51.000Z</time>
      </trkpt>
      <trkpt lat="44.01387" lon="4.4278">
        <ele>92</ele>
        <time>2025-01-26T12:10:57.000Z</time>
      </trkpt>
      <trkpt lat="44.01394" lon="4.42808">
        <ele>92.2</ele>
        <time>2025-01-26T12:11:03.000Z</time>
      </trkpt>
      <trkpt lat="44.01394" lon="4.42812">
        <ele>92.2</ele>
        <time>2025-01-26T12:11:04.000Z</time>
      </trkpt>
      <trkpt lat="44.014" lon="4.42832">
        <ele>92.6</ele>
        <time>2025-01-26T12:11:09.000Z</time>
      </trkpt>
      <trkpt lat="44.01408" lon="4.42837">
        <ele>92.8</ele>
        <time>2025-01-26T12:11:13.000Z</time>
      </trkpt>
      <trkpt lat="44.01417" lon="4.42841">
        <ele>92.8</ele>
        <time>2025-01-26T12:11:16.000Z</time>
      </trkpt>
      <trkpt lat="44.01419" lon="4.42845">
        <ele>92.8</ele>
        <time>2025-01-26T12:11:17.000Z</time>
      </trkpt>
      <trkpt lat="44.01425" lon="4.42864">
        <ele>92.8</ele>
        <time>2025-01-26T12:11:21.000Z</time>
      </trkpt>
      <trkpt lat="44.01426" lon="4.42874">
        <ele>92.2</ele>
        <time>2025-01-26T12:11:23.000Z</time>
      </trkpt>
      <trkpt lat="44.01429" lon="4.42894">
        <ele>91.2</ele>
        <time>2025-01-26T12:11:28.000Z</time>
      </trkpt>
      <trkpt lat="44.01432" lon="4.42908">
        <ele>91.2</ele>
        <time>2025-01-26T12:11:32.000Z</time>
      </trkpt>
      <trkpt lat="44.01432" lon="4.42917">
        <ele>91.2</ele>
        <time>2025-01-26T12:11:34.000Z</time>
      </trkpt>
      <trkpt lat="44.01436" lon="4.42939">
        <ele>91.2</ele>
        <time>2025-01-26T12:11:39.000Z</time>
      </trkpt>
      <trkpt lat="44.01446" lon="4.42966">
        <ele>91.4</ele>
        <time>2025-01-26T12:11:45.000Z</time>
      </trkpt>
      <trkpt lat="44.01459" lon="4.42994">
        <ele>91.4</ele>
        <time>2025-01-26T12:11:52.000Z</time>
      </trkpt>
      <trkpt lat="44.01468" lon="4.4302">
        <ele>91.8</ele>
        <time>2025-01-26T12:11:58.000Z</time>
      </trkpt>
      <trkpt lat="44.01471" lon="4.43027">
        <ele>92</ele>
        <time>2025-01-26T12:12:00.000Z</time>
      </trkpt>
      <trkpt lat="44.01478" lon="4.43033">
        <ele>92.2</ele>
        <time>2025-01-26T12:12:03.000Z</time>
      </trkpt>
      <trkpt lat="44.01498" lon="4.43031">
        <ele>92.2</ele>
        <time>2025-01-26T12:12:09.000Z</time>
      </trkpt>
      <trkpt lat="44.01505" lon="4.4303">
        <ele>91.8</ele>
        <time>2025-01-26T12:12:13.000Z</time>
      </trkpt>
      <trkpt lat="44.01506" lon="4.43031">
        <ele>91.8</ele>
        <time>2025-01-26T12:12:15.000Z</time>
      </trkpt>
      <trkpt lat="44.01507" lon="4.43029">
        <ele>91.8</ele>
        <time>2025-01-26T12:12:17.000Z</time>
      </trkpt>
      <trkpt lat="44.01508" lon="4.43026">
        <ele>91.6</ele>
        <time>2025-01-26T12:12:19.000Z</time>
      </trkpt>
      <trkpt lat="44.01506" lon="4.43016">
        <ele>91.6</ele>
        <time>2025-01-26T12:12:25.000Z</time>
      </trkpt>
      <trkpt lat="44.01507" lon="4.43005">
        <ele>91.8</ele>
        <time>2025-01-26T12:12:29.000Z</time>
      </trkpt>
      <trkpt lat="44.01509" lon="4.43004">
        <ele>91.8</ele>
        <time>2025-01-26T12:12:30.000Z</time>
      </trkpt>
      <trkpt lat="44.01517" lon="4.43001">
        <ele>91.8</ele>
        <time>2025-01-26T12:12:33.000Z</time>
      </trkpt>
      <trkpt lat="44.01533" lon="4.42996">
        <ele>91.6</ele>
        <time>2025-01-26T12:12:39.000Z</time>
      </trkpt>
      <trkpt lat="44.01545" lon="4.42997">
        <ele>91.6</ele>
        <time>2025-01-26T12:12:44.000Z</time>
      </trkpt>
      <trkpt lat="44.01555" lon="4.43002">
        <ele>91.6</ele>
        <time>2025-01-26T12:12:48.000Z</time>
      </trkpt>
      <trkpt lat="44.01576" lon="4.43007">
        <ele>91.6</ele>
        <time>2025-01-26T12:12:54.000Z</time>
      </trkpt>
      <trkpt lat="44.01605" lon="4.43012">
        <ele>91.8</ele>
        <time>2025-01-26T12:13:01.000Z</time>
      </trkpt>
      <trkpt lat="44.01618" lon="4.43012">
        <ele>91.8</ele>
        <time>2025-01-26T12:13:05.000Z</time>
      </trkpt>
      <trkpt lat="44.01644" lon="4.43014">
        <ele>91.8</ele>
        <time>2025-01-26T12:13:11.000Z</time>
      </trkpt>
      <trkpt lat="44.01671" lon="4.43007">
        <ele>91.8</ele>
        <time>2025-01-26T12:13:17.000Z</time>
      </trkpt>
      <trkpt lat="44.01698" lon="4.42999">
        <ele>91.8</ele>
        <time>2025-01-26T12:13:24.000Z</time>
      </trkpt>
      <trkpt lat="44.01725" lon="4.42988">
        <ele>92.8</ele>
        <time>2025-01-26T12:13:32.000Z</time>
      </trkpt>
      <trkpt lat="44.01749" lon="4.42979">
        <ele>93.6</ele>
        <time>2025-01-26T12:13:39.000Z</time>
      </trkpt>
      <trkpt lat="44.01764" lon="4.42981">
        <ele>94</ele>
        <time>2025-01-26T12:13:43.000Z</time>
      </trkpt>
      <trkpt lat="44.0178" lon="4.42984">
        <ele>94</ele>
        <time>2025-01-26T12:13:47.000Z</time>
      </trkpt>
      <trkpt lat="44.018" lon="4.42993">
        <ele>93.8</ele>
        <time>2025-01-26T12:13:53.000Z</time>
      </trkpt>
      <trkpt lat="44.01815" lon="4.43005">
        <ele>93.6</ele>
        <time>2025-01-26T12:13:58.000Z</time>
      </trkpt>
      <trkpt lat="44.01833" lon="4.43006">
        <ele>93.6</ele>
        <time>2025-01-26T12:14:03.000Z</time>
      </trkpt>
      <trkpt lat="44.01866" lon="4.43008">
        <ele>94.6</ele>
        <time>2025-01-26T12:14:12.000Z</time>
      </trkpt>
      <trkpt lat="44.01881" lon="4.43007">
        <ele>95</ele>
        <time>2025-01-26T12:14:16.000Z</time>
      </trkpt>
      <trkpt lat="44.01901" lon="4.43004">
        <ele>95.4</ele>
        <time>2025-01-26T12:14:21.000Z</time>
      </trkpt>
      <trkpt lat="44.01929" lon="4.42992">
        <ele>95.6</ele>
        <time>2025-01-26T12:14:29.000Z</time>
      </trkpt>
      <trkpt lat="44.01938" lon="4.42985">
        <ele>96</ele>
        <time>2025-01-26T12:14:33.000Z</time>
      </trkpt>
      <trkpt lat="44.01944" lon="4.42983">
        <ele>96.8</ele>
        <time>2025-01-26T12:14:36.000Z</time>
      </trkpt>
      <trkpt lat="44.01945" lon="4.42982">
        <ele>97.2</ele>
        <time>2025-01-26T12:14:37.000Z</time>
      </trkpt>
      <trkpt lat="44.01951" lon="4.42975">
        <ele>98.2</ele>
        <time>2025-01-26T12:14:41.000Z</time>
      </trkpt>
      <trkpt lat="44.01951" lon="4.42972">
        <ele>98.6</ele>
        <time>2025-01-26T12:14:42.000Z</time>
      </trkpt>
      <trkpt lat="44.01947" lon="4.42956">
        <ele>99.4</ele>
        <time>2025-01-26T12:14:47.000Z</time>
      </trkpt>
      <trkpt lat="44.01946" lon="4.42953">
        <ele>99.4</ele>
        <time>2025-01-26T12:14:48.000Z</time>
      </trkpt>
      <trkpt lat="44.01945" lon="4.4295">
        <ele>99.4</ele>
        <time>2025-01-26T12:14:49.000Z</time>
      </trkpt>
      <trkpt lat="44.01939" lon="4.42932">
        <ele>100</ele>
        <time>2025-01-26T12:14:55.000Z</time>
      </trkpt>
      <trkpt lat="44.0193" lon="4.42902">
        <ele>100.6</ele>
        <time>2025-01-26T12:15:04.000Z</time>
      </trkpt>
      <trkpt lat="44.01923" lon="4.42878">
        <ele>101.2</ele>
        <time>2025-01-26T12:15:11.000Z</time>
      </trkpt>
      <trkpt lat="44.01918" lon="4.42861">
        <ele>101.6</ele>
        <time>2025-01-26T12:15:16.000Z</time>
      </trkpt>
      <trkpt lat="44.01915" lon="4.42851">
        <ele>101.8</ele>
        <time>2025-01-26T12:15:19.000Z</time>
      </trkpt>
      <trkpt lat="44.01906" lon="4.42822">
        <ele>102.6</ele>
        <time>2025-01-26T12:15:28.000Z</time>
      </trkpt>
      <trkpt lat="44.01904" lon="4.42819">
        <ele>102.6</ele>
        <time>2025-01-26T12:15:29.000Z</time>
      </trkpt>
      <trkpt lat="44.01889" lon="4.42797">
        <ele>103.4</ele>
        <time>2025-01-26T12:15:37.000Z</time>
      </trkpt>
      <trkpt lat="44.01884" lon="4.42792">
        <ele>103.8</ele>
        <time>2025-01-26T12:15:39.000Z</time>
      </trkpt>
      <trkpt lat="44.0187" lon="4.4278">
        <ele>104.2</ele>
        <time>2025-01-26T12:15:45.000Z</time>
      </trkpt>
      <trkpt lat="44.01851" lon="4.42769">
        <ele>104.8</ele>
        <time>2025-01-26T12:15:52.000Z</time>
      </trkpt>
      <trkpt lat="44.01843" lon="4.42766">
        <ele>105.2</ele>
        <time>2025-01-26T12:15:55.000Z</time>
      </trkpt>
      <trkpt lat="44.01831" lon="4.42754">
        <ele>105.8</ele>
        <time>2025-01-26T12:16:00.000Z</time>
      </trkpt>
      <trkpt lat="44.01817" lon="4.42744">
        <ele>107</ele>
        <time>2025-01-26T12:16:07.000Z</time>
      </trkpt>
      <trkpt lat="44.01816" lon="4.42742">
        <ele>107.2</ele>
        <time>2025-01-26T12:16:08.000Z</time>
      </trkpt>
      <trkpt lat="44.01811" lon="4.42737">
        <ele>108</ele>
        <time>2025-01-26T12:16:11.000Z</time>
      </trkpt>
      <trkpt lat="44.01805" lon="4.42733">
        <ele>108.6</ele>
        <time>2025-01-26T12:16:14.000Z</time>
      </trkpt>
      <trkpt lat="44.01802" lon="4.4273">
        <ele>109.2</ele>
        <time>2025-01-26T12:16:16.000Z</time>
      </trkpt>
      <trkpt lat="44.01795" lon="4.42723">
        <ele>110</ele>
        <time>2025-01-26T12:16:20.000Z</time>
      </trkpt>
      <trkpt lat="44.01791" lon="4.4272">
        <ele>110.6</ele>
        <time>2025-01-26T12:16:22.000Z</time>
      </trkpt>
      <trkpt lat="44.0178" lon="4.42711">
        <ele>111.8</ele>
        <time>2025-01-26T12:16:28.000Z</time>
      </trkpt>
      <trkpt lat="44.01771" lon="4.42704">
        <ele>112.8</ele>
        <time>2025-01-26T12:16:33.000Z</time>
      </trkpt>
      <trkpt lat="44.01767" lon="4.42701">
        <ele>113</ele>
        <time>2025-01-26T12:16:35.000Z</time>
      </trkpt>
      <trkpt lat="44.01757" lon="4.42694">
        <ele>114</ele>
        <time>2025-01-26T12:16:41.000Z</time>
      </trkpt>
      <trkpt lat="44.01754" lon="4.4269">
        <ele>114.4</ele>
        <time>2025-01-26T12:16:43.000Z</time>
      </trkpt>
      <trkpt lat="44.0175" lon="4.42686">
        <ele>115</ele>
        <time>2025-01-26T12:16:46.000Z</time>
      </trkpt>
      <trkpt lat="44.01744" lon="4.42681">
        <ele>116.2</ele>
        <time>2025-01-26T12:16:50.000Z</time>
      </trkpt>
      <trkpt lat="44.01737" lon="4.42673">
        <ele>117.2</ele>
        <time>2025-01-26T12:16:55.000Z</time>
      </trkpt>
      <trkpt lat="44.01731" lon="4.42667">
        <ele>117.8</ele>
        <time>2025-01-26T12:16:59.000Z</time>
      </trkpt>
      <trkpt lat="44.01728" lon="4.42664">
        <ele>118.2</ele>
        <time>2025-01-26T12:17:01.000Z</time>
      </trkpt>
      <trkpt lat="44.01717" lon="4.42652">
        <ele>119.6</ele>
        <time>2025-01-26T12:17:08.000Z</time>
      </trkpt>
      <trkpt lat="44.01711" lon="4.42644">
        <ele>120.6</ele>
        <time>2025-01-26T12:17:13.000Z</time>
      </trkpt>
      <trkpt lat="44.01704" lon="4.42636">
        <ele>121.6</ele>
        <time>2025-01-26T12:17:18.000Z</time>
      </trkpt>
      <trkpt lat="44.01698" lon="4.42631">
        <ele>122.8</ele>
        <time>2025-01-26T12:17:22.000Z</time>
      </trkpt>
      <trkpt lat="44.01693" lon="4.42627">
        <ele>123.2</ele>
        <time>2025-01-26T12:17:25.000Z</time>
      </trkpt>
      <trkpt lat="44.01688" lon="4.42623">
        <ele>123.8</ele>
        <time>2025-01-26T12:17:28.000Z</time>
      </trkpt>
      <trkpt lat="44.01681" lon="4.42616">
        <ele>124.6</ele>
        <time>2025-01-26T12:17:33.000Z</time>
      </trkpt>
      <trkpt lat="44.01678" lon="4.42613">
        <ele>124.8</ele>
        <time>2025-01-26T12:17:35.000Z</time>
      </trkpt>
      <trkpt lat="44.01669" lon="4.42602">
        <ele>126</ele>
        <time>2025-01-26T12:17:42.000Z</time>
      </trkpt>
      <trkpt lat="44.01662" lon="4.42593">
        <ele>127.4</ele>
        <time>2025-01-26T12:17:47.000Z</time>
      </trkpt>
      <trkpt lat="44.01659" lon="4.4259">
        <ele>127.8</ele>
        <time>2025-01-26T12:17:49.000Z</time>
      </trkpt>
      <trkpt lat="44.01652" lon="4.42582">
        <ele>128.6</ele>
        <time>2025-01-26T12:17:53.000Z</time>
      </trkpt>
      <trkpt lat="44.01647" lon="4.42578">
        <ele>129</ele>
        <time>2025-01-26T12:17:56.000Z</time>
      </trkpt>
      <trkpt lat="44.01641" lon="4.42571">
        <ele>129.6</ele>
        <time>2025-01-26T12:18:00.000Z</time>
      </trkpt>
      <trkpt lat="44.01634" lon="4.42563">
        <ele>130.4</ele>
        <time>2025-01-26T12:18:04.000Z</time>
      </trkpt>
      <trkpt lat="44.01629" lon="4.42557">
        <ele>130.8</ele>
        <time>2025-01-26T12:18:07.000Z</time>
      </trkpt>
      <trkpt lat="44.01618" lon="4.42544">
        <ele>131.4</ele>
        <time>2025-01-26T12:18:13.000Z</time>
      </trkpt>
      <trkpt lat="44.01611" lon="4.42538">
        <ele>131.8</ele>
        <time>2025-01-26T12:18:16.000Z</time>
      </trkpt>
      <trkpt lat="44.01602" lon="4.4253">
        <ele>132.2</ele>
        <time>2025-01-26T12:18:20.000Z</time>
      </trkpt>
      <trkpt lat="44.01586" lon="4.42511">
        <ele>132.6</ele>
        <time>2025-01-26T12:18:28.000Z</time>
      </trkpt>
      <trkpt lat="44.01578" lon="4.42501">
        <ele>132.8</ele>
        <time>2025-01-26T12:18:32.000Z</time>
      </trkpt>
      <trkpt lat="44.01569" lon="4.42488">
        <ele>133.2</ele>
        <time>2025-01-26T12:18:37.000Z</time>
      </trkpt>
      <trkpt lat="44.01555" lon="4.42474">
        <ele>133.8</ele>
        <time>2025-01-26T12:18:44.000Z</time>
      </trkpt>
      <trkpt lat="44.01552" lon="4.42469">
        <ele>134</ele>
        <time>2025-01-26T12:18:46.000Z</time>
      </trkpt>
      <trkpt lat="44.01542" lon="4.42458">
        <ele>134.8</ele>
        <time>2025-01-26T12:18:51.000Z</time>
      </trkpt>
      <trkpt lat="44.01526" lon="4.42441">
        <ele>135.2</ele>
        <time>2025-01-26T12:18:59.000Z</time>
      </trkpt>
      <trkpt lat="44.01519" lon="4.42432">
        <ele>135.6</ele>
        <time>2025-01-26T12:19:03.000Z</time>
      </trkpt>
      <trkpt lat="44.01501" lon="4.42411">
        <ele>136.4</ele>
        <time>2025-01-26T12:19:12.000Z</time>
      </trkpt>
      <trkpt lat="44.01499" lon="4.42409">
        <ele>136.6</ele>
        <time>2025-01-26T12:19:13.000Z</time>
      </trkpt>
      <trkpt lat="44.01483" lon="4.4239">
        <ele>137.4</ele>
        <time>2025-01-26T12:19:21.000Z</time>
      </trkpt>
      <trkpt lat="44.01481" lon="4.42387">
        <ele>137.4</ele>
        <time>2025-01-26T12:19:22.000Z</time>
      </trkpt>
      <trkpt lat="44.0147" lon="4.42372">
        <ele>138</ele>
        <time>2025-01-26T12:19:28.000Z</time>
      </trkpt>
      <trkpt lat="44.01458" lon="4.42362">
        <ele>138.4</ele>
        <time>2025-01-26T12:19:33.000Z</time>
      </trkpt>
      <trkpt lat="44.01448" lon="4.4235">
        <ele>138.8</ele>
        <time>2025-01-26T12:19:38.000Z</time>
      </trkpt>
      <trkpt lat="44.01434" lon="4.42334">
        <ele>139.6</ele>
        <time>2025-01-26T12:19:45.000Z</time>
      </trkpt>
      <trkpt lat="44.01426" lon="4.42324">
        <ele>139.8</ele>
        <time>2025-01-26T12:19:49.000Z</time>
      </trkpt>
      <trkpt lat="44.01413" lon="4.42308">
        <ele>140.6</ele>
        <time>2025-01-26T12:19:56.000Z</time>
      </trkpt>
      <trkpt lat="44.01407" lon="4.42301">
        <ele>140.8</ele>
        <time>2025-01-26T12:19:59.000Z</time>
      </trkpt>
      <trkpt lat="44.01394" lon="4.42285">
        <ele>141.6</ele>
        <time>2025-01-26T12:20:06.000Z</time>
      </trkpt>
      <trkpt lat="44.01389" lon="4.42277">
        <ele>142</ele>
        <time>2025-01-26T12:20:09.000Z</time>
      </trkpt>
      <trkpt lat="44.01378" lon="4.42261">
        <ele>142.8</ele>
        <time>2025-01-26T12:20:15.000Z</time>
      </trkpt>
      <trkpt lat="44.0137" lon="4.42248">
        <ele>137.9</ele>
        <time>2025-01-26T12:20:17.000Z</time>
      </trkpt>
      <trkpt lat="44.01349" lon="4.42274">
        <ele>135.2</ele>
        <time>2025-01-26T12:20:40.000Z</time>
      </trkpt>
      <trkpt lat="44.01349" lon="4.42275">
        <ele>135.1</ele>
        <time>2025-01-26T12:20:40.062Z</time>
      </trkpt>
      <trkpt lat="44.01352" lon="4.42273">
        <ele>135.4</ele>
        <time>2025-01-26T12:20:40.392Z</time>
      </trkpt>
      <trkpt lat="44.01346" lon="4.42277">
        <ele>134.9</ele>
        <time>2025-01-26T12:20:41.164Z</time>
      </trkpt>
      <trkpt lat="44.01314" lon="4.42294">
        <ele>132.9</ele>
        <time>2025-01-26T12:20:44.977Z</time>
      </trkpt>
      <trkpt lat="44.0129" lon="4.42307">
        <ele>132</ele>
        <time>2025-01-26T12:20:47.821Z</time>
      </trkpt>
      <trkpt lat="44.01277" lon="4.42315">
        <ele>131.3</ele>
        <time>2025-01-26T12:20:49.420Z</time>
      </trkpt>
      <trkpt lat="44.01265" lon="4.4232">
        <ele>131.1</ele>
        <time>2025-01-26T12:20:50.806Z</time>
      </trkpt>
      <trkpt lat="44.01256" lon="4.4232">
        <ele>131.1</ele>
        <time>2025-01-26T12:20:51.779Z</time>
      </trkpt>
      <trkpt lat="44.01244" lon="4.42309">
        <ele>132.3</ele>
        <time>2025-01-26T12:20:53.387Z</time>
      </trkpt>
      <trkpt lat="44.01244" lon="4.42309">
        <ele>132.3</ele>
        <time>2025-01-26T12:20:53.408Z</time>
      </trkpt>
      <trkpt lat="44.01226" lon="4.42313">
        <ele>132.6</ele>
        <time>2025-01-26T12:20:55.463Z</time>
      </trkpt>
      <trkpt lat="44.01205" lon="4.42315">
        <ele>133.3</ele>
        <time>2025-01-26T12:20:57.829Z</time>
      </trkpt>
      <trkpt lat="44.01184" lon="4.42314">
        <ele>134.1</ele>
        <time>2025-01-26T12:21:00.140Z</time>
      </trkpt>
      <trkpt lat="44.01179" lon="4.42305">
        <ele>134.7</ele>
        <time>2025-01-26T12:21:01.078Z</time>
      </trkpt>
      <trkpt lat="44.01175" lon="4.42288">
        <ele>135.5</ele>
        <time>2025-01-26T12:21:02.467Z</time>
      </trkpt>
      <trkpt lat="44.01173" lon="4.4227">
        <ele>136.2</ele>
        <time>2025-01-26T12:21:03.932Z</time>
      </trkpt>
      <trkpt lat="44.01164" lon="4.42241">
        <ele>136.8</ele>
        <time>2025-01-26T12:21:06.445Z</time>
      </trkpt>
      <trkpt lat="44.0116" lon="4.42211">
        <ele>136.5</ele>
        <time>2025-01-26T12:21:08.909Z</time>
      </trkpt>
      <trkpt lat="44.01157" lon="4.42204">
        <ele>136.1</ele>
        <time>2025-01-26T12:21:09.577Z</time>
      </trkpt>
      <trkpt lat="44.01164" lon="4.42193">
        <ele>136.7</ele>
        <time>2025-01-26T12:21:10.745Z</time>
      </trkpt>
      <trkpt lat="44.01166" lon="4.4219">
        <ele>137</ele>
        <time>2025-01-26T12:21:11.140Z</time>
      </trkpt>
      <trkpt lat="44.01164" lon="4.42184">
        <ele>136.8</ele>
        <time>2025-01-26T12:21:11.644Z</time>
      </trkpt>
      <trkpt lat="44.01158" lon="4.42192">
        <ele>136.3</ele>
        <time>2025-01-26T12:21:12.537Z</time>
      </trkpt>
      <trkpt lat="44.01147" lon="4.42212">
        <ele>135.4</ele>
        <time>2025-01-26T12:21:14.555Z</time>
      </trkpt>
      <trkpt lat="44.01147" lon="4.42212">
        <ele>135.4</ele>
        <time>2025-01-26T12:21:14.565Z</time>
      </trkpt>
      <trkpt lat="44.01149" lon="4.42209">
        <ele>135.5</ele>
        <time>2025-01-26T12:21:14.879Z</time>
      </trkpt>
      <trkpt lat="44.01134" lon="4.42229">
        <ele>134.5</ele>
        <time>2025-01-26T12:21:17.167Z</time>
      </trkpt>
      <trkpt lat="44.01134" lon="4.42228">
        <ele>134.4</ele>
        <time>2025-01-26T12:21:17.219Z</time>
      </trkpt>
      <trkpt lat="44.0113" lon="4.42235">
        <ele>134.2</ele>
        <time>2025-01-26T12:21:17.922Z</time>
      </trkpt>
      <trkpt lat="44.0112" lon="4.42242">
        <ele>133.5</ele>
        <time>2025-01-26T12:21:19.205Z</time>
      </trkpt>
      <trkpt lat="44.01114" lon="4.42246">
        <ele>133.1</ele>
        <time>2025-01-26T12:21:19.883Z</time>
      </trkpt>
      <trkpt lat="44.01099" lon="4.42257">
        <ele>131.9</ele>
        <time>2025-01-26T12:21:21.753Z</time>
      </trkpt>
      <trkpt lat="44.01076" lon="4.42273">
        <ele>128.7</ele>
        <time>2025-01-26T12:21:24.629Z</time>
      </trkpt>
      <trkpt lat="44.01033" lon="4.42303">
        <ele>120.2</ele>
        <time>2025-01-26T12:21:30.053Z</time>
      </trkpt>
      <trkpt lat="44.01025" lon="4.42283">
        <ele>118.9</ele>
        <time>2025-01-26T12:21:31.938Z</time>
      </trkpt>
      <trkpt lat="44.01021" lon="4.42274">
        <ele>118.3</ele>
        <time>2025-01-26T12:21:32.728Z</time>
      </trkpt>
      <trkpt lat="44.0102" lon="4.42268">
        <ele>118.1</ele>
        <time>2025-01-26T12:21:33.264Z</time>
      </trkpt>
      <trkpt lat="44.0102" lon="4.4226">
        <ele>118.2</ele>
        <time>2025-01-26T12:21:33.920Z</time>
      </trkpt>
      <trkpt lat="44.01025" lon="4.42241">
        <ele>119</ele>
        <time>2025-01-26T12:21:35.532Z</time>
      </trkpt>
      <trkpt lat="44.01023" lon="4.42232">
        <ele>118.7</ele>
        <time>2025-01-26T12:21:36.205Z</time>
      </trkpt>
      <trkpt lat="44.01022" lon="4.42224">
        <ele>118.4</ele>
        <time>2025-01-26T12:21:36.914Z</time>
      </trkpt>
      <trkpt lat="44.01018" lon="4.42217">
        <ele>117.5</ele>
        <time>2025-01-26T12:21:37.610Z</time>
      </trkpt>
      <trkpt lat="44.01012" lon="4.42213">
        <ele>116.3</ele>
        <time>2025-01-26T12:21:38.411Z</time>
      </trkpt>
      <trkpt lat="44.01002" lon="4.42212">
        <ele>114.5</ele>
        <time>2025-01-26T12:21:39.455Z</time>
      </trkpt>
      <trkpt lat="44.00996" lon="4.42217">
        <ele>113.7</ele>
        <time>2025-01-26T12:21:40.315Z</time>
      </trkpt>
      <trkpt lat="44.00985" lon="4.42226">
        <ele>112.9</ele>
        <time>2025-01-26T12:21:41.756Z</time>
      </trkpt>
      <trkpt lat="44.00977" lon="4.42226">
        <ele>112.4</ele>
        <time>2025-01-26T12:21:42.593Z</time>
      </trkpt>
      <trkpt lat="44.00978" lon="4.42222">
        <ele>112.5</ele>
        <time>2025-01-26T12:21:42.959Z</time>
      </trkpt>
      <trkpt lat="44.00979" lon="4.42214">
        <ele>112.6</ele>
        <time>2025-01-26T12:21:43.615Z</time>
      </trkpt>
      <trkpt lat="44.00979" lon="4.42191">
        <ele>113</ele>
        <time>2025-01-26T12:21:45.391Z</time>
      </trkpt>
      <trkpt lat="44.00978" lon="4.42174">
        <ele>113.1</ele>
        <time>2025-01-26T12:21:46.797Z</time>
      </trkpt>
      <trkpt lat="44.00976" lon="4.4216">
        <ele>114</ele>
        <time>2025-01-26T12:21:47.940Z</time>
      </trkpt>
      <trkpt lat="44.00975" lon="4.42152">
        <ele>114.7</ele>
        <time>2025-01-26T12:21:48.631Z</time>
      </trkpt>
      <trkpt lat="44.00972" lon="4.42141">
        <ele>115.7</ele>
        <time>2025-01-26T12:21:49.560Z</time>
      </trkpt>
      <trkpt lat="44.0097" lon="4.42131">
        <ele>116.6</ele>
        <time>2025-01-26T12:21:50.401Z</time>
      </trkpt>
      <trkpt lat="44.00967" lon="4.42121">
        <ele>117.4</ele>
        <time>2025-01-26T12:21:51.233Z</time>
      </trkpt>
      <trkpt lat="44.00964" lon="4.42116">
        <ele>117.8</ele>
        <time>2025-01-26T12:21:51.727Z</time>
      </trkpt>
      <trkpt lat="44.00961" lon="4.42113">
        <ele>117.8</ele>
        <time>2025-01-26T12:21:52.114Z</time>
      </trkpt>
      <trkpt lat="44.0096" lon="4.4211">
        <ele>118.1</ele>
        <time>2025-01-26T12:21:52.425Z</time>
      </trkpt>
      <trkpt lat="44.00958" lon="4.42105">
        <ele>118.5</ele>
        <time>2025-01-26T12:21:52.876Z</time>
      </trkpt>
      <trkpt lat="44.00957" lon="4.421">
        <ele>118.9</ele>
        <time>2025-01-26T12:21:53.310Z</time>
      </trkpt>
      <trkpt lat="44.00956" lon="4.42094">
        <ele>119.3</ele>
        <time>2025-01-26T12:21:53.759Z</time>
      </trkpt>
      <trkpt lat="44.0095" lon="4.42072">
        <ele>121</ele>
        <time>2025-01-26T12:21:55.663Z</time>
      </trkpt>
      <trkpt lat="44.00946" lon="4.42054">
        <ele>122.5</ele>
        <time>2025-01-26T12:21:57.192Z</time>
      </trkpt>
      <trkpt lat="44.00945" lon="4.42048">
        <ele>123.2</ele>
        <time>2025-01-26T12:21:57.720Z</time>
      </trkpt>
      <trkpt lat="44.00943" lon="4.4205">
        <ele>115.8</ele>
        <time>2025-01-26T07:47:05.000Z</time>
      </trkpt>
      <trkpt lat="44.00934" lon="4.42068">
        <ele>115.8</ele>
        <time>2025-01-26T07:47:12.000Z</time>
      </trkpt>
      <trkpt lat="44.00927" lon="4.42079">
        <ele>117.8</ele>
        <time>2025-01-26T07:47:18.000Z</time>
      </trkpt>
      <trkpt lat="44.00926" lon="4.42081">
        <ele>118.4</ele>
        <time>2025-01-26T07:47:19.000Z</time>
      </trkpt>
      <trkpt lat="44.00923" lon="4.42084">
        <ele>119.2</ele>
        <time>2025-01-26T07:47:21.000Z</time>
      </trkpt>
      <trkpt lat="44.00919" lon="4.42089">
        <ele>120.6</ele>
        <time>2025-01-26T07:47:24.000Z</time>
      </trkpt>
      <trkpt lat="44.00918" lon="4.42089">
        <ele>120.8</ele>
        <time>2025-01-26T07:47:25.000Z</time>
      </trkpt>
      <trkpt lat="44.00915" lon="4.42088">
        <ele>121.2</ele>
        <time>2025-01-26T07:47:27.000Z</time>
      </trkpt>
      <trkpt lat="44.00912" lon="4.42088">
        <ele>121.6</ele>
        <time>2025-01-26T07:47:29.000Z</time>
      </trkpt>
      <trkpt lat="44.00907" lon="4.4209">
        <ele>122.6</ele>
        <time>2025-01-26T07:47:32.000Z</time>
      </trkpt>
      <trkpt lat="44.00905" lon="4.42091">
        <ele>123</ele>
        <time>2025-01-26T07:47:33.000Z</time>
      </trkpt>
      <trkpt lat="44.009" lon="4.42096">
        <ele>124</ele>
        <time>2025-01-26T07:47:36.000Z</time>
      </trkpt>
      <trkpt lat="44.00896" lon="4.42099">
        <ele>125</ele>
        <time>2025-01-26T07:47:38.000Z</time>
      </trkpt>
      <trkpt lat="44.00894" lon="4.421">
        <ele>125.4</ele>
        <time>2025-01-26T07:47:39.000Z</time>
      </trkpt>
      <trkpt lat="44.00886" lon="4.42106">
        <ele>126.4</ele>
        <time>2025-01-26T07:47:43.000Z</time>
      </trkpt>
      <trkpt lat="44.00884" lon="4.42108">
        <ele>126.4</ele>
        <time>2025-01-26T07:47:44.000Z</time>
      </trkpt>
      <trkpt lat="44.00879" lon="4.42114">
        <ele>127</ele>
        <time>2025-01-26T07:47:47.000Z</time>
      </trkpt>
      <trkpt lat="44.00876" lon="4.42114">
        <ele>127</ele>
        <time>2025-01-26T07:47:48.000Z</time>
      </trkpt>
      <trkpt lat="44.00864" lon="4.42115">
        <ele>127.4</ele>
        <time>2025-01-26T07:47:52.000Z</time>
      </trkpt>
      <trkpt lat="44.00849" lon="4.42117">
        <ele>127.8</ele>
        <time>2025-01-26T07:47:57.000Z</time>
      </trkpt>
      <trkpt lat="44.00836" lon="4.42125">
        <ele>127.8</ele>
        <time>2025-01-26T07:48:02.000Z</time>
      </trkpt>
      <trkpt lat="44.00827" lon="4.42129">
        <ele>127.8</ele>
        <time>2025-01-26T07:48:04.000Z</time>
      </trkpt>
      <trkpt lat="44.00817" lon="4.42129">
        <ele>127.8</ele>
        <time>2025-01-26T07:48:06.000Z</time>
      </trkpt>
      <trkpt lat="44.00807" lon="4.42127">
        <ele>127.8</ele>
        <time>2025-01-26T07:48:08.000Z</time>
      </trkpt>
      <trkpt lat="44.00795" lon="4.42123">
        <ele>126.8</ele>
        <time>2025-01-26T07:48:11.000Z</time>
      </trkpt>
      <trkpt lat="44.00788" lon="4.42121">
        <ele>126</ele>
        <time>2025-01-26T07:48:13.000Z</time>
      </trkpt>
      <trkpt lat="44.0078" lon="4.42118">
        <ele>124.8</ele>
        <time>2025-01-26T07:48:16.000Z</time>
      </trkpt>
      <trkpt lat="44.00763" lon="4.42114">
        <ele>123.8</ele>
        <time>2025-01-26T07:48:22.000Z</time>
      </trkpt>
      <trkpt lat="44.00756" lon="4.42114">
        <ele>122.4</ele>
        <time>2025-01-26T07:48:26.000Z</time>
      </trkpt>
      <trkpt lat="44.00755" lon="4.42115">
        <ele>122.2</ele>
        <time>2025-01-26T07:48:27.000Z</time>
      </trkpt>
      <trkpt lat="44.00753" lon="4.42118">
        <ele>121.4</ele>
        <time>2025-01-26T07:48:29.000Z</time>
      </trkpt>
      <trkpt lat="44.00751" lon="4.42125">
        <ele>120.6</ele>
        <time>2025-01-26T07:48:32.000Z</time>
      </trkpt>
      <trkpt lat="44.0075" lon="4.42127">
        <ele>120.4</ele>
        <time>2025-01-26T07:48:33.000Z</time>
      </trkpt>
      <trkpt lat="44.00748" lon="4.42127">
        <ele>120.2</ele>
        <time>2025-01-26T07:48:34.000Z</time>
      </trkpt>
      <trkpt lat="44.00743" lon="4.42127">
        <ele>119.8</ele>
        <time>2025-01-26T07:48:36.000Z</time>
      </trkpt>
      <trkpt lat="44.00735" lon="4.42126">
        <ele>118.6</ele>
        <time>2025-01-26T07:48:39.000Z</time>
      </trkpt>
      <trkpt lat="44.00729" lon="4.42126">
        <ele>117.6</ele>
        <time>2025-01-26T07:48:41.000Z</time>
      </trkpt>
      <trkpt lat="44.00722" lon="4.42126">
        <ele>116.8</ele>
        <time>2025-01-26T07:48:43.000Z</time>
      </trkpt>
      <trkpt lat="44.00718" lon="4.42127">
        <ele>116.4</ele>
        <time>2025-01-26T07:48:44.000Z</time>
      </trkpt>
      <trkpt lat="44.00714" lon="4.42127">
        <ele>116.2</ele>
        <time>2025-01-26T07:48:45.000Z</time>
      </trkpt>
      <trkpt lat="44.00699" lon="4.42125">
        <ele>115.6</ele>
        <time>2025-01-26T07:48:48.000Z</time>
      </trkpt>
      <trkpt lat="44.00695" lon="4.42124">
        <ele>115.2</ele>
        <time>2025-01-26T07:48:49.000Z</time>
      </trkpt>
      <trkpt lat="44.00687" lon="4.42123">
        <ele>113.8</ele>
        <time>2025-01-26T07:48:51.000Z</time>
      </trkpt>
      <trkpt lat="44.00684" lon="4.42123">
        <ele>113.2</ele>
        <time>2025-01-26T07:48:52.000Z</time>
      </trkpt>
      <trkpt lat="44.00681" lon="4.42122">
        <ele>112.8</ele>
        <time>2025-01-26T07:48:53.000Z</time>
      </trkpt>
      <trkpt lat="44.00674" lon="4.42123">
        <ele>112.2</ele>
        <time>2025-01-26T07:48:56.000Z</time>
      </trkpt>
      <trkpt lat="44.00654" lon="4.42117">
        <ele>112</ele>
        <time>2025-01-26T07:49:02.000Z</time>
      </trkpt>
      <trkpt lat="44.00645" lon="4.42114">
        <ele>111.6</ele>
        <time>2025-01-26T07:49:04.000Z</time>
      </trkpt>
      <trkpt lat="44.00635" lon="4.42115">
        <ele>111.6</ele>
        <time>2025-01-26T07:49:07.000Z</time>
      </trkpt>
      <trkpt lat="44.00614" lon="4.42128">
        <ele>110.8</ele>
        <time>2025-01-26T07:49:13.000Z</time>
      </trkpt>
      <trkpt lat="44.00605" lon="4.42132">
        <ele>110.4</ele>
        <time>2025-01-26T07:49:15.000Z</time>
      </trkpt>
      <trkpt lat="44.006" lon="4.42133">
        <ele>110.4</ele>
        <time>2025-01-26T07:49:16.000Z</time>
      </trkpt>
      <trkpt lat="44.00591" lon="4.42136">
        <ele>110.2</ele>
        <time>2025-01-26T07:49:18.000Z</time>
      </trkpt>
      <trkpt lat="44.00581" lon="4.4214">
        <ele>110.2</ele>
        <time>2025-01-26T07:49:20.000Z</time>
      </trkpt>
      <trkpt lat="44.00569" lon="4.42149">
        <ele>110.2</ele>
        <time>2025-01-26T07:49:23.000Z</time>
      </trkpt>
      <trkpt lat="44.00555" lon="4.42159">
        <ele>110.4</ele>
        <time>2025-01-26T07:49:27.000Z</time>
      </trkpt>
      <trkpt lat="44.00553" lon="4.42158">
        <ele>110.4</ele>
        <time>2025-01-26T07:49:28.000Z</time>
      </trkpt>
      <trkpt lat="44.00551" lon="4.42149">
        <ele>110.6</ele>
        <time>2025-01-26T07:49:32.000Z</time>
      </trkpt>
      <trkpt lat="44.00543" lon="4.42148">
        <ele>110.6</ele>
        <time>2025-01-26T07:49:35.000Z</time>
      </trkpt>
      <trkpt lat="44.00533" lon="4.42153">
        <ele>110.6</ele>
        <time>2025-01-26T07:49:38.000Z</time>
      </trkpt>
      <trkpt lat="44.00526" lon="4.42156">
        <ele>110.6</ele>
        <time>2025-01-26T07:49:40.000Z</time>
      </trkpt>
      <trkpt lat="44.00515" lon="4.42171">
        <ele>110.6</ele>
        <time>2025-01-26T07:49:45.000Z</time>
      </trkpt>
      <trkpt lat="44.00504" lon="4.42191">
        <ele>111.2</ele>
        <time>2025-01-26T07:49:51.000Z</time>
      </trkpt>
      <trkpt lat="44.0049" lon="4.42204">
        <ele>111.4</ele>
        <time>2025-01-26T07:49:56.000Z</time>
      </trkpt>
      <trkpt lat="44.00475" lon="4.42214">
        <ele>111.4</ele>
        <time>2025-01-26T07:50:01.000Z</time>
      </trkpt>
      <trkpt lat="44.00471" lon="4.42215">
        <ele>111.4</ele>
        <time>2025-01-26T07:50:02.000Z</time>
      </trkpt>
      <trkpt lat="44.00454" lon="4.42222">
        <ele>111.4</ele>
        <time>2025-01-26T07:50:08.000Z</time>
      </trkpt>
      <trkpt lat="44.00451" lon="4.42224">
        <ele>111.4</ele>
        <time>2025-01-26T07:50:10.000Z</time>
      </trkpt>
      <trkpt lat="44.00445" lon="4.42225">
        <ele>111.4</ele>
        <time>2025-01-26T07:50:14.000Z</time>
      </trkpt>
      <trkpt lat="44.00437" lon="4.42229">
        <ele>111.2</ele>
        <time>2025-01-26T07:50:19.000Z</time>
      </trkpt>
      <trkpt lat="44.00423" lon="4.42237">
        <ele>110.6</ele>
        <time>2025-01-26T07:50:25.000Z</time>
      </trkpt>
      <trkpt lat="44.00421" lon="4.42239">
        <ele>110.4</ele>
        <time>2025-01-26T07:50:26.000Z</time>
      </trkpt>
      <trkpt lat="44.00415" lon="4.42241">
        <ele>110</ele>
        <time>2025-01-26T07:50:29.000Z</time>
      </trkpt>
      <trkpt lat="44.0041" lon="4.42244">
        <ele>109.2</ele>
        <time>2025-01-26T07:50:32.000Z</time>
      </trkpt>
      <trkpt lat="44.00402" lon="4.42246">
        <ele>108.8</ele>
        <time>2025-01-26T07:50:36.000Z</time>
      </trkpt>
      <trkpt lat="44.00396" lon="4.42248">
        <ele>108.4</ele>
        <time>2025-01-26T07:50:39.000Z</time>
      </trkpt>
      <trkpt lat="44.00386" lon="4.4225">
        <ele>107</ele>
        <time>2025-01-26T07:50:43.000Z</time>
      </trkpt>
      <trkpt lat="44.00371" lon="4.42252">
        <ele>106</ele>
        <time>2025-01-26T07:50:49.000Z</time>
      </trkpt>
      <trkpt lat="44.00368" lon="4.42253">
        <ele>105.8</ele>
        <time>2025-01-26T07:50:50.000Z</time>
      </trkpt>
      <trkpt lat="44.00355" lon="4.42256">
        <ele>104.6</ele>
        <time>2025-01-26T07:50:54.000Z</time>
      </trkpt>
      <trkpt lat="44.00352" lon="4.42257">
        <ele>104.2</ele>
        <time>2025-01-26T07:50:55.000Z</time>
      </trkpt>
      <trkpt lat="44.00341" lon="4.42257">
        <ele>103.4</ele>
        <time>2025-01-26T07:50:58.000Z</time>
      </trkpt>
      <trkpt lat="44.00338" lon="4.42256">
        <ele>103.4</ele>
        <time>2025-01-26T07:50:59.000Z</time>
      </trkpt>
      <trkpt lat="44.00319" lon="4.42252">
        <ele>101.2</ele>
        <time>2025-01-26T07:51:05.000Z</time>
      </trkpt>
      <trkpt lat="44.00317" lon="4.42252">
        <ele>100.8</ele>
        <time>2025-01-26T07:51:06.000Z</time>
      </trkpt>
      <trkpt lat="44.00311" lon="4.42251">
        <ele>100.2</ele>
        <time>2025-01-26T07:51:08.000Z</time>
      </trkpt>
      <trkpt lat="44.00299" lon="4.42248">
        <ele>99.4</ele>
        <time>2025-01-26T07:51:12.000Z</time>
      </trkpt>
      <trkpt lat="44.00293" lon="4.42247">
        <ele>99</ele>
        <time>2025-01-26T07:51:14.000Z</time>
      </trkpt>
      <trkpt lat="44.00277" lon="4.42247">
        <ele>98</ele>
        <time>2025-01-26T07:51:18.000Z</time>
      </trkpt>
      <trkpt lat="44.00262" lon="4.42247">
        <ele>97.4</ele>
        <time>2025-01-26T07:51:22.000Z</time>
      </trkpt>
      <trkpt lat="44.00255" lon="4.42247">
        <ele>96.6</ele>
        <time>2025-01-26T07:51:24.000Z</time>
      </trkpt>
      <trkpt lat="44.00244" lon="4.42247">
        <ele>95.8</ele>
        <time>2025-01-26T07:51:27.000Z</time>
      </trkpt>
      <trkpt lat="44.00242" lon="4.42246">
        <ele>95.4</ele>
        <time>2025-01-26T07:51:28.000Z</time>
      </trkpt>
      <trkpt lat="44.00231" lon="4.42243">
        <ele>94</ele>
        <time>2025-01-26T07:51:32.000Z</time>
      </trkpt>
      <trkpt lat="44.00212" lon="4.42236">
        <ele>93.4</ele>
        <time>2025-01-26T07:51:39.000Z</time>
      </trkpt>
      <trkpt lat="44.0021" lon="4.42235">
        <ele>93</ele>
        <time>2025-01-26T07:51:40.000Z</time>
      </trkpt>
      <trkpt lat="44.00203" lon="4.42233">
        <ele>91.8</ele>
        <time>2025-01-26T07:51:43.000Z</time>
      </trkpt>
      <trkpt lat="44.00201" lon="4.42233">
        <ele>91.6</ele>
        <time>2025-01-26T07:51:44.000Z</time>
      </trkpt>
      <trkpt lat="44.00192" lon="4.42232">
        <ele>90.8</ele>
        <time>2025-01-26T07:51:48.000Z</time>
      </trkpt>
      <trkpt lat="44.00188" lon="4.42231">
        <ele>90.4</ele>
        <time>2025-01-26T07:51:50.000Z</time>
      </trkpt>
      <trkpt lat="44.00181" lon="4.42228">
        <ele>89.8</ele>
        <time>2025-01-26T07:51:54.000Z</time>
      </trkpt>
      <trkpt lat="44.00178" lon="4.42227">
        <ele>89.4</ele>
        <time>2025-01-26T07:51:56.000Z</time>
      </trkpt>
      <trkpt lat="44.00174" lon="4.42227">
        <ele>88.8</ele>
        <time>2025-01-26T07:51:58.000Z</time>
      </trkpt>
      <trkpt lat="44.00171" lon="4.42225">
        <ele>87.6</ele>
        <time>2025-01-26T07:52:01.000Z</time>
      </trkpt>
      <trkpt lat="44.00167" lon="4.42224">
        <ele>86.8</ele>
        <time>2025-01-26T07:52:04.000Z</time>
      </trkpt>
      <trkpt lat="44.00164" lon="4.42223">
        <ele>86.4</ele>
        <time>2025-01-26T07:52:06.000Z</time>
      </trkpt>
      <trkpt lat="44.00158" lon="4.42222">
        <ele>85.8</ele>
        <time>2025-01-26T07:52:10.000Z</time>
      </trkpt>
      <trkpt lat="44.00155" lon="4.42221">
        <ele>85</ele>
        <time>2025-01-26T07:52:12.000Z</time>
      </trkpt>
      <trkpt lat="44.00149" lon="4.4222">
        <ele>84</ele>
        <time>2025-01-26T07:52:15.000Z</time>
      </trkpt>
      <trkpt lat="44.00147" lon="4.42219">
        <ele>83.6</ele>
        <time>2025-01-26T07:52:16.000Z</time>
      </trkpt>
      <trkpt lat="44.0014" lon="4.42218">
        <ele>82.8</ele>
        <time>2025-01-26T07:52:19.000Z</time>
      </trkpt>
      <trkpt lat="44.00133" lon="4.42218">
        <ele>82.2</ele>
        <time>2025-01-26T07:52:22.000Z</time>
      </trkpt>
      <trkpt lat="44.00131" lon="4.42218">
        <ele>81.8</ele>
        <time>2025-01-26T07:52:23.000Z</time>
      </trkpt>
      <trkpt lat="44.00127" lon="4.42217">
        <ele>80.4</ele>
        <time>2025-01-26T07:52:26.000Z</time>
      </trkpt>
      <trkpt lat="44.00122" lon="4.42215">
        <ele>79.2</ele>
        <time>2025-01-26T07:52:29.000Z</time>
      </trkpt>
      <trkpt lat="44.00115" lon="4.42212">
        <ele>78</ele>
        <time>2025-01-26T07:52:33.000Z</time>
      </trkpt>
      <trkpt lat="44.00113" lon="4.42212">
        <ele>77.4</ele>
        <time>2025-01-26T07:52:34.000Z</time>
      </trkpt>
      <trkpt lat="44.00109" lon="4.4221">
        <ele>76.4</ele>
        <time>2025-01-26T07:52:36.000Z</time>
      </trkpt>
      <trkpt lat="44.00103" lon="4.42206">
        <ele>75</ele>
        <time>2025-01-26T07:52:39.000Z</time>
      </trkpt>
      <trkpt lat="44.00097" lon="4.42202">
        <ele>73.6</ele>
        <time>2025-01-26T07:52:42.000Z</time>
      </trkpt>
      <trkpt lat="44.00092" lon="4.422">
        <ele>73.2</ele>
        <time>2025-01-26T07:52:44.000Z</time>
      </trkpt>
      <trkpt lat="44.00087" lon="4.42197">
        <ele>72.6</ele>
        <time>2025-01-26T07:52:46.000Z</time>
      </trkpt>
      <trkpt lat="44.00076" lon="4.42191">
        <ele>71.8</ele>
        <time>2025-01-26T07:52:50.000Z</time>
      </trkpt>
      <trkpt lat="44.00074" lon="4.42189">
        <ele>71.6</ele>
        <time>2025-01-26T07:52:51.000Z</time>
      </trkpt>
      <trkpt lat="44.00071" lon="4.42186">
        <ele>71.4</ele>
        <time>2025-01-26T07:52:52.000Z</time>
      </trkpt>
      <trkpt lat="44.00065" lon="4.42183">
        <ele>70.8</ele>
        <time>2025-01-26T07:52:54.000Z</time>
      </trkpt>
      <trkpt lat="44.0006" lon="4.4218">
        <ele>70.4</ele>
        <time>2025-01-26T07:52:56.000Z</time>
      </trkpt>
      <trkpt lat="44.00058" lon="4.42178">
        <ele>70.2</ele>
        <time>2025-01-26T07:52:57.000Z</time>
      </trkpt>
      <trkpt lat="44.00054" lon="4.42175">
        <ele>70</ele>
        <time>2025-01-26T07:52:59.000Z</time>
      </trkpt>
      <trkpt lat="44.0004" lon="4.42164">
        <ele>69.8</ele>
        <time>2025-01-26T07:53:04.000Z</time>
      </trkpt>
      <trkpt lat="44.00028" lon="4.42158">
        <ele>69.6</ele>
        <time>2025-01-26T07:53:09.000Z</time>
      </trkpt>
      <trkpt lat="44.00014" lon="4.42141">
        <ele>69.2</ele>
        <time>2025-01-26T07:53:16.000Z</time>
      </trkpt>
      <trkpt lat="44" lon="4.4213">
        <ele>69.2</ele>
        <time>2025-01-26T07:53:21.000Z</time>
      </trkpt>
      <trkpt lat="43.99999" lon="4.42129">
        <ele>69.2</ele>
        <time>2025-01-26T07:53:22.000Z</time>
      </trkpt>
      <trkpt lat="43.99993" lon="4.4212">
        <ele>69.4</ele>
        <time>2025-01-26T07:53:26.000Z</time>
      </trkpt>
      <trkpt lat="43.99988" lon="4.42114">
        <ele>69.6</ele>
        <time>2025-01-26T07:53:30.000Z</time>
      </trkpt>
      <trkpt lat="43.99985" lon="4.4211">
        <ele>69.6</ele>
        <time>2025-01-26T07:53:32.000Z</time>
      </trkpt>
      <trkpt lat="43.99977" lon="4.42101">
        <ele>69.8</ele>
        <time>2025-01-26T07:53:35.000Z</time>
      </trkpt>
      <trkpt lat="43.99976" lon="4.421">
        <ele>69.8</ele>
        <time>2025-01-26T07:53:36.000Z</time>
      </trkpt>
      <trkpt lat="43.99971" lon="4.42096">
        <ele>69.8</ele>
        <time>2025-01-26T07:53:38.000Z</time>
      </trkpt>
      <trkpt lat="43.99965" lon="4.4209">
        <ele>69.8</ele>
        <time>2025-01-26T07:53:41.000Z</time>
      </trkpt>
      <trkpt lat="43.9995" lon="4.42075">
        <ele>70</ele>
        <time>2025-01-26T07:53:47.000Z</time>
      </trkpt>
      <trkpt lat="43.99945" lon="4.42071">
        <ele>70</ele>
        <time>2025-01-26T07:53:50.000Z</time>
      </trkpt>
      <trkpt lat="43.99942" lon="4.42067">
        <ele>70.2</ele>
        <time>2025-01-26T07:53:52.000Z</time>
      </trkpt>
      <trkpt lat="43.99935" lon="4.42063">
        <ele>70.2</ele>
        <time>2025-01-26T07:53:54.000Z</time>
      </trkpt>
      <trkpt lat="43.99924" lon="4.42056">
        <ele>70.6</ele>
        <time>2025-01-26T07:53:57.000Z</time>
      </trkpt>
      <trkpt lat="43.99905" lon="4.42045">
        <ele>70.8</ele>
        <time>2025-01-26T07:54:03.000Z</time>
      </trkpt>
      <trkpt lat="43.999" lon="4.42044">
        <ele>71</ele>
        <time>2025-01-26T07:54:05.000Z</time>
      </trkpt>
      <trkpt lat="43.99886" lon="4.4204">
        <ele>71.2</ele>
        <time>2025-01-26T07:54:09.000Z</time>
      </trkpt>
      <trkpt lat="43.99884" lon="4.42038">
        <ele>71.2</ele>
        <time>2025-01-26T07:54:10.000Z</time>
      </trkpt>
      <trkpt lat="43.99874" lon="4.4203">
        <ele>71.6</ele>
        <time>2025-01-26T07:54:15.000Z</time>
      </trkpt>
      <trkpt lat="43.99865" lon="4.42022">
        <ele>71.8</ele>
        <time>2025-01-26T07:54:19.000Z</time>
      </trkpt>
      <trkpt lat="43.99863" lon="4.4202">
        <ele>71.8</ele>
        <time>2025-01-26T07:54:20.000Z</time>
      </trkpt>
      <trkpt lat="43.99855" lon="4.42016">
        <ele>72.2</ele>
        <time>2025-01-26T07:54:23.000Z</time>
      </trkpt>
      <trkpt lat="43.9985" lon="4.42014">
        <ele>72.6</ele>
        <time>2025-01-26T07:54:25.000Z</time>
      </trkpt>
      <trkpt lat="43.9983" lon="4.42015">
        <ele>72.8</ele>
        <time>2025-01-26T07:54:30.000Z</time>
      </trkpt>
      <trkpt lat="43.99797" lon="4.42025">
        <ele>71.6</ele>
        <time>2025-01-26T07:54:37.000Z</time>
      </trkpt>
      <trkpt lat="43.99788" lon="4.42029">
        <ele>70.8</ele>
        <time>2025-01-26T07:54:39.000Z</time>
      </trkpt>
      <trkpt lat="43.99776" lon="4.42034">
        <ele>70</ele>
        <time>2025-01-26T07:54:42.000Z</time>
      </trkpt>
      <trkpt lat="43.99772" lon="4.42035">
        <ele>69.8</ele>
        <time>2025-01-26T07:54:43.000Z</time>
      </trkpt>
      <trkpt lat="43.99756" lon="4.42042">
        <ele>69</ele>
        <time>2025-01-26T07:54:47.000Z</time>
      </trkpt>
      <trkpt lat="43.99748" lon="4.42048">
        <ele>68.6</ele>
        <time>2025-01-26T07:54:49.000Z</time>
      </trkpt>
      <trkpt lat="43.99743" lon="4.42051">
        <ele>68.4</ele>
        <time>2025-01-26T07:54:50.000Z</time>
      </trkpt>
      <trkpt lat="43.99734" lon="4.42056">
        <ele>67.8</ele>
        <time>2025-01-26T07:54:52.000Z</time>
      </trkpt>
      <trkpt lat="43.99729" lon="4.42059">
        <ele>67.4</ele>
        <time>2025-01-26T07:54:53.000Z</time>
      </trkpt>
      <trkpt lat="43.99712" lon="4.42073">
        <ele>66.6</ele>
        <time>2025-01-26T07:54:57.000Z</time>
      </trkpt>
      <trkpt lat="43.99705" lon="4.42084">
        <ele>66.4</ele>
        <time>2025-01-26T07:54:59.000Z</time>
      </trkpt>
      <trkpt lat="43.99699" lon="4.42092">
        <ele>66.4</ele>
        <time>2025-01-26T07:55:01.000Z</time>
      </trkpt>
      <trkpt lat="43.99691" lon="4.42105">
        <ele>66.2</ele>
        <time>2025-01-26T07:55:05.000Z</time>
      </trkpt>
      <trkpt lat="43.99686" lon="4.42112">
        <ele>66</ele>
        <time>2025-01-26T07:55:10.000Z</time>
      </trkpt>
      <trkpt lat="43.99687" lon="4.42114">
        <ele>66</ele>
        <time>2025-01-26T07:55:13.000Z</time>
      </trkpt>
      <trkpt lat="43.99687" lon="4.42109">
        <ele>66</ele>
        <time>2025-01-26T07:55:16.000Z</time>
      </trkpt>
      <trkpt lat="43.99688" lon="4.42104">
        <ele>66</ele>
        <time>2025-01-26T07:55:18.000Z</time>
      </trkpt>
      <trkpt lat="43.99687" lon="4.42101">
        <ele>66</ele>
        <time>2025-01-26T07:55:19.000Z</time>
      </trkpt>
      <trkpt lat="43.99685" lon="4.42101">
        <ele>66</ele>
        <time>2025-01-26T07:55:21.000Z</time>
      </trkpt>
      <trkpt lat="43.99685" lon="4.42101">
        <ele>66</ele>
        <time>2025-01-26T07:55:22.000Z</time>
      </trkpt>
      <trkpt lat="43.99685" lon="4.42103">
        <ele>66.2</ele>
        <time>2025-01-26T07:55:42.000Z</time>
      </trkpt>
      <trkpt lat="43.99685" lon="4.42106">
        <ele>66.2</ele>
        <time>2025-01-26T07:55:44.000Z</time>
      </trkpt>
      <trkpt lat="43.99685" lon="4.42109">
        <ele>66.2</ele>
        <time>2025-01-26T07:55:45.000Z</time>
      </trkpt>
      <trkpt lat="43.99687" lon="4.42127">
        <ele>66.2</ele>
        <time>2025-01-26T07:55:51.000Z</time>
      </trkpt>
      <trkpt lat="43.99692" lon="4.42129">
        <ele>65.8</ele>
        <time>2025-01-26T07:55:56.000Z</time>
      </trkpt>
      <trkpt lat="43.99692" lon="4.42129">
        <ele>65.8</ele>
        <time>2025-01-26T07:55:57.000Z</time>
      </trkpt>
      <trkpt lat="43.99694" lon="4.42126">
        <ele>65.6</ele>
        <time>2025-01-26T07:58:01.000Z</time>
      </trkpt>
      <trkpt lat="43.997" lon="4.42126">
        <ele>65.6</ele>
        <time>2025-01-26T07:58:04.000Z</time>
      </trkpt>
      <trkpt lat="43.99719" lon="4.42127">
        <ele>65.4</ele>
        <time>2025-01-26T07:58:09.000Z</time>
      </trkpt>
      <trkpt lat="43.99733" lon="4.4213">
        <ele>65.2</ele>
        <time>2025-01-26T07:58:12.000Z</time>
      </trkpt>
      <trkpt lat="43.99745" lon="4.42132">
        <ele>64.6</ele>
        <time>2025-01-26T07:58:14.000Z</time>
      </trkpt>
      <trkpt lat="43.99771" lon="4.42137">
        <ele>64</ele>
        <time>2025-01-26T07:58:18.000Z</time>
      </trkpt>
      <trkpt lat="43.99784" lon="4.42141">
        <ele>63.8</ele>
        <time>2025-01-26T07:58:20.000Z</time>
      </trkpt>
      <trkpt lat="43.99818" lon="4.42145">
        <ele>63.6</ele>
        <time>2025-01-26T07:58:25.000Z</time>
      </trkpt>
      <trkpt lat="43.9987" lon="4.42159">
        <ele>64</ele>
        <time>2025-01-26T07:58:33.000Z</time>
      </trkpt>
      <trkpt lat="43.99917" lon="4.42189">
        <ele>64.4</ele>
        <time>2025-01-26T07:58:41.000Z</time>
      </trkpt>
      <trkpt lat="43.99947" lon="4.42216">
        <ele>65</ele>
        <time>2025-01-26T07:58:47.000Z</time>
      </trkpt>
      <trkpt lat="43.99957" lon="4.42223">
        <ele>65</ele>
        <time>2025-01-26T07:58:49.000Z</time>
      </trkpt>
      <trkpt lat="43.99963" lon="4.42226">
        <ele>65.2</ele>
        <time>2025-01-26T07:58:50.000Z</time>
      </trkpt>
      <trkpt lat="43.99979" lon="4.42233">
        <ele>65.8</ele>
        <time>2025-01-26T07:58:53.000Z</time>
      </trkpt>
      <trkpt lat="43.99984" lon="4.42236">
        <ele>65.8</ele>
        <time>2025-01-26T07:58:54.000Z</time>
      </trkpt>
      <trkpt lat="43.99988" lon="4.42241">
        <ele>65.8</ele>
        <time>2025-01-26T07:58:55.000Z</time>
      </trkpt>
      <trkpt lat="43.99997" lon="4.42252">
        <ele>66</ele>
        <time>2025-01-26T07:58:57.000Z</time>
      </trkpt>
      <trkpt lat="44.00005" lon="4.42264">
        <ele>66</ele>
        <time>2025-01-26T07:58:59.000Z</time>
      </trkpt>
      <trkpt lat="44.00022" lon="4.42301">
        <ele>66</ele>
        <time>2025-01-26T07:59:04.000Z</time>
      </trkpt>
      <trkpt lat="44.00029" lon="4.42317">
        <ele>66</ele>
        <time>2025-01-26T07:59:06.000Z</time>
      </trkpt>
      <trkpt lat="44.00043" lon="4.42339">
        <ele>66</ele>
        <time>2025-01-26T07:59:09.000Z</time>
      </trkpt>
      <trkpt lat="44.00066" lon="4.42384">
        <ele>65.6</ele>
        <time>2025-01-26T07:59:15.000Z</time>
      </trkpt>
      <trkpt lat="44.00087" lon="4.42416">
        <ele>65.4</ele>
        <time>2025-01-26T07:59:20.000Z</time>
      </trkpt>
      <trkpt lat="44.00091" lon="4.4242">
        <ele>65.4</ele>
        <time>2025-01-26T07:59:21.000Z</time>
      </trkpt>
      <trkpt lat="44.00105" lon="4.4243">
        <ele>65.6</ele>
        <time>2025-01-26T07:59:24.000Z</time>
      </trkpt>
      <trkpt lat="44.0011" lon="4.42432">
        <ele>65.8</ele>
        <time>2025-01-26T07:59:25.000Z</time>
      </trkpt>
      <trkpt lat="44.00137" lon="4.42448">
        <ele>66.6</ele>
        <time>2025-01-26T07:59:31.000Z</time>
      </trkpt>
      <trkpt lat="44.00168" lon="4.42467">
        <ele>66.8</ele>
        <time>2025-01-26T07:59:38.000Z</time>
      </trkpt>
      <trkpt lat="44.00172" lon="4.42471">
        <ele>66.8</ele>
        <time>2025-01-26T07:59:39.000Z</time>
      </trkpt>
      <trkpt lat="44.00178" lon="4.42479">
        <ele>66.8</ele>
        <time>2025-01-26T07:59:41.000Z</time>
      </trkpt>
      <trkpt lat="44.00184" lon="4.42487">
        <ele>66.8</ele>
        <time>2025-01-26T07:59:43.000Z</time>
      </trkpt>
      <trkpt lat="44.00186" lon="4.42494">
        <ele>66.8</ele>
        <time>2025-01-26T07:59:45.000Z</time>
      </trkpt>
      <trkpt lat="44.00185" lon="4.42497">
        <ele>66.8</ele>
        <time>2025-01-26T07:59:46.000Z</time>
      </trkpt>
      <trkpt lat="44.00179" lon="4.42507">
        <ele>67</ele>
        <time>2025-01-26T07:59:49.000Z</time>
      </trkpt>
      <trkpt lat="44.00172" lon="4.42516">
        <ele>67.8</ele>
        <time>2025-01-26T07:59:52.000Z</time>
      </trkpt>
      <trkpt lat="44.0017" lon="4.42519">
        <ele>67.8</ele>
        <time>2025-01-26T07:59:53.000Z</time>
      </trkpt>
      <trkpt lat="44.00156" lon="4.42536">
        <ele>68.4</ele>
        <time>2025-01-26T07:59:59.000Z</time>
      </trkpt>
      <trkpt lat="44.00146" lon="4.4254">
        <ele>68.8</ele>
        <time>2025-01-26T08:00:04.000Z</time>
      </trkpt>
      <trkpt lat="44.00139" lon="4.42532">
        <ele>69.8</ele>
        <time>2025-01-26T08:00:10.000Z</time>
      </trkpt>
      <trkpt lat="44.00138" lon="4.42531">
        <ele>70</ele>
        <time>2025-01-26T08:00:11.000Z</time>
      </trkpt>
      <trkpt lat="44.00132" lon="4.42529">
        <ele>70.4</ele>
        <time>2025-01-26T08:00:16.000Z</time>
      </trkpt>
      <trkpt lat="44.00127" lon="4.42529">
        <ele>71</ele>
        <time>2025-01-26T08:00:19.000Z</time>
      </trkpt>
      <trkpt lat="44.00125" lon="4.42528">
        <ele>71.2</ele>
        <time>2025-01-26T08:00:20.000Z</time>
      </trkpt>
      <trkpt lat="44.00121" lon="4.42527">
        <ele>71.4</ele>
        <time>2025-01-26T08:00:22.000Z</time>
      </trkpt>
      <trkpt lat="44.00109" lon="4.42528">
        <ele>71.8</ele>
        <time>2025-01-26T08:00:27.000Z</time>
      </trkpt>
      <trkpt lat="44.00092" lon="4.42537">
        <ele>72</ele>
        <time>2025-01-26T08:00:33.000Z</time>
      </trkpt>
      <trkpt lat="44.00078" lon="4.42544">
        <ele>72.6</ele>
        <time>2025-01-26T08:00:39.000Z</time>
      </trkpt>
      <trkpt lat="44.00066" lon="4.42547">
        <ele>73.2</ele>
        <time>2025-01-26T08:00:44.000Z</time>
      </trkpt>
      <trkpt lat="44.00064" lon="4.42549">
        <ele>73.4</ele>
        <time>2025-01-26T08:00:45.000Z</time>
      </trkpt>
      <trkpt lat="44.00051" lon="4.42554">
        <ele>74.6</ele>
        <time>2025-01-26T08:00:51.000Z</time>
      </trkpt>
      <trkpt lat="44.0005" lon="4.42553">
        <ele>74.8</ele>
        <time>2025-01-26T08:00:52.000Z</time>
      </trkpt>
      <trkpt lat="44.00043" lon="4.42554">
        <ele>75.6</ele>
        <time>2025-01-26T08:00:56.000Z</time>
      </trkpt>
      <trkpt lat="44.0004" lon="4.42554">
        <ele>76</ele>
        <time>2025-01-26T08:00:57.000Z</time>
      </trkpt>
      <trkpt lat="44.00033" lon="4.42557">
        <ele>76.8</ele>
        <time>2025-01-26T08:01:00.000Z</time>
      </trkpt>
      <trkpt lat="44.00031" lon="4.42557">
        <ele>77</ele>
        <time>2025-01-26T08:01:01.000Z</time>
      </trkpt>
      <trkpt lat="44.00025" lon="4.42558">
        <ele>77.2</ele>
        <time>2025-01-26T08:01:04.000Z</time>
      </trkpt>
      <trkpt lat="44.00021" lon="4.42558">
        <ele>78</ele>
        <time>2025-01-26T08:01:08.000Z</time>
      </trkpt>
      <trkpt lat="44.0002" lon="4.42559">
        <ele>78.4</ele>
        <time>2025-01-26T08:01:10.000Z</time>
      </trkpt>
      <trkpt lat="44.00012" lon="4.42559">
        <ele>78.8</ele>
        <time>2025-01-26T08:01:15.000Z</time>
      </trkpt>
      <trkpt lat="44.00006" lon="4.42561">
        <ele>79.2</ele>
        <time>2025-01-26T08:01:20.000Z</time>
      </trkpt>
      <trkpt lat="44.00005" lon="4.42563">
        <ele>79.2</ele>
        <time>2025-01-26T08:01:21.000Z</time>
      </trkpt>
      <trkpt lat="43.99998" lon="4.42566">
        <ele>80.2</ele>
        <time>2025-01-26T08:01:25.000Z</time>
      </trkpt>
      <trkpt lat="43.99996" lon="4.42566">
        <ele>80.4</ele>
        <time>2025-01-26T08:01:26.000Z</time>
      </trkpt>
      <trkpt lat="43.9999" lon="4.42569">
        <ele>81</ele>
        <time>2025-01-26T08:01:32.000Z</time>
      </trkpt>
      <trkpt lat="43.99989" lon="4.42569">
        <ele>81.4</ele>
        <time>2025-01-26T08:01:34.000Z</time>
      </trkpt>
      <trkpt lat="43.99989" lon="4.42569">
        <ele>81.4</ele>
        <time>2025-01-26T08:01:35.000Z</time>
      </trkpt>
      <trkpt lat="43.99989" lon="4.42572">
        <ele>82.6</ele>
        <time>2025-01-26T08:06:11.000Z</time>
      </trkpt>
      <trkpt lat="43.99992" lon="4.42575">
        <ele>82.6</ele>
        <time>2025-01-26T08:06:13.000Z</time>
      </trkpt>
      <trkpt lat="43.99998" lon="4.42583">
        <ele>82.8</ele>
        <time>2025-01-26T08:06:18.000Z</time>
      </trkpt>
      <trkpt lat="44.00002" lon="4.4259">
        <ele>83</ele>
        <time>2025-01-26T08:06:21.000Z</time>
      </trkpt>
      <trkpt lat="44.00005" lon="4.42592">
        <ele>83.6</ele>
        <time>2025-01-26T08:06:23.000Z</time>
      </trkpt>
      <trkpt lat="44.0001" lon="4.42599">
        <ele>84.8</ele>
        <time>2025-01-26T08:06:27.000Z</time>
      </trkpt>
      <trkpt lat="44.00013" lon="4.42602">
        <ele>86</ele>
        <time>2025-01-26T08:06:29.000Z</time>
      </trkpt>
      <trkpt lat="44.00014" lon="4.42604">
        <ele>86.2</ele>
        <time>2025-01-26T08:06:30.000Z</time>
      </trkpt>
      <trkpt lat="44.00019" lon="4.42609">
        <ele>87</ele>
        <time>2025-01-26T08:06:33.000Z</time>
      </trkpt>
      <trkpt lat="44.00025" lon="4.42616">
        <ele>87.6</ele>
        <time>2025-01-26T08:06:37.000Z</time>
      </trkpt>
      <trkpt lat="44.0003" lon="4.42624">
        <ele>88</ele>
        <time>2025-01-26T08:06:41.000Z</time>
      </trkpt>
      <trkpt lat="44.00032" lon="4.42627">
        <ele>88.2</ele>
        <time>2025-01-26T08:06:43.000Z</time>
      </trkpt>
      <trkpt lat="44.00037" lon="4.4264">
        <ele>89</ele>
        <time>2025-01-26T08:06:50.000Z</time>
      </trkpt>
      <trkpt lat="44.00038" lon="4.42652">
        <ele>89.4</ele>
        <time>2025-01-26T08:06:55.000Z</time>
      </trkpt>
      <trkpt lat="44.0004" lon="4.42658">
        <ele>90.4</ele>
        <time>2025-01-26T08:06:58.000Z</time>
      </trkpt>
      <trkpt lat="44.00043" lon="4.4267">
        <ele>91.4</ele>
        <time>2025-01-26T08:07:03.000Z</time>
      </trkpt>
      <trkpt lat="44.00047" lon="4.42683">
        <ele>92.8</ele>
        <time>2025-01-26T08:07:08.000Z</time>
      </trkpt>
      <trkpt lat="44.00047" lon="4.42686">
        <ele>93</ele>
        <time>2025-01-26T08:07:09.000Z</time>
      </trkpt>
      <trkpt lat="44.00047" lon="4.42689">
        <ele>93.2</ele>
        <time>2025-01-26T08:07:10.000Z</time>
      </trkpt>
      <trkpt lat="44.00049" lon="4.42698">
        <ele>93.8</ele>
        <time>2025-01-26T08:07:14.000Z</time>
      </trkpt>
      <trkpt lat="44.0005" lon="4.42706">
        <ele>94.4</ele>
        <time>2025-01-26T08:07:17.000Z</time>
      </trkpt>
      <trkpt lat="44.00051" lon="4.42711">
        <ele>94.8</ele>
        <time>2025-01-26T08:07:19.000Z</time>
      </trkpt>
      <trkpt lat="44.00054" lon="4.42725">
        <ele>95.8</ele>
        <time>2025-01-26T08:07:24.000Z</time>
      </trkpt>
      <trkpt lat="44.00055" lon="4.42727">
        <ele>96</ele>
        <time>2025-01-26T08:07:25.000Z</time>
      </trkpt>
      <trkpt lat="44.00061" lon="4.42739">
        <ele>97</ele>
        <time>2025-01-26T08:07:30.000Z</time>
      </trkpt>
      <trkpt lat="44.00065" lon="4.42745">
        <ele>97.4</ele>
        <time>2025-01-26T08:07:33.000Z</time>
      </trkpt>
      <trkpt lat="44.00068" lon="4.4275">
        <ele>98</ele>
        <time>2025-01-26T08:07:35.000Z</time>
      </trkpt>
      <trkpt lat="44.00071" lon="4.42757">
        <ele>98.6</ele>
        <time>2025-01-26T08:07:38.000Z</time>
      </trkpt>
      <trkpt lat="44.00072" lon="4.42759">
        <ele>98.6</ele>
        <time>2025-01-26T08:07:39.000Z</time>
      </trkpt>
      <trkpt lat="44.00078" lon="4.42775">
        <ele>99</ele>
        <time>2025-01-26T08:07:48.000Z</time>
      </trkpt>
      <trkpt lat="44.00078" lon="4.42776">
        <ele>99</ele>
        <time>2025-01-26T08:07:49.000Z</time>
      </trkpt>
      <trkpt lat="44.00079" lon="4.42777">
        <ele>99.4</ele>
        <time>2025-01-26T08:07:55.000Z</time>
      </trkpt>
      <trkpt lat="44.0008" lon="4.42778">
        <ele>99.4</ele>
        <time>2025-01-26T08:07:56.000Z</time>
      </trkpt>
      <trkpt lat="44.00082" lon="4.42781">
        <ele>99.4</ele>
        <time>2025-01-26T08:07:58.000Z</time>
      </trkpt>
      <trkpt lat="44.00087" lon="4.42794">
        <ele>99.6</ele>
        <time>2025-01-26T08:08:04.000Z</time>
      </trkpt>
      <trkpt lat="44.00094" lon="4.42808">
        <ele>99.6</ele>
        <time>2025-01-26T08:08:10.000Z</time>
      </trkpt>
      <trkpt lat="44.00095" lon="4.42813">
        <ele>99.8</ele>
        <time>2025-01-26T08:08:12.000Z</time>
      </trkpt>
      <trkpt lat="44.00095" lon="4.42815">
        <ele>100</ele>
        <time>2025-01-26T08:08:13.000Z</time>
      </trkpt>
      <trkpt lat="44.00094" lon="4.42817">
        <ele>100.2</ele>
        <time>2025-01-26T08:08:14.000Z</time>
      </trkpt>
      <trkpt lat="44.00091" lon="4.42827">
        <ele>101.4</ele>
        <time>2025-01-26T08:08:19.000Z</time>
      </trkpt>
      <trkpt lat="44.0009" lon="4.42829">
        <ele>102</ele>
        <time>2025-01-26T08:08:21.000Z</time>
      </trkpt>
      <trkpt lat="44.0009" lon="4.42833">
        <ele>102.6</ele>
        <time>2025-01-26T08:08:23.000Z</time>
      </trkpt>
      <trkpt lat="44.00088" lon="4.42839">
        <ele>103.8</ele>
        <time>2025-01-26T08:08:26.000Z</time>
      </trkpt>
      <trkpt lat="44.00087" lon="4.4284">
        <ele>104.2</ele>
        <time>2025-01-26T08:08:27.000Z</time>
      </trkpt>
      <trkpt lat="44.00079" lon="4.42842">
        <ele>105.2</ele>
        <time>2025-01-26T08:08:31.000Z</time>
      </trkpt>
      <trkpt lat="44.00075" lon="4.42845">
        <ele>105.8</ele>
        <time>2025-01-26T08:08:33.000Z</time>
      </trkpt>
      <trkpt lat="44.00074" lon="4.42848">
        <ele>106</ele>
        <time>2025-01-26T08:08:34.000Z</time>
      </trkpt>
      <trkpt lat="44.00072" lon="4.42852">
        <ele>106.2</ele>
        <time>2025-01-26T08:08:36.000Z</time>
      </trkpt>
      <trkpt lat="44.0007" lon="4.42857">
        <ele>106.2</ele>
        <time>2025-01-26T08:08:38.000Z</time>
      </trkpt>
      <trkpt lat="44.00065" lon="4.42874">
        <ele>107.4</ele>
        <time>2025-01-26T08:08:45.000Z</time>
      </trkpt>
      <trkpt lat="44.00063" lon="4.42878">
        <ele>107.6</ele>
        <time>2025-01-26T08:08:47.000Z</time>
      </trkpt>
      <trkpt lat="44.00059" lon="4.42895">
        <ele>108.4</ele>
        <time>2025-01-26T08:08:53.000Z</time>
      </trkpt>
      <trkpt lat="44.00056" lon="4.429">
        <ele>108.6</ele>
        <time>2025-01-26T08:08:55.000Z</time>
      </trkpt>
      <trkpt lat="44.00044" lon="4.42919">
        <ele>108.8</ele>
        <time>2025-01-26T08:09:02.000Z</time>
      </trkpt>
      <trkpt lat="44.00039" lon="4.42927">
        <ele>108.8</ele>
        <time>2025-01-26T08:09:04.000Z</time>
      </trkpt>
      <trkpt lat="44.00029" lon="4.42941">
        <ele>108.6</ele>
        <time>2025-01-26T08:09:07.000Z</time>
      </trkpt>
      <trkpt lat="44.00009" lon="4.42961">
        <ele>107.2</ele>
        <time>2025-01-26T08:09:13.000Z</time>
      </trkpt>
      <trkpt lat="44.00007" lon="4.42963">
        <ele>106</ele>
        <time>2025-01-26T08:09:16.000Z</time>
      </trkpt>
      <trkpt lat="44.00008" lon="4.42965">
        <ele>105.2</ele>
        <time>2025-01-26T08:09:19.000Z</time>
      </trkpt>
      <trkpt lat="44.0001" lon="4.42965">
        <ele>104.6</ele>
        <time>2025-01-26T08:09:22.000Z</time>
      </trkpt>
      <trkpt lat="44.00013" lon="4.42965">
        <ele>104.6</ele>
        <time>2025-01-26T08:09:24.000Z</time>
      </trkpt>
      <trkpt lat="44.00019" lon="4.4297">
        <ele>104.6</ele>
        <time>2025-01-26T08:09:27.000Z</time>
      </trkpt>
      <trkpt lat="44.00023" lon="4.42973">
        <ele>104.6</ele>
        <time>2025-01-26T08:09:29.000Z</time>
      </trkpt>
      <trkpt lat="44.00036" lon="4.42984">
        <ele>105</ele>
        <time>2025-01-26T08:09:35.000Z</time>
      </trkpt>
      <trkpt lat="44.0005" lon="4.43">
        <ele>106.2</ele>
        <time>2025-01-26T08:09:42.000Z</time>
      </trkpt>
      <trkpt lat="44.00063" lon="4.43017">
        <ele>107.4</ele>
        <time>2025-01-26T08:09:49.000Z</time>
      </trkpt>
      <trkpt lat="44.00064" lon="4.4302">
        <ele>107.4</ele>
        <time>2025-01-26T08:09:50.000Z</time>
      </trkpt>
      <trkpt lat="44.00081" lon="4.43045">
        <ele>108.2</ele>
        <time>2025-01-26T08:09:59.000Z</time>
      </trkpt>
      <trkpt lat="44.00085" lon="4.43051">
        <ele>108.4</ele>
        <time>2025-01-26T08:10:01.000Z</time>
      </trkpt>
      <trkpt lat="44.00098" lon="4.4307">
        <ele>109</ele>
        <time>2025-01-26T08:10:07.000Z</time>
      </trkpt>
      <trkpt lat="44.00112" lon="4.43093">
        <ele>109.4</ele>
        <time>2025-01-26T08:10:14.000Z</time>
      </trkpt>
      <trkpt lat="44.00114" lon="4.43097">
        <ele>109.4</ele>
        <time>2025-01-26T08:10:15.000Z</time>
      </trkpt>
      <trkpt lat="44.00131" lon="4.43125">
        <ele>109.8</ele>
        <time>2025-01-26T08:10:23.000Z</time>
      </trkpt>
      <trkpt lat="44.00135" lon="4.43148">
        <ele>110.2</ele>
        <time>2025-01-26T08:10:28.000Z</time>
      </trkpt>
      <trkpt lat="44.00142" lon="4.4317">
        <ele>110.6</ele>
        <time>2025-01-26T08:10:34.000Z</time>
      </trkpt>
      <trkpt lat="44.00149" lon="4.43181">
        <ele>111.6</ele>
        <time>2025-01-26T08:10:38.000Z</time>
      </trkpt>
      <trkpt lat="44.00152" lon="4.43186">
        <ele>112.2</ele>
        <time>2025-01-26T08:10:40.000Z</time>
      </trkpt>
      <trkpt lat="44.00155" lon="4.43189">
        <ele>112.8</ele>
        <time>2025-01-26T08:10:42.000Z</time>
      </trkpt>
      <trkpt lat="44.00163" lon="4.43194">
        <ele>113.8</ele>
        <time>2025-01-26T08:10:46.000Z</time>
      </trkpt>
      <trkpt lat="44.00165" lon="4.43195">
        <ele>114</ele>
        <time>2025-01-26T08:10:47.000Z</time>
      </trkpt>
      <trkpt lat="44.0017" lon="4.43201">
        <ele>115.2</ele>
        <time>2025-01-26T08:10:50.000Z</time>
      </trkpt>
      <trkpt lat="44.00173" lon="4.43201">
        <ele>115.4</ele>
        <time>2025-01-26T08:10:51.000Z</time>
      </trkpt>
      <trkpt lat="44.0018" lon="4.43204">
        <ele>116.2</ele>
        <time>2025-01-26T08:10:54.000Z</time>
      </trkpt>
      <trkpt lat="44.00188" lon="4.43209">
        <ele>117.2</ele>
        <time>2025-01-26T08:10:58.000Z</time>
      </trkpt>
      <trkpt lat="44.0019" lon="4.43209">
        <ele>117.4</ele>
        <time>2025-01-26T08:10:59.000Z</time>
      </trkpt>
      <trkpt lat="44.00199" lon="4.43216">
        <ele>118.6</ele>
        <time>2025-01-26T08:11:04.000Z</time>
      </trkpt>
      <trkpt lat="44.00201" lon="4.43217">
        <ele>118.8</ele>
        <time>2025-01-26T08:11:05.000Z</time>
      </trkpt>
      <trkpt lat="44.00208" lon="4.43226">
        <ele>120</ele>
        <time>2025-01-26T08:11:10.000Z</time>
      </trkpt>
      <trkpt lat="44.00212" lon="4.43232">
        <ele>120.4</ele>
        <time>2025-01-26T08:11:13.000Z</time>
      </trkpt>
      <trkpt lat="44.00216" lon="4.43238">
        <ele>121.2</ele>
        <time>2025-01-26T08:11:16.000Z</time>
      </trkpt>
      <trkpt lat="44.00218" lon="4.43246">
        <ele>121.8</ele>
        <time>2025-01-26T08:11:19.000Z</time>
      </trkpt>
      <trkpt lat="44.00218" lon="4.43251">
        <ele>122.6</ele>
        <time>2025-01-26T08:11:21.000Z</time>
      </trkpt>
      <trkpt lat="44.00219" lon="4.4326">
        <ele>123.6</ele>
        <time>2025-01-26T08:11:25.000Z</time>
      </trkpt>
      <trkpt lat="44.00218" lon="4.43263">
        <ele>124.2</ele>
        <time>2025-01-26T08:11:27.000Z</time>
      </trkpt>
      <trkpt lat="44.00216" lon="4.43269">
        <ele>124.8</ele>
        <time>2025-01-26T08:11:30.000Z</time>
      </trkpt>
      <trkpt lat="44.00216" lon="4.43271">
        <ele>125</ele>
        <time>2025-01-26T08:11:31.000Z</time>
      </trkpt>
      <trkpt lat="44.00217" lon="4.43276">
        <ele>125.4</ele>
        <time>2025-01-26T08:11:33.000Z</time>
      </trkpt>
      <trkpt lat="44.00217" lon="4.43282">
        <ele>125.8</ele>
        <time>2025-01-26T08:11:36.000Z</time>
      </trkpt>
      <trkpt lat="44.00217" lon="4.43287">
        <ele>126.2</ele>
        <time>2025-01-26T08:11:38.000Z</time>
      </trkpt>
      <trkpt lat="44.00217" lon="4.43299">
        <ele>127</ele>
        <time>2025-01-26T08:11:43.000Z</time>
      </trkpt>
      <trkpt lat="44.00216" lon="4.43301">
        <ele>127.2</ele>
        <time>2025-01-26T08:11:44.000Z</time>
      </trkpt>
      <trkpt lat="44.00216" lon="4.43303">
        <ele>127.4</ele>
        <time>2025-01-26T08:11:45.000Z</time>
      </trkpt>
      <trkpt lat="44.00213" lon="4.4331">
        <ele>128</ele>
        <time>2025-01-26T08:11:49.000Z</time>
      </trkpt>
      <trkpt lat="44.00213" lon="4.43316">
        <ele>128.8</ele>
        <time>2025-01-26T08:11:52.000Z</time>
      </trkpt>
      <trkpt lat="44.00216" lon="4.43326">
        <ele>129.2</ele>
        <time>2025-01-26T08:11:57.000Z</time>
      </trkpt>
      <trkpt lat="44.00217" lon="4.43328">
        <ele>129.4</ele>
        <time>2025-01-26T08:11:58.000Z</time>
      </trkpt>
      <trkpt lat="44.00221" lon="4.43334">
        <ele>130.4</ele>
        <time>2025-01-26T08:12:02.000Z</time>
      </trkpt>
      <trkpt lat="44.00224" lon="4.43338">
        <ele>131</ele>
        <time>2025-01-26T08:12:05.000Z</time>
      </trkpt>
      <trkpt lat="44.00228" lon="4.43343">
        <ele>131.4</ele>
        <time>2025-01-26T08:12:08.000Z</time>
      </trkpt>
      <trkpt lat="44.0023" lon="4.43346">
        <ele>131.8</ele>
        <time>2025-01-26T08:12:10.000Z</time>
      </trkpt>
      <trkpt lat="44.00231" lon="4.43347">
        <ele>132</ele>
        <time>2025-01-26T08:12:11.000Z</time>
      </trkpt>
      <trkpt lat="44.00235" lon="4.4335">
        <ele>132.8</ele>
        <time>2025-01-26T08:12:14.000Z</time>
      </trkpt>
      <trkpt lat="44.00236" lon="4.43351">
        <ele>133</ele>
        <time>2025-01-26T08:12:15.000Z</time>
      </trkpt>
      <trkpt lat="44.00242" lon="4.43356">
        <ele>134.2</ele>
        <time>2025-01-26T08:12:20.000Z</time>
      </trkpt>
      <trkpt lat="44.00244" lon="4.43357">
        <ele>134.2</ele>
        <time>2025-01-26T08:12:21.000Z</time>
      </trkpt>
      <trkpt lat="44.00251" lon="4.43363">
        <ele>134.8</ele>
        <time>2025-01-26T08:12:26.000Z</time>
      </trkpt>
      <trkpt lat="44.00252" lon="4.43364">
        <ele>134.8</ele>
        <time>2025-01-26T08:12:27.000Z</time>
      </trkpt>
      <trkpt lat="44.00258" lon="4.43366">
        <ele>135.2</ele>
        <time>2025-01-26T08:12:31.000Z</time>
      </trkpt>
      <trkpt lat="44.00259" lon="4.43367">
        <ele>135.4</ele>
        <time>2025-01-26T08:12:32.000Z</time>
      </trkpt>
      <trkpt lat="44.00264" lon="4.43371">
        <ele>136.4</ele>
        <time>2025-01-26T08:12:36.000Z</time>
      </trkpt>
      <trkpt lat="44.00265" lon="4.43372">
        <ele>136.6</ele>
        <time>2025-01-26T08:12:37.000Z</time>
      </trkpt>
      <trkpt lat="44.00271" lon="4.43377">
        <ele>137.4</ele>
        <time>2025-01-26T08:12:41.000Z</time>
      </trkpt>
      <trkpt lat="44.00272" lon="4.43379">
        <ele>137.6</ele>
        <time>2025-01-26T08:12:42.000Z</time>
      </trkpt>
      <trkpt lat="44.00273" lon="4.43379">
        <ele>137.6</ele>
        <time>2025-01-26T08:12:43.000Z</time>
      </trkpt>
      <trkpt lat="44.00282" lon="4.43381">
        <ele>138.6</ele>
        <time>2025-01-26T08:12:49.000Z</time>
      </trkpt>
      <trkpt lat="44.00283" lon="4.43381">
        <ele>138.8</ele>
        <time>2025-01-26T08:12:50.000Z</time>
      </trkpt>
      <trkpt lat="44.0029" lon="4.43384">
        <ele>139.6</ele>
        <time>2025-01-26T08:12:55.000Z</time>
      </trkpt>
      <trkpt lat="44.00291" lon="4.43385">
        <ele>139.6</ele>
        <time>2025-01-26T08:12:56.000Z</time>
      </trkpt>
      <trkpt lat="44.003" lon="4.434">
        <ele>140.4</ele>
        <time>2025-01-26T08:13:05.000Z</time>
      </trkpt>
      <trkpt lat="44.00307" lon="4.43406">
        <ele>140.8</ele>
        <time>2025-01-26T08:13:08.000Z</time>
      </trkpt>
      <trkpt lat="44.00309" lon="4.43408">
        <ele>141</ele>
        <time>2025-01-26T08:13:09.000Z</time>
      </trkpt>
      <trkpt lat="44.00318" lon="4.43422">
        <ele>142</ele>
        <time>2025-01-26T08:13:15.000Z</time>
      </trkpt>
      <trkpt lat="44.00327" lon="4.43431">
        <ele>143</ele>
        <time>2025-01-26T08:13:20.000Z</time>
      </trkpt>
      <trkpt lat="44.00328" lon="4.43433">
        <ele>143.2</ele>
        <time>2025-01-26T08:13:21.000Z</time>
      </trkpt>
      <trkpt lat="44.00336" lon="4.43445">
        <ele>144</ele>
        <time>2025-01-26T08:13:27.000Z</time>
      </trkpt>
      <trkpt lat="44.00338" lon="4.43447">
        <ele>144.2</ele>
        <time>2025-01-26T08:13:28.000Z</time>
      </trkpt>
      <trkpt lat="44.00345" lon="4.43457">
        <ele>145.2</ele>
        <time>2025-01-26T08:13:34.000Z</time>
      </trkpt>
      <trkpt lat="44.00345" lon="4.43459">
        <ele>145.2</ele>
        <time>2025-01-26T08:13:35.000Z</time>
      </trkpt>
      <trkpt lat="44.00344" lon="4.43466">
        <ele>145.8</ele>
        <time>2025-01-26T08:13:38.000Z</time>
      </trkpt>
      <trkpt lat="44.00343" lon="4.43472">
        <ele>146.4</ele>
        <time>2025-01-26T08:13:41.000Z</time>
      </trkpt>
      <trkpt lat="44.00338" lon="4.4348">
        <ele>147</ele>
        <time>2025-01-26T08:13:46.000Z</time>
      </trkpt>
      <trkpt lat="44.00337" lon="4.43482">
        <ele>147.4</ele>
        <time>2025-01-26T08:13:47.000Z</time>
      </trkpt>
      <trkpt lat="44.00336" lon="4.43488">
        <ele>148.6</ele>
        <time>2025-01-26T08:13:50.000Z</time>
      </trkpt>
      <trkpt lat="44.00335" lon="4.43491">
        <ele>148.6</ele>
        <time>2025-01-26T08:13:52.000Z</time>
      </trkpt>
      <trkpt lat="44.00334" lon="4.43494">
        <ele>149.2</ele>
        <time>2025-01-26T08:13:57.000Z</time>
      </trkpt>
      <trkpt lat="44.00333" lon="4.43495">
        <ele>150.4</ele>
        <time>2025-01-26T08:17:05.000Z</time>
      </trkpt>
      <trkpt lat="44.00331" lon="4.43494">
        <ele>150.4</ele>
        <time>2025-01-26T08:17:06.000Z</time>
      </trkpt>
      <trkpt lat="44.00323" lon="4.43495">
        <ele>150.4</ele>
        <time>2025-01-26T08:17:11.000Z</time>
      </trkpt>
      <trkpt lat="44.0032" lon="4.43509">
        <ele>149.8</ele>
        <time>2025-01-26T08:17:17.000Z</time>
      </trkpt>
      <trkpt lat="44.00319" lon="4.43523">
        <ele>149.6</ele>
        <time>2025-01-26T08:17:23.000Z</time>
      </trkpt>
      <trkpt lat="44.0032" lon="4.43539">
        <ele>149.4</ele>
        <time>2025-01-26T08:17:28.000Z</time>
      </trkpt>
      <trkpt lat="44.00321" lon="4.43542">
        <ele>149.2</ele>
        <time>2025-01-26T08:17:29.000Z</time>
      </trkpt>
      <trkpt lat="44.00324" lon="4.43547">
        <ele>148.8</ele>
        <time>2025-01-26T08:17:31.000Z</time>
      </trkpt>
      <trkpt lat="44.00326" lon="4.43548">
        <ele>148.4</ele>
        <time>2025-01-26T08:17:32.000Z</time>
      </trkpt>
      <trkpt lat="44.00328" lon="4.43548">
        <ele>148.2</ele>
        <time>2025-01-26T08:17:33.000Z</time>
      </trkpt>
      <trkpt lat="44.00333" lon="4.43547">
        <ele>147</ele>
        <time>2025-01-26T08:17:36.000Z</time>
      </trkpt>
      <trkpt lat="44.00337" lon="4.43545">
        <ele>146.8</ele>
        <time>2025-01-26T08:17:38.000Z</time>
      </trkpt>
      <trkpt lat="44.00354" lon="4.43539">
        <ele>146.8</ele>
        <time>2025-01-26T08:17:47.000Z</time>
      </trkpt>
      <trkpt lat="44.00368" lon="4.43542">
        <ele>148</ele>
        <time>2025-01-26T08:17:54.000Z</time>
      </trkpt>
      <trkpt lat="44.00376" lon="4.43548">
        <ele>148.4</ele>
        <time>2025-01-26T08:17:58.000Z</time>
      </trkpt>
      <trkpt lat="44.00382" lon="4.43552">
        <ele>148.4</ele>
        <time>2025-01-26T08:18:01.000Z</time>
      </trkpt>
      <trkpt lat="44.00398" lon="4.43562">
        <ele>148</ele>
        <time>2025-01-26T08:18:08.000Z</time>
      </trkpt>
      <trkpt lat="44.00421" lon="4.4358">
        <ele>147.8</ele>
        <time>2025-01-26T08:18:16.000Z</time>
      </trkpt>
      <trkpt lat="44.00434" lon="4.43587">
        <ele>147.8</ele>
        <time>2025-01-26T08:18:22.000Z</time>
      </trkpt>
      <trkpt lat="44.00444" lon="4.43592">
        <ele>149.4</ele>
        <time>2025-01-26T08:18:28.000Z</time>
      </trkpt>
      <trkpt lat="44.00449" lon="4.43596">
        <ele>150.4</ele>
        <time>2025-01-26T08:18:31.000Z</time>
      </trkpt>
      <trkpt lat="44.00451" lon="4.43598">
        <ele>150.6</ele>
        <time>2025-01-26T08:18:32.000Z</time>
      </trkpt>
      <trkpt lat="44.00454" lon="4.436">
        <ele>151.8</ele>
        <time>2025-01-26T08:18:34.000Z</time>
      </trkpt>
      <trkpt lat="44.00461" lon="4.43606">
        <ele>152.8</ele>
        <time>2025-01-26T08:18:39.000Z</time>
      </trkpt>
      <trkpt lat="44.00467" lon="4.43611">
        <ele>154</ele>
        <time>2025-01-26T08:18:44.000Z</time>
      </trkpt>
      <trkpt lat="44.00471" lon="4.43614">
        <ele>154.6</ele>
        <time>2025-01-26T08:18:47.000Z</time>
      </trkpt>
      <trkpt lat="44.00474" lon="4.43614">
        <ele>155</ele>
        <time>2025-01-26T08:18:49.000Z</time>
      </trkpt>
      <trkpt lat="44.0048" lon="4.43617">
        <ele>156</ele>
        <time>2025-01-26T08:18:53.000Z</time>
      </trkpt>
      <trkpt lat="44.00481" lon="4.43619">
        <ele>156.2</ele>
        <time>2025-01-26T08:18:54.000Z</time>
      </trkpt>
      <trkpt lat="44.00483" lon="4.43629">
        <ele>157.2</ele>
        <time>2025-01-26T08:18:58.000Z</time>
      </trkpt>
      <trkpt lat="44.00483" lon="4.43632">
        <ele>157.6</ele>
        <time>2025-01-26T08:18:59.000Z</time>
      </trkpt>
      <trkpt lat="44.00485" lon="4.43641">
        <ele>158.2</ele>
        <time>2025-01-26T08:19:02.000Z</time>
      </trkpt>
      <trkpt lat="44.00485" lon="4.43658">
        <ele>158.8</ele>
        <time>2025-01-26T08:19:08.000Z</time>
      </trkpt>
      <trkpt lat="44.00483" lon="4.43676">
        <ele>159.4</ele>
        <time>2025-01-26T08:19:14.000Z</time>
      </trkpt>
      <trkpt lat="44.00482" lon="4.43683">
        <ele>159.6</ele>
        <time>2025-01-26T08:19:16.000Z</time>
      </trkpt>
      <trkpt lat="44.00482" lon="4.43712">
        <ele>159.6</ele>
        <time>2025-01-26T08:19:23.000Z</time>
      </trkpt>
      <trkpt lat="44.0049" lon="4.43729">
        <ele>159.8</ele>
        <time>2025-01-26T08:19:28.000Z</time>
      </trkpt>
      <trkpt lat="44.00503" lon="4.43749">
        <ele>160.6</ele>
        <time>2025-01-26T08:19:36.000Z</time>
      </trkpt>
      <trkpt lat="44.0051" lon="4.43759">
        <ele>161.6</ele>
        <time>2025-01-26T08:19:41.000Z</time>
      </trkpt>
      <trkpt lat="44.00517" lon="4.43771">
        <ele>162.8</ele>
        <time>2025-01-26T08:19:46.000Z</time>
      </trkpt>
      <trkpt lat="44.00518" lon="4.43773">
        <ele>163</ele>
        <time>2025-01-26T08:19:47.000Z</time>
      </trkpt>
      <trkpt lat="44.00525" lon="4.43785">
        <ele>163.8</ele>
        <time>2025-01-26T08:19:52.000Z</time>
      </trkpt>
      <trkpt lat="44.00528" lon="4.43788">
        <ele>164</ele>
        <time>2025-01-26T08:19:54.000Z</time>
      </trkpt>
      <trkpt lat="44.00537" lon="4.43796">
        <ele>165</ele>
        <time>2025-01-26T08:20:00.000Z</time>
      </trkpt>
      <trkpt lat="44.00542" lon="4.43799">
        <ele>165.4</ele>
        <time>2025-01-26T08:20:03.000Z</time>
      </trkpt>
      <trkpt lat="44.00549" lon="4.43802">
        <ele>166</ele>
        <time>2025-01-26T08:20:07.000Z</time>
      </trkpt>
      <trkpt lat="44.00558" lon="4.43806">
        <ele>167</ele>
        <time>2025-01-26T08:20:12.000Z</time>
      </trkpt>
      <trkpt lat="44.0056" lon="4.43807">
        <ele>167.2</ele>
        <time>2025-01-26T08:20:13.000Z</time>
      </trkpt>
      <trkpt lat="44.00573" lon="4.4381">
        <ele>168.2</ele>
        <time>2025-01-26T08:20:20.000Z</time>
      </trkpt>
      <trkpt lat="44.00585" lon="4.43815">
        <ele>169.4</ele>
        <time>2025-01-26T08:20:27.000Z</time>
      </trkpt>
      <trkpt lat="44.00586" lon="4.43816">
        <ele>169.6</ele>
        <time>2025-01-26T08:20:28.000Z</time>
      </trkpt>
      <trkpt lat="44.00593" lon="4.43818">
        <ele>170.6</ele>
        <time>2025-01-26T08:20:32.000Z</time>
      </trkpt>
      <trkpt lat="44.006" lon="4.43821">
        <ele>171.8</ele>
        <time>2025-01-26T08:20:36.000Z</time>
      </trkpt>
      <trkpt lat="44.00602" lon="4.43822">
        <ele>172</ele>
        <time>2025-01-26T08:20:37.000Z</time>
      </trkpt>
      <trkpt lat="44.00612" lon="4.43822">
        <ele>172.8</ele>
        <time>2025-01-26T08:20:43.000Z</time>
      </trkpt>
      <trkpt lat="44.00625" lon="4.43819">
        <ele>174</ele>
        <time>2025-01-26T08:20:50.000Z</time>
      </trkpt>
      <trkpt lat="44.00627" lon="4.4382">
        <ele>174.2</ele>
        <time>2025-01-26T08:20:51.000Z</time>
      </trkpt>
      <trkpt lat="44.00633" lon="4.43822">
        <ele>175.2</ele>
        <time>2025-01-26T08:20:55.000Z</time>
      </trkpt>
      <trkpt lat="44.00638" lon="4.43824">
        <ele>176.2</ele>
        <time>2025-01-26T08:20:58.000Z</time>
      </trkpt>
      <trkpt lat="44.00639" lon="4.43826">
        <ele>176.4</ele>
        <time>2025-01-26T08:20:59.000Z</time>
      </trkpt>
      <trkpt lat="44.00646" lon="4.43833">
        <ele>177.6</ele>
        <time>2025-01-26T08:21:04.000Z</time>
      </trkpt>
      <trkpt lat="44.00647" lon="4.43834">
        <ele>177.8</ele>
        <time>2025-01-26T08:21:05.000Z</time>
      </trkpt>
      <trkpt lat="44.00651" lon="4.43842">
        <ele>178.6</ele>
        <time>2025-01-26T08:21:09.000Z</time>
      </trkpt>
      <trkpt lat="44.00652" lon="4.43851">
        <ele>179.4</ele>
        <time>2025-01-26T08:21:13.000Z</time>
      </trkpt>
      <trkpt lat="44.00651" lon="4.43856">
        <ele>179.6</ele>
        <time>2025-01-26T08:21:15.000Z</time>
      </trkpt>
      <trkpt lat="44.00649" lon="4.43857">
        <ele>179.6</ele>
        <time>2025-01-26T08:21:16.000Z</time>
      </trkpt>
      <trkpt lat="44.00646" lon="4.4386">
        <ele>179.8</ele>
        <time>2025-01-26T08:21:18.000Z</time>
      </trkpt>
      <trkpt lat="44.0064" lon="4.43863">
        <ele>179.8</ele>
        <time>2025-01-26T08:21:21.000Z</time>
      </trkpt>
      <trkpt lat="44.00635" lon="4.43865">
        <ele>179.8</ele>
        <time>2025-01-26T08:21:23.000Z</time>
      </trkpt>
      <trkpt lat="44.00619" lon="4.43867">
        <ele>179.6</ele>
        <time>2025-01-26T08:21:27.000Z</time>
      </trkpt>
      <trkpt lat="44.00602" lon="4.43866">
        <ele>179</ele>
        <time>2025-01-26T08:21:30.000Z</time>
      </trkpt>
      <trkpt lat="44.00596" lon="4.43867">
        <ele>178.8</ele>
        <time>2025-01-26T08:21:31.000Z</time>
      </trkpt>
      <trkpt lat="44.00588" lon="4.43867">
        <ele>178.6</ele>
        <time>2025-01-26T08:21:32.000Z</time>
      </trkpt>
      <trkpt lat="44.00567" lon="4.43868">
        <ele>177.2</ele>
        <time>2025-01-26T08:21:35.000Z</time>
      </trkpt>
      <trkpt lat="44.00561" lon="4.43868">
        <ele>176.4</ele>
        <time>2025-01-26T08:21:36.000Z</time>
      </trkpt>
      <trkpt lat="44.00555" lon="4.43867">
        <ele>175.4</ele>
        <time>2025-01-26T08:21:37.000Z</time>
      </trkpt>
      <trkpt lat="44.00542" lon="4.43861">
        <ele>173.6</ele>
        <time>2025-01-26T08:21:39.000Z</time>
      </trkpt>
      <trkpt lat="44.00528" lon="4.43856">
        <ele>172.2</ele>
        <time>2025-01-26T08:21:41.000Z</time>
      </trkpt>
      <trkpt lat="44.00521" lon="4.43853">
        <ele>171.4</ele>
        <time>2025-01-26T08:21:42.000Z</time>
      </trkpt>
      <trkpt lat="44.00514" lon="4.43849">
        <ele>171</ele>
        <time>2025-01-26T08:21:43.000Z</time>
      </trkpt>
      <trkpt lat="44.00494" lon="4.43837">
        <ele>169.4</ele>
        <time>2025-01-26T08:21:46.000Z</time>
      </trkpt>
      <trkpt lat="44.00481" lon="4.4383">
        <ele>168.2</ele>
        <time>2025-01-26T08:21:48.000Z</time>
      </trkpt>
      <trkpt lat="44.00471" lon="4.43823">
        <ele>166.8</ele>
        <time>2025-01-26T08:21:50.000Z</time>
      </trkpt>
      <trkpt lat="44.00468" lon="4.43821">
        <ele>166.2</ele>
        <time>2025-01-26T08:21:51.000Z</time>
      </trkpt>
      <trkpt lat="44.00466" lon="4.43817">
        <ele>165.6</ele>
        <time>2025-01-26T08:21:52.000Z</time>
      </trkpt>
      <trkpt lat="44.00463" lon="4.43812">
        <ele>164.6</ele>
        <time>2025-01-26T08:21:55.000Z</time>
      </trkpt>
      <trkpt lat="44.00463" lon="4.43811">
        <ele>164.6</ele>
        <time>2025-01-26T08:21:56.000Z</time>
      </trkpt>
      <trkpt lat="44.00463" lon="4.4381">
        <ele>164.4</ele>
        <time>2025-01-26T08:21:58.000Z</time>
      </trkpt>
      <trkpt lat="44.0046" lon="4.43805">
        <ele>164.2</ele>
        <time>2025-01-26T08:22:11.000Z</time>
      </trkpt>
      <trkpt lat="44.00458" lon="4.43804">
        <ele>164.2</ele>
        <time>2025-01-26T08:22:12.000Z</time>
      </trkpt>
      <trkpt lat="44.00453" lon="4.43802">
        <ele>164.2</ele>
        <time>2025-01-26T08:22:14.000Z</time>
      </trkpt>
      <trkpt lat="44.00452" lon="4.43804">
        <ele>164.2</ele>
        <time>2025-01-26T08:22:15.000Z</time>
      </trkpt>
      <trkpt lat="44.00449" lon="4.43813">
        <ele>164.2</ele>
        <time>2025-01-26T08:22:20.000Z</time>
      </trkpt>
      <trkpt lat="44.00448" lon="4.43813">
        <ele>164.2</ele>
        <time>2025-01-26T08:22:21.000Z</time>
      </trkpt>
      <trkpt lat="44.00445" lon="4.43817">
        <ele>164.8</ele>
        <time>2025-01-26T08:22:26.000Z</time>
      </trkpt>
      <trkpt lat="44.00443" lon="4.4382">
        <ele>165.8</ele>
        <time>2025-01-26T08:22:28.000Z</time>
      </trkpt>
      <trkpt lat="44.00441" lon="4.43829">
        <ele>166.4</ele>
        <time>2025-01-26T08:22:32.000Z</time>
      </trkpt>
      <trkpt lat="44.00437" lon="4.43844">
        <ele>166.8</ele>
        <time>2025-01-26T08:22:38.000Z</time>
      </trkpt>
      <trkpt lat="44.00436" lon="4.43853">
        <ele>167</ele>
        <time>2025-01-26T08:22:42.000Z</time>
      </trkpt>
      <trkpt lat="44.00433" lon="4.43856">
        <ele>167.2</ele>
        <time>2025-01-26T08:22:44.000Z</time>
      </trkpt>
      <trkpt lat="44.00424" lon="4.43859">
        <ele>167.4</ele>
        <time>2025-01-26T08:22:48.000Z</time>
      </trkpt>
      <trkpt lat="44.00419" lon="4.43862">
        <ele>167.4</ele>
        <time>2025-01-26T08:22:50.000Z</time>
      </trkpt>
      <trkpt lat="44.00414" lon="4.4386">
        <ele>167.4</ele>
        <time>2025-01-26T08:22:52.000Z</time>
      </trkpt>
      <trkpt lat="44.00411" lon="4.43859">
        <ele>167.2</ele>
        <time>2025-01-26T08:22:53.000Z</time>
      </trkpt>
      <trkpt lat="44.00405" lon="4.43862">
        <ele>167</ele>
        <time>2025-01-26T08:22:55.000Z</time>
      </trkpt>
      <trkpt lat="44.00398" lon="4.43867">
        <ele>166.6</ele>
        <time>2025-01-26T08:22:57.000Z</time>
      </trkpt>
      <trkpt lat="44.00389" lon="4.43872">
        <ele>166</ele>
        <time>2025-01-26T08:23:00.000Z</time>
      </trkpt>
      <trkpt lat="44.00386" lon="4.43871">
        <ele>165.8</ele>
        <time>2025-01-26T08:23:01.000Z</time>
      </trkpt>
      <trkpt lat="44.00373" lon="4.43873">
        <ele>164.6</ele>
        <time>2025-01-26T08:23:05.000Z</time>
      </trkpt>
      <trkpt lat="44.00359" lon="4.43885">
        <ele>163.6</ele>
        <time>2025-01-26T08:23:09.000Z</time>
      </trkpt>
      <trkpt lat="44.00349" lon="4.43884">
        <ele>162.8</ele>
        <time>2025-01-26T08:23:12.000Z</time>
      </trkpt>
      <trkpt lat="44.00347" lon="4.43885">
        <ele>162.4</ele>
        <time>2025-01-26T08:23:13.000Z</time>
      </trkpt>
      <trkpt lat="44.00346" lon="4.43886">
        <ele>161.6</ele>
        <time>2025-01-26T08:23:15.000Z</time>
      </trkpt>
      <trkpt lat="44.00346" lon="4.43886">
        <ele>161.2</ele>
        <time>2025-01-26T08:23:16.000Z</time>
      </trkpt>
      <trkpt lat="44.00345" lon="4.43889">
        <ele>160</ele>
        <time>2025-01-26T08:23:42.000Z</time>
      </trkpt>
      <trkpt lat="44.00345" lon="4.43895">
        <ele>160</ele>
        <time>2025-01-26T08:23:45.000Z</time>
      </trkpt>
      <trkpt lat="44.00342" lon="4.43915">
        <ele>160</ele>
        <time>2025-01-26T08:23:52.000Z</time>
      </trkpt>
      <trkpt lat="44.00337" lon="4.43945">
        <ele>159.4</ele>
        <time>2025-01-26T08:23:59.000Z</time>
      </trkpt>
      <trkpt lat="44.00337" lon="4.43953">
        <ele>158.8</ele>
        <time>2025-01-26T08:24:01.000Z</time>
      </trkpt>
      <trkpt lat="44.00339" lon="4.43957">
        <ele>158.6</ele>
        <time>2025-01-26T08:24:02.000Z</time>
      </trkpt>
      <trkpt lat="44.00341" lon="4.4396">
        <ele>158.2</ele>
        <time>2025-01-26T08:24:03.000Z</time>
      </trkpt>
      <trkpt lat="44.00343" lon="4.43962">
        <ele>157.8</ele>
        <time>2025-01-26T08:24:04.000Z</time>
      </trkpt>
      <trkpt lat="44.00347" lon="4.43966">
        <ele>156.8</ele>
        <time>2025-01-26T08:24:06.000Z</time>
      </trkpt>
      <trkpt lat="44.00352" lon="4.43969">
        <ele>155.8</ele>
        <time>2025-01-26T08:24:08.000Z</time>
      </trkpt>
      <trkpt lat="44.00354" lon="4.43971">
        <ele>155.4</ele>
        <time>2025-01-26T08:24:09.000Z</time>
      </trkpt>
      <trkpt lat="44.00368" lon="4.43981">
        <ele>155.2</ele>
        <time>2025-01-26T08:24:16.000Z</time>
      </trkpt>
      <trkpt lat="44.00382" lon="4.43989">
        <ele>156.6</ele>
        <time>2025-01-26T08:24:22.000Z</time>
      </trkpt>
      <trkpt lat="44.00384" lon="4.43991">
        <ele>157</ele>
        <time>2025-01-26T08:24:23.000Z</time>
      </trkpt>
      <trkpt lat="44.00393" lon="4.43997">
        <ele>158</ele>
        <time>2025-01-26T08:24:27.000Z</time>
      </trkpt>
      <trkpt lat="44.00397" lon="4.44">
        <ele>158.4</ele>
        <time>2025-01-26T08:24:29.000Z</time>
      </trkpt>
      <trkpt lat="44.00403" lon="4.44003">
        <ele>159.2</ele>
        <time>2025-01-26T08:24:32.000Z</time>
      </trkpt>
      <trkpt lat="44.00412" lon="4.44007">
        <ele>160.2</ele>
        <time>2025-01-26T08:24:36.000Z</time>
      </trkpt>
      <trkpt lat="44.00414" lon="4.44008">
        <ele>160.4</ele>
        <time>2025-01-26T08:24:37.000Z</time>
      </trkpt>
      <trkpt lat="44.00425" lon="4.44011">
        <ele>161.2</ele>
        <time>2025-01-26T08:24:42.000Z</time>
      </trkpt>
      <trkpt lat="44.00427" lon="4.44012">
        <ele>161.4</ele>
        <time>2025-01-26T08:24:43.000Z</time>
      </trkpt>
      <trkpt lat="44.00441" lon="4.44016">
        <ele>162.4</ele>
        <time>2025-01-26T08:24:49.000Z</time>
      </trkpt>
      <trkpt lat="44.00452" lon="4.44021">
        <ele>163.6</ele>
        <time>2025-01-26T08:24:54.000Z</time>
      </trkpt>
      <trkpt lat="44.00459" lon="4.44025">
        <ele>164</ele>
        <time>2025-01-26T08:24:57.000Z</time>
      </trkpt>
      <trkpt lat="44.00477" lon="4.44027">
        <ele>164.6</ele>
        <time>2025-01-26T08:25:05.000Z</time>
      </trkpt>
      <trkpt lat="44.00493" lon="4.44028">
        <ele>165.8</ele>
        <time>2025-01-26T08:25:12.000Z</time>
      </trkpt>
      <trkpt lat="44.00497" lon="4.44027">
        <ele>166.2</ele>
        <time>2025-01-26T08:25:14.000Z</time>
      </trkpt>
      <trkpt lat="44.00504" lon="4.44027">
        <ele>166.8</ele>
        <time>2025-01-26T08:25:17.000Z</time>
      </trkpt>
      <trkpt lat="44.0051" lon="4.44027">
        <ele>168</ele>
        <time>2025-01-26T08:25:20.000Z</time>
      </trkpt>
      <trkpt lat="44.00517" lon="4.4403">
        <ele>169</ele>
        <time>2025-01-26T08:25:23.000Z</time>
      </trkpt>
      <trkpt lat="44.00519" lon="4.44031">
        <ele>169.4</ele>
        <time>2025-01-26T08:25:24.000Z</time>
      </trkpt>
      <trkpt lat="44.00527" lon="4.44035">
        <ele>170.6</ele>
        <time>2025-01-26T08:25:28.000Z</time>
      </trkpt>
      <trkpt lat="44.00533" lon="4.44038">
        <ele>171.2</ele>
        <time>2025-01-26T08:25:31.000Z</time>
      </trkpt>
      <trkpt lat="44.0054" lon="4.44041">
        <ele>171.6</ele>
        <time>2025-01-26T08:25:34.000Z</time>
      </trkpt>
      <trkpt lat="44.00545" lon="4.44047">
        <ele>172.2</ele>
        <time>2025-01-26T08:25:37.000Z</time>
      </trkpt>
      <trkpt lat="44.00547" lon="4.4406">
        <ele>172.6</ele>
        <time>2025-01-26T08:25:42.000Z</time>
      </trkpt>
      <trkpt lat="44.00548" lon="4.44063">
        <ele>172.8</ele>
        <time>2025-01-26T08:25:43.000Z</time>
      </trkpt>
      <trkpt lat="44.00552" lon="4.44078">
        <ele>173.4</ele>
        <time>2025-01-26T08:25:48.000Z</time>
      </trkpt>
      <trkpt lat="44.00561" lon="4.44101">
        <ele>173.8</ele>
        <time>2025-01-26T08:25:56.000Z</time>
      </trkpt>
      <trkpt lat="44.00562" lon="4.4412">
        <ele>174.6</ele>
        <time>2025-01-26T08:26:02.000Z</time>
      </trkpt>
      <trkpt lat="44.00559" lon="4.44134">
        <ele>175</ele>
        <time>2025-01-26T08:26:07.000Z</time>
      </trkpt>
      <trkpt lat="44.00555" lon="4.44139">
        <ele>175</ele>
        <time>2025-01-26T08:26:09.000Z</time>
      </trkpt>
      <trkpt lat="44.00541" lon="4.44147">
        <ele>175.6</ele>
        <time>2025-01-26T08:26:15.000Z</time>
      </trkpt>
      <trkpt lat="44.00529" lon="4.44146">
        <ele>175.8</ele>
        <time>2025-01-26T08:26:20.000Z</time>
      </trkpt>
      <trkpt lat="44.00517" lon="4.44141">
        <ele>176</ele>
        <time>2025-01-26T08:26:27.000Z</time>
      </trkpt>
      <trkpt lat="44.00517" lon="4.44141">
        <ele>176</ele>
        <time>2025-01-26T08:26:28.000Z</time>
      </trkpt>
      <trkpt lat="44.00516" lon="4.44142">
        <ele>176</ele>
        <time>2025-01-26T08:26:30.000Z</time>
      </trkpt>
      <trkpt lat="44.00515" lon="4.44143">
        <ele>176</ele>
        <time>2025-01-26T08:26:32.000Z</time>
      </trkpt>
      <trkpt lat="44.00515" lon="4.44143">
        <ele>176</ele>
        <time>2025-01-26T08:26:33.000Z</time>
      </trkpt>
      <trkpt lat="44.00515" lon="4.44143">
        <ele>176</ele>
        <time>2025-01-26T08:26:34.000Z</time>
      </trkpt>
      <trkpt lat="44.00515" lon="4.44145">
        <ele>176</ele>
        <time>2025-01-26T08:26:36.000Z</time>
      </trkpt>
      <trkpt lat="44.00515" lon="4.44147">
        <ele>176</ele>
        <time>2025-01-26T08:26:37.000Z</time>
      </trkpt>
      <trkpt lat="44.00516" lon="4.44151">
        <ele>176.2</ele>
        <time>2025-01-26T08:26:39.000Z</time>
      </trkpt>
      <trkpt lat="44.00514" lon="4.44166">
        <ele>176</ele>
        <time>2025-01-26T08:26:44.000Z</time>
      </trkpt>
      <trkpt lat="44.00517" lon="4.44179">
        <ele>175.8</ele>
        <time>2025-01-26T08:26:48.000Z</time>
      </trkpt>
      <trkpt lat="44.00517" lon="4.44191">
        <ele>175.4</ele>
        <time>2025-01-26T08:26:52.000Z</time>
      </trkpt>
      <trkpt lat="44.0052" lon="4.44201">
        <ele>174.8</ele>
        <time>2025-01-26T08:26:55.000Z</time>
      </trkpt>
      <trkpt lat="44.00522" lon="4.44203">
        <ele>174.8</ele>
        <time>2025-01-26T08:26:56.000Z</time>
      </trkpt>
      <trkpt lat="44.00527" lon="4.44218">
        <ele>173.8</ele>
        <time>2025-01-26T08:27:01.000Z</time>
      </trkpt>
      <trkpt lat="44.0053" lon="4.4423">
        <ele>172.6</ele>
        <time>2025-01-26T08:27:05.000Z</time>
      </trkpt>
      <trkpt lat="44.0053" lon="4.44233">
        <ele>172.4</ele>
        <time>2025-01-26T08:27:06.000Z</time>
      </trkpt>
      <trkpt lat="44.00531" lon="4.44236">
        <ele>172.2</ele>
        <time>2025-01-26T08:27:07.000Z</time>
      </trkpt>
      <trkpt lat="44.00532" lon="4.44238">
        <ele>172</ele>
        <time>2025-01-26T08:27:08.000Z</time>
      </trkpt>
      <trkpt lat="44.00534" lon="4.4424">
        <ele>171.6</ele>
        <time>2025-01-26T08:27:09.000Z</time>
      </trkpt>
      <trkpt lat="44.00538" lon="4.44241">
        <ele>171</ele>
        <time>2025-01-26T08:27:11.000Z</time>
      </trkpt>
      <trkpt lat="44.0054" lon="4.44242">
        <ele>170.6</ele>
        <time>2025-01-26T08:27:12.000Z</time>
      </trkpt>
      <trkpt lat="44.00541" lon="4.44244">
        <ele>170.2</ele>
        <time>2025-01-26T08:27:13.000Z</time>
      </trkpt>
      <trkpt lat="44.00543" lon="4.4425">
        <ele>169</ele>
        <time>2025-01-26T08:27:15.000Z</time>
      </trkpt>
      <trkpt lat="44.0054" lon="4.44258">
        <ele>167.4</ele>
        <time>2025-01-26T08:27:18.000Z</time>
      </trkpt>
      <trkpt lat="44.00534" lon="4.4427">
        <ele>166.4</ele>
        <time>2025-01-26T08:27:22.000Z</time>
      </trkpt>
      <trkpt lat="44.00521" lon="4.44274">
        <ele>165.6</ele>
        <time>2025-01-26T08:27:26.000Z</time>
      </trkpt>
      <trkpt lat="44.00516" lon="4.44278">
        <ele>165.4</ele>
        <time>2025-01-26T08:27:28.000Z</time>
      </trkpt>
      <trkpt lat="44.0051" lon="4.44282">
        <ele>164.4</ele>
        <time>2025-01-26T08:27:30.000Z</time>
      </trkpt>
      <trkpt lat="44.00508" lon="4.44284">
        <ele>163.6</ele>
        <time>2025-01-26T08:27:31.000Z</time>
      </trkpt>
      <trkpt lat="44.00505" lon="4.44286">
        <ele>162.8</ele>
        <time>2025-01-26T08:27:32.000Z</time>
      </trkpt>
      <trkpt lat="44.00498" lon="4.44289">
        <ele>162</ele>
        <time>2025-01-26T08:27:35.000Z</time>
      </trkpt>
      <trkpt lat="44.00496" lon="4.4429">
        <ele>161.8</ele>
        <time>2025-01-26T08:27:36.000Z</time>
      </trkpt>
      <trkpt lat="44.00492" lon="4.44295">
        <ele>161</ele>
        <time>2025-01-26T08:27:39.000Z</time>
      </trkpt>
      <trkpt lat="44.00488" lon="4.44301">
        <ele>160.8</ele>
        <time>2025-01-26T08:27:41.000Z</time>
      </trkpt>
      <trkpt lat="44.00486" lon="4.44303">
        <ele>160.8</ele>
        <time>2025-01-26T08:27:42.000Z</time>
      </trkpt>
      <trkpt lat="44.0048" lon="4.44307">
        <ele>160.2</ele>
        <time>2025-01-26T08:27:44.000Z</time>
      </trkpt>
      <trkpt lat="44.00476" lon="4.44309">
        <ele>160.2</ele>
        <time>2025-01-26T08:27:45.000Z</time>
      </trkpt>
      <trkpt lat="44.00468" lon="4.44315">
        <ele>159</ele>
        <time>2025-01-26T08:27:47.000Z</time>
      </trkpt>
      <trkpt lat="44.00461" lon="4.44321">
        <ele>157.8</ele>
        <time>2025-01-26T08:27:49.000Z</time>
      </trkpt>
      <trkpt lat="44.00451" lon="4.44328">
        <ele>156.4</ele>
        <time>2025-01-26T08:27:52.000Z</time>
      </trkpt>
      <trkpt lat="44.00445" lon="4.44334">
        <ele>155.8</ele>
        <time>2025-01-26T08:27:54.000Z</time>
      </trkpt>
      <trkpt lat="44.0044" lon="4.4434">
        <ele>155.2</ele>
        <time>2025-01-26T08:27:56.000Z</time>
      </trkpt>
      <trkpt lat="44.00433" lon="4.44351">
        <ele>154.2</ele>
        <time>2025-01-26T08:27:59.000Z</time>
      </trkpt>
      <trkpt lat="44.00432" lon="4.44352">
        <ele>153.8</ele>
        <time>2025-01-26T08:28:00.000Z</time>
      </trkpt>
      <trkpt lat="44.00428" lon="4.44354">
        <ele>153</ele>
        <time>2025-01-26T08:28:02.000Z</time>
      </trkpt>
      <trkpt lat="44.00425" lon="4.44357">
        <ele>152.6</ele>
        <time>2025-01-26T08:28:04.000Z</time>
      </trkpt>
      <trkpt lat="44.0042" lon="4.44363">
        <ele>152.2</ele>
        <time>2025-01-26T08:28:07.000Z</time>
      </trkpt>
      <trkpt lat="44.00415" lon="4.44368">
        <ele>152</ele>
        <time>2025-01-26T08:28:10.000Z</time>
      </trkpt>
      <trkpt lat="44.00413" lon="4.44372">
        <ele>151.8</ele>
        <time>2025-01-26T08:28:12.000Z</time>
      </trkpt>
      <trkpt lat="44.00412" lon="4.44378">
        <ele>151.4</ele>
        <time>2025-01-26T08:28:15.000Z</time>
      </trkpt>
      <trkpt lat="44.00409" lon="4.44388">
        <ele>151</ele>
        <time>2025-01-26T08:28:18.000Z</time>
      </trkpt>
      <trkpt lat="44.00408" lon="4.44392">
        <ele>150.8</ele>
        <time>2025-01-26T08:28:19.000Z</time>
      </trkpt>
      <trkpt lat="44.00407" lon="4.44395">
        <ele>150.6</ele>
        <time>2025-01-26T08:28:20.000Z</time>
      </trkpt>
      <trkpt lat="44.00404" lon="4.44402">
        <ele>149.2</ele>
        <time>2025-01-26T08:28:22.000Z</time>
      </trkpt>
      <trkpt lat="44.00402" lon="4.44408">
        <ele>147.6</ele>
        <time>2025-01-26T08:28:24.000Z</time>
      </trkpt>
      <trkpt lat="44.004" lon="4.44415">
        <ele>146.4</ele>
        <time>2025-01-26T08:28:26.000Z</time>
      </trkpt>
      <trkpt lat="44.00399" lon="4.44418">
        <ele>146</ele>
        <time>2025-01-26T08:28:27.000Z</time>
      </trkpt>
      <trkpt lat="44.00396" lon="4.44421">
        <ele>145.4</ele>
        <time>2025-01-26T08:28:29.000Z</time>
      </trkpt>
      <trkpt lat="44.00393" lon="4.44424">
        <ele>145</ele>
        <time>2025-01-26T08:28:31.000Z</time>
      </trkpt>
      <trkpt lat="44.00391" lon="4.44428">
        <ele>144.4</ele>
        <time>2025-01-26T08:28:33.000Z</time>
      </trkpt>
      <trkpt lat="44.0039" lon="4.44431">
        <ele>144</ele>
        <time>2025-01-26T08:28:34.000Z</time>
      </trkpt>
      <trkpt lat="44.00386" lon="4.44434">
        <ele>143</ele>
        <time>2025-01-26T08:28:36.000Z</time>
      </trkpt>
      <trkpt lat="44.00371" lon="4.44439">
        <ele>142</ele>
        <time>2025-01-26T08:28:41.000Z</time>
      </trkpt>
      <trkpt lat="44.00368" lon="4.44441">
        <ele>141.8</ele>
        <time>2025-01-26T08:28:42.000Z</time>
      </trkpt>
      <trkpt lat="44.00358" lon="4.44449">
        <ele>141.4</ele>
        <time>2025-01-26T08:28:45.000Z</time>
      </trkpt>
      <trkpt lat="44.00346" lon="4.44455">
        <ele>140.4</ele>
        <time>2025-01-26T08:28:48.000Z</time>
      </trkpt>
      <trkpt lat="44.00337" lon="4.44458">
        <ele>139</ele>
        <time>2025-01-26T08:28:50.000Z</time>
      </trkpt>
      <trkpt lat="44.00328" lon="4.4446">
        <ele>137.8</ele>
        <time>2025-01-26T08:28:53.000Z</time>
      </trkpt>
      <trkpt lat="44.00325" lon="4.4446">
        <ele>137.6</ele>
        <time>2025-01-26T08:28:54.000Z</time>
      </trkpt>
      <trkpt lat="44.00309" lon="4.44457">
        <ele>137</ele>
        <time>2025-01-26T08:28:59.000Z</time>
      </trkpt>
      <trkpt lat="44.00305" lon="4.44454">
        <ele>137</ele>
        <time>2025-01-26T08:29:01.000Z</time>
      </trkpt>
      <trkpt lat="44.00301" lon="4.44449">
        <ele>137</ele>
        <time>2025-01-26T08:29:03.000Z</time>
      </trkpt>
      <trkpt lat="44.00295" lon="4.44434">
        <ele>136.8</ele>
        <time>2025-01-26T08:29:07.000Z</time>
      </trkpt>
      <trkpt lat="44.00288" lon="4.44414">
        <ele>136.8</ele>
        <time>2025-01-26T08:29:11.000Z</time>
      </trkpt>
      <trkpt lat="44.00286" lon="4.44409">
        <ele>136.8</ele>
        <time>2025-01-26T08:29:12.000Z</time>
      </trkpt>
      <trkpt lat="44.00281" lon="4.44399">
        <ele>135.2</ele>
        <time>2025-01-26T08:29:14.000Z</time>
      </trkpt>
      <trkpt lat="44.00278" lon="4.44394">
        <ele>134.6</ele>
        <time>2025-01-26T08:29:15.000Z</time>
      </trkpt>
      <trkpt lat="44.00274" lon="4.44386">
        <ele>134</ele>
        <time>2025-01-26T08:29:17.000Z</time>
      </trkpt>
      <trkpt lat="44.00268" lon="4.44376">
        <ele>132.8</ele>
        <time>2025-01-26T08:29:20.000Z</time>
      </trkpt>
      <trkpt lat="44.00255" lon="4.44366">
        <ele>131.8</ele>
        <time>2025-01-26T08:29:24.000Z</time>
      </trkpt>
      <trkpt lat="44.00252" lon="4.44364">
        <ele>131.4</ele>
        <time>2025-01-26T08:29:25.000Z</time>
      </trkpt>
      <trkpt lat="44.00231" lon="4.44364">
        <ele>130.8</ele>
        <time>2025-01-26T08:29:30.000Z</time>
      </trkpt>
      <trkpt lat="44.00229" lon="4.44367">
        <ele>130.6</ele>
        <time>2025-01-26T08:29:31.000Z</time>
      </trkpt>
      <trkpt lat="44.00226" lon="4.4437">
        <ele>130.4</ele>
        <time>2025-01-26T08:29:32.000Z</time>
      </trkpt>
      <trkpt lat="44.00224" lon="4.44374">
        <ele>130.2</ele>
        <time>2025-01-26T08:29:33.000Z</time>
      </trkpt>
      <trkpt lat="44.00216" lon="4.44393">
        <ele>129.4</ele>
        <time>2025-01-26T08:29:37.000Z</time>
      </trkpt>
      <trkpt lat="44.00213" lon="4.44398">
        <ele>129.2</ele>
        <time>2025-01-26T08:29:38.000Z</time>
      </trkpt>
      <trkpt lat="44.00193" lon="4.44418">
        <ele>128.2</ele>
        <time>2025-01-26T08:29:43.000Z</time>
      </trkpt>
      <trkpt lat="44.00188" lon="4.44421">
        <ele>127.8</ele>
        <time>2025-01-26T08:29:44.000Z</time>
      </trkpt>
      <trkpt lat="44.00177" lon="4.44427">
        <ele>127</ele>
        <time>2025-01-26T08:29:46.000Z</time>
      </trkpt>
      <trkpt lat="44.00172" lon="4.44427">
        <ele>126.8</ele>
        <time>2025-01-26T08:29:47.000Z</time>
      </trkpt>
      <trkpt lat="44.00159" lon="4.44427">
        <ele>126.2</ele>
        <time>2025-01-26T08:29:50.000Z</time>
      </trkpt>
      <trkpt lat="44.00155" lon="4.44427">
        <ele>126</ele>
        <time>2025-01-26T08:29:51.000Z</time>
      </trkpt>
      <trkpt lat="44.0015" lon="4.44427">
        <ele>125.6</ele>
        <time>2025-01-26T08:29:52.000Z</time>
      </trkpt>
      <trkpt lat="44.00145" lon="4.44427">
        <ele>125.4</ele>
        <time>2025-01-26T08:29:53.000Z</time>
      </trkpt>
      <trkpt lat="44.00136" lon="4.4443">
        <ele>124.8</ele>
        <time>2025-01-26T08:29:55.000Z</time>
      </trkpt>
      <trkpt lat="44.00132" lon="4.44431">
        <ele>124.6</ele>
        <time>2025-01-26T08:29:56.000Z</time>
      </trkpt>
      <trkpt lat="44.00116" lon="4.44438">
        <ele>124.2</ele>
        <time>2025-01-26T08:30:00.000Z</time>
      </trkpt>
      <trkpt lat="44.00111" lon="4.4444">
        <ele>124.2</ele>
        <time>2025-01-26T08:30:01.000Z</time>
      </trkpt>
      <trkpt lat="44.0008" lon="4.44448">
        <ele>123.6</ele>
        <time>2025-01-26T08:30:06.000Z</time>
      </trkpt>
      <trkpt lat="44.00068" lon="4.44451">
        <ele>122.4</ele>
        <time>2025-01-26T08:30:08.000Z</time>
      </trkpt>
      <trkpt lat="44.0005" lon="4.44458">
        <ele>121.2</ele>
        <time>2025-01-26T08:30:11.000Z</time>
      </trkpt>
      <trkpt lat="44.00045" lon="4.44458">
        <ele>120.8</ele>
        <time>2025-01-26T08:30:12.000Z</time>
      </trkpt>
      <trkpt lat="44.00031" lon="4.44457">
        <ele>120.2</ele>
        <time>2025-01-26T08:30:15.000Z</time>
      </trkpt>
      <trkpt lat="44.00026" lon="4.44457">
        <ele>120</ele>
        <time>2025-01-26T08:30:16.000Z</time>
      </trkpt>
      <trkpt lat="44.00017" lon="4.44458">
        <ele>119.8</ele>
        <time>2025-01-26T08:30:18.000Z</time>
      </trkpt>
      <trkpt lat="44.00005" lon="4.44452">
        <ele>119.6</ele>
        <time>2025-01-26T08:30:21.000Z</time>
      </trkpt>
      <trkpt lat="43.99996" lon="4.4445">
        <ele>119.6</ele>
        <time>2025-01-26T08:30:23.000Z</time>
      </trkpt>
      <trkpt lat="43.99986" lon="4.44447">
        <ele>119.2</ele>
        <time>2025-01-26T08:30:25.000Z</time>
      </trkpt>
      <trkpt lat="43.99981" lon="4.44445">
        <ele>119</ele>
        <time>2025-01-26T08:30:26.000Z</time>
      </trkpt>
      <trkpt lat="43.99966" lon="4.44441">
        <ele>118.6</ele>
        <time>2025-01-26T08:30:29.000Z</time>
      </trkpt>
      <trkpt lat="43.99961" lon="4.44439">
        <ele>118.2</ele>
        <time>2025-01-26T08:30:30.000Z</time>
      </trkpt>
      <trkpt lat="43.99957" lon="4.44435">
        <ele>117.8</ele>
        <time>2025-01-26T08:30:31.000Z</time>
      </trkpt>
      <trkpt lat="43.9995" lon="4.44424">
        <ele>117</ele>
        <time>2025-01-26T08:30:33.000Z</time>
      </trkpt>
      <trkpt lat="43.99948" lon="4.44418">
        <ele>116.8</ele>
        <time>2025-01-26T08:30:34.000Z</time>
      </trkpt>
      <trkpt lat="43.99942" lon="4.44398">
        <ele>115.4</ele>
        <time>2025-01-26T08:30:37.000Z</time>
      </trkpt>
      <trkpt lat="43.9994" lon="4.44391">
        <ele>115.2</ele>
        <time>2025-01-26T08:30:38.000Z</time>
      </trkpt>
      <trkpt lat="43.9993" lon="4.44377">
        <ele>114.8</ele>
        <time>2025-01-26T08:30:41.000Z</time>
      </trkpt>
      <trkpt lat="43.99923" lon="4.4437">
        <ele>114</ele>
        <time>2025-01-26T08:30:43.000Z</time>
      </trkpt>
      <trkpt lat="43.99915" lon="4.44361">
        <ele>113.4</ele>
        <time>2025-01-26T08:30:45.000Z</time>
      </trkpt>
      <trkpt lat="43.99913" lon="4.44356">
        <ele>113.2</ele>
        <time>2025-01-26T08:30:46.000Z</time>
      </trkpt>
      <trkpt lat="43.9991" lon="4.44346">
        <ele>112.8</ele>
        <time>2025-01-26T08:30:48.000Z</time>
      </trkpt>
      <trkpt lat="43.99909" lon="4.44334">
        <ele>112.6</ele>
        <time>2025-01-26T08:30:50.000Z</time>
      </trkpt>
      <trkpt lat="43.99909" lon="4.44321">
        <ele>112</ele>
        <time>2025-01-26T08:30:52.000Z</time>
      </trkpt>
      <trkpt lat="43.99912" lon="4.44307">
        <ele>111.6</ele>
        <time>2025-01-26T08:30:54.000Z</time>
      </trkpt>
      <trkpt lat="43.99913" lon="4.443">
        <ele>111.4</ele>
        <time>2025-01-26T08:30:55.000Z</time>
      </trkpt>
      <trkpt lat="43.99918" lon="4.4428">
        <ele>110.8</ele>
        <time>2025-01-26T08:30:58.000Z</time>
      </trkpt>
      <trkpt lat="43.99919" lon="4.44263">
        <ele>109.4</ele>
        <time>2025-01-26T08:31:01.000Z</time>
      </trkpt>
      <trkpt lat="43.99918" lon="4.44258">
        <ele>109.2</ele>
        <time>2025-01-26T08:31:02.000Z</time>
      </trkpt>
      <trkpt lat="43.99914" lon="4.44248">
        <ele>108.4</ele>
        <time>2025-01-26T08:31:05.000Z</time>
      </trkpt>
      <trkpt lat="43.99912" lon="4.44246">
        <ele>108.2</ele>
        <time>2025-01-26T08:31:06.000Z</time>
      </trkpt>
      <trkpt lat="43.99909" lon="4.44244">
        <ele>108</ele>
        <time>2025-01-26T08:31:07.000Z</time>
      </trkpt>
      <trkpt lat="43.99898" lon="4.44239">
        <ele>107.4</ele>
        <time>2025-01-26T08:31:11.000Z</time>
      </trkpt>
      <trkpt lat="43.99892" lon="4.44235">
        <ele>106.8</ele>
        <time>2025-01-26T08:31:14.000Z</time>
      </trkpt>
      <trkpt lat="43.99887" lon="4.44233">
        <ele>106.6</ele>
        <time>2025-01-26T08:31:16.000Z</time>
      </trkpt>
      <trkpt lat="43.99877" lon="4.44222">
        <ele>105.8</ele>
        <time>2025-01-26T08:31:22.000Z</time>
      </trkpt>
      <trkpt lat="43.99871" lon="4.44208">
        <ele>105.8</ele>
        <time>2025-01-26T08:31:27.000Z</time>
      </trkpt>
      <trkpt lat="43.99869" lon="4.44205">
        <ele>105.6</ele>
        <time>2025-01-26T08:31:28.000Z</time>
      </trkpt>
      <trkpt lat="43.99867" lon="4.44202">
        <ele>105.4</ele>
        <time>2025-01-26T08:31:29.000Z</time>
      </trkpt>
      <trkpt lat="43.9986" lon="4.44197">
        <ele>105</ele>
        <time>2025-01-26T08:31:31.000Z</time>
      </trkpt>
      <trkpt lat="43.9985" lon="4.44196">
        <ele>104.2</ele>
        <time>2025-01-26T08:31:34.000Z</time>
      </trkpt>
      <trkpt lat="43.99848" lon="4.44195">
        <ele>104</ele>
        <time>2025-01-26T08:31:35.000Z</time>
      </trkpt>
      <trkpt lat="43.99834" lon="4.44193">
        <ele>103</ele>
        <time>2025-01-26T08:31:39.000Z</time>
      </trkpt>
      <trkpt lat="43.9983" lon="4.44193">
        <ele>102.8</ele>
        <time>2025-01-26T08:31:40.000Z</time>
      </trkpt>
      <trkpt lat="43.99814" lon="4.44192">
        <ele>101.8</ele>
        <time>2025-01-26T08:31:45.000Z</time>
      </trkpt>
      <trkpt lat="43.99806" lon="4.44184">
        <ele>101</ele>
        <time>2025-01-26T08:31:48.000Z</time>
      </trkpt>
      <trkpt lat="43.99801" lon="4.44175">
        <ele>100.6</ele>
        <time>2025-01-26T08:31:50.000Z</time>
      </trkpt>
      <trkpt lat="43.99783" lon="4.4416">
        <ele>99.4</ele>
        <time>2025-01-26T08:31:55.000Z</time>
      </trkpt>
      <trkpt lat="43.99779" lon="4.44158">
        <ele>99.2</ele>
        <time>2025-01-26T08:31:56.000Z</time>
      </trkpt>
      <trkpt lat="43.99774" lon="4.44155">
        <ele>98.8</ele>
        <time>2025-01-26T08:31:58.000Z</time>
      </trkpt>
      <trkpt lat="43.99771" lon="4.44155">
        <ele>98.6</ele>
        <time>2025-01-26T08:31:59.000Z</time>
      </trkpt>
      <trkpt lat="43.99767" lon="4.44156">
        <ele>98</ele>
        <time>2025-01-26T08:32:01.000Z</time>
      </trkpt>
      <trkpt lat="43.99763" lon="4.44155">
        <ele>97.8</ele>
        <time>2025-01-26T08:32:04.000Z</time>
      </trkpt>
      <trkpt lat="43.99752" lon="4.44151">
        <ele>97.4</ele>
        <time>2025-01-26T08:32:09.000Z</time>
      </trkpt>
      <trkpt lat="43.99747" lon="4.44152">
        <ele>97.4</ele>
        <time>2025-01-26T08:32:11.000Z</time>
      </trkpt>
      <trkpt lat="43.99736" lon="4.44154">
        <ele>97</ele>
        <time>2025-01-26T08:32:15.000Z</time>
      </trkpt>
      <trkpt lat="43.99733" lon="4.44154">
        <ele>96.8</ele>
        <time>2025-01-26T08:32:16.000Z</time>
      </trkpt>
      <trkpt lat="43.9973" lon="4.44155">
        <ele>96.4</ele>
        <time>2025-01-26T08:32:17.000Z</time>
      </trkpt>
      <trkpt lat="43.99725" lon="4.44163">
        <ele>96.2</ele>
        <time>2025-01-26T08:32:20.000Z</time>
      </trkpt>
      <trkpt lat="43.99723" lon="4.44166">
        <ele>96.2</ele>
        <time>2025-01-26T08:32:21.000Z</time>
      </trkpt>
      <trkpt lat="43.99714" lon="4.44174">
        <ele>96.2</ele>
        <time>2025-01-26T08:32:25.000Z</time>
      </trkpt>
      <trkpt lat="43.99698" lon="4.44178">
        <ele>96.2</ele>
        <time>2025-01-26T08:32:31.000Z</time>
      </trkpt>
      <trkpt lat="43.99683" lon="4.44182">
        <ele>96.2</ele>
        <time>2025-01-26T08:32:36.000Z</time>
      </trkpt>
      <trkpt lat="43.99669" lon="4.44181">
        <ele>95.8</ele>
        <time>2025-01-26T08:32:40.000Z</time>
      </trkpt>
      <trkpt lat="43.99658" lon="4.44179">
        <ele>95.4</ele>
        <time>2025-01-26T08:32:43.000Z</time>
      </trkpt>
      <trkpt lat="43.9965" lon="4.44174">
        <ele>94.8</ele>
        <time>2025-01-26T08:32:46.000Z</time>
      </trkpt>
      <trkpt lat="43.99646" lon="4.44174">
        <ele>94.6</ele>
        <time>2025-01-26T08:32:47.000Z</time>
      </trkpt>
      <trkpt lat="43.99629" lon="4.44165">
        <ele>93.8</ele>
        <time>2025-01-26T08:32:52.000Z</time>
      </trkpt>
      <trkpt lat="43.99609" lon="4.44153">
        <ele>93.8</ele>
        <time>2025-01-26T08:32:57.000Z</time>
      </trkpt>
      <trkpt lat="43.99604" lon="4.4415">
        <ele>93.6</ele>
        <time>2025-01-26T08:32:58.000Z</time>
      </trkpt>
      <trkpt lat="43.996" lon="4.44147">
        <ele>93.6</ele>
        <time>2025-01-26T08:32:59.000Z</time>
      </trkpt>
      <trkpt lat="43.99588" lon="4.44145">
        <ele>93.4</ele>
        <time>2025-01-26T08:33:01.000Z</time>
      </trkpt>
      <trkpt lat="43.99565" lon="4.44137">
        <ele>93.2</ele>
        <time>2025-01-26T08:33:05.000Z</time>
      </trkpt>
      <trkpt lat="43.99555" lon="4.44132">
        <ele>92.6</ele>
        <time>2025-01-26T08:33:07.000Z</time>
      </trkpt>
      <trkpt lat="43.99543" lon="4.44123">
        <ele>91.4</ele>
        <time>2025-01-26T08:33:10.000Z</time>
      </trkpt>
      <trkpt lat="43.9953" lon="4.44113">
        <ele>90.8</ele>
        <time>2025-01-26T08:33:13.000Z</time>
      </trkpt>
      <trkpt lat="43.99506" lon="4.44109">
        <ele>90.6</ele>
        <time>2025-01-26T08:33:18.000Z</time>
      </trkpt>
      <trkpt lat="43.99497" lon="4.44112">
        <ele>90.8</ele>
        <time>2025-01-26T08:33:22.000Z</time>
      </trkpt>
      <trkpt lat="43.99496" lon="4.44112">
        <ele>91</ele>
        <time>2025-01-26T08:33:24.000Z</time>
      </trkpt>
      <trkpt lat="43.99496" lon="4.44112">
        <ele>92.2</ele>
        <time>2025-01-26T08:34:36.000Z</time>
      </trkpt>
      <trkpt lat="43.99495" lon="4.44114">
        <ele>92.2</ele>
        <time>2025-01-26T08:34:38.000Z</time>
      </trkpt>
      <trkpt lat="43.99496" lon="4.44114">
        <ele>92.2</ele>
        <time>2025-01-26T08:34:40.000Z</time>
      </trkpt>
      <trkpt lat="43.99493" lon="4.44115">
        <ele>92</ele>
        <time>2025-01-26T08:35:31.000Z</time>
      </trkpt>
      <trkpt lat="43.9949" lon="4.44117">
        <ele>92</ele>
        <time>2025-01-26T08:35:33.000Z</time>
      </trkpt>
      <trkpt lat="43.99481" lon="4.44123">
        <ele>92</ele>
        <time>2025-01-26T08:35:39.000Z</time>
      </trkpt>
      <trkpt lat="43.9947" lon="4.44125">
        <ele>92</ele>
        <time>2025-01-26T08:35:44.000Z</time>
      </trkpt>
      <trkpt lat="43.99468" lon="4.4413">
        <ele>92</ele>
        <time>2025-01-26T08:35:46.000Z</time>
      </trkpt>
      <trkpt lat="43.99464" lon="4.4414">
        <ele>91.4</ele>
        <time>2025-01-26T08:35:49.000Z</time>
      </trkpt>
      <trkpt lat="43.99453" lon="4.4417">
        <ele>90.6</ele>
        <time>2025-01-26T08:35:56.000Z</time>
      </trkpt>
      <trkpt lat="43.99447" lon="4.4419">
        <ele>90.6</ele>
        <time>2025-01-26T08:36:01.000Z</time>
      </trkpt>
      <trkpt lat="43.99436" lon="4.44214">
        <ele>91.2</ele>
        <time>2025-01-26T08:36:07.000Z</time>
      </trkpt>
      <trkpt lat="43.99424" lon="4.44235">
        <ele>92.2</ele>
        <time>2025-01-26T08:36:13.000Z</time>
      </trkpt>
      <trkpt lat="43.99423" lon="4.44239">
        <ele>92.2</ele>
        <time>2025-01-26T08:36:14.000Z</time>
      </trkpt>
      <trkpt lat="43.99422" lon="4.44247">
        <ele>92.4</ele>
        <time>2025-01-26T08:36:16.000Z</time>
      </trkpt>
      <trkpt lat="43.99422" lon="4.44252">
        <ele>92.4</ele>
        <time>2025-01-26T08:36:17.000Z</time>
      </trkpt>
      <trkpt lat="43.99418" lon="4.4427">
        <ele>93.4</ele>
        <time>2025-01-26T08:36:23.000Z</time>
      </trkpt>
      <trkpt lat="43.99415" lon="4.44276">
        <ele>94.4</ele>
        <time>2025-01-26T08:36:26.000Z</time>
      </trkpt>
      <trkpt lat="43.99412" lon="4.44281">
        <ele>95.4</ele>
        <time>2025-01-26T08:36:28.000Z</time>
      </trkpt>
      <trkpt lat="43.99408" lon="4.44292">
        <ele>97.2</ele>
        <time>2025-01-26T08:36:32.000Z</time>
      </trkpt>
      <trkpt lat="43.99408" lon="4.44299">
        <ele>98.4</ele>
        <time>2025-01-26T08:36:34.000Z</time>
      </trkpt>
      <trkpt lat="43.99408" lon="4.44302">
        <ele>98.8</ele>
        <time>2025-01-26T08:36:35.000Z</time>
      </trkpt>
      <trkpt lat="43.99408" lon="4.4431">
        <ele>99.6</ele>
        <time>2025-01-26T08:36:38.000Z</time>
      </trkpt>
      <trkpt lat="43.99409" lon="4.44312">
        <ele>99.8</ele>
        <time>2025-01-26T08:36:39.000Z</time>
      </trkpt>
      <trkpt lat="43.9941" lon="4.44314">
        <ele>100.2</ele>
        <time>2025-01-26T08:36:40.000Z</time>
      </trkpt>
      <trkpt lat="43.99413" lon="4.44314">
        <ele>100.8</ele>
        <time>2025-01-26T08:36:42.000Z</time>
      </trkpt>
      <trkpt lat="43.99419" lon="4.44316">
        <ele>101.8</ele>
        <time>2025-01-26T08:36:46.000Z</time>
      </trkpt>
      <trkpt lat="43.99427" lon="4.44318">
        <ele>103</ele>
        <time>2025-01-26T08:36:51.000Z</time>
      </trkpt>
      <trkpt lat="43.99431" lon="4.4432">
        <ele>103.2</ele>
        <time>2025-01-26T08:36:54.000Z</time>
      </trkpt>
      <trkpt lat="43.99439" lon="4.44323">
        <ele>104</ele>
        <time>2025-01-26T08:36:59.000Z</time>
      </trkpt>
      <trkpt lat="43.99441" lon="4.44326">
        <ele>104.2</ele>
        <time>2025-01-26T08:37:01.000Z</time>
      </trkpt>
      <trkpt lat="43.99441" lon="4.44328">
        <ele>104.4</ele>
        <time>2025-01-26T08:37:02.000Z</time>
      </trkpt>
      <trkpt lat="43.99439" lon="4.44335">
        <ele>105.4</ele>
        <time>2025-01-26T08:37:05.000Z</time>
      </trkpt>
      <trkpt lat="43.99436" lon="4.44338">
        <ele>105.4</ele>
        <time>2025-01-26T08:37:07.000Z</time>
      </trkpt>
      <trkpt lat="43.99434" lon="4.4434">
        <ele>105.8</ele>
        <time>2025-01-26T08:37:09.000Z</time>
      </trkpt>
      <trkpt lat="43.99434" lon="4.44346">
        <ele>106.2</ele>
        <time>2025-01-26T08:37:12.000Z</time>
      </trkpt>
      <trkpt lat="43.99434" lon="4.44351">
        <ele>106.2</ele>
        <time>2025-01-26T08:37:14.000Z</time>
      </trkpt>
      <trkpt lat="43.99434" lon="4.44356">
        <ele>106.4</ele>
        <time>2025-01-26T08:37:16.000Z</time>
      </trkpt>
      <trkpt lat="43.99434" lon="4.44357">
        <ele>106.4</ele>
        <time>2025-01-26T08:37:17.000Z</time>
      </trkpt>
      <trkpt lat="43.99432" lon="4.44359">
        <ele>106.4</ele>
        <time>2025-01-26T08:37:18.000Z</time>
      </trkpt>
      <trkpt lat="43.99433" lon="4.44369">
        <ele>106.4</ele>
        <time>2025-01-26T08:37:22.000Z</time>
      </trkpt>
      <trkpt lat="43.99441" lon="4.44373">
        <ele>106.4</ele>
        <time>2025-01-26T08:37:27.000Z</time>
      </trkpt>
      <trkpt lat="43.99445" lon="4.44369">
        <ele>106.6</ele>
        <time>2025-01-26T08:37:30.000Z</time>
      </trkpt>
      <trkpt lat="43.99452" lon="4.44367">
        <ele>106.8</ele>
        <time>2025-01-26T08:37:34.000Z</time>
      </trkpt>
      <trkpt lat="43.9946" lon="4.44368">
        <ele>107.4</ele>
        <time>2025-01-26T08:37:38.000Z</time>
      </trkpt>
      <trkpt lat="43.99463" lon="4.44366">
        <ele>107.8</ele>
        <time>2025-01-26T08:37:40.000Z</time>
      </trkpt>
      <trkpt lat="43.99467" lon="4.44372">
        <ele>108.4</ele>
        <time>2025-01-26T08:37:44.000Z</time>
      </trkpt>
      <trkpt lat="43.99467" lon="4.44375">
        <ele>108.6</ele>
        <time>2025-01-26T08:37:45.000Z</time>
      </trkpt>
      <trkpt lat="43.99462" lon="4.44381">
        <ele>108.8</ele>
        <time>2025-01-26T08:37:48.000Z</time>
      </trkpt>
      <trkpt lat="43.99463" lon="4.44387">
        <ele>109</ele>
        <time>2025-01-26T08:37:51.000Z</time>
      </trkpt>
      <trkpt lat="43.99465" lon="4.44401">
        <ele>109.2</ele>
        <time>2025-01-26T08:37:57.000Z</time>
      </trkpt>
      <trkpt lat="43.99458" lon="4.44404">
        <ele>109.2</ele>
        <time>2025-01-26T08:38:01.000Z</time>
      </trkpt>
      <trkpt lat="43.99456" lon="4.44411">
        <ele>109</ele>
        <time>2025-01-26T08:38:05.000Z</time>
      </trkpt>
      <trkpt lat="43.99458" lon="4.44425">
        <ele>108.2</ele>
        <time>2025-01-26T08:38:11.000Z</time>
      </trkpt>
      <trkpt lat="43.99458" lon="4.44434">
        <ele>108</ele>
        <time>2025-01-26T08:38:16.000Z</time>
      </trkpt>
      <trkpt lat="43.99458" lon="4.44436">
        <ele>108</ele>
        <time>2025-01-26T08:38:17.000Z</time>
      </trkpt>
      <trkpt lat="43.99462" lon="4.44439">
        <ele>108</ele>
        <time>2025-01-26T08:38:20.000Z</time>
      </trkpt>
      <trkpt lat="43.99468" lon="4.44445">
        <ele>108</ele>
        <time>2025-01-26T08:38:25.000Z</time>
      </trkpt>
      <trkpt lat="43.99468" lon="4.44454">
        <ele>108.2</ele>
        <time>2025-01-26T08:38:30.000Z</time>
      </trkpt>
      <trkpt lat="43.99464" lon="4.44454">
        <ele>108.2</ele>
        <time>2025-01-26T08:38:34.000Z</time>
      </trkpt>
      <trkpt lat="43.99459" lon="4.44459">
        <ele>107.8</ele>
        <time>2025-01-26T08:38:39.000Z</time>
      </trkpt>
      <trkpt lat="43.99458" lon="4.44459">
        <ele>107.4</ele>
        <time>2025-01-26T08:38:40.000Z</time>
      </trkpt>
      <trkpt lat="43.99456" lon="4.44457">
        <ele>107.2</ele>
        <time>2025-01-26T08:38:42.000Z</time>
      </trkpt>
      <trkpt lat="43.99454" lon="4.44456">
        <ele>106.4</ele>
        <time>2025-01-26T08:38:44.000Z</time>
      </trkpt>
      <trkpt lat="43.99453" lon="4.44456">
        <ele>106</ele>
        <time>2025-01-26T08:38:45.000Z</time>
      </trkpt>
      <trkpt lat="43.99452" lon="4.44457">
        <ele>105</ele>
        <time>2025-01-26T08:38:47.000Z</time>
      </trkpt>
      <trkpt lat="43.9945" lon="4.44459">
        <ele>104</ele>
        <time>2025-01-26T08:38:49.000Z</time>
      </trkpt>
      <trkpt lat="43.99447" lon="4.44461">
        <ele>103.4</ele>
        <time>2025-01-26T08:38:51.000Z</time>
      </trkpt>
      <trkpt lat="43.99443" lon="4.44465">
        <ele>103</ele>
        <time>2025-01-26T08:38:53.000Z</time>
      </trkpt>
      <trkpt lat="43.99441" lon="4.44466">
        <ele>102.6</ele>
        <time>2025-01-26T08:38:54.000Z</time>
      </trkpt>
      <trkpt lat="43.99439" lon="4.44465">
        <ele>102.2</ele>
        <time>2025-01-26T08:38:56.000Z</time>
      </trkpt>
      <trkpt lat="43.99438" lon="4.44464">
        <ele>101.8</ele>
        <time>2025-01-26T08:38:57.000Z</time>
      </trkpt>
      <trkpt lat="43.99436" lon="4.44461">
        <ele>100</ele>
        <time>2025-01-26T08:38:59.000Z</time>
      </trkpt>
      <trkpt lat="43.99435" lon="4.44459">
        <ele>98</ele>
        <time>2025-01-26T08:39:00.000Z</time>
      </trkpt>
      <trkpt lat="43.99431" lon="4.44454">
        <ele>97.4</ele>
        <time>2025-01-26T08:39:02.000Z</time>
      </trkpt>
      <trkpt lat="43.99428" lon="4.44449">
        <ele>97</ele>
        <time>2025-01-26T08:39:04.000Z</time>
      </trkpt>
      <trkpt lat="43.99422" lon="4.44435">
        <ele>95.8</ele>
        <time>2025-01-26T08:39:08.000Z</time>
      </trkpt>
      <trkpt lat="43.9942" lon="4.44432">
        <ele>95.6</ele>
        <time>2025-01-26T08:39:09.000Z</time>
      </trkpt>
      <trkpt lat="43.99409" lon="4.44422">
        <ele>94.6</ele>
        <time>2025-01-26T08:39:13.000Z</time>
      </trkpt>
      <trkpt lat="43.99387" lon="4.44423">
        <ele>93.6</ele>
        <time>2025-01-26T08:39:18.000Z</time>
      </trkpt>
      <trkpt lat="43.99369" lon="4.4443">
        <ele>93.6</ele>
        <time>2025-01-26T08:39:24.000Z</time>
      </trkpt>
      <trkpt lat="43.99363" lon="4.44445">
        <ele>94.8</ele>
        <time>2025-01-26T08:39:29.000Z</time>
      </trkpt>
      <trkpt lat="43.99363" lon="4.44448">
        <ele>96</ele>
        <time>2025-01-26T08:39:30.000Z</time>
      </trkpt>
      <trkpt lat="43.99362" lon="4.44453">
        <ele>97</ele>
        <time>2025-01-26T08:39:32.000Z</time>
      </trkpt>
      <trkpt lat="43.99361" lon="4.44457">
        <ele>98.2</ele>
        <time>2025-01-26T08:39:34.000Z</time>
      </trkpt>
      <trkpt lat="43.9936" lon="4.44462">
        <ele>99.6</ele>
        <time>2025-01-26T08:39:37.000Z</time>
      </trkpt>
      <trkpt lat="43.9936" lon="4.44462">
        <ele>100.4</ele>
        <time>2025-01-26T08:39:39.000Z</time>
      </trkpt>
      <trkpt lat="43.9936" lon="4.44464">
        <ele>101.4</ele>
        <time>2025-01-26T08:41:26.000Z</time>
      </trkpt>
      <trkpt lat="43.9936" lon="4.44467">
        <ele>101.4</ele>
        <time>2025-01-26T08:41:28.000Z</time>
      </trkpt>
      <trkpt lat="43.99364" lon="4.44482">
        <ele>101.4</ele>
        <time>2025-01-26T08:41:34.000Z</time>
      </trkpt>
      <trkpt lat="43.99362" lon="4.445">
        <ele>101.4</ele>
        <time>2025-01-26T08:41:40.000Z</time>
      </trkpt>
      <trkpt lat="43.9936" lon="4.4452">
        <ele>101.8</ele>
        <time>2025-01-26T08:41:46.000Z</time>
      </trkpt>
      <trkpt lat="43.99353" lon="4.44533">
        <ele>102.6</ele>
        <time>2025-01-26T08:41:51.000Z</time>
      </trkpt>
      <trkpt lat="43.99349" lon="4.44539">
        <ele>103.2</ele>
        <time>2025-01-26T08:41:54.000Z</time>
      </trkpt>
      <trkpt lat="43.99347" lon="4.44545">
        <ele>103.8</ele>
        <time>2025-01-26T08:41:56.000Z</time>
      </trkpt>
      <trkpt lat="43.99341" lon="4.44556">
        <ele>104.8</ele>
        <time>2025-01-26T08:42:00.000Z</time>
      </trkpt>
      <trkpt lat="43.99339" lon="4.44558">
        <ele>105.2</ele>
        <time>2025-01-26T08:42:01.000Z</time>
      </trkpt>
      <trkpt lat="43.99332" lon="4.44565">
        <ele>106</ele>
        <time>2025-01-26T08:42:05.000Z</time>
      </trkpt>
      <trkpt lat="43.99327" lon="4.4457">
        <ele>106</ele>
        <time>2025-01-26T08:42:07.000Z</time>
      </trkpt>
      <trkpt lat="43.99321" lon="4.44585">
        <ele>106.2</ele>
        <time>2025-01-26T08:42:12.000Z</time>
      </trkpt>
      <trkpt lat="43.99317" lon="4.44605">
        <ele>106.4</ele>
        <time>2025-01-26T08:42:18.000Z</time>
      </trkpt>
      <trkpt lat="43.99317" lon="4.44618">
        <ele>107</ele>
        <time>2025-01-26T08:42:22.000Z</time>
      </trkpt>
      <trkpt lat="43.99318" lon="4.44623">
        <ele>107.4</ele>
        <time>2025-01-26T08:42:24.000Z</time>
      </trkpt>
      <trkpt lat="43.99328" lon="4.44628">
        <ele>108</ele>
        <time>2025-01-26T08:42:29.000Z</time>
      </trkpt>
      <trkpt lat="43.9934" lon="4.4463">
        <ele>109</ele>
        <time>2025-01-26T08:42:35.000Z</time>
      </trkpt>
      <trkpt lat="43.99344" lon="4.44631">
        <ele>109.4</ele>
        <time>2025-01-26T08:42:37.000Z</time>
      </trkpt>
      <trkpt lat="43.99354" lon="4.4463">
        <ele>110.2</ele>
        <time>2025-01-26T08:42:42.000Z</time>
      </trkpt>
      <trkpt lat="43.99358" lon="4.44628">
        <ele>110.6</ele>
        <time>2025-01-26T08:42:44.000Z</time>
      </trkpt>
      <trkpt lat="43.99363" lon="4.44625">
        <ele>111.2</ele>
        <time>2025-01-26T08:42:47.000Z</time>
      </trkpt>
      <trkpt lat="43.99364" lon="4.44627">
        <ele>111.2</ele>
        <time>2025-01-26T08:42:48.000Z</time>
      </trkpt>
      <trkpt lat="43.9937" lon="4.4463">
        <ele>111.8</ele>
        <time>2025-01-26T08:42:52.000Z</time>
      </trkpt>
      <trkpt lat="43.99373" lon="4.4463">
        <ele>112.2</ele>
        <time>2025-01-26T08:42:54.000Z</time>
      </trkpt>
      <trkpt lat="43.99374" lon="4.4463">
        <ele>112.2</ele>
        <time>2025-01-26T08:42:55.000Z</time>
      </trkpt>
      <trkpt lat="43.99385" lon="4.44631">
        <ele>112.8</ele>
        <time>2025-01-26T08:43:01.000Z</time>
      </trkpt>
      <trkpt lat="43.99402" lon="4.44631">
        <ele>113.4</ele>
        <time>2025-01-26T08:43:09.000Z</time>
      </trkpt>
      <trkpt lat="43.99404" lon="4.44631">
        <ele>113.4</ele>
        <time>2025-01-26T08:43:10.000Z</time>
      </trkpt>
      <trkpt lat="43.99429" lon="4.44629">
        <ele>114.2</ele>
        <time>2025-01-26T08:43:21.000Z</time>
      </trkpt>
      <trkpt lat="43.99434" lon="4.44629">
        <ele>114.4</ele>
        <time>2025-01-26T08:43:23.000Z</time>
      </trkpt>
      <trkpt lat="43.99442" lon="4.44624">
        <ele>114.8</ele>
        <time>2025-01-26T08:43:27.000Z</time>
      </trkpt>
      <trkpt lat="43.99449" lon="4.44609">
        <ele>115</ele>
        <time>2025-01-26T08:43:32.000Z</time>
      </trkpt>
      <trkpt lat="43.99458" lon="4.44604">
        <ele>115.2</ele>
        <time>2025-01-26T08:43:36.000Z</time>
      </trkpt>
      <trkpt lat="43.99467" lon="4.44592">
        <ele>115.4</ele>
        <time>2025-01-26T08:43:41.000Z</time>
      </trkpt>
      <trkpt lat="43.99467" lon="4.44571">
        <ele>115.2</ele>
        <time>2025-01-26T08:43:46.000Z</time>
      </trkpt>
      <trkpt lat="43.99462" lon="4.44555">
        <ele>113.6</ele>
        <time>2025-01-26T08:43:51.000Z</time>
      </trkpt>
      <trkpt lat="43.99461" lon="4.4455">
        <ele>113.2</ele>
        <time>2025-01-26T08:43:52.000Z</time>
      </trkpt>
      <trkpt lat="43.99456" lon="4.44538">
        <ele>111.8</ele>
        <time>2025-01-26T08:43:55.000Z</time>
      </trkpt>
      <trkpt lat="43.99455" lon="4.44532">
        <ele>111</ele>
        <time>2025-01-26T08:43:57.000Z</time>
      </trkpt>
      <trkpt lat="43.99455" lon="4.4453">
        <ele>110.4</ele>
        <time>2025-01-26T08:43:58.000Z</time>
      </trkpt>
      <trkpt lat="43.99456" lon="4.44528">
        <ele>109.8</ele>
        <time>2025-01-26T08:43:59.000Z</time>
      </trkpt>
      <trkpt lat="43.99457" lon="4.44526">
        <ele>109.2</ele>
        <time>2025-01-26T08:44:00.000Z</time>
      </trkpt>
      <trkpt lat="43.99459" lon="4.44519">
        <ele>107.8</ele>
        <time>2025-01-26T08:44:02.000Z</time>
      </trkpt>
      <trkpt lat="43.99461" lon="4.44513">
        <ele>106.6</ele>
        <time>2025-01-26T08:44:04.000Z</time>
      </trkpt>
      <trkpt lat="43.99462" lon="4.44512">
        <ele>105.8</ele>
        <time>2025-01-26T08:44:05.000Z</time>
      </trkpt>
      <trkpt lat="43.99465" lon="4.44512">
        <ele>104.8</ele>
        <time>2025-01-26T08:44:07.000Z</time>
      </trkpt>
      <trkpt lat="43.99466" lon="4.44513">
        <ele>104.4</ele>
        <time>2025-01-26T08:44:08.000Z</time>
      </trkpt>
      <trkpt lat="43.99467" lon="4.44515">
        <ele>103.4</ele>
        <time>2025-01-26T08:44:09.000Z</time>
      </trkpt>
      <trkpt lat="43.9947" lon="4.44518">
        <ele>101.8</ele>
        <time>2025-01-26T08:44:11.000Z</time>
      </trkpt>
      <trkpt lat="43.99475" lon="4.44521">
        <ele>101.4</ele>
        <time>2025-01-26T08:44:14.000Z</time>
      </trkpt>
      <trkpt lat="43.99484" lon="4.44525">
        <ele>101.2</ele>
        <time>2025-01-26T08:44:19.000Z</time>
      </trkpt>
      <trkpt lat="43.99497" lon="4.44528">
        <ele>102.2</ele>
        <time>2025-01-26T08:44:25.000Z</time>
      </trkpt>
      <trkpt lat="43.99503" lon="4.4453">
        <ele>102.8</ele>
        <time>2025-01-26T08:44:28.000Z</time>
      </trkpt>
      <trkpt lat="43.9951" lon="4.44532">
        <ele>103.4</ele>
        <time>2025-01-26T08:44:31.000Z</time>
      </trkpt>
      <trkpt lat="43.99516" lon="4.44534">
        <ele>104.2</ele>
        <time>2025-01-26T08:44:34.000Z</time>
      </trkpt>
      <trkpt lat="43.99521" lon="4.44534">
        <ele>104.8</ele>
        <time>2025-01-26T08:44:36.000Z</time>
      </trkpt>
      <trkpt lat="43.99529" lon="4.44536">
        <ele>105.4</ele>
        <time>2025-01-26T08:44:39.000Z</time>
      </trkpt>
      <trkpt lat="43.99536" lon="4.44536">
        <ele>106</ele>
        <time>2025-01-26T08:44:42.000Z</time>
      </trkpt>
      <trkpt lat="43.99543" lon="4.44535">
        <ele>106.4</ele>
        <time>2025-01-26T08:44:46.000Z</time>
      </trkpt>
      <trkpt lat="43.99544" lon="4.44535">
        <ele>106.6</ele>
        <time>2025-01-26T08:44:47.000Z</time>
      </trkpt>
      <trkpt lat="43.9955" lon="4.44536">
        <ele>107.6</ele>
        <time>2025-01-26T08:44:50.000Z</time>
      </trkpt>
      <trkpt lat="43.99557" lon="4.44536">
        <ele>108.4</ele>
        <time>2025-01-26T08:44:53.000Z</time>
      </trkpt>
      <trkpt lat="43.99561" lon="4.44537">
        <ele>108.8</ele>
        <time>2025-01-26T08:44:55.000Z</time>
      </trkpt>
      <trkpt lat="43.99571" lon="4.44537">
        <ele>109.4</ele>
        <time>2025-01-26T08:45:00.000Z</time>
      </trkpt>
      <trkpt lat="43.99577" lon="4.44538">
        <ele>110</ele>
        <time>2025-01-26T08:45:03.000Z</time>
      </trkpt>
      <trkpt lat="43.99587" lon="4.44536">
        <ele>110.8</ele>
        <time>2025-01-26T08:45:08.000Z</time>
      </trkpt>
      <trkpt lat="43.99588" lon="4.44536">
        <ele>111</ele>
        <time>2025-01-26T08:45:09.000Z</time>
      </trkpt>
      <trkpt lat="43.99598" lon="4.44536">
        <ele>112.4</ele>
        <time>2025-01-26T08:45:14.000Z</time>
      </trkpt>
      <trkpt lat="43.9961" lon="4.44535">
        <ele>113.4</ele>
        <time>2025-01-26T08:45:20.000Z</time>
      </trkpt>
      <trkpt lat="43.99619" lon="4.44535">
        <ele>114.6</ele>
        <time>2025-01-26T08:45:25.000Z</time>
      </trkpt>
      <trkpt lat="43.99621" lon="4.44535">
        <ele>115.2</ele>
        <time>2025-01-26T08:45:27.000Z</time>
      </trkpt>
      <trkpt lat="43.99625" lon="4.44535">
        <ele>115.6</ele>
        <time>2025-01-26T08:45:29.000Z</time>
      </trkpt>
      <trkpt lat="43.99631" lon="4.44535">
        <ele>116.6</ele>
        <time>2025-01-26T08:45:33.000Z</time>
      </trkpt>
      <trkpt lat="43.99632" lon="4.44535">
        <ele>117</ele>
        <time>2025-01-26T08:45:34.000Z</time>
      </trkpt>
      <trkpt lat="43.9964" lon="4.44535">
        <ele>117.6</ele>
        <time>2025-01-26T08:45:38.000Z</time>
      </trkpt>
      <trkpt lat="43.99643" lon="4.44535">
        <ele>118</ele>
        <time>2025-01-26T08:45:40.000Z</time>
      </trkpt>
      <trkpt lat="43.99651" lon="4.44536">
        <ele>118.6</ele>
        <time>2025-01-26T08:45:45.000Z</time>
      </trkpt>
      <trkpt lat="43.99656" lon="4.44537">
        <ele>119.2</ele>
        <time>2025-01-26T08:45:48.000Z</time>
      </trkpt>
      <trkpt lat="43.99661" lon="4.44536">
        <ele>119.8</ele>
        <time>2025-01-26T08:45:51.000Z</time>
      </trkpt>
      <trkpt lat="43.99665" lon="4.44536">
        <ele>120.4</ele>
        <time>2025-01-26T08:45:54.000Z</time>
      </trkpt>
      <trkpt lat="43.99667" lon="4.44536">
        <ele>120.8</ele>
        <time>2025-01-26T08:45:56.000Z</time>
      </trkpt>
      <trkpt lat="43.99675" lon="4.44536">
        <ele>121.8</ele>
        <time>2025-01-26T08:46:01.000Z</time>
      </trkpt>
      <trkpt lat="43.99677" lon="4.44537">
        <ele>122.2</ele>
        <time>2025-01-26T08:46:03.000Z</time>
      </trkpt>
      <trkpt lat="43.9968" lon="4.44541">
        <ele>123</ele>
        <time>2025-01-26T08:46:06.000Z</time>
      </trkpt>
      <trkpt lat="43.9968" lon="4.44547">
        <ele>124</ele>
        <time>2025-01-26T08:46:11.000Z</time>
      </trkpt>
      <trkpt lat="43.99681" lon="4.44548">
        <ele>124.2</ele>
        <time>2025-01-26T08:46:12.000Z</time>
      </trkpt>
      <trkpt lat="43.99682" lon="4.44552">
        <ele>124.4</ele>
        <time>2025-01-26T08:46:14.000Z</time>
      </trkpt>
      <trkpt lat="43.99687" lon="4.44557">
        <ele>124.4</ele>
        <time>2025-01-26T08:46:18.000Z</time>
      </trkpt>
      <trkpt lat="43.99694" lon="4.44562">
        <ele>124.8</ele>
        <time>2025-01-26T08:46:23.000Z</time>
      </trkpt>
      <trkpt lat="43.99696" lon="4.44561">
        <ele>124.8</ele>
        <time>2025-01-26T08:46:24.000Z</time>
      </trkpt>
      <trkpt lat="43.99701" lon="4.44564">
        <ele>125.2</ele>
        <time>2025-01-26T08:46:28.000Z</time>
      </trkpt>
      <trkpt lat="43.99702" lon="4.44565">
        <ele>125.4</ele>
        <time>2025-01-26T08:46:29.000Z</time>
      </trkpt>
      <trkpt lat="43.9971" lon="4.44575">
        <ele>126.2</ele>
        <time>2025-01-26T08:46:35.000Z</time>
      </trkpt>
      <trkpt lat="43.9971" lon="4.44577">
        <ele>126.4</ele>
        <time>2025-01-26T08:46:36.000Z</time>
      </trkpt>
      <trkpt lat="43.99713" lon="4.44587">
        <ele>127.6</ele>
        <time>2025-01-26T08:46:40.000Z</time>
      </trkpt>
      <trkpt lat="43.99714" lon="4.44588">
        <ele>127.8</ele>
        <time>2025-01-26T08:46:41.000Z</time>
      </trkpt>
      <trkpt lat="43.99715" lon="4.4459">
        <ele>128.2</ele>
        <time>2025-01-26T08:46:42.000Z</time>
      </trkpt>
      <trkpt lat="43.9972" lon="4.44594">
        <ele>128.8</ele>
        <time>2025-01-26T08:46:45.000Z</time>
      </trkpt>
      <trkpt lat="43.99723" lon="4.44596">
        <ele>129.4</ele>
        <time>2025-01-26T08:46:47.000Z</time>
      </trkpt>
      <trkpt lat="43.99726" lon="4.44597">
        <ele>129.8</ele>
        <time>2025-01-26T08:46:49.000Z</time>
      </trkpt>
      <trkpt lat="43.99734" lon="4.44598">
        <ele>131</ele>
        <time>2025-01-26T08:46:54.000Z</time>
      </trkpt>
      <trkpt lat="43.99736" lon="4.44598">
        <ele>131.2</ele>
        <time>2025-01-26T08:46:55.000Z</time>
      </trkpt>
      <trkpt lat="43.99743" lon="4.44593">
        <ele>131.8</ele>
        <time>2025-01-26T08:47:01.000Z</time>
      </trkpt>
      <trkpt lat="43.99744" lon="4.44592">
        <ele>132</ele>
        <time>2025-01-26T08:47:02.000Z</time>
      </trkpt>
      <trkpt lat="43.99753" lon="4.44583">
        <ele>133</ele>
        <time>2025-01-26T08:47:10.000Z</time>
      </trkpt>
      <trkpt lat="43.9976" lon="4.44575">
        <ele>134.2</ele>
        <time>2025-01-26T08:47:16.000Z</time>
      </trkpt>
      <trkpt lat="43.99761" lon="4.44574">
        <ele>134.2</ele>
        <time>2025-01-26T08:47:17.000Z</time>
      </trkpt>
      <trkpt lat="43.99767" lon="4.44561">
        <ele>135.2</ele>
        <time>2025-01-26T08:47:25.000Z</time>
      </trkpt>
      <trkpt lat="43.99768" lon="4.44559">
        <ele>135.2</ele>
        <time>2025-01-26T08:47:26.000Z</time>
      </trkpt>
      <trkpt lat="43.99772" lon="4.44558">
        <ele>135.6</ele>
        <time>2025-01-26T08:47:29.000Z</time>
      </trkpt>
      <trkpt lat="43.99776" lon="4.44563">
        <ele>136</ele>
        <time>2025-01-26T08:47:34.000Z</time>
      </trkpt>
      <trkpt lat="43.99776" lon="4.44564">
        <ele>136</ele>
        <time>2025-01-26T08:47:35.000Z</time>
      </trkpt>
      <trkpt lat="43.99775" lon="4.44565">
        <ele>136</ele>
        <time>2025-01-26T08:47:36.000Z</time>
      </trkpt>
      <trkpt lat="43.99775" lon="4.44568">
        <ele>136.2</ele>
        <time>2025-01-26T08:47:39.000Z</time>
      </trkpt>
      <trkpt lat="43.99775" lon="4.44569">
        <ele>136.8</ele>
        <time>2025-01-26T08:47:56.000Z</time>
      </trkpt>
      <trkpt lat="43.99773" lon="4.44573">
        <ele>136.8</ele>
        <time>2025-01-26T08:47:59.000Z</time>
      </trkpt>
      <trkpt lat="43.99773" lon="4.44575">
        <ele>136.8</ele>
        <time>2025-01-26T08:48:00.000Z</time>
      </trkpt>
      <trkpt lat="43.9977" lon="4.44593">
        <ele>136.6</ele>
        <time>2025-01-26T08:48:06.000Z</time>
      </trkpt>
      <trkpt lat="43.99759" lon="4.44614">
        <ele>136.4</ele>
        <time>2025-01-26T08:48:11.000Z</time>
      </trkpt>
      <trkpt lat="43.99747" lon="4.44641">
        <ele>136</ele>
        <time>2025-01-26T08:48:18.000Z</time>
      </trkpt>
      <trkpt lat="43.99733" lon="4.44671">
        <ele>136.8</ele>
        <time>2025-01-26T08:48:27.000Z</time>
      </trkpt>
      <trkpt lat="43.99726" lon="4.44687">
        <ele>138</ele>
        <time>2025-01-26T08:48:32.000Z</time>
      </trkpt>
      <trkpt lat="43.9972" lon="4.44699">
        <ele>138.8</ele>
        <time>2025-01-26T08:48:36.000Z</time>
      </trkpt>
      <trkpt lat="43.99718" lon="4.44706">
        <ele>139.2</ele>
        <time>2025-01-26T08:48:38.000Z</time>
      </trkpt>
      <trkpt lat="43.99717" lon="4.44719">
        <ele>139.6</ele>
        <time>2025-01-26T08:48:42.000Z</time>
      </trkpt>
      <trkpt lat="43.9972" lon="4.44727">
        <ele>140.2</ele>
        <time>2025-01-26T08:48:45.000Z</time>
      </trkpt>
      <trkpt lat="43.99724" lon="4.44733">
        <ele>140.8</ele>
        <time>2025-01-26T08:48:48.000Z</time>
      </trkpt>
      <trkpt lat="43.99727" lon="4.44736">
        <ele>141.4</ele>
        <time>2025-01-26T08:48:50.000Z</time>
      </trkpt>
      <trkpt lat="43.99733" lon="4.4474">
        <ele>142.8</ele>
        <time>2025-01-26T08:48:54.000Z</time>
      </trkpt>
      <trkpt lat="43.99734" lon="4.44741">
        <ele>143</ele>
        <time>2025-01-26T08:48:55.000Z</time>
      </trkpt>
      <trkpt lat="43.99737" lon="4.44744">
        <ele>143.8</ele>
        <time>2025-01-26T08:48:57.000Z</time>
      </trkpt>
      <trkpt lat="43.99743" lon="4.4475">
        <ele>145</ele>
        <time>2025-01-26T08:49:01.000Z</time>
      </trkpt>
      <trkpt lat="43.99747" lon="4.44753">
        <ele>146</ele>
        <time>2025-01-26T08:49:04.000Z</time>
      </trkpt>
      <trkpt lat="43.99753" lon="4.44757">
        <ele>147.2</ele>
        <time>2025-01-26T08:49:08.000Z</time>
      </trkpt>
      <trkpt lat="43.9976" lon="4.44762">
        <ele>148.2</ele>
        <time>2025-01-26T08:49:12.000Z</time>
      </trkpt>
      <trkpt lat="43.99761" lon="4.44763">
        <ele>148.4</ele>
        <time>2025-01-26T08:49:13.000Z</time>
      </trkpt>
      <trkpt lat="43.99772" lon="4.44772">
        <ele>149.4</ele>
        <time>2025-01-26T08:49:19.000Z</time>
      </trkpt>
      <trkpt lat="43.99773" lon="4.44774">
        <ele>149.4</ele>
        <time>2025-01-26T08:49:20.000Z</time>
      </trkpt>
      <trkpt lat="43.9978" lon="4.44784">
        <ele>150.4</ele>
        <time>2025-01-26T08:49:25.000Z</time>
      </trkpt>
      <trkpt lat="43.99782" lon="4.44791">
        <ele>151</ele>
        <time>2025-01-26T08:49:28.000Z</time>
      </trkpt>
      <trkpt lat="43.99783" lon="4.44799">
        <ele>151.4</ele>
        <time>2025-01-26T08:49:31.000Z</time>
      </trkpt>
      <trkpt lat="43.99785" lon="4.44814">
        <ele>152.4</ele>
        <time>2025-01-26T08:49:36.000Z</time>
      </trkpt>
      <trkpt lat="43.99789" lon="4.44833">
        <ele>152.4</ele>
        <time>2025-01-26T08:49:40.000Z</time>
      </trkpt>
      <trkpt lat="43.99802" lon="4.44856">
        <ele>152</ele>
        <time>2025-01-26T08:49:45.000Z</time>
      </trkpt>
      <trkpt lat="43.99808" lon="4.44864">
        <ele>151.4</ele>
        <time>2025-01-26T08:49:47.000Z</time>
      </trkpt>
      <trkpt lat="43.9982" lon="4.4488">
        <ele>150</ele>
        <time>2025-01-26T08:49:50.000Z</time>
      </trkpt>
      <trkpt lat="43.99841" lon="4.44903">
        <ele>149</ele>
        <time>2025-01-26T08:49:54.000Z</time>
      </trkpt>
      <trkpt lat="43.99845" lon="4.44908">
        <ele>148.6</ele>
        <time>2025-01-26T08:49:55.000Z</time>
      </trkpt>
      <trkpt lat="43.99848" lon="4.44912">
        <ele>147.8</ele>
        <time>2025-01-26T08:49:56.000Z</time>
      </trkpt>
      <trkpt lat="43.99852" lon="4.44918">
        <ele>146.4</ele>
        <time>2025-01-26T08:49:58.000Z</time>
      </trkpt>
      <trkpt lat="43.99852" lon="4.4492">
        <ele>145.6</ele>
        <time>2025-01-26T08:49:59.000Z</time>
      </trkpt>
      <trkpt lat="43.99851" lon="4.44921">
        <ele>144.6</ele>
        <time>2025-01-26T08:50:00.000Z</time>
      </trkpt>
      <trkpt lat="43.9985" lon="4.44921">
        <ele>142.6</ele>
        <time>2025-01-26T08:50:01.000Z</time>
      </trkpt>
      <trkpt lat="43.99849" lon="4.44921">
        <ele>141.8</ele>
        <time>2025-01-26T08:50:02.000Z</time>
      </trkpt>
      <trkpt lat="43.99848" lon="4.44922">
        <ele>141.4</ele>
        <time>2025-01-26T08:50:03.000Z</time>
      </trkpt>
      <trkpt lat="43.99843" lon="4.4492">
        <ele>140.8</ele>
        <time>2025-01-26T08:50:07.000Z</time>
      </trkpt>
      <trkpt lat="43.99831" lon="4.44918">
        <ele>140.2</ele>
        <time>2025-01-26T08:50:11.000Z</time>
      </trkpt>
      <trkpt lat="43.99827" lon="4.44918">
        <ele>140</ele>
        <time>2025-01-26T08:50:12.000Z</time>
      </trkpt>
      <trkpt lat="43.99817" lon="4.4492">
        <ele>139.4</ele>
        <time>2025-01-26T08:50:15.000Z</time>
      </trkpt>
      <trkpt lat="43.99814" lon="4.44922">
        <ele>139.2</ele>
        <time>2025-01-26T08:50:16.000Z</time>
      </trkpt>
      <trkpt lat="43.99812" lon="4.44923">
        <ele>138.8</ele>
        <time>2025-01-26T08:50:17.000Z</time>
      </trkpt>
      <trkpt lat="43.99806" lon="4.44924">
        <ele>138.2</ele>
        <time>2025-01-26T08:50:19.000Z</time>
      </trkpt>
      <trkpt lat="43.99804" lon="4.44926">
        <ele>137.6</ele>
        <time>2025-01-26T08:50:20.000Z</time>
      </trkpt>
      <trkpt lat="43.99799" lon="4.44928">
        <ele>137.2</ele>
        <time>2025-01-26T08:50:22.000Z</time>
      </trkpt>
      <trkpt lat="43.99788" lon="4.44931">
        <ele>136.6</ele>
        <time>2025-01-26T08:50:25.000Z</time>
      </trkpt>
      <trkpt lat="43.99781" lon="4.44935">
        <ele>136</ele>
        <time>2025-01-26T08:50:27.000Z</time>
      </trkpt>
      <trkpt lat="43.99774" lon="4.44933">
        <ele>135.8</ele>
        <time>2025-01-26T08:50:29.000Z</time>
      </trkpt>
      <trkpt lat="43.99765" lon="4.4493">
        <ele>135.2</ele>
        <time>2025-01-26T08:50:31.000Z</time>
      </trkpt>
      <trkpt lat="43.9976" lon="4.44929">
        <ele>135.2</ele>
        <time>2025-01-26T08:50:32.000Z</time>
      </trkpt>
      <trkpt lat="43.99745" lon="4.44928">
        <ele>134.6</ele>
        <time>2025-01-26T08:50:35.000Z</time>
      </trkpt>
      <trkpt lat="43.99739" lon="4.44925">
        <ele>134.2</ele>
        <time>2025-01-26T08:50:37.000Z</time>
      </trkpt>
      <trkpt lat="43.99732" lon="4.44923">
        <ele>132.6</ele>
        <time>2025-01-26T08:50:40.000Z</time>
      </trkpt>
      <trkpt lat="43.9973" lon="4.44921">
        <ele>132</ele>
        <time>2025-01-26T08:50:41.000Z</time>
      </trkpt>
      <trkpt lat="43.99728" lon="4.44916">
        <ele>131.4</ele>
        <time>2025-01-26T08:50:43.000Z</time>
      </trkpt>
      <trkpt lat="43.99725" lon="4.44913">
        <ele>131.2</ele>
        <time>2025-01-26T08:50:45.000Z</time>
      </trkpt>
      <trkpt lat="43.99724" lon="4.44912">
        <ele>131.2</ele>
        <time>2025-01-26T08:50:46.000Z</time>
      </trkpt>
      <trkpt lat="43.99715" lon="4.44911">
        <ele>131</ele>
        <time>2025-01-26T08:50:50.000Z</time>
      </trkpt>
      <trkpt lat="43.99711" lon="4.4491">
        <ele>130.8</ele>
        <time>2025-01-26T08:50:51.000Z</time>
      </trkpt>
      <trkpt lat="43.997" lon="4.44912">
        <ele>130.4</ele>
        <time>2025-01-26T08:50:55.000Z</time>
      </trkpt>
      <trkpt lat="43.99697" lon="4.44913">
        <ele>130.2</ele>
        <time>2025-01-26T08:50:56.000Z</time>
      </trkpt>
      <trkpt lat="43.99683" lon="4.44919">
        <ele>130</ele>
        <time>2025-01-26T08:51:02.000Z</time>
      </trkpt>
      <trkpt lat="43.99669" lon="4.44924">
        <ele>131.4</ele>
        <time>2025-01-26T08:51:07.000Z</time>
      </trkpt>
      <trkpt lat="43.99666" lon="4.44928">
        <ele>132.4</ele>
        <time>2025-01-26T08:51:09.000Z</time>
      </trkpt>
      <trkpt lat="43.99665" lon="4.4493">
        <ele>133</ele>
        <time>2025-01-26T08:51:10.000Z</time>
      </trkpt>
      <trkpt lat="43.99665" lon="4.44935">
        <ele>133.6</ele>
        <time>2025-01-26T08:51:12.000Z</time>
      </trkpt>
      <trkpt lat="43.99663" lon="4.44939">
        <ele>134.4</ele>
        <time>2025-01-26T08:51:14.000Z</time>
      </trkpt>
      <trkpt lat="43.99663" lon="4.4494">
        <ele>134.8</ele>
        <time>2025-01-26T08:51:15.000Z</time>
      </trkpt>
      <trkpt lat="43.99662" lon="4.44942">
        <ele>135.8</ele>
        <time>2025-01-26T08:51:17.000Z</time>
      </trkpt>
      <trkpt lat="43.99662" lon="4.44943">
        <ele>136.4</ele>
        <time>2025-01-26T08:51:18.000Z</time>
      </trkpt>
      <trkpt lat="43.9966" lon="4.44949">
        <ele>139.8</ele>
        <time>2025-01-26T08:51:25.000Z</time>
      </trkpt>
      <trkpt lat="43.9966" lon="4.4495">
        <ele>140</ele>
        <time>2025-01-26T08:51:26.000Z</time>
      </trkpt>
      <trkpt lat="43.99661" lon="4.44953">
        <ele>140.8</ele>
        <time>2025-01-26T08:51:31.000Z</time>
      </trkpt>
      <trkpt lat="43.99661" lon="4.44953">
        <ele>140.8</ele>
        <time>2025-01-26T08:51:32.000Z</time>
      </trkpt>
      <trkpt lat="43.99661" lon="4.44953">
        <ele>141</ele>
        <time>2025-01-26T08:51:33.000Z</time>
      </trkpt>
      <trkpt lat="43.9966" lon="4.44953">
        <ele>141.2</ele>
        <time>2025-01-26T08:52:01.000Z</time>
      </trkpt>
      <trkpt lat="43.99659" lon="4.44953">
        <ele>141.2</ele>
        <time>2025-01-26T08:52:02.000Z</time>
      </trkpt>
      <trkpt lat="43.99658" lon="4.44953">
        <ele>141.2</ele>
        <time>2025-01-26T08:52:03.000Z</time>
      </trkpt>
      <trkpt lat="43.99656" lon="4.44952">
        <ele>141.2</ele>
        <time>2025-01-26T08:52:06.000Z</time>
      </trkpt>
      <trkpt lat="43.99658" lon="4.44951">
        <ele>141.2</ele>
        <time>2025-01-26T08:52:22.000Z</time>
      </trkpt>
      <trkpt lat="43.99659" lon="4.44952">
        <ele>141.2</ele>
        <time>2025-01-26T08:52:23.000Z</time>
      </trkpt>
      <trkpt lat="43.99662" lon="4.44953">
        <ele>141.2</ele>
        <time>2025-01-26T08:52:30.000Z</time>
      </trkpt>
      <trkpt lat="43.99662" lon="4.44953">
        <ele>141.2</ele>
        <time>2025-01-26T08:52:32.000Z</time>
      </trkpt>
      <trkpt lat="43.99665" lon="4.44954">
        <ele>141.8</ele>
        <time>2025-01-26T08:54:44.000Z</time>
      </trkpt>
      <trkpt lat="43.99668" lon="4.44955">
        <ele>141.8</ele>
        <time>2025-01-26T08:54:46.000Z</time>
      </trkpt>
      <trkpt lat="43.99687" lon="4.44959">
        <ele>141.8</ele>
        <time>2025-01-26T08:54:53.000Z</time>
      </trkpt>
      <trkpt lat="43.99717" lon="4.44964">
        <ele>141</ele>
        <time>2025-01-26T08:55:01.000Z</time>
      </trkpt>
      <trkpt lat="43.99752" lon="4.44962">
        <ele>140.6</ele>
        <time>2025-01-26T08:55:10.000Z</time>
      </trkpt>
      <trkpt lat="43.99762" lon="4.44961">
        <ele>140.4</ele>
        <time>2025-01-26T08:55:15.000Z</time>
      </trkpt>
      <trkpt lat="43.99767" lon="4.44963">
        <ele>140.6</ele>
        <time>2025-01-26T08:55:21.000Z</time>
      </trkpt>
      <trkpt lat="43.99766" lon="4.44969">
        <ele>141</ele>
        <time>2025-01-26T08:55:27.000Z</time>
      </trkpt>
      <trkpt lat="43.99765" lon="4.44971">
        <ele>141.6</ele>
        <time>2025-01-26T08:55:30.000Z</time>
      </trkpt>
      <trkpt lat="43.99767" lon="4.44976">
        <ele>143.8</ele>
        <time>2025-01-26T08:55:36.000Z</time>
      </trkpt>
      <trkpt lat="43.99768" lon="4.44978">
        <ele>144.2</ele>
        <time>2025-01-26T08:55:38.000Z</time>
      </trkpt>
      <trkpt lat="43.9977" lon="4.4498">
        <ele>144.6</ele>
        <time>2025-01-26T08:55:41.000Z</time>
      </trkpt>
      <trkpt lat="43.99771" lon="4.44982">
        <ele>146</ele>
        <time>2025-01-26T08:55:48.000Z</time>
      </trkpt>
      <trkpt lat="43.99772" lon="4.44983">
        <ele>146</ele>
        <time>2025-01-26T08:55:49.000Z</time>
      </trkpt>
      <trkpt lat="43.99778" lon="4.44994">
        <ele>146.6</ele>
        <time>2025-01-26T08:55:57.000Z</time>
      </trkpt>
      <trkpt lat="43.9978" lon="4.44996">
        <ele>147</ele>
        <time>2025-01-26T08:55:59.000Z</time>
      </trkpt>
      <trkpt lat="43.99787" lon="4.44999">
        <ele>148.4</ele>
        <time>2025-01-26T08:56:03.000Z</time>
      </trkpt>
      <trkpt lat="43.9979" lon="4.45004">
        <ele>149.2</ele>
        <time>2025-01-26T08:56:06.000Z</time>
      </trkpt>
      <trkpt lat="43.99791" lon="4.45005">
        <ele>149.6</ele>
        <time>2025-01-26T08:56:07.000Z</time>
      </trkpt>
      <trkpt lat="43.99792" lon="4.45005">
        <ele>149.6</ele>
        <time>2025-01-26T08:56:08.000Z</time>
      </trkpt>
      <trkpt lat="43.99793" lon="4.45005">
        <ele>149.8</ele>
        <time>2025-01-26T08:56:09.000Z</time>
      </trkpt>
      <trkpt lat="43.99798" lon="4.45002">
        <ele>150.8</ele>
        <time>2025-01-26T08:56:13.000Z</time>
      </trkpt>
      <trkpt lat="43.998" lon="4.45002">
        <ele>151.2</ele>
        <time>2025-01-26T08:56:14.000Z</time>
      </trkpt>
      <trkpt lat="43.99802" lon="4.45001">
        <ele>151.8</ele>
        <time>2025-01-26T08:56:16.000Z</time>
      </trkpt>
      <trkpt lat="43.99808" lon="4.45">
        <ele>152</ele>
        <time>2025-01-26T08:56:19.000Z</time>
      </trkpt>
      <trkpt lat="43.99813" lon="4.45002">
        <ele>152</ele>
        <time>2025-01-26T08:56:22.000Z</time>
      </trkpt>
      <trkpt lat="43.99817" lon="4.45002">
        <ele>152.2</ele>
        <time>2025-01-26T08:56:25.000Z</time>
      </trkpt>
      <trkpt lat="43.99827" lon="4.45003">
        <ele>152.6</ele>
        <time>2025-01-26T08:56:31.000Z</time>
      </trkpt>
      <trkpt lat="43.99828" lon="4.45003">
        <ele>153</ele>
        <time>2025-01-26T08:56:32.000Z</time>
      </trkpt>
      <trkpt lat="43.99831" lon="4.44999">
        <ele>153.4</ele>
        <time>2025-01-26T08:56:36.000Z</time>
      </trkpt>
      <trkpt lat="43.99832" lon="4.44997">
        <ele>153.4</ele>
        <time>2025-01-26T08:56:37.000Z</time>
      </trkpt>
      <trkpt lat="43.99839" lon="4.44991">
        <ele>153.6</ele>
        <time>2025-01-26T08:56:42.000Z</time>
      </trkpt>
      <trkpt lat="43.99842" lon="4.44986">
        <ele>152.6</ele>
        <time>2025-01-26T08:56:47.000Z</time>
      </trkpt>
      <trkpt lat="43.99844" lon="4.4498">
        <ele>152</ele>
        <time>2025-01-26T08:56:51.000Z</time>
      </trkpt>
      <trkpt lat="43.99845" lon="4.44979">
        <ele>152</ele>
        <time>2025-01-26T08:56:52.000Z</time>
      </trkpt>
      <trkpt lat="43.99847" lon="4.44979">
        <ele>151.8</ele>
        <time>2025-01-26T08:56:53.000Z</time>
      </trkpt>
      <trkpt lat="43.9985" lon="4.44979">
        <ele>151.2</ele>
        <time>2025-01-26T08:56:55.000Z</time>
      </trkpt>
      <trkpt lat="43.99852" lon="4.44979">
        <ele>150.8</ele>
        <time>2025-01-26T08:56:56.000Z</time>
      </trkpt>
      <trkpt lat="43.99858" lon="4.44979">
        <ele>149.6</ele>
        <time>2025-01-26T08:56:59.000Z</time>
      </trkpt>
      <trkpt lat="43.9986" lon="4.44978">
        <ele>149.4</ele>
        <time>2025-01-26T08:57:00.000Z</time>
      </trkpt>
      <trkpt lat="43.99861" lon="4.44977">
        <ele>149.2</ele>
        <time>2025-01-26T08:57:01.000Z</time>
      </trkpt>
      <trkpt lat="43.99863" lon="4.44971">
        <ele>148.8</ele>
        <time>2025-01-26T08:57:04.000Z</time>
      </trkpt>
      <trkpt lat="43.99865" lon="4.44965">
        <ele>148.4</ele>
        <time>2025-01-26T08:57:07.000Z</time>
      </trkpt>
      <trkpt lat="43.99864" lon="4.44963">
        <ele>148.2</ele>
        <time>2025-01-26T08:57:08.000Z</time>
      </trkpt>
      <trkpt lat="43.99864" lon="4.44956">
        <ele>147.2</ele>
        <time>2025-01-26T08:57:11.000Z</time>
      </trkpt>
      <trkpt lat="43.99865" lon="4.44953">
        <ele>146.2</ele>
        <time>2025-01-26T08:57:13.000Z</time>
      </trkpt>
      <trkpt lat="43.99864" lon="4.44952">
        <ele>144.8</ele>
        <time>2025-01-26T08:57:14.000Z</time>
      </trkpt>
      <trkpt lat="43.99865" lon="4.44949">
        <ele>144.4</ele>
        <time>2025-01-26T08:57:15.000Z</time>
      </trkpt>
      <trkpt lat="43.99863" lon="4.44942">
        <ele>143.8</ele>
        <time>2025-01-26T08:57:19.000Z</time>
      </trkpt>
      <trkpt lat="43.99863" lon="4.44937">
        <ele>143.8</ele>
        <time>2025-01-26T08:57:21.000Z</time>
      </trkpt>
      <trkpt lat="43.99863" lon="4.44935">
        <ele>143.6</ele>
        <time>2025-01-26T08:57:22.000Z</time>
      </trkpt>
      <trkpt lat="43.99865" lon="4.44932">
        <ele>143.6</ele>
        <time>2025-01-26T08:57:24.000Z</time>
      </trkpt>
      <trkpt lat="43.99869" lon="4.44924">
        <ele>143.6</ele>
        <time>2025-01-26T08:57:28.000Z</time>
      </trkpt>
      <trkpt lat="43.9987" lon="4.44921">
        <ele>143.6</ele>
        <time>2025-01-26T08:57:29.000Z</time>
      </trkpt>
      <trkpt lat="43.99872" lon="4.44909">
        <ele>144.2</ele>
        <time>2025-01-26T08:57:34.000Z</time>
      </trkpt>
      <trkpt lat="43.99875" lon="4.44905">
        <ele>144.8</ele>
        <time>2025-01-26T08:57:36.000Z</time>
      </trkpt>
      <trkpt lat="43.99879" lon="4.44899">
        <ele>145.6</ele>
        <time>2025-01-26T08:57:39.000Z</time>
      </trkpt>
      <trkpt lat="43.9988" lon="4.44898">
        <ele>145.8</ele>
        <time>2025-01-26T08:57:40.000Z</time>
      </trkpt>
      <trkpt lat="43.99884" lon="4.44898">
        <ele>146.8</ele>
        <time>2025-01-26T08:57:43.000Z</time>
      </trkpt>
      <trkpt lat="43.99886" lon="4.44896">
        <ele>147</ele>
        <time>2025-01-26T08:57:44.000Z</time>
      </trkpt>
      <trkpt lat="43.99892" lon="4.44889">
        <ele>148.2</ele>
        <time>2025-01-26T08:57:48.000Z</time>
      </trkpt>
      <trkpt lat="43.99896" lon="4.44887">
        <ele>148.4</ele>
        <time>2025-01-26T08:57:50.000Z</time>
      </trkpt>
      <trkpt lat="43.99903" lon="4.44881">
        <ele>149.2</ele>
        <time>2025-01-26T08:57:54.000Z</time>
      </trkpt>
      <trkpt lat="43.99907" lon="4.44879">
        <ele>149.6</ele>
        <time>2025-01-26T08:57:56.000Z</time>
      </trkpt>
      <trkpt lat="43.99912" lon="4.44877">
        <ele>150.4</ele>
        <time>2025-01-26T08:57:59.000Z</time>
      </trkpt>
      <trkpt lat="43.99914" lon="4.44874">
        <ele>151</ele>
        <time>2025-01-26T08:58:01.000Z</time>
      </trkpt>
      <trkpt lat="43.99919" lon="4.44872">
        <ele>151.6</ele>
        <time>2025-01-26T08:58:05.000Z</time>
      </trkpt>
      <trkpt lat="43.99923" lon="4.44869">
        <ele>152</ele>
        <time>2025-01-26T08:58:07.000Z</time>
      </trkpt>
      <trkpt lat="43.99926" lon="4.44868">
        <ele>152.8</ele>
        <time>2025-01-26T08:58:09.000Z</time>
      </trkpt>
      <trkpt lat="43.99933" lon="4.44871">
        <ele>153.6</ele>
        <time>2025-01-26T08:58:13.000Z</time>
      </trkpt>
      <trkpt lat="43.99936" lon="4.44873">
        <ele>154.2</ele>
        <time>2025-01-26T08:58:17.000Z</time>
      </trkpt>
      <trkpt lat="43.99936" lon="4.44873">
        <ele>154.4</ele>
        <time>2025-01-26T08:58:18.000Z</time>
      </trkpt>
      <trkpt lat="43.99938" lon="4.44876">
        <ele>154.8</ele>
        <time>2025-01-26T08:58:20.000Z</time>
      </trkpt>
      <trkpt lat="43.99938" lon="4.44878">
        <ele>155.6</ele>
        <time>2025-01-26T08:58:22.000Z</time>
      </trkpt>
      <trkpt lat="43.99939" lon="4.44882">
        <ele>156.4</ele>
        <time>2025-01-26T08:58:25.000Z</time>
      </trkpt>
      <trkpt lat="43.9994" lon="4.44883">
        <ele>156.6</ele>
        <time>2025-01-26T08:58:26.000Z</time>
      </trkpt>
      <trkpt lat="43.99944" lon="4.44888">
        <ele>157.6</ele>
        <time>2025-01-26T08:58:32.000Z</time>
      </trkpt>
      <trkpt lat="43.99946" lon="4.44889">
        <ele>158.6</ele>
        <time>2025-01-26T08:58:36.000Z</time>
      </trkpt>
      <trkpt lat="43.99947" lon="4.44888">
        <ele>160.2</ele>
        <time>2025-01-26T09:00:33.000Z</time>
      </trkpt>
      <trkpt lat="43.99948" lon="4.44888">
        <ele>160.2</ele>
        <time>2025-01-26T09:00:34.000Z</time>
      </trkpt>
      <trkpt lat="43.99956" lon="4.44888">
        <ele>160.2</ele>
        <time>2025-01-26T09:00:40.000Z</time>
      </trkpt>
      <trkpt lat="43.99958" lon="4.44898">
        <ele>160.4</ele>
        <time>2025-01-26T09:00:45.000Z</time>
      </trkpt>
      <trkpt lat="43.99962" lon="4.44906">
        <ele>161.4</ele>
        <time>2025-01-26T09:00:50.000Z</time>
      </trkpt>
      <trkpt lat="43.99969" lon="4.44912">
        <ele>161.8</ele>
        <time>2025-01-26T09:00:55.000Z</time>
      </trkpt>
      <trkpt lat="43.99973" lon="4.44912">
        <ele>161.8</ele>
        <time>2025-01-26T09:00:57.000Z</time>
      </trkpt>
      <trkpt lat="43.9998" lon="4.44913">
        <ele>162.2</ele>
        <time>2025-01-26T09:01:00.000Z</time>
      </trkpt>
      <trkpt lat="43.99983" lon="4.44912">
        <ele>162.4</ele>
        <time>2025-01-26T09:01:01.000Z</time>
      </trkpt>
      <trkpt lat="43.99985" lon="4.44911">
        <ele>162.6</ele>
        <time>2025-01-26T09:01:02.000Z</time>
      </trkpt>
      <trkpt lat="43.99989" lon="4.44907">
        <ele>163</ele>
        <time>2025-01-26T09:01:04.000Z</time>
      </trkpt>
      <trkpt lat="43.99997" lon="4.44902">
        <ele>163.6</ele>
        <time>2025-01-26T09:01:08.000Z</time>
      </trkpt>
      <trkpt lat="44.00002" lon="4.44902">
        <ele>164</ele>
        <time>2025-01-26T09:01:10.000Z</time>
      </trkpt>
      <trkpt lat="44.0001" lon="4.44906">
        <ele>164.8</ele>
        <time>2025-01-26T09:01:14.000Z</time>
      </trkpt>
      <trkpt lat="44.00015" lon="4.44908">
        <ele>165</ele>
        <time>2025-01-26T09:01:17.000Z</time>
      </trkpt>
      <trkpt lat="44.00025" lon="4.44903">
        <ele>165.8</ele>
        <time>2025-01-26T09:01:23.000Z</time>
      </trkpt>
      <trkpt lat="44.00027" lon="4.44898">
        <ele>166.4</ele>
        <time>2025-01-26T09:01:27.000Z</time>
      </trkpt>
      <trkpt lat="44.00029" lon="4.44888">
        <ele>167</ele>
        <time>2025-01-26T09:01:32.000Z</time>
      </trkpt>
      <trkpt lat="44.00034" lon="4.44884">
        <ele>167</ele>
        <time>2025-01-26T09:01:35.000Z</time>
      </trkpt>
      <trkpt lat="44.00036" lon="4.44883">
        <ele>167.2</ele>
        <time>2025-01-26T09:01:36.000Z</time>
      </trkpt>
      <trkpt lat="44.0004" lon="4.44879">
        <ele>167.2</ele>
        <time>2025-01-26T09:01:38.000Z</time>
      </trkpt>
      <trkpt lat="44.00045" lon="4.44876">
        <ele>167.2</ele>
        <time>2025-01-26T09:01:41.000Z</time>
      </trkpt>
      <trkpt lat="44.00048" lon="4.44877">
        <ele>167.2</ele>
        <time>2025-01-26T09:01:43.000Z</time>
      </trkpt>
      <trkpt lat="44.00053" lon="4.44888">
        <ele>167.6</ele>
        <time>2025-01-26T09:01:49.000Z</time>
      </trkpt>
      <trkpt lat="44.00053" lon="4.4489">
        <ele>167.6</ele>
        <time>2025-01-26T09:01:50.000Z</time>
      </trkpt>
      <trkpt lat="44.00051" lon="4.44901">
        <ele>168.2</ele>
        <time>2025-01-26T09:01:55.000Z</time>
      </trkpt>
      <trkpt lat="44.00051" lon="4.44906">
        <ele>168.4</ele>
        <time>2025-01-26T09:01:57.000Z</time>
      </trkpt>
      <trkpt lat="44.00051" lon="4.44909">
        <ele>168.4</ele>
        <time>2025-01-26T09:01:58.000Z</time>
      </trkpt>
      <trkpt lat="44.00054" lon="4.44916">
        <ele>168.6</ele>
        <time>2025-01-26T09:02:01.000Z</time>
      </trkpt>
      <trkpt lat="44.00056" lon="4.44921">
        <ele>168.6</ele>
        <time>2025-01-26T09:02:03.000Z</time>
      </trkpt>
      <trkpt lat="44.00059" lon="4.44922">
        <ele>168.8</ele>
        <time>2025-01-26T09:02:05.000Z</time>
      </trkpt>
      <trkpt lat="44.00065" lon="4.44924">
        <ele>169</ele>
        <time>2025-01-26T09:02:08.000Z</time>
      </trkpt>
      <trkpt lat="44.00072" lon="4.44929">
        <ele>169.4</ele>
        <time>2025-01-26T09:02:12.000Z</time>
      </trkpt>
      <trkpt lat="44.00074" lon="4.44936">
        <ele>169.8</ele>
        <time>2025-01-26T09:02:15.000Z</time>
      </trkpt>
      <trkpt lat="44.00074" lon="4.44938">
        <ele>170</ele>
        <time>2025-01-26T09:02:16.000Z</time>
      </trkpt>
      <trkpt lat="44.00073" lon="4.44944">
        <ele>170.2</ele>
        <time>2025-01-26T09:02:18.000Z</time>
      </trkpt>
      <trkpt lat="44.00075" lon="4.44948">
        <ele>170.4</ele>
        <time>2025-01-26T09:02:20.000Z</time>
      </trkpt>
      <trkpt lat="44.00077" lon="4.44949">
        <ele>170.6</ele>
        <time>2025-01-26T09:02:21.000Z</time>
      </trkpt>
      <trkpt lat="44.00081" lon="4.44953">
        <ele>170.8</ele>
        <time>2025-01-26T09:02:24.000Z</time>
      </trkpt>
      <trkpt lat="44.00086" lon="4.44964">
        <ele>171</ele>
        <time>2025-01-26T09:02:29.000Z</time>
      </trkpt>
      <trkpt lat="44.00087" lon="4.44966">
        <ele>171.2</ele>
        <time>2025-01-26T09:02:30.000Z</time>
      </trkpt>
      <trkpt lat="44.00088" lon="4.44977">
        <ele>171.6</ele>
        <time>2025-01-26T09:02:34.000Z</time>
      </trkpt>
      <trkpt lat="44.00088" lon="4.44979">
        <ele>171.6</ele>
        <time>2025-01-26T09:02:35.000Z</time>
      </trkpt>
      <trkpt lat="44.0009" lon="4.4499">
        <ele>172</ele>
        <time>2025-01-26T09:02:39.000Z</time>
      </trkpt>
      <trkpt lat="44.00091" lon="4.44994">
        <ele>172</ele>
        <time>2025-01-26T09:02:41.000Z</time>
      </trkpt>
      <trkpt lat="44.0009" lon="4.44999">
        <ele>172.2</ele>
        <time>2025-01-26T09:02:43.000Z</time>
      </trkpt>
      <trkpt lat="44.00088" lon="4.45012">
        <ele>172.8</ele>
        <time>2025-01-26T09:02:48.000Z</time>
      </trkpt>
      <trkpt lat="44.00086" lon="4.45013">
        <ele>172.8</ele>
        <time>2025-01-26T09:02:49.000Z</time>
      </trkpt>
      <trkpt lat="44.00081" lon="4.45015">
        <ele>173</ele>
        <time>2025-01-26T09:02:52.000Z</time>
      </trkpt>
      <trkpt lat="44.00076" lon="4.45016">
        <ele>173</ele>
        <time>2025-01-26T09:02:54.000Z</time>
      </trkpt>
      <trkpt lat="44.00068" lon="4.45017">
        <ele>173</ele>
        <time>2025-01-26T09:02:58.000Z</time>
      </trkpt>
      <trkpt lat="44.00067" lon="4.45019">
        <ele>173</ele>
        <time>2025-01-26T09:02:59.000Z</time>
      </trkpt>
      <trkpt lat="44.00068" lon="4.4503">
        <ele>172.2</ele>
        <time>2025-01-26T09:03:03.000Z</time>
      </trkpt>
      <trkpt lat="44.00068" lon="4.45038">
        <ele>172.2</ele>
        <time>2025-01-26T09:03:07.000Z</time>
      </trkpt>
      <trkpt lat="44.00064" lon="4.45045">
        <ele>172.2</ele>
        <time>2025-01-26T09:03:11.000Z</time>
      </trkpt>
      <trkpt lat="44.00062" lon="4.45046">
        <ele>172</ele>
        <time>2025-01-26T09:03:12.000Z</time>
      </trkpt>
      <trkpt lat="44.00061" lon="4.45049">
        <ele>172</ele>
        <time>2025-01-26T09:03:13.000Z</time>
      </trkpt>
      <trkpt lat="44.00061" lon="4.45057">
        <ele>172</ele>
        <time>2025-01-26T09:03:16.000Z</time>
      </trkpt>
      <trkpt lat="44.00062" lon="4.45059">
        <ele>172</ele>
        <time>2025-01-26T09:03:17.000Z</time>
      </trkpt>
      <trkpt lat="44.00063" lon="4.45067">
        <ele>172.4</ele>
        <time>2025-01-26T09:03:20.000Z</time>
      </trkpt>
      <trkpt lat="44.0006" lon="4.45071">
        <ele>172.4</ele>
        <time>2025-01-26T09:03:22.000Z</time>
      </trkpt>
      <trkpt lat="44.00054" lon="4.4508">
        <ele>172.4</ele>
        <time>2025-01-26T09:03:26.000Z</time>
      </trkpt>
      <trkpt lat="44.00059" lon="4.45087">
        <ele>172.4</ele>
        <time>2025-01-26T09:03:30.000Z</time>
      </trkpt>
      <trkpt lat="44.0007" lon="4.45083">
        <ele>172.4</ele>
        <time>2025-01-26T09:03:35.000Z</time>
      </trkpt>
      <trkpt lat="44.00079" lon="4.45078">
        <ele>172.6</ele>
        <time>2025-01-26T09:03:40.000Z</time>
      </trkpt>
      <trkpt lat="44.00083" lon="4.45076">
        <ele>172.8</ele>
        <time>2025-01-26T09:03:42.000Z</time>
      </trkpt>
      <trkpt lat="44.00088" lon="4.45079">
        <ele>173.2</ele>
        <time>2025-01-26T09:03:45.000Z</time>
      </trkpt>
      <trkpt lat="44.00089" lon="4.45081">
        <ele>173.2</ele>
        <time>2025-01-26T09:03:46.000Z</time>
      </trkpt>
      <trkpt lat="44.0009" lon="4.45089">
        <ele>173.4</ele>
        <time>2025-01-26T09:03:49.000Z</time>
      </trkpt>
      <trkpt lat="44.00091" lon="4.451">
        <ele>174</ele>
        <time>2025-01-26T09:03:53.000Z</time>
      </trkpt>
      <trkpt lat="44.00092" lon="4.45103">
        <ele>174</ele>
        <time>2025-01-26T09:03:54.000Z</time>
      </trkpt>
      <trkpt lat="44.00096" lon="4.4512">
        <ele>174.4</ele>
        <time>2025-01-26T09:04:00.000Z</time>
      </trkpt>
      <trkpt lat="44.00101" lon="4.45138">
        <ele>174.8</ele>
        <time>2025-01-26T09:04:07.000Z</time>
      </trkpt>
      <trkpt lat="44.00102" lon="4.4514">
        <ele>174.8</ele>
        <time>2025-01-26T09:04:10.000Z</time>
      </trkpt>
      <trkpt lat="44.00104" lon="4.45141">
        <ele>176</ele>
        <time>2025-01-26T09:05:02.000Z</time>
      </trkpt>
      <trkpt lat="44.00107" lon="4.45149">
        <ele>176</ele>
        <time>2025-01-26T09:05:06.000Z</time>
      </trkpt>
      <trkpt lat="44.00114" lon="4.45155">
        <ele>175.8</ele>
        <time>2025-01-26T09:05:10.000Z</time>
      </trkpt>
      <trkpt lat="44.00125" lon="4.45148">
        <ele>175.8</ele>
        <time>2025-01-26T09:05:15.000Z</time>
      </trkpt>
      <trkpt lat="44.00137" lon="4.45143">
        <ele>175.8</ele>
        <time>2025-01-26T09:05:20.000Z</time>
      </trkpt>
      <trkpt lat="44.00146" lon="4.45145">
        <ele>175.8</ele>
        <time>2025-01-26T09:05:24.000Z</time>
      </trkpt>
      <trkpt lat="44.00148" lon="4.45146">
        <ele>175.8</ele>
        <time>2025-01-26T09:05:25.000Z</time>
      </trkpt>
      <trkpt lat="44.0016" lon="4.4515">
        <ele>176.6</ele>
        <time>2025-01-26T09:05:30.000Z</time>
      </trkpt>
      <trkpt lat="44.00163" lon="4.45151">
        <ele>176.6</ele>
        <time>2025-01-26T09:05:31.000Z</time>
      </trkpt>
      <trkpt lat="44.00173" lon="4.45155">
        <ele>176.8</ele>
        <time>2025-01-26T09:05:34.000Z</time>
      </trkpt>
      <trkpt lat="44.00186" lon="4.45155">
        <ele>177</ele>
        <time>2025-01-26T09:05:38.000Z</time>
      </trkpt>
      <trkpt lat="44.00189" lon="4.45154">
        <ele>177.2</ele>
        <time>2025-01-26T09:05:39.000Z</time>
      </trkpt>
      <trkpt lat="44.00211" lon="4.45148">
        <ele>177.2</ele>
        <time>2025-01-26T09:05:46.000Z</time>
      </trkpt>
      <trkpt lat="44.00242" lon="4.45141">
        <ele>177</ele>
        <time>2025-01-26T09:05:55.000Z</time>
      </trkpt>
      <trkpt lat="44.0027" lon="4.45141">
        <ele>176.8</ele>
        <time>2025-01-26T09:06:02.000Z</time>
      </trkpt>
      <trkpt lat="44.00282" lon="4.45142">
        <ele>176.8</ele>
        <time>2025-01-26T09:06:05.000Z</time>
      </trkpt>
      <trkpt lat="44.00298" lon="4.45147">
        <ele>176.6</ele>
        <time>2025-01-26T09:06:09.000Z</time>
      </trkpt>
      <trkpt lat="44.00316" lon="4.45149">
        <ele>176</ele>
        <time>2025-01-26T09:06:14.000Z</time>
      </trkpt>
      <trkpt lat="44.0032" lon="4.4515">
        <ele>176</ele>
        <time>2025-01-26T09:06:15.000Z</time>
      </trkpt>
      <trkpt lat="44.0035" lon="4.45155">
        <ele>175.6</ele>
        <time>2025-01-26T09:06:23.000Z</time>
      </trkpt>
      <trkpt lat="44.00384" lon="4.45159">
        <ele>175.4</ele>
        <time>2025-01-26T09:06:32.000Z</time>
      </trkpt>
      <trkpt lat="44.00408" lon="4.45166">
        <ele>175.2</ele>
        <time>2025-01-26T09:06:37.000Z</time>
      </trkpt>
      <trkpt lat="44.00424" lon="4.45177">
        <ele>175.2</ele>
        <time>2025-01-26T09:06:40.000Z</time>
      </trkpt>
      <trkpt lat="44.00434" lon="4.45188">
        <ele>174.6</ele>
        <time>2025-01-26T09:06:42.000Z</time>
      </trkpt>
      <trkpt lat="44.00443" lon="4.45204">
        <ele>173.8</ele>
        <time>2025-01-26T09:06:44.000Z</time>
      </trkpt>
      <trkpt lat="44.00457" lon="4.45217">
        <ele>172.2</ele>
        <time>2025-01-26T09:06:46.000Z</time>
      </trkpt>
      <trkpt lat="44.0047" lon="4.45227">
        <ele>171</ele>
        <time>2025-01-26T09:06:48.000Z</time>
      </trkpt>
      <trkpt lat="44.00475" lon="4.45232">
        <ele>170.6</ele>
        <time>2025-01-26T09:06:49.000Z</time>
      </trkpt>
      <trkpt lat="44.0048" lon="4.45238">
        <ele>169.2</ele>
        <time>2025-01-26T09:06:50.000Z</time>
      </trkpt>
      <trkpt lat="44.00491" lon="4.45259">
        <ele>168.4</ele>
        <time>2025-01-26T09:06:54.000Z</time>
      </trkpt>
      <trkpt lat="44.00492" lon="4.45263">
        <ele>168.4</ele>
        <time>2025-01-26T09:06:55.000Z</time>
      </trkpt>
      <trkpt lat="44.00495" lon="4.45277">
        <ele>168.4</ele>
        <time>2025-01-26T09:06:58.000Z</time>
      </trkpt>
      <trkpt lat="44.00497" lon="4.4529">
        <ele>169</ele>
        <time>2025-01-26T09:07:01.000Z</time>
      </trkpt>
      <trkpt lat="44.00498" lon="4.45302">
        <ele>170.6</ele>
        <time>2025-01-26T09:07:04.000Z</time>
      </trkpt>
      <trkpt lat="44.00501" lon="4.45313">
        <ele>171.8</ele>
        <time>2025-01-26T09:07:07.000Z</time>
      </trkpt>
      <trkpt lat="44.00503" lon="4.45316">
        <ele>172</ele>
        <time>2025-01-26T09:07:08.000Z</time>
      </trkpt>
      <trkpt lat="44.00509" lon="4.45323">
        <ele>173</ele>
        <time>2025-01-26T09:07:11.000Z</time>
      </trkpt>
      <trkpt lat="44.00515" lon="4.45329">
        <ele>173.8</ele>
        <time>2025-01-26T09:07:14.000Z</time>
      </trkpt>
      <trkpt lat="44.00517" lon="4.45331">
        <ele>174</ele>
        <time>2025-01-26T09:07:15.000Z</time>
      </trkpt>
      <trkpt lat="44.00527" lon="4.45347">
        <ele>175.2</ele>
        <time>2025-01-26T09:07:21.000Z</time>
      </trkpt>
      <trkpt lat="44.0053" lon="4.45369">
        <ele>175.8</ele>
        <time>2025-01-26T09:07:28.000Z</time>
      </trkpt>
      <trkpt lat="44.00531" lon="4.45374">
        <ele>176.2</ele>
        <time>2025-01-26T09:07:30.000Z</time>
      </trkpt>
      <trkpt lat="44.00535" lon="4.45376">
        <ele>176.4</ele>
        <time>2025-01-26T09:07:32.000Z</time>
      </trkpt>
      <trkpt lat="44.00543" lon="4.45384">
        <ele>177</ele>
        <time>2025-01-26T09:07:37.000Z</time>
      </trkpt>
      <trkpt lat="44.00545" lon="4.45386">
        <ele>177</ele>
        <time>2025-01-26T09:07:38.000Z</time>
      </trkpt>
      <trkpt lat="44.0055" lon="4.4539">
        <ele>177.2</ele>
        <time>2025-01-26T09:07:41.000Z</time>
      </trkpt>
      <trkpt lat="44.00552" lon="4.4539">
        <ele>177.2</ele>
        <time>2025-01-26T09:07:42.000Z</time>
      </trkpt>
      <trkpt lat="44.00556" lon="4.4539">
        <ele>177.4</ele>
        <time>2025-01-26T09:07:44.000Z</time>
      </trkpt>
      <trkpt lat="44.00565" lon="4.45398">
        <ele>177.6</ele>
        <time>2025-01-26T09:07:48.000Z</time>
      </trkpt>
      <trkpt lat="44.00572" lon="4.45397">
        <ele>177.8</ele>
        <time>2025-01-26T09:07:51.000Z</time>
      </trkpt>
      <trkpt lat="44.00574" lon="4.45397">
        <ele>177.8</ele>
        <time>2025-01-26T09:07:52.000Z</time>
      </trkpt>
      <trkpt lat="44.00576" lon="4.45398">
        <ele>177.8</ele>
        <time>2025-01-26T09:07:53.000Z</time>
      </trkpt>
      <trkpt lat="44.00578" lon="4.45405">
        <ele>178</ele>
        <time>2025-01-26T09:07:56.000Z</time>
      </trkpt>
      <trkpt lat="44.00579" lon="4.45416">
        <ele>178</ele>
        <time>2025-01-26T09:08:00.000Z</time>
      </trkpt>
      <trkpt lat="44.00581" lon="4.45419">
        <ele>178</ele>
        <time>2025-01-26T09:08:01.000Z</time>
      </trkpt>
      <trkpt lat="44.00584" lon="4.45424">
        <ele>178.2</ele>
        <time>2025-01-26T09:08:04.000Z</time>
      </trkpt>
      <trkpt lat="44.00586" lon="4.45424">
        <ele>178.2</ele>
        <time>2025-01-26T09:08:05.000Z</time>
      </trkpt>
      <trkpt lat="44.00595" lon="4.4543">
        <ele>178.8</ele>
        <time>2025-01-26T09:08:10.000Z</time>
      </trkpt>
      <trkpt lat="44.00596" lon="4.45432">
        <ele>178.8</ele>
        <time>2025-01-26T09:08:11.000Z</time>
      </trkpt>
      <trkpt lat="44.00597" lon="4.45441">
        <ele>178.8</ele>
        <time>2025-01-26T09:08:14.000Z</time>
      </trkpt>
      <trkpt lat="44.00597" lon="4.45443">
        <ele>179</ele>
        <time>2025-01-26T09:08:15.000Z</time>
      </trkpt>
      <trkpt lat="44.00598" lon="4.45455">
        <ele>179.2</ele>
        <time>2025-01-26T09:08:21.000Z</time>
      </trkpt>
      <trkpt lat="44.00599" lon="4.45457">
        <ele>179.4</ele>
        <time>2025-01-26T09:08:22.000Z</time>
      </trkpt>
      <trkpt lat="44.00603" lon="4.45472">
        <ele>180.2</ele>
        <time>2025-01-26T09:08:28.000Z</time>
      </trkpt>
      <trkpt lat="44.00601" lon="4.45482">
        <ele>180.2</ele>
        <time>2025-01-26T09:08:31.000Z</time>
      </trkpt>
      <trkpt lat="44.006" lon="4.4549">
        <ele>180.4</ele>
        <time>2025-01-26T09:08:34.000Z</time>
      </trkpt>
      <trkpt lat="44.00597" lon="4.45506">
        <ele>180.6</ele>
        <time>2025-01-26T09:08:40.000Z</time>
      </trkpt>
      <trkpt lat="44.00597" lon="4.45508">
        <ele>180.6</ele>
        <time>2025-01-26T09:08:41.000Z</time>
      </trkpt>
      <trkpt lat="44.00592" lon="4.45516">
        <ele>180.8</ele>
        <time>2025-01-26T09:08:45.000Z</time>
      </trkpt>
      <trkpt lat="44.00591" lon="4.45518">
        <ele>180.8</ele>
        <time>2025-01-26T09:08:46.000Z</time>
      </trkpt>
      <trkpt lat="44.00591" lon="4.45527">
        <ele>181</ele>
        <time>2025-01-26T09:08:48.000Z</time>
      </trkpt>
      <trkpt lat="44.00591" lon="4.45535">
        <ele>181.2</ele>
        <time>2025-01-26T09:08:50.000Z</time>
      </trkpt>
      <trkpt lat="44.00593" lon="4.45556">
        <ele>181.6</ele>
        <time>2025-01-26T09:08:55.000Z</time>
      </trkpt>
      <trkpt lat="44.00603" lon="4.45572">
        <ele>181.6</ele>
        <time>2025-01-26T09:09:02.000Z</time>
      </trkpt>
      <trkpt lat="44.00612" lon="4.45575">
        <ele>181.8</ele>
        <time>2025-01-26T09:09:07.000Z</time>
      </trkpt>
      <trkpt lat="44.00618" lon="4.45575">
        <ele>181.8</ele>
        <time>2025-01-26T09:09:09.000Z</time>
      </trkpt>
      <trkpt lat="44.00623" lon="4.45573">
        <ele>182</ele>
        <time>2025-01-26T09:09:11.000Z</time>
      </trkpt>
      <trkpt lat="44.00624" lon="4.45572">
        <ele>182</ele>
        <time>2025-01-26T09:09:12.000Z</time>
      </trkpt>
      <trkpt lat="44.0063" lon="4.45573">
        <ele>182</ele>
        <time>2025-01-26T09:09:15.000Z</time>
      </trkpt>
      <trkpt lat="44.00632" lon="4.45574">
        <ele>182</ele>
        <time>2025-01-26T09:09:16.000Z</time>
      </trkpt>
      <trkpt lat="44.00642" lon="4.45582">
        <ele>182</ele>
        <time>2025-01-26T09:09:21.000Z</time>
      </trkpt>
      <trkpt lat="44.00651" lon="4.45579">
        <ele>182.2</ele>
        <time>2025-01-26T09:09:25.000Z</time>
      </trkpt>
      <trkpt lat="44.00654" lon="4.45578">
        <ele>182.2</ele>
        <time>2025-01-26T09:09:26.000Z</time>
      </trkpt>
      <trkpt lat="44.00663" lon="4.45573">
        <ele>182.4</ele>
        <time>2025-01-26T09:09:30.000Z</time>
      </trkpt>
      <trkpt lat="44.00665" lon="4.45574">
        <ele>182.4</ele>
        <time>2025-01-26T09:09:31.000Z</time>
      </trkpt>
      <trkpt lat="44.00673" lon="4.45585">
        <ele>182.4</ele>
        <time>2025-01-26T09:09:35.000Z</time>
      </trkpt>
      <trkpt lat="44.00684" lon="4.45605">
        <ele>182.8</ele>
        <time>2025-01-26T09:09:41.000Z</time>
      </trkpt>
      <trkpt lat="44.00686" lon="4.45607">
        <ele>182.8</ele>
        <time>2025-01-26T09:09:42.000Z</time>
      </trkpt>
      <trkpt lat="44.00699" lon="4.45621">
        <ele>182.8</ele>
        <time>2025-01-26T09:09:48.000Z</time>
      </trkpt>
      <trkpt lat="44.00711" lon="4.45636">
        <ele>182.8</ele>
        <time>2025-01-26T09:09:53.000Z</time>
      </trkpt>
      <trkpt lat="44.00725" lon="4.45648">
        <ele>183</ele>
        <time>2025-01-26T09:09:58.000Z</time>
      </trkpt>
      <trkpt lat="44.00743" lon="4.45661">
        <ele>183</ele>
        <time>2025-01-26T09:10:04.000Z</time>
      </trkpt>
      <trkpt lat="44.00756" lon="4.45675">
        <ele>183</ele>
        <time>2025-01-26T09:10:09.000Z</time>
      </trkpt>
      <trkpt lat="44.00767" lon="4.45688">
        <ele>183</ele>
        <time>2025-01-26T09:10:14.000Z</time>
      </trkpt>
      <trkpt lat="44.0077" lon="4.45691">
        <ele>183</ele>
        <time>2025-01-26T09:10:16.000Z</time>
      </trkpt>
      <trkpt lat="44.00771" lon="4.45694">
        <ele>182.8</ele>
        <time>2025-01-26T09:10:18.000Z</time>
      </trkpt>
      <trkpt lat="44.0077" lon="4.45698">
        <ele>182.8</ele>
        <time>2025-01-26T09:10:20.000Z</time>
      </trkpt>
      <trkpt lat="44.00771" lon="4.45701">
        <ele>182.8</ele>
        <time>2025-01-26T09:10:23.000Z</time>
      </trkpt>
      <trkpt lat="44.00769" lon="4.45702">
        <ele>182.8</ele>
        <time>2025-01-26T09:10:26.000Z</time>
      </trkpt>
      <trkpt lat="44.00767" lon="4.45703">
        <ele>182.8</ele>
        <time>2025-01-26T09:10:28.000Z</time>
      </trkpt>
      <trkpt lat="44.00759" lon="4.45708">
        <ele>182.6</ele>
        <time>2025-01-26T09:10:33.000Z</time>
      </trkpt>
      <trkpt lat="44.00758" lon="4.4571">
        <ele>182.6</ele>
        <time>2025-01-26T09:10:34.000Z</time>
      </trkpt>
      <trkpt lat="44.00751" lon="4.45725">
        <ele>182.2</ele>
        <time>2025-01-26T09:10:39.000Z</time>
      </trkpt>
      <trkpt lat="44.00751" lon="4.4573">
        <ele>182</ele>
        <time>2025-01-26T09:10:41.000Z</time>
      </trkpt>
      <trkpt lat="44.00752" lon="4.45735">
        <ele>181.8</ele>
        <time>2025-01-26T09:10:43.000Z</time>
      </trkpt>
      <trkpt lat="44.00758" lon="4.45748">
        <ele>180.8</ele>
        <time>2025-01-26T09:10:48.000Z</time>
      </trkpt>
      <trkpt lat="44.00756" lon="4.45756">
        <ele>180.8</ele>
        <time>2025-01-26T09:10:51.000Z</time>
      </trkpt>
      <trkpt lat="44.00755" lon="4.45758">
        <ele>180.8</ele>
        <time>2025-01-26T09:10:52.000Z</time>
      </trkpt>
      <trkpt lat="44.00754" lon="4.45767">
        <ele>180.4</ele>
        <time>2025-01-26T09:10:55.000Z</time>
      </trkpt>
      <trkpt lat="44.00754" lon="4.45775">
        <ele>180.2</ele>
        <time>2025-01-26T09:10:57.000Z</time>
      </trkpt>
      <trkpt lat="44.00755" lon="4.45784">
        <ele>179.6</ele>
        <time>2025-01-26T09:10:59.000Z</time>
      </trkpt>
      <trkpt lat="44.00754" lon="4.45787">
        <ele>179.6</ele>
        <time>2025-01-26T09:11:00.000Z</time>
      </trkpt>
      <trkpt lat="44.00753" lon="4.45789">
        <ele>179.4</ele>
        <time>2025-01-26T09:11:01.000Z</time>
      </trkpt>
      <trkpt lat="44.00745" lon="4.45795">
        <ele>178.4</ele>
        <time>2025-01-26T09:11:05.000Z</time>
      </trkpt>
      <trkpt lat="44.0074" lon="4.45802">
        <ele>177.6</ele>
        <time>2025-01-26T09:11:08.000Z</time>
      </trkpt>
      <trkpt lat="44.0074" lon="4.45806">
        <ele>177.6</ele>
        <time>2025-01-26T09:11:09.000Z</time>
      </trkpt>
      <trkpt lat="44.00739" lon="4.4581">
        <ele>177.4</ele>
        <time>2025-01-26T09:11:10.000Z</time>
      </trkpt>
      <trkpt lat="44.00738" lon="4.45813">
        <ele>177.2</ele>
        <time>2025-01-26T09:11:11.000Z</time>
      </trkpt>
      <trkpt lat="44.00738" lon="4.45821">
        <ele>177</ele>
        <time>2025-01-26T09:11:13.000Z</time>
      </trkpt>
      <trkpt lat="44.00742" lon="4.45829">
        <ele>176.6</ele>
        <time>2025-01-26T09:11:17.000Z</time>
      </trkpt>
      <trkpt lat="44.00741" lon="4.45836">
        <ele>176.2</ele>
        <time>2025-01-26T09:11:19.000Z</time>
      </trkpt>
      <trkpt lat="44.0074" lon="4.45843">
        <ele>176</ele>
        <time>2025-01-26T09:11:21.000Z</time>
      </trkpt>
      <trkpt lat="44.0074" lon="4.45846">
        <ele>176</ele>
        <time>2025-01-26T09:11:22.000Z</time>
      </trkpt>
      <trkpt lat="44.00739" lon="4.45856">
        <ele>175.8</ele>
        <time>2025-01-26T09:11:25.000Z</time>
      </trkpt>
      <trkpt lat="44.00737" lon="4.45861">
        <ele>175.4</ele>
        <time>2025-01-26T09:11:27.000Z</time>
      </trkpt>
      <trkpt lat="44.00737" lon="4.45868">
        <ele>175.2</ele>
        <time>2025-01-26T09:11:30.000Z</time>
      </trkpt>
      <trkpt lat="44.00737" lon="4.45871">
        <ele>175.2</ele>
        <time>2025-01-26T09:11:31.000Z</time>
      </trkpt>
      <trkpt lat="44.00738" lon="4.45881">
        <ele>174</ele>
        <time>2025-01-26T09:11:34.000Z</time>
      </trkpt>
      <trkpt lat="44.00738" lon="4.45888">
        <ele>173.6</ele>
        <time>2025-01-26T09:11:36.000Z</time>
      </trkpt>
      <trkpt lat="44.00739" lon="4.45897">
        <ele>173</ele>
        <time>2025-01-26T09:11:38.000Z</time>
      </trkpt>
      <trkpt lat="44.00742" lon="4.45906">
        <ele>172.2</ele>
        <time>2025-01-26T09:11:41.000Z</time>
      </trkpt>
      <trkpt lat="44.00743" lon="4.4591">
        <ele>171.8</ele>
        <time>2025-01-26T09:11:42.000Z</time>
      </trkpt>
      <trkpt lat="44.00743" lon="4.45914">
        <ele>171.6</ele>
        <time>2025-01-26T09:11:43.000Z</time>
      </trkpt>
      <trkpt lat="44.0074" lon="4.45921">
        <ele>171</ele>
        <time>2025-01-26T09:11:45.000Z</time>
      </trkpt>
      <trkpt lat="44.00736" lon="4.45927">
        <ele>170.8</ele>
        <time>2025-01-26T09:11:47.000Z</time>
      </trkpt>
      <trkpt lat="44.0073" lon="4.45935">
        <ele>170.2</ele>
        <time>2025-01-26T09:11:50.000Z</time>
      </trkpt>
      <trkpt lat="44.00728" lon="4.45938">
        <ele>170.2</ele>
        <time>2025-01-26T09:11:51.000Z</time>
      </trkpt>
      <trkpt lat="44.00726" lon="4.45942">
        <ele>169.6</ele>
        <time>2025-01-26T09:11:53.000Z</time>
      </trkpt>
      <trkpt lat="44.00725" lon="4.45946">
        <ele>168.8</ele>
        <time>2025-01-26T09:11:55.000Z</time>
      </trkpt>
      <trkpt lat="44.00724" lon="4.45947">
        <ele>168.6</ele>
        <time>2025-01-26T09:11:56.000Z</time>
      </trkpt>
      <trkpt lat="44.00725" lon="4.45949">
        <ele>168</ele>
        <time>2025-01-26T09:11:57.000Z</time>
      </trkpt>
      <trkpt lat="44.00723" lon="4.45956">
        <ele>167.6</ele>
        <time>2025-01-26T09:12:00.000Z</time>
      </trkpt>
      <trkpt lat="44.00723" lon="4.45958">
        <ele>167.4</ele>
        <time>2025-01-26T09:12:01.000Z</time>
      </trkpt>
      <trkpt lat="44.00723" lon="4.4596">
        <ele>167.2</ele>
        <time>2025-01-26T09:12:02.000Z</time>
      </trkpt>
      <trkpt lat="44.0072" lon="4.45968">
        <ele>166.2</ele>
        <time>2025-01-26T09:12:05.000Z</time>
      </trkpt>
      <trkpt lat="44.00719" lon="4.4597">
        <ele>166</ele>
        <time>2025-01-26T09:12:06.000Z</time>
      </trkpt>
      <trkpt lat="44.00716" lon="4.45976">
        <ele>164.8</ele>
        <time>2025-01-26T09:12:09.000Z</time>
      </trkpt>
      <trkpt lat="44.00714" lon="4.45979">
        <ele>163.8</ele>
        <time>2025-01-26T09:12:11.000Z</time>
      </trkpt>
      <trkpt lat="44.00712" lon="4.45981">
        <ele>163.4</ele>
        <time>2025-01-26T09:12:12.000Z</time>
      </trkpt>
      <trkpt lat="44.00711" lon="4.45985">
        <ele>162.2</ele>
        <time>2025-01-26T09:12:14.000Z</time>
      </trkpt>
      <trkpt lat="44.0071" lon="4.45988">
        <ele>161.6</ele>
        <time>2025-01-26T09:12:16.000Z</time>
      </trkpt>
      <trkpt lat="44.00708" lon="4.45992">
        <ele>160.8</ele>
        <time>2025-01-26T09:12:18.000Z</time>
      </trkpt>
      <trkpt lat="44.00708" lon="4.45996">
        <ele>160.2</ele>
        <time>2025-01-26T09:12:19.000Z</time>
      </trkpt>
      <trkpt lat="44.00709" lon="4.46003">
        <ele>159.8</ele>
        <time>2025-01-26T09:12:21.000Z</time>
      </trkpt>
      <trkpt lat="44.00708" lon="4.46006">
        <ele>159.4</ele>
        <time>2025-01-26T09:12:22.000Z</time>
      </trkpt>
      <trkpt lat="44.00703" lon="4.46011">
        <ele>158.4</ele>
        <time>2025-01-26T09:12:25.000Z</time>
      </trkpt>
      <trkpt lat="44.00696" lon="4.46016">
        <ele>157.8</ele>
        <time>2025-01-26T09:12:29.000Z</time>
      </trkpt>
      <trkpt lat="44.00695" lon="4.46021">
        <ele>157.8</ele>
        <time>2025-01-26T09:12:31.000Z</time>
      </trkpt>
      <trkpt lat="44.00696" lon="4.46024">
        <ele>157.6</ele>
        <time>2025-01-26T09:12:32.000Z</time>
      </trkpt>
      <trkpt lat="44.00696" lon="4.46031">
        <ele>157.6</ele>
        <time>2025-01-26T09:12:34.000Z</time>
      </trkpt>
      <trkpt lat="44.00692" lon="4.46038">
        <ele>157.6</ele>
        <time>2025-01-26T09:12:37.000Z</time>
      </trkpt>
      <trkpt lat="44.00691" lon="4.46037">
        <ele>157.6</ele>
        <time>2025-01-26T09:12:38.000Z</time>
      </trkpt>
      <trkpt lat="44.00683" lon="4.46039">
        <ele>157.2</ele>
        <time>2025-01-26T09:12:42.000Z</time>
      </trkpt>
      <trkpt lat="44.00681" lon="4.4604">
        <ele>157.2</ele>
        <time>2025-01-26T09:12:43.000Z</time>
      </trkpt>
      <trkpt lat="44.00677" lon="4.46043">
        <ele>157.2</ele>
        <time>2025-01-26T09:12:45.000Z</time>
      </trkpt>
      <trkpt lat="44.00669" lon="4.4605">
        <ele>157.2</ele>
        <time>2025-01-26T09:12:49.000Z</time>
      </trkpt>
      <trkpt lat="44.00667" lon="4.46052">
        <ele>157.2</ele>
        <time>2025-01-26T09:12:50.000Z</time>
      </trkpt>
      <trkpt lat="44.00665" lon="4.46059">
        <ele>157.2</ele>
        <time>2025-01-26T09:12:53.000Z</time>
      </trkpt>
      <trkpt lat="44.00658" lon="4.46064">
        <ele>157.2</ele>
        <time>2025-01-26T09:12:56.000Z</time>
      </trkpt>
      <trkpt lat="44.00652" lon="4.46073">
        <ele>157.2</ele>
        <time>2025-01-26T09:12:58.000Z</time>
      </trkpt>
      <trkpt lat="44.00647" lon="4.46091">
        <ele>157.2</ele>
        <time>2025-01-26T09:13:02.000Z</time>
      </trkpt>
      <trkpt lat="44.00645" lon="4.46098">
        <ele>157.4</ele>
        <time>2025-01-26T09:13:04.000Z</time>
      </trkpt>
      <trkpt lat="44.00643" lon="4.46102">
        <ele>157.8</ele>
        <time>2025-01-26T09:13:07.000Z</time>
      </trkpt>
      <trkpt lat="44.00639" lon="4.46104">
        <ele>160.4</ele>
        <time>2025-01-26T09:14:13.000Z</time>
      </trkpt>
      <trkpt lat="44.00635" lon="4.46103">
        <ele>160.4</ele>
        <time>2025-01-26T09:14:15.000Z</time>
      </trkpt>
      <trkpt lat="44.00624" lon="4.46104">
        <ele>160.4</ele>
        <time>2025-01-26T09:14:19.000Z</time>
      </trkpt>
      <trkpt lat="44.00618" lon="4.46093">
        <ele>159.4</ele>
        <time>2025-01-26T09:14:24.000Z</time>
      </trkpt>
      <trkpt lat="44.00614" lon="4.46087">
        <ele>158.6</ele>
        <time>2025-01-26T09:14:26.000Z</time>
      </trkpt>
      <trkpt lat="44.00609" lon="4.46081">
        <ele>158.2</ele>
        <time>2025-01-26T09:14:28.000Z</time>
      </trkpt>
      <trkpt lat="44.006" lon="4.46077">
        <ele>156.8</ele>
        <time>2025-01-26T09:14:31.000Z</time>
      </trkpt>
      <trkpt lat="44.00598" lon="4.46075">
        <ele>156.4</ele>
        <time>2025-01-26T09:14:32.000Z</time>
      </trkpt>
      <trkpt lat="44.00594" lon="4.46072">
        <ele>155.4</ele>
        <time>2025-01-26T09:14:34.000Z</time>
      </trkpt>
      <trkpt lat="44.0059" lon="4.46073">
        <ele>154.2</ele>
        <time>2025-01-26T09:14:36.000Z</time>
      </trkpt>
      <trkpt lat="44.00582" lon="4.46076">
        <ele>153.4</ele>
        <time>2025-01-26T09:14:39.000Z</time>
      </trkpt>
      <trkpt lat="44.00579" lon="4.46076">
        <ele>153.4</ele>
        <time>2025-01-26T09:14:40.000Z</time>
      </trkpt>
      <trkpt lat="44.00577" lon="4.46076">
        <ele>153.4</ele>
        <time>2025-01-26T09:14:41.000Z</time>
      </trkpt>
      <trkpt lat="44.00564" lon="4.46073">
        <ele>153</ele>
        <time>2025-01-26T09:14:45.000Z</time>
      </trkpt>
      <trkpt lat="44.0055" lon="4.46079">
        <ele>153.2</ele>
        <time>2025-01-26T09:14:50.000Z</time>
      </trkpt>
      <trkpt lat="44.0054" lon="4.46088">
        <ele>152.8</ele>
        <time>2025-01-26T09:14:54.000Z</time>
      </trkpt>
      <trkpt lat="44.00537" lon="4.46089">
        <ele>152.8</ele>
        <time>2025-01-26T09:14:55.000Z</time>
      </trkpt>
      <trkpt lat="44.0052" lon="4.46093">
        <ele>152.6</ele>
        <time>2025-01-26T09:15:00.000Z</time>
      </trkpt>
      <trkpt lat="44.00507" lon="4.46099">
        <ele>152.6</ele>
        <time>2025-01-26T09:15:04.000Z</time>
      </trkpt>
      <trkpt lat="44.00502" lon="4.46101">
        <ele>152.6</ele>
        <time>2025-01-26T09:15:06.000Z</time>
      </trkpt>
      <trkpt lat="44.00497" lon="4.46101">
        <ele>152.8</ele>
        <time>2025-01-26T09:15:08.000Z</time>
      </trkpt>
      <trkpt lat="44.00494" lon="4.46094">
        <ele>153</ele>
        <time>2025-01-26T09:15:12.000Z</time>
      </trkpt>
      <trkpt lat="44.00494" lon="4.4609">
        <ele>153</ele>
        <time>2025-01-26T09:15:13.000Z</time>
      </trkpt>
      <trkpt lat="44.0049" lon="4.46076">
        <ele>153</ele>
        <time>2025-01-26T09:15:16.000Z</time>
      </trkpt>
      <trkpt lat="44.00477" lon="4.46056">
        <ele>151.6</ele>
        <time>2025-01-26T09:15:21.000Z</time>
      </trkpt>
      <trkpt lat="44.00472" lon="4.46052">
        <ele>151.2</ele>
        <time>2025-01-26T09:15:22.000Z</time>
      </trkpt>
      <trkpt lat="44.00468" lon="4.4605">
        <ele>150.6</ele>
        <time>2025-01-26T09:15:23.000Z</time>
      </trkpt>
      <trkpt lat="44.00464" lon="4.46047">
        <ele>150</ele>
        <time>2025-01-26T09:15:24.000Z</time>
      </trkpt>
      <trkpt lat="44.0045" lon="4.46028">
        <ele>149.4</ele>
        <time>2025-01-26T09:15:28.000Z</time>
      </trkpt>
      <trkpt lat="44.00439" lon="4.46013">
        <ele>148.8</ele>
        <time>2025-01-26T09:15:31.000Z</time>
      </trkpt>
      <trkpt lat="44.00432" lon="4.46002">
        <ele>148.4</ele>
        <time>2025-01-26T09:15:33.000Z</time>
      </trkpt>
      <trkpt lat="44.00428" lon="4.45998">
        <ele>148.2</ele>
        <time>2025-01-26T09:15:34.000Z</time>
      </trkpt>
      <trkpt lat="44.00408" lon="4.45984">
        <ele>147.8</ele>
        <time>2025-01-26T09:15:39.000Z</time>
      </trkpt>
      <trkpt lat="44.00394" lon="4.45983">
        <ele>147.4</ele>
        <time>2025-01-26T09:15:44.000Z</time>
      </trkpt>
      <trkpt lat="44.00378" lon="4.45974">
        <ele>147.2</ele>
        <time>2025-01-26T09:15:49.000Z</time>
      </trkpt>
      <trkpt lat="44.0037" lon="4.45972">
        <ele>147</ele>
        <time>2025-01-26T09:15:53.000Z</time>
      </trkpt>
      <trkpt lat="44.00369" lon="4.45971">
        <ele>146.8</ele>
        <time>2025-01-26T09:15:54.000Z</time>
      </trkpt>
      <trkpt lat="44.00364" lon="4.45966">
        <ele>146.6</ele>
        <time>2025-01-26T09:15:57.000Z</time>
      </trkpt>
      <trkpt lat="44.0036" lon="4.45962">
        <ele>146.6</ele>
        <time>2025-01-26T09:15:59.000Z</time>
      </trkpt>
      <trkpt lat="44.00342" lon="4.45953">
        <ele>146.2</ele>
        <time>2025-01-26T09:16:04.000Z</time>
      </trkpt>
      <trkpt lat="44.0033" lon="4.45944">
        <ele>145.8</ele>
        <time>2025-01-26T09:16:08.000Z</time>
      </trkpt>
      <trkpt lat="44.00322" lon="4.45935">
        <ele>145.6</ele>
        <time>2025-01-26T09:16:11.000Z</time>
      </trkpt>
      <trkpt lat="44.00318" lon="4.4593">
        <ele>145.4</ele>
        <time>2025-01-26T09:16:13.000Z</time>
      </trkpt>
      <trkpt lat="44.00313" lon="4.45929">
        <ele>145.4</ele>
        <time>2025-01-26T09:16:15.000Z</time>
      </trkpt>
      <trkpt lat="44.00309" lon="4.45921">
        <ele>145.4</ele>
        <time>2025-01-26T09:16:18.000Z</time>
      </trkpt>
      <trkpt lat="44.00307" lon="4.45903">
        <ele>145.4</ele>
        <time>2025-01-26T09:16:23.000Z</time>
      </trkpt>
      <trkpt lat="44.00299" lon="4.45879">
        <ele>144.4</ele>
        <time>2025-01-26T09:16:29.000Z</time>
      </trkpt>
      <trkpt lat="44.0029" lon="4.45869">
        <ele>143.8</ele>
        <time>2025-01-26T09:16:33.000Z</time>
      </trkpt>
      <trkpt lat="44.00275" lon="4.45862">
        <ele>143.6</ele>
        <time>2025-01-26T09:16:38.000Z</time>
      </trkpt>
      <trkpt lat="44.00265" lon="4.45861">
        <ele>143.4</ele>
        <time>2025-01-26T09:16:42.000Z</time>
      </trkpt>
      <trkpt lat="44.00259" lon="4.45861">
        <ele>143</ele>
        <time>2025-01-26T09:16:44.000Z</time>
      </trkpt>
      <trkpt lat="44.00249" lon="4.45859">
        <ele>142.4</ele>
        <time>2025-01-26T09:16:47.000Z</time>
      </trkpt>
      <trkpt lat="44.00246" lon="4.45856">
        <ele>142.2</ele>
        <time>2025-01-26T09:16:48.000Z</time>
      </trkpt>
      <trkpt lat="44.00243" lon="4.45855">
        <ele>142.2</ele>
        <time>2025-01-26T09:16:49.000Z</time>
      </trkpt>
      <trkpt lat="44.00237" lon="4.45856">
        <ele>142</ele>
        <time>2025-01-26T09:16:51.000Z</time>
      </trkpt>
      <trkpt lat="44.00234" lon="4.45857">
        <ele>142</ele>
        <time>2025-01-26T09:16:52.000Z</time>
      </trkpt>
      <trkpt lat="44.00224" lon="4.45859">
        <ele>141.8</ele>
        <time>2025-01-26T09:16:56.000Z</time>
      </trkpt>
      <trkpt lat="44.00215" lon="4.45861">
        <ele>141.6</ele>
        <time>2025-01-26T09:16:59.000Z</time>
      </trkpt>
      <trkpt lat="44.00207" lon="4.45861">
        <ele>141.6</ele>
        <time>2025-01-26T09:17:01.000Z</time>
      </trkpt>
      <trkpt lat="44.00199" lon="4.45857">
        <ele>141.6</ele>
        <time>2025-01-26T09:17:04.000Z</time>
      </trkpt>
      <trkpt lat="44.00196" lon="4.45856">
        <ele>141.4</ele>
        <time>2025-01-26T09:17:05.000Z</time>
      </trkpt>
      <trkpt lat="44.00195" lon="4.45854">
        <ele>141</ele>
        <time>2025-01-26T09:17:06.000Z</time>
      </trkpt>
      <trkpt lat="44.00191" lon="4.45849">
        <ele>140</ele>
        <time>2025-01-26T09:17:09.000Z</time>
      </trkpt>
      <trkpt lat="44.00191" lon="4.45847">
        <ele>140</ele>
        <time>2025-01-26T09:17:10.000Z</time>
      </trkpt>
      <trkpt lat="44.00194" lon="4.45842">
        <ele>139.8</ele>
        <time>2025-01-26T09:17:13.000Z</time>
      </trkpt>
      <trkpt lat="44.00196" lon="4.45835">
        <ele>139.6</ele>
        <time>2025-01-26T09:17:15.000Z</time>
      </trkpt>
      <trkpt lat="44.00198" lon="4.45822">
        <ele>139.4</ele>
        <time>2025-01-26T09:17:18.000Z</time>
      </trkpt>
      <trkpt lat="44.00198" lon="4.4581">
        <ele>139</ele>
        <time>2025-01-26T09:17:21.000Z</time>
      </trkpt>
      <trkpt lat="44.002" lon="4.45808">
        <ele>138.8</ele>
        <time>2025-01-26T09:17:22.000Z</time>
      </trkpt>
      <trkpt lat="44.00199" lon="4.45791">
        <ele>138.4</ele>
        <time>2025-01-26T09:17:27.000Z</time>
      </trkpt>
      <trkpt lat="44.00194" lon="4.45785">
        <ele>138.2</ele>
        <time>2025-01-26T09:17:29.000Z</time>
      </trkpt>
      <trkpt lat="44.00188" lon="4.4578">
        <ele>137.8</ele>
        <time>2025-01-26T09:17:31.000Z</time>
      </trkpt>
      <trkpt lat="44.00172" lon="4.45778">
        <ele>137.2</ele>
        <time>2025-01-26T09:17:35.000Z</time>
      </trkpt>
      <trkpt lat="44.00158" lon="4.45782">
        <ele>136.6</ele>
        <time>2025-01-26T09:17:39.000Z</time>
      </trkpt>
      <trkpt lat="44.00155" lon="4.45783">
        <ele>136.4</ele>
        <time>2025-01-26T09:17:40.000Z</time>
      </trkpt>
      <trkpt lat="44.00149" lon="4.45787">
        <ele>135.4</ele>
        <time>2025-01-26T09:17:42.000Z</time>
      </trkpt>
      <trkpt lat="44.00144" lon="4.45792">
        <ele>134.8</ele>
        <time>2025-01-26T09:17:45.000Z</time>
      </trkpt>
      <trkpt lat="44.00135" lon="4.45797">
        <ele>134.6</ele>
        <time>2025-01-26T09:17:49.000Z</time>
      </trkpt>
      <trkpt lat="44.00133" lon="4.458">
        <ele>134.6</ele>
        <time>2025-01-26T09:17:50.000Z</time>
      </trkpt>
      <trkpt lat="44.0013" lon="4.45801">
        <ele>134.4</ele>
        <time>2025-01-26T09:17:51.000Z</time>
      </trkpt>
      <trkpt lat="44.00115" lon="4.45803">
        <ele>134</ele>
        <time>2025-01-26T09:17:55.000Z</time>
      </trkpt>
      <trkpt lat="44.00098" lon="4.45795">
        <ele>133.8</ele>
        <time>2025-01-26T09:18:00.000Z</time>
      </trkpt>
      <trkpt lat="44.00094" lon="4.45795">
        <ele>133.6</ele>
        <time>2025-01-26T09:18:01.000Z</time>
      </trkpt>
      <trkpt lat="44.00086" lon="4.45786">
        <ele>133.2</ele>
        <time>2025-01-26T09:18:04.000Z</time>
      </trkpt>
      <trkpt lat="44.00081" lon="4.45781">
        <ele>132.8</ele>
        <time>2025-01-26T09:18:06.000Z</time>
      </trkpt>
      <trkpt lat="44.0007" lon="4.45771">
        <ele>132</ele>
        <time>2025-01-26T09:18:09.000Z</time>
      </trkpt>
      <trkpt lat="44.00065" lon="4.45768">
        <ele>131.8</ele>
        <time>2025-01-26T09:18:10.000Z</time>
      </trkpt>
      <trkpt lat="44.00043" lon="4.4576">
        <ele>131.6</ele>
        <time>2025-01-26T09:18:15.000Z</time>
      </trkpt>
      <trkpt lat="44.00024" lon="4.45761">
        <ele>131.4</ele>
        <time>2025-01-26T09:18:20.000Z</time>
      </trkpt>
      <trkpt lat="44.00004" lon="4.4576">
        <ele>131</ele>
        <time>2025-01-26T09:18:26.000Z</time>
      </trkpt>
      <trkpt lat="43.99987" lon="4.45758">
        <ele>130.4</ele>
        <time>2025-01-26T09:18:31.000Z</time>
      </trkpt>
      <trkpt lat="43.99979" lon="4.45756">
        <ele>130</ele>
        <time>2025-01-26T09:18:34.000Z</time>
      </trkpt>
      <trkpt lat="43.99974" lon="4.45752">
        <ele>129.8</ele>
        <time>2025-01-26T09:18:36.000Z</time>
      </trkpt>
      <trkpt lat="43.99963" lon="4.4574">
        <ele>129</ele>
        <time>2025-01-26T09:18:41.000Z</time>
      </trkpt>
      <trkpt lat="43.99951" lon="4.45727">
        <ele>128.6</ele>
        <time>2025-01-26T09:18:45.000Z</time>
      </trkpt>
      <trkpt lat="43.99947" lon="4.45726">
        <ele>128.6</ele>
        <time>2025-01-26T09:18:46.000Z</time>
      </trkpt>
      <trkpt lat="43.99931" lon="4.45727">
        <ele>128</ele>
        <time>2025-01-26T09:18:50.000Z</time>
      </trkpt>
      <trkpt lat="43.99925" lon="4.45732">
        <ele>127.6</ele>
        <time>2025-01-26T09:18:52.000Z</time>
      </trkpt>
      <trkpt lat="43.99912" lon="4.45739">
        <ele>126.8</ele>
        <time>2025-01-26T09:18:56.000Z</time>
      </trkpt>
      <trkpt lat="43.99897" lon="4.45746">
        <ele>126.4</ele>
        <time>2025-01-26T09:19:01.000Z</time>
      </trkpt>
      <trkpt lat="43.99894" lon="4.45748">
        <ele>126</ele>
        <time>2025-01-26T09:19:02.000Z</time>
      </trkpt>
      <trkpt lat="43.99872" lon="4.45752">
        <ele>125.4</ele>
        <time>2025-01-26T09:19:07.000Z</time>
      </trkpt>
      <trkpt lat="43.99867" lon="4.45753">
        <ele>125.4</ele>
        <time>2025-01-26T09:19:08.000Z</time>
      </trkpt>
      <trkpt lat="43.99851" lon="4.45761">
        <ele>124.6</ele>
        <time>2025-01-26T09:19:12.000Z</time>
      </trkpt>
      <trkpt lat="43.99845" lon="4.45763">
        <ele>124.2</ele>
        <time>2025-01-26T09:19:14.000Z</time>
      </trkpt>
      <trkpt lat="43.99838" lon="4.45765">
        <ele>123.8</ele>
        <time>2025-01-26T09:19:17.000Z</time>
      </trkpt>
      <trkpt lat="43.99825" lon="4.45756">
        <ele>123.4</ele>
        <time>2025-01-26T09:19:22.000Z</time>
      </trkpt>
      <trkpt lat="43.99818" lon="4.45749">
        <ele>123</ele>
        <time>2025-01-26T09:19:24.000Z</time>
      </trkpt>
      <trkpt lat="43.99807" lon="4.45739">
        <ele>122.6</ele>
        <time>2025-01-26T09:19:27.000Z</time>
      </trkpt>
      <trkpt lat="43.99793" lon="4.45725">
        <ele>122</ele>
        <time>2025-01-26T09:19:31.000Z</time>
      </trkpt>
      <trkpt lat="43.99786" lon="4.45719">
        <ele>121.4</ele>
        <time>2025-01-26T09:19:33.000Z</time>
      </trkpt>
      <trkpt lat="43.99775" lon="4.45712">
        <ele>120.8</ele>
        <time>2025-01-26T09:19:36.000Z</time>
      </trkpt>
      <trkpt lat="43.99766" lon="4.45706">
        <ele>120.6</ele>
        <time>2025-01-26T09:19:39.000Z</time>
      </trkpt>
      <trkpt lat="43.99756" lon="4.45692">
        <ele>119.8</ele>
        <time>2025-01-26T09:19:44.000Z</time>
      </trkpt>
      <trkpt lat="43.99746" lon="4.45686">
        <ele>119.8</ele>
        <time>2025-01-26T09:19:48.000Z</time>
      </trkpt>
      <trkpt lat="43.9974" lon="4.45683">
        <ele>119.8</ele>
        <time>2025-01-26T09:19:52.000Z</time>
      </trkpt>
      <trkpt lat="43.99735" lon="4.45682">
        <ele>119.8</ele>
        <time>2025-01-26T09:19:54.000Z</time>
      </trkpt>
      <trkpt lat="43.99722" lon="4.45676">
        <ele>119.8</ele>
        <time>2025-01-26T09:20:00.000Z</time>
      </trkpt>
      <trkpt lat="43.9972" lon="4.45676">
        <ele>119.6</ele>
        <time>2025-01-26T09:20:01.000Z</time>
      </trkpt>
      <trkpt lat="43.99712" lon="4.45675">
        <ele>119.4</ele>
        <time>2025-01-26T09:20:04.000Z</time>
      </trkpt>
      <trkpt lat="43.9971" lon="4.45675">
        <ele>119.4</ele>
        <time>2025-01-26T09:20:05.000Z</time>
      </trkpt>
      <trkpt lat="43.99701" lon="4.45672">
        <ele>118.4</ele>
        <time>2025-01-26T09:20:09.000Z</time>
      </trkpt>
      <trkpt lat="43.99696" lon="4.45669">
        <ele>117.8</ele>
        <time>2025-01-26T09:20:11.000Z</time>
      </trkpt>
      <trkpt lat="43.99675" lon="4.45665">
        <ele>117.2</ele>
        <time>2025-01-26T09:20:18.000Z</time>
      </trkpt>
      <trkpt lat="43.99665" lon="4.45672">
        <ele>117.2</ele>
        <time>2025-01-26T09:20:22.000Z</time>
      </trkpt>
      <trkpt lat="43.99655" lon="4.45687">
        <ele>117.2</ele>
        <time>2025-01-26T09:20:27.000Z</time>
      </trkpt>
      <trkpt lat="43.99647" lon="4.45705">
        <ele>116.6</ele>
        <time>2025-01-26T09:20:33.000Z</time>
      </trkpt>
      <trkpt lat="43.99643" lon="4.45714">
        <ele>116.2</ele>
        <time>2025-01-26T09:20:36.000Z</time>
      </trkpt>
      <trkpt lat="43.99642" lon="4.45718">
        <ele>116</ele>
        <time>2025-01-26T09:20:37.000Z</time>
      </trkpt>
      <trkpt lat="43.99636" lon="4.45729">
        <ele>115.6</ele>
        <time>2025-01-26T09:20:41.000Z</time>
      </trkpt>
      <trkpt lat="43.99626" lon="4.45745">
        <ele>115.4</ele>
        <time>2025-01-26T09:20:46.000Z</time>
      </trkpt>
      <trkpt lat="43.99616" lon="4.45749">
        <ele>115.2</ele>
        <time>2025-01-26T09:20:51.000Z</time>
      </trkpt>
      <trkpt lat="43.99611" lon="4.45748">
        <ele>115.2</ele>
        <time>2025-01-26T09:20:54.000Z</time>
      </trkpt>
      <trkpt lat="43.99607" lon="4.45749">
        <ele>115</ele>
        <time>2025-01-26T09:20:56.000Z</time>
      </trkpt>
      <trkpt lat="43.99593" lon="4.45747">
        <ele>114.2</ele>
        <time>2025-01-26T09:21:03.000Z</time>
      </trkpt>
      <trkpt lat="43.99592" lon="4.45745">
        <ele>114.2</ele>
        <time>2025-01-26T09:21:04.000Z</time>
      </trkpt>
      <trkpt lat="43.9958" lon="4.45738">
        <ele>113.4</ele>
        <time>2025-01-26T09:21:09.000Z</time>
      </trkpt>
      <trkpt lat="43.99576" lon="4.45736">
        <ele>113</ele>
        <time>2025-01-26T09:21:11.000Z</time>
      </trkpt>
      <trkpt lat="43.9957" lon="4.45732">
        <ele>112.4</ele>
        <time>2025-01-26T09:21:14.000Z</time>
      </trkpt>
      <trkpt lat="43.99561" lon="4.45725">
        <ele>111.8</ele>
        <time>2025-01-26T09:21:18.000Z</time>
      </trkpt>
      <trkpt lat="43.99557" lon="4.4572">
        <ele>111.6</ele>
        <time>2025-01-26T09:21:20.000Z</time>
      </trkpt>
      <trkpt lat="43.99543" lon="4.45712">
        <ele>111.2</ele>
        <time>2025-01-26T09:21:25.000Z</time>
      </trkpt>
      <trkpt lat="43.99534" lon="4.45711">
        <ele>110.6</ele>
        <time>2025-01-26T09:21:28.000Z</time>
      </trkpt>
      <trkpt lat="43.99529" lon="4.45712">
        <ele>110.4</ele>
        <time>2025-01-26T09:21:30.000Z</time>
      </trkpt>
      <trkpt lat="43.99519" lon="4.45717">
        <ele>110.2</ele>
        <time>2025-01-26T09:21:35.000Z</time>
      </trkpt>
      <trkpt lat="43.995" lon="4.45731">
        <ele>109.8</ele>
        <time>2025-01-26T09:21:42.000Z</time>
      </trkpt>
      <trkpt lat="43.99494" lon="4.45733">
        <ele>109.4</ele>
        <time>2025-01-26T09:21:44.000Z</time>
      </trkpt>
      <trkpt lat="43.99489" lon="4.45733">
        <ele>109.4</ele>
        <time>2025-01-26T09:21:46.000Z</time>
      </trkpt>
      <trkpt lat="43.99483" lon="4.45733">
        <ele>109.2</ele>
        <time>2025-01-26T09:21:48.000Z</time>
      </trkpt>
      <trkpt lat="43.99478" lon="4.45735">
        <ele>109</ele>
        <time>2025-01-26T09:21:51.000Z</time>
      </trkpt>
      <trkpt lat="43.99463" lon="4.45743">
        <ele>108.8</ele>
        <time>2025-01-26T09:21:57.000Z</time>
      </trkpt>
      <trkpt lat="43.9945" lon="4.45745">
        <ele>108.2</ele>
        <time>2025-01-26T09:22:01.000Z</time>
      </trkpt>
      <trkpt lat="43.99447" lon="4.45745">
        <ele>108.2</ele>
        <time>2025-01-26T09:22:02.000Z</time>
      </trkpt>
      <trkpt lat="43.99437" lon="4.45749">
        <ele>108</ele>
        <time>2025-01-26T09:22:06.000Z</time>
      </trkpt>
      <trkpt lat="43.99434" lon="4.45748">
        <ele>108</ele>
        <time>2025-01-26T09:22:07.000Z</time>
      </trkpt>
      <trkpt lat="43.9942" lon="4.45749">
        <ele>107.8</ele>
        <time>2025-01-26T09:22:12.000Z</time>
      </trkpt>
      <trkpt lat="43.99417" lon="4.4575">
        <ele>107.8</ele>
        <time>2025-01-26T09:22:13.000Z</time>
      </trkpt>
      <trkpt lat="43.99404" lon="4.45751">
        <ele>107.2</ele>
        <time>2025-01-26T09:22:17.000Z</time>
      </trkpt>
      <trkpt lat="43.99402" lon="4.45751">
        <ele>107</ele>
        <time>2025-01-26T09:22:18.000Z</time>
      </trkpt>
      <trkpt lat="43.99387" lon="4.45752">
        <ele>107</ele>
        <time>2025-01-26T09:22:24.000Z</time>
      </trkpt>
      <trkpt lat="43.99385" lon="4.45754">
        <ele>107</ele>
        <time>2025-01-26T09:22:27.000Z</time>
      </trkpt>
      <trkpt lat="43.99383" lon="4.45755">
        <ele>107.4</ele>
        <time>2025-01-26T09:22:31.000Z</time>
      </trkpt>
      <trkpt lat="43.99383" lon="4.45754">
        <ele>107.4</ele>
        <time>2025-01-26T09:22:32.000Z</time>
      </trkpt>
      <trkpt lat="43.99379" lon="4.45755">
        <ele>107.6</ele>
        <time>2025-01-26T09:22:37.000Z</time>
      </trkpt>
      <trkpt lat="43.99375" lon="4.45758">
        <ele>107.4</ele>
        <time>2025-01-26T09:22:54.000Z</time>
      </trkpt>
      <trkpt lat="43.99375" lon="4.45759">
        <ele>107.2</ele>
        <time>2025-01-26T09:22:55.000Z</time>
      </trkpt>
      <trkpt lat="43.99374" lon="4.45759">
        <ele>107.2</ele>
        <time>2025-01-26T09:22:58.000Z</time>
      </trkpt>
      <trkpt lat="43.99371" lon="4.45766">
        <ele>105.4</ele>
        <time>2025-01-26T09:28:54.000Z</time>
      </trkpt>
      <trkpt lat="43.99372" lon="4.45765">
        <ele>105.4</ele>
        <time>2025-01-26T09:28:56.000Z</time>
      </trkpt>
      <trkpt lat="43.99373" lon="4.45764">
        <ele>105.4</ele>
        <time>2025-01-26T09:28:57.000Z</time>
      </trkpt>
      <trkpt lat="43.99372" lon="4.4576">
        <ele>105.4</ele>
        <time>2025-01-26T09:29:00.000Z</time>
      </trkpt>
      <trkpt lat="43.9937" lon="4.45759">
        <ele>105.6</ele>
        <time>2025-01-26T09:29:02.000Z</time>
      </trkpt>
      <trkpt lat="43.99358" lon="4.45746">
        <ele>106</ele>
        <time>2025-01-26T09:29:09.000Z</time>
      </trkpt>
      <trkpt lat="43.99344" lon="4.45722">
        <ele>106</ele>
        <time>2025-01-26T09:29:16.000Z</time>
      </trkpt>
      <trkpt lat="43.99337" lon="4.45701">
        <ele>105.6</ele>
        <time>2025-01-26T09:29:21.000Z</time>
      </trkpt>
      <trkpt lat="43.99338" lon="4.4568">
        <ele>105</ele>
        <time>2025-01-26T09:29:26.000Z</time>
      </trkpt>
      <trkpt lat="43.99345" lon="4.45663">
        <ele>104.2</ele>
        <time>2025-01-26T09:29:30.000Z</time>
      </trkpt>
      <trkpt lat="43.99351" lon="4.45658">
        <ele>103.8</ele>
        <time>2025-01-26T09:29:32.000Z</time>
      </trkpt>
      <trkpt lat="43.9936" lon="4.45649">
        <ele>103.2</ele>
        <time>2025-01-26T09:29:35.000Z</time>
      </trkpt>
      <trkpt lat="43.99366" lon="4.45647">
        <ele>102.4</ele>
        <time>2025-01-26T09:29:37.000Z</time>
      </trkpt>
      <trkpt lat="43.99373" lon="4.45646">
        <ele>102</ele>
        <time>2025-01-26T09:29:39.000Z</time>
      </trkpt>
      <trkpt lat="43.99383" lon="4.45645">
        <ele>100.8</ele>
        <time>2025-01-26T09:29:42.000Z</time>
      </trkpt>
      <trkpt lat="43.99396" lon="4.45634">
        <ele>100.2</ele>
        <time>2025-01-26T09:29:46.000Z</time>
      </trkpt>
      <trkpt lat="43.99407" lon="4.4561">
        <ele>100</ele>
        <time>2025-01-26T09:29:51.000Z</time>
      </trkpt>
      <trkpt lat="43.99411" lon="4.45594">
        <ele>99.8</ele>
        <time>2025-01-26T09:29:54.000Z</time>
      </trkpt>
      <trkpt lat="43.99411" lon="4.45583">
        <ele>99.6</ele>
        <time>2025-01-26T09:29:56.000Z</time>
      </trkpt>
      <trkpt lat="43.99409" lon="4.45558">
        <ele>99.2</ele>
        <time>2025-01-26T09:30:01.000Z</time>
      </trkpt>
      <trkpt lat="43.99398" lon="4.45548">
        <ele>99</ele>
        <time>2025-01-26T09:30:05.000Z</time>
      </trkpt>
      <trkpt lat="43.99371" lon="4.45541">
        <ele>99.2</ele>
        <time>2025-01-26T09:30:12.000Z</time>
      </trkpt>
      <trkpt lat="43.99346" lon="4.45537">
        <ele>99.4</ele>
        <time>2025-01-26T09:30:19.000Z</time>
      </trkpt>
      <trkpt lat="43.99323" lon="4.45531">
        <ele>99.4</ele>
        <time>2025-01-26T09:30:25.000Z</time>
      </trkpt>
      <trkpt lat="43.99301" lon="4.45515">
        <ele>99</ele>
        <time>2025-01-26T09:30:31.000Z</time>
      </trkpt>
      <trkpt lat="43.99288" lon="4.45499">
        <ele>98.6</ele>
        <time>2025-01-26T09:30:35.000Z</time>
      </trkpt>
      <trkpt lat="43.99286" lon="4.45494">
        <ele>98.6</ele>
        <time>2025-01-26T09:30:36.000Z</time>
      </trkpt>
      <trkpt lat="43.99283" lon="4.45488">
        <ele>98.4</ele>
        <time>2025-01-26T09:30:37.000Z</time>
      </trkpt>
      <trkpt lat="43.9928" lon="4.45482">
        <ele>98.2</ele>
        <time>2025-01-26T09:30:38.000Z</time>
      </trkpt>
      <trkpt lat="43.99268" lon="4.4547">
        <ele>97.6</ele>
        <time>2025-01-26T09:30:41.000Z</time>
      </trkpt>
      <trkpt lat="43.99264" lon="4.45468">
        <ele>97.4</ele>
        <time>2025-01-26T09:30:42.000Z</time>
      </trkpt>
      <trkpt lat="43.99244" lon="4.45467">
        <ele>96.6</ele>
        <time>2025-01-26T09:30:46.000Z</time>
      </trkpt>
      <trkpt lat="43.99229" lon="4.45469">
        <ele>96.2</ele>
        <time>2025-01-26T09:30:49.000Z</time>
      </trkpt>
      <trkpt lat="43.99215" lon="4.45472">
        <ele>95.4</ele>
        <time>2025-01-26T09:30:52.000Z</time>
      </trkpt>
      <trkpt lat="43.9921" lon="4.45474">
        <ele>95</ele>
        <time>2025-01-26T09:30:53.000Z</time>
      </trkpt>
      <trkpt lat="43.99196" lon="4.45482">
        <ele>93.6</ele>
        <time>2025-01-26T09:30:56.000Z</time>
      </trkpt>
      <trkpt lat="43.99179" lon="4.45492">
        <ele>93</ele>
        <time>2025-01-26T09:30:59.000Z</time>
      </trkpt>
      <trkpt lat="43.99173" lon="4.45494">
        <ele>92.6</ele>
        <time>2025-01-26T09:31:00.000Z</time>
      </trkpt>
      <trkpt lat="43.99161" lon="4.45498">
        <ele>92.2</ele>
        <time>2025-01-26T09:31:02.000Z</time>
      </trkpt>
      <trkpt lat="43.99155" lon="4.45498">
        <ele>92.2</ele>
        <time>2025-01-26T09:31:03.000Z</time>
      </trkpt>
      <trkpt lat="43.99143" lon="4.45498">
        <ele>91.4</ele>
        <time>2025-01-26T09:31:05.000Z</time>
      </trkpt>
      <trkpt lat="43.99138" lon="4.45497">
        <ele>90.2</ele>
        <time>2025-01-26T09:31:06.000Z</time>
      </trkpt>
      <trkpt lat="43.99132" lon="4.45498">
        <ele>89.6</ele>
        <time>2025-01-26T09:31:07.000Z</time>
      </trkpt>
      <trkpt lat="43.99126" lon="4.455">
        <ele>89.2</ele>
        <time>2025-01-26T09:31:08.000Z</time>
      </trkpt>
      <trkpt lat="43.99121" lon="4.45504">
        <ele>88.8</ele>
        <time>2025-01-26T09:31:09.000Z</time>
      </trkpt>
      <trkpt lat="43.99108" lon="4.45515">
        <ele>88.4</ele>
        <time>2025-01-26T09:31:12.000Z</time>
      </trkpt>
      <trkpt lat="43.99104" lon="4.45518">
        <ele>88.4</ele>
        <time>2025-01-26T09:31:13.000Z</time>
      </trkpt>
      <trkpt lat="43.99096" lon="4.45527">
        <ele>88.4</ele>
        <time>2025-01-26T09:31:16.000Z</time>
      </trkpt>
      <trkpt lat="43.99088" lon="4.45533">
        <ele>89</ele>
        <time>2025-01-26T09:31:20.000Z</time>
      </trkpt>
      <trkpt lat="43.99086" lon="4.45533">
        <ele>89.6</ele>
        <time>2025-01-26T09:31:21.000Z</time>
      </trkpt>
      <trkpt lat="43.99083" lon="4.45534">
        <ele>90.4</ele>
        <time>2025-01-26T09:31:22.000Z</time>
      </trkpt>
      <trkpt lat="43.99079" lon="4.45533">
        <ele>91.8</ele>
        <time>2025-01-26T09:31:24.000Z</time>
      </trkpt>
      <trkpt lat="43.99074" lon="4.45534">
        <ele>92.6</ele>
        <time>2025-01-26T09:31:27.000Z</time>
      </trkpt>
      <trkpt lat="43.99065" lon="4.45534">
        <ele>92.8</ele>
        <time>2025-01-26T09:31:31.000Z</time>
      </trkpt>
      <trkpt lat="43.99063" lon="4.45533">
        <ele>92.8</ele>
        <time>2025-01-26T09:31:32.000Z</time>
      </trkpt>
      <trkpt lat="43.99049" lon="4.45534">
        <ele>92.6</ele>
        <time>2025-01-26T09:31:36.000Z</time>
      </trkpt>
      <trkpt lat="43.9903" lon="4.45546">
        <ele>92.2</ele>
        <time>2025-01-26T09:31:42.000Z</time>
      </trkpt>
      <trkpt lat="43.99028" lon="4.45549">
        <ele>92.2</ele>
        <time>2025-01-26T09:31:43.000Z</time>
      </trkpt>
      <trkpt lat="43.99027" lon="4.4556">
        <ele>92.2</ele>
        <time>2025-01-26T09:31:46.000Z</time>
      </trkpt>
      <trkpt lat="43.99027" lon="4.45563">
        <ele>92.2</ele>
        <time>2025-01-26T09:31:47.000Z</time>
      </trkpt>
      <trkpt lat="43.99026" lon="4.4557">
        <ele>92.4</ele>
        <time>2025-01-26T09:31:50.000Z</time>
      </trkpt>
      <trkpt lat="43.99025" lon="4.45573">
        <ele>92.6</ele>
        <time>2025-01-26T09:31:51.000Z</time>
      </trkpt>
      <trkpt lat="43.99023" lon="4.45582">
        <ele>93.6</ele>
        <time>2025-01-26T09:31:54.000Z</time>
      </trkpt>
      <trkpt lat="43.99023" lon="4.45589">
        <ele>94.8</ele>
        <time>2025-01-26T09:31:56.000Z</time>
      </trkpt>
      <trkpt lat="43.9902" lon="4.45596">
        <ele>95.2</ele>
        <time>2025-01-26T09:31:58.000Z</time>
      </trkpt>
      <trkpt lat="43.99016" lon="4.45602">
        <ele>95.4</ele>
        <time>2025-01-26T09:32:00.000Z</time>
      </trkpt>
      <trkpt lat="43.99003" lon="4.45629">
        <ele>95.6</ele>
        <time>2025-01-26T09:32:08.000Z</time>
      </trkpt>
      <trkpt lat="43.98993" lon="4.45656">
        <ele>95.6</ele>
        <time>2025-01-26T09:32:14.000Z</time>
      </trkpt>
      <trkpt lat="43.98983" lon="4.4569">
        <ele>96</ele>
        <time>2025-01-26T09:32:21.000Z</time>
      </trkpt>
      <trkpt lat="43.98974" lon="4.45718">
        <ele>96.4</ele>
        <time>2025-01-26T09:32:28.000Z</time>
      </trkpt>
      <trkpt lat="43.98972" lon="4.45721">
        <ele>96.4</ele>
        <time>2025-01-26T09:32:29.000Z</time>
      </trkpt>
      <trkpt lat="43.98966" lon="4.45735">
        <ele>97</ele>
        <time>2025-01-26T09:32:33.000Z</time>
      </trkpt>
      <trkpt lat="43.98962" lon="4.45748">
        <ele>97.6</ele>
        <time>2025-01-26T09:32:36.000Z</time>
      </trkpt>
      <trkpt lat="43.98957" lon="4.4576">
        <ele>98</ele>
        <time>2025-01-26T09:32:39.000Z</time>
      </trkpt>
      <trkpt lat="43.98951" lon="4.45783">
        <ele>98.4</ele>
        <time>2025-01-26T09:32:44.000Z</time>
      </trkpt>
      <trkpt lat="43.98947" lon="4.45803">
        <ele>98.4</ele>
        <time>2025-01-26T09:32:49.000Z</time>
      </trkpt>
      <trkpt lat="43.98947" lon="4.45811">
        <ele>98.4</ele>
        <time>2025-01-26T09:32:51.000Z</time>
      </trkpt>
      <trkpt lat="43.9895" lon="4.45816">
        <ele>98.4</ele>
        <time>2025-01-26T09:32:53.000Z</time>
      </trkpt>
      <trkpt lat="43.98954" lon="4.45823">
        <ele>98.4</ele>
        <time>2025-01-26T09:32:57.000Z</time>
      </trkpt>
      <trkpt lat="43.98964" lon="4.45828">
        <ele>98.8</ele>
        <time>2025-01-26T09:33:02.000Z</time>
      </trkpt>
      <trkpt lat="43.98977" lon="4.45829">
        <ele>100</ele>
        <time>2025-01-26T09:33:09.000Z</time>
      </trkpt>
      <trkpt lat="43.98979" lon="4.45829">
        <ele>100.2</ele>
        <time>2025-01-26T09:33:10.000Z</time>
      </trkpt>
      <trkpt lat="43.98983" lon="4.45829">
        <ele>101.2</ele>
        <time>2025-01-26T09:33:13.000Z</time>
      </trkpt>
      <trkpt lat="43.98984" lon="4.45831">
        <ele>102</ele>
        <time>2025-01-26T09:33:16.000Z</time>
      </trkpt>
      <trkpt lat="43.98984" lon="4.45832">
        <ele>102.2</ele>
        <time>2025-01-26T09:33:17.000Z</time>
      </trkpt>
      <trkpt lat="43.98981" lon="4.45844">
        <ele>102.6</ele>
        <time>2025-01-26T09:33:21.000Z</time>
      </trkpt>
      <trkpt lat="43.9898" lon="4.45853">
        <ele>102.8</ele>
        <time>2025-01-26T09:33:23.000Z</time>
      </trkpt>
      <trkpt lat="43.98981" lon="4.45863">
        <ele>102.8</ele>
        <time>2025-01-26T09:33:26.000Z</time>
      </trkpt>
      <trkpt lat="43.98986" lon="4.45884">
        <ele>100.6</ele>
        <time>2025-01-26T09:33:31.000Z</time>
      </trkpt>
      <trkpt lat="43.98988" lon="4.45887">
        <ele>100.4</ele>
        <time>2025-01-26T09:33:32.000Z</time>
      </trkpt>
      <trkpt lat="43.98995" lon="4.45889">
        <ele>100</ele>
        <time>2025-01-26T09:33:34.000Z</time>
      </trkpt>
      <trkpt lat="43.99001" lon="4.4589">
        <ele>99.4</ele>
        <time>2025-01-26T09:33:36.000Z</time>
      </trkpt>
      <trkpt lat="43.99006" lon="4.45895">
        <ele>98.8</ele>
        <time>2025-01-26T09:33:38.000Z</time>
      </trkpt>
      <trkpt lat="43.99008" lon="4.45899">
        <ele>98.2</ele>
        <time>2025-01-26T09:33:39.000Z</time>
      </trkpt>
      <trkpt lat="43.99011" lon="4.45907">
        <ele>98</ele>
        <time>2025-01-26T09:33:41.000Z</time>
      </trkpt>
      <trkpt lat="43.99011" lon="4.45912">
        <ele>98</ele>
        <time>2025-01-26T09:33:42.000Z</time>
      </trkpt>
      <trkpt lat="43.99012" lon="4.45933">
        <ele>97.8</ele>
        <time>2025-01-26T09:33:47.000Z</time>
      </trkpt>
      <trkpt lat="43.99012" lon="4.45936">
        <ele>97.6</ele>
        <time>2025-01-26T09:33:48.000Z</time>
      </trkpt>
      <trkpt lat="43.99015" lon="4.45941">
        <ele>97.6</ele>
        <time>2025-01-26T09:33:50.000Z</time>
      </trkpt>
      <trkpt lat="43.99029" lon="4.4595">
        <ele>97.6</ele>
        <time>2025-01-26T09:33:56.000Z</time>
      </trkpt>
      <trkpt lat="43.99042" lon="4.45952">
        <ele>98</ele>
        <time>2025-01-26T09:34:01.000Z</time>
      </trkpt>
      <trkpt lat="43.99052" lon="4.45953">
        <ele>98.2</ele>
        <time>2025-01-26T09:34:05.000Z</time>
      </trkpt>
      <trkpt lat="43.99055" lon="4.45955">
        <ele>98.4</ele>
        <time>2025-01-26T09:34:06.000Z</time>
      </trkpt>
      <trkpt lat="43.99067" lon="4.45962">
        <ele>98.8</ele>
        <time>2025-01-26T09:34:10.000Z</time>
      </trkpt>
      <trkpt lat="43.99069" lon="4.45964">
        <ele>98.8</ele>
        <time>2025-01-26T09:34:11.000Z</time>
      </trkpt>
      <trkpt lat="43.9908" lon="4.45969">
        <ele>99.2</ele>
        <time>2025-01-26T09:34:15.000Z</time>
      </trkpt>
      <trkpt lat="43.99085" lon="4.45972">
        <ele>100.2</ele>
        <time>2025-01-26T09:34:17.000Z</time>
      </trkpt>
      <trkpt lat="43.99088" lon="4.45974">
        <ele>100.4</ele>
        <time>2025-01-26T09:34:18.000Z</time>
      </trkpt>
      <trkpt lat="43.99091" lon="4.45978">
        <ele>100.6</ele>
        <time>2025-01-26T09:34:20.000Z</time>
      </trkpt>
      <trkpt lat="43.99095" lon="4.45982">
        <ele>100.8</ele>
        <time>2025-01-26T09:34:22.000Z</time>
      </trkpt>
      <trkpt lat="43.99103" lon="4.4599">
        <ele>100.8</ele>
        <time>2025-01-26T09:34:25.000Z</time>
      </trkpt>
      <trkpt lat="43.99116" lon="4.46003">
        <ele>101.2</ele>
        <time>2025-01-26T09:34:31.000Z</time>
      </trkpt>
      <trkpt lat="43.99122" lon="4.46005">
        <ele>101.4</ele>
        <time>2025-01-26T09:34:36.000Z</time>
      </trkpt>
      <trkpt lat="43.99133" lon="4.46004">
        <ele>102</ele>
        <time>2025-01-26T09:34:42.000Z</time>
      </trkpt>
      <trkpt lat="43.99136" lon="4.46">
        <ele>102</ele>
        <time>2025-01-26T09:34:44.000Z</time>
      </trkpt>
      <trkpt lat="43.9914" lon="4.45996">
        <ele>102.6</ele>
        <time>2025-01-26T09:34:47.000Z</time>
      </trkpt>
      <trkpt lat="43.99141" lon="4.45995">
        <ele>102.8</ele>
        <time>2025-01-26T09:34:49.000Z</time>
      </trkpt>
      <trkpt lat="43.99143" lon="4.45995">
        <ele>103</ele>
        <time>2025-01-26T09:34:50.000Z</time>
      </trkpt>
      <trkpt lat="43.99147" lon="4.45995">
        <ele>103.4</ele>
        <time>2025-01-26T09:34:53.000Z</time>
      </trkpt>
      <trkpt lat="43.99148" lon="4.45995">
        <ele>103.8</ele>
        <time>2025-01-26T09:34:54.000Z</time>
      </trkpt>
      <trkpt lat="43.9915" lon="4.45996">
        <ele>104</ele>
        <time>2025-01-26T09:34:55.000Z</time>
      </trkpt>
      <trkpt lat="43.99153" lon="4.45996">
        <ele>104.4</ele>
        <time>2025-01-26T09:34:57.000Z</time>
      </trkpt>
      <trkpt lat="43.99154" lon="4.45997">
        <ele>104.4</ele>
        <time>2025-01-26T09:34:58.000Z</time>
      </trkpt>
      <trkpt lat="43.99159" lon="4.45998">
        <ele>104.6</ele>
        <time>2025-01-26T09:35:00.000Z</time>
      </trkpt>
      <trkpt lat="43.9916" lon="4.45998">
        <ele>104.6</ele>
        <time>2025-01-26T09:35:01.000Z</time>
      </trkpt>
      <trkpt lat="43.99164" lon="4.46002">
        <ele>104.8</ele>
        <time>2025-01-26T09:35:03.000Z</time>
      </trkpt>
      <trkpt lat="43.9917" lon="4.46006">
        <ele>105.4</ele>
        <time>2025-01-26T09:35:06.000Z</time>
      </trkpt>
      <trkpt lat="43.99171" lon="4.46007">
        <ele>105.4</ele>
        <time>2025-01-26T09:35:07.000Z</time>
      </trkpt>
      <trkpt lat="43.99181" lon="4.46009">
        <ele>105.6</ele>
        <time>2025-01-26T09:35:12.000Z</time>
      </trkpt>
      <trkpt lat="43.99183" lon="4.4601">
        <ele>105.6</ele>
        <time>2025-01-26T09:35:13.000Z</time>
      </trkpt>
      <trkpt lat="43.99189" lon="4.46013">
        <ele>106.2</ele>
        <time>2025-01-26T09:35:17.000Z</time>
      </trkpt>
      <trkpt lat="43.99192" lon="4.46014">
        <ele>106.4</ele>
        <time>2025-01-26T09:35:19.000Z</time>
      </trkpt>
      <trkpt lat="43.99197" lon="4.46015">
        <ele>106.6</ele>
        <time>2025-01-26T09:35:22.000Z</time>
      </trkpt>
      <trkpt lat="43.99198" lon="4.46016">
        <ele>106.8</ele>
        <time>2025-01-26T09:35:23.000Z</time>
      </trkpt>
      <trkpt lat="43.99205" lon="4.46021">
        <ele>107.4</ele>
        <time>2025-01-26T09:35:27.000Z</time>
      </trkpt>
      <trkpt lat="43.99209" lon="4.46023">
        <ele>107.6</ele>
        <time>2025-01-26T09:35:29.000Z</time>
      </trkpt>
      <trkpt lat="43.99212" lon="4.46025">
        <ele>107.8</ele>
        <time>2025-01-26T09:35:30.000Z</time>
      </trkpt>
      <trkpt lat="43.99219" lon="4.46029">
        <ele>108</ele>
        <time>2025-01-26T09:35:33.000Z</time>
      </trkpt>
      <trkpt lat="43.99224" lon="4.46032">
        <ele>108.2</ele>
        <time>2025-01-26T09:35:35.000Z</time>
      </trkpt>
      <trkpt lat="43.99229" lon="4.46037">
        <ele>108.2</ele>
        <time>2025-01-26T09:35:38.000Z</time>
      </trkpt>
      <trkpt lat="43.99232" lon="4.4604">
        <ele>108.2</ele>
        <time>2025-01-26T09:35:40.000Z</time>
      </trkpt>
      <trkpt lat="43.99237" lon="4.46045">
        <ele>108.2</ele>
        <time>2025-01-26T09:35:43.000Z</time>
      </trkpt>
      <trkpt lat="43.99241" lon="4.46048">
        <ele>108.4</ele>
        <time>2025-01-26T09:35:46.000Z</time>
      </trkpt>
      <trkpt lat="43.99244" lon="4.46049">
        <ele>108.6</ele>
        <time>2025-01-26T09:35:48.000Z</time>
      </trkpt>
      <trkpt lat="43.99251" lon="4.46053">
        <ele>108.6</ele>
        <time>2025-01-26T09:35:52.000Z</time>
      </trkpt>
      <trkpt lat="43.99253" lon="4.46054">
        <ele>108.8</ele>
        <time>2025-01-26T09:35:53.000Z</time>
      </trkpt>
      <trkpt lat="43.9926" lon="4.46059">
        <ele>109.6</ele>
        <time>2025-01-26T09:35:57.000Z</time>
      </trkpt>
      <trkpt lat="43.99262" lon="4.46061">
        <ele>109.8</ele>
        <time>2025-01-26T09:35:58.000Z</time>
      </trkpt>
      <trkpt lat="43.99268" lon="4.46065">
        <ele>110</ele>
        <time>2025-01-26T09:36:01.000Z</time>
      </trkpt>
      <trkpt lat="43.99272" lon="4.46066">
        <ele>110.2</ele>
        <time>2025-01-26T09:36:03.000Z</time>
      </trkpt>
      <trkpt lat="43.99277" lon="4.4607">
        <ele>110.4</ele>
        <time>2025-01-26T09:36:06.000Z</time>
      </trkpt>
      <trkpt lat="43.9928" lon="4.46072">
        <ele>110.4</ele>
        <time>2025-01-26T09:36:08.000Z</time>
      </trkpt>
      <trkpt lat="43.99285" lon="4.46075">
        <ele>110.8</ele>
        <time>2025-01-26T09:36:11.000Z</time>
      </trkpt>
      <trkpt lat="43.99287" lon="4.46077">
        <ele>111</ele>
        <time>2025-01-26T09:36:12.000Z</time>
      </trkpt>
      <trkpt lat="43.99291" lon="4.46085">
        <ele>111.2</ele>
        <time>2025-01-26T09:36:16.000Z</time>
      </trkpt>
      <trkpt lat="43.99292" lon="4.46087">
        <ele>111.2</ele>
        <time>2025-01-26T09:36:17.000Z</time>
      </trkpt>
      <trkpt lat="43.99294" lon="4.46091">
        <ele>111.2</ele>
        <time>2025-01-26T09:36:19.000Z</time>
      </trkpt>
      <trkpt lat="43.99294" lon="4.46094">
        <ele>111.4</ele>
        <time>2025-01-26T09:36:22.000Z</time>
      </trkpt>
      <trkpt lat="43.99293" lon="4.46104">
        <ele>111.8</ele>
        <time>2025-01-26T09:36:26.000Z</time>
      </trkpt>
      <trkpt lat="43.99293" lon="4.46105">
        <ele>111.8</ele>
        <time>2025-01-26T09:36:27.000Z</time>
      </trkpt>
      <trkpt lat="43.99293" lon="4.46106">
        <ele>112</ele>
        <time>2025-01-26T09:36:28.000Z</time>
      </trkpt>
      <trkpt lat="43.99294" lon="4.46112">
        <ele>112.2</ele>
        <time>2025-01-26T09:36:32.000Z</time>
      </trkpt>
      <trkpt lat="43.99295" lon="4.46116">
        <ele>112.4</ele>
        <time>2025-01-26T09:36:34.000Z</time>
      </trkpt>
      <trkpt lat="43.99301" lon="4.46122">
        <ele>112.6</ele>
        <time>2025-01-26T09:36:39.000Z</time>
      </trkpt>
      <trkpt lat="43.99302" lon="4.46123">
        <ele>112.6</ele>
        <time>2025-01-26T09:36:40.000Z</time>
      </trkpt>
      <trkpt lat="43.99303" lon="4.46125">
        <ele>113</ele>
        <time>2025-01-26T09:36:42.000Z</time>
      </trkpt>
      <trkpt lat="43.99308" lon="4.46128">
        <ele>113.4</ele>
        <time>2025-01-26T09:36:48.000Z</time>
      </trkpt>
      <trkpt lat="43.99315" lon="4.46129">
        <ele>113.6</ele>
        <time>2025-01-26T09:36:52.000Z</time>
      </trkpt>
      <trkpt lat="43.99319" lon="4.46128">
        <ele>113.6</ele>
        <time>2025-01-26T09:36:54.000Z</time>
      </trkpt>
      <trkpt lat="43.99326" lon="4.46125">
        <ele>113.6</ele>
        <time>2025-01-26T09:36:57.000Z</time>
      </trkpt>
      <trkpt lat="43.99331" lon="4.46125">
        <ele>113.8</ele>
        <time>2025-01-26T09:36:59.000Z</time>
      </trkpt>
      <trkpt lat="43.99338" lon="4.46121">
        <ele>114</ele>
        <time>2025-01-26T09:37:04.000Z</time>
      </trkpt>
      <trkpt lat="43.99345" lon="4.46113">
        <ele>115.4</ele>
        <time>2025-01-26T09:37:08.000Z</time>
      </trkpt>
      <trkpt lat="43.99348" lon="4.46107">
        <ele>116.2</ele>
        <time>2025-01-26T09:37:11.000Z</time>
      </trkpt>
      <trkpt lat="43.99358" lon="4.46096">
        <ele>116.4</ele>
        <time>2025-01-26T09:37:17.000Z</time>
      </trkpt>
      <trkpt lat="43.99363" lon="4.46091">
        <ele>116.4</ele>
        <time>2025-01-26T09:37:20.000Z</time>
      </trkpt>
      <trkpt lat="43.99367" lon="4.46087">
        <ele>116.4</ele>
        <time>2025-01-26T09:37:23.000Z</time>
      </trkpt>
      <trkpt lat="43.99368" lon="4.46076">
        <ele>116.4</ele>
        <time>2025-01-26T09:37:27.000Z</time>
      </trkpt>
      <trkpt lat="43.99369" lon="4.46074">
        <ele>116.6</ele>
        <time>2025-01-26T09:37:28.000Z</time>
      </trkpt>
      <trkpt lat="43.9937" lon="4.46066">
        <ele>117</ele>
        <time>2025-01-26T09:37:31.000Z</time>
      </trkpt>
      <trkpt lat="43.99373" lon="4.46056">
        <ele>117.2</ele>
        <time>2025-01-26T09:37:35.000Z</time>
      </trkpt>
      <trkpt lat="43.99375" lon="4.4605">
        <ele>117.4</ele>
        <time>2025-01-26T09:37:37.000Z</time>
      </trkpt>
      <trkpt lat="43.99377" lon="4.4604">
        <ele>118</ele>
        <time>2025-01-26T09:37:41.000Z</time>
      </trkpt>
      <trkpt lat="43.99383" lon="4.46032">
        <ele>118.4</ele>
        <time>2025-01-26T09:37:45.000Z</time>
      </trkpt>
      <trkpt lat="43.99387" lon="4.46031">
        <ele>118.8</ele>
        <time>2025-01-26T09:37:48.000Z</time>
      </trkpt>
      <trkpt lat="43.9939" lon="4.46031">
        <ele>119</ele>
        <time>2025-01-26T09:37:50.000Z</time>
      </trkpt>
      <trkpt lat="43.99395" lon="4.4603">
        <ele>119.4</ele>
        <time>2025-01-26T09:37:53.000Z</time>
      </trkpt>
      <trkpt lat="43.99396" lon="4.46029">
        <ele>119.4</ele>
        <time>2025-01-26T09:37:54.000Z</time>
      </trkpt>
      <trkpt lat="43.99399" lon="4.46027">
        <ele>119.6</ele>
        <time>2025-01-26T09:37:55.000Z</time>
      </trkpt>
      <trkpt lat="43.99408" lon="4.46022">
        <ele>120</ele>
        <time>2025-01-26T09:37:59.000Z</time>
      </trkpt>
      <trkpt lat="43.99414" lon="4.46018">
        <ele>120.6</ele>
        <time>2025-01-26T09:38:02.000Z</time>
      </trkpt>
      <trkpt lat="43.99415" lon="4.46016">
        <ele>120.6</ele>
        <time>2025-01-26T09:38:03.000Z</time>
      </trkpt>
      <trkpt lat="43.99429" lon="4.46002">
        <ele>121.4</ele>
        <time>2025-01-26T09:38:10.000Z</time>
      </trkpt>
      <trkpt lat="43.99431" lon="4.46001">
        <ele>121.6</ele>
        <time>2025-01-26T09:38:11.000Z</time>
      </trkpt>
      <trkpt lat="43.99437" lon="4.45997">
        <ele>122</ele>
        <time>2025-01-26T09:38:15.000Z</time>
      </trkpt>
      <trkpt lat="43.99444" lon="4.4599">
        <ele>122.4</ele>
        <time>2025-01-26T09:38:20.000Z</time>
      </trkpt>
      <trkpt lat="43.99447" lon="4.45987">
        <ele>122.8</ele>
        <time>2025-01-26T09:38:22.000Z</time>
      </trkpt>
      <trkpt lat="43.99453" lon="4.45983">
        <ele>123.6</ele>
        <time>2025-01-26T09:38:26.000Z</time>
      </trkpt>
      <trkpt lat="43.99464" lon="4.45982">
        <ele>123.6</ele>
        <time>2025-01-26T09:38:31.000Z</time>
      </trkpt>
      <trkpt lat="43.99469" lon="4.4598">
        <ele>123.8</ele>
        <time>2025-01-26T09:38:33.000Z</time>
      </trkpt>
      <trkpt lat="43.99475" lon="4.45978">
        <ele>123.8</ele>
        <time>2025-01-26T09:38:36.000Z</time>
      </trkpt>
      <trkpt lat="43.99485" lon="4.4598">
        <ele>123.8</ele>
        <time>2025-01-26T09:38:41.000Z</time>
      </trkpt>
      <trkpt lat="43.99487" lon="4.45978">
        <ele>124.2</ele>
        <time>2025-01-26T09:38:43.000Z</time>
      </trkpt>
      <trkpt lat="43.9949" lon="4.45976">
        <ele>124.6</ele>
        <time>2025-01-26T09:38:45.000Z</time>
      </trkpt>
      <trkpt lat="43.99491" lon="4.45975">
        <ele>125</ele>
        <time>2025-01-26T09:38:46.000Z</time>
      </trkpt>
      <trkpt lat="43.99492" lon="4.45975">
        <ele>125.4</ele>
        <time>2025-01-26T09:38:47.000Z</time>
      </trkpt>
      <trkpt lat="43.99494" lon="4.45975">
        <ele>125.8</ele>
        <time>2025-01-26T09:38:49.000Z</time>
      </trkpt>
      <trkpt lat="43.99499" lon="4.45976">
        <ele>126</ele>
        <time>2025-01-26T09:38:52.000Z</time>
      </trkpt>
      <trkpt lat="43.99508" lon="4.45979">
        <ele>126.6</ele>
        <time>2025-01-26T09:38:58.000Z</time>
      </trkpt>
      <trkpt lat="43.99513" lon="4.45979">
        <ele>127</ele>
        <time>2025-01-26T09:39:01.000Z</time>
      </trkpt>
      <trkpt lat="43.99517" lon="4.45979">
        <ele>127.2</ele>
        <time>2025-01-26T09:39:04.000Z</time>
      </trkpt>
      <trkpt lat="43.99519" lon="4.45979">
        <ele>127.2</ele>
        <time>2025-01-26T09:39:05.000Z</time>
      </trkpt>
      <trkpt lat="43.99523" lon="4.45978">
        <ele>127.4</ele>
        <time>2025-01-26T09:39:09.000Z</time>
      </trkpt>
      <trkpt lat="43.99533" lon="4.45976">
        <ele>128.4</ele>
        <time>2025-01-26T09:39:15.000Z</time>
      </trkpt>
      <trkpt lat="43.99535" lon="4.45977">
        <ele>128.6</ele>
        <time>2025-01-26T09:39:16.000Z</time>
      </trkpt>
      <trkpt lat="43.99541" lon="4.45977">
        <ele>129.4</ele>
        <time>2025-01-26T09:39:20.000Z</time>
      </trkpt>
      <trkpt lat="43.99545" lon="4.45977">
        <ele>129.8</ele>
        <time>2025-01-26T09:39:22.000Z</time>
      </trkpt>
      <trkpt lat="43.9955" lon="4.45978">
        <ele>130.6</ele>
        <time>2025-01-26T09:39:25.000Z</time>
      </trkpt>
      <trkpt lat="43.99558" lon="4.45979">
        <ele>131.4</ele>
        <time>2025-01-26T09:39:29.000Z</time>
      </trkpt>
      <trkpt lat="43.99568" lon="4.45978">
        <ele>131.6</ele>
        <time>2025-01-26T09:39:34.000Z</time>
      </trkpt>
      <trkpt lat="43.99576" lon="4.45978">
        <ele>131.8</ele>
        <time>2025-01-26T09:39:38.000Z</time>
      </trkpt>
      <trkpt lat="43.99577" lon="4.45978">
        <ele>132</ele>
        <time>2025-01-26T09:39:39.000Z</time>
      </trkpt>
      <trkpt lat="43.99592" lon="4.45973">
        <ele>132.6</ele>
        <time>2025-01-26T09:39:46.000Z</time>
      </trkpt>
      <trkpt lat="43.99597" lon="4.45972">
        <ele>133</ele>
        <time>2025-01-26T09:39:49.000Z</time>
      </trkpt>
      <trkpt lat="43.99602" lon="4.45971">
        <ele>133.2</ele>
        <time>2025-01-26T09:39:52.000Z</time>
      </trkpt>
      <trkpt lat="43.99604" lon="4.45971">
        <ele>133.2</ele>
        <time>2025-01-26T09:39:53.000Z</time>
      </trkpt>
      <trkpt lat="43.99612" lon="4.4597">
        <ele>133.4</ele>
        <time>2025-01-26T09:39:57.000Z</time>
      </trkpt>
      <trkpt lat="43.99614" lon="4.4597">
        <ele>133.4</ele>
        <time>2025-01-26T09:39:58.000Z</time>
      </trkpt>
      <trkpt lat="43.99622" lon="4.45973">
        <ele>133.8</ele>
        <time>2025-01-26T09:40:02.000Z</time>
      </trkpt>
      <trkpt lat="43.99629" lon="4.45973">
        <ele>134</ele>
        <time>2025-01-26T09:40:05.000Z</time>
      </trkpt>
      <trkpt lat="43.99635" lon="4.45977">
        <ele>134.6</ele>
        <time>2025-01-26T09:40:10.000Z</time>
      </trkpt>
      <trkpt lat="43.99636" lon="4.45978">
        <ele>134.8</ele>
        <time>2025-01-26T09:40:11.000Z</time>
      </trkpt>
      <trkpt lat="43.99644" lon="4.45982">
        <ele>135.8</ele>
        <time>2025-01-26T09:40:15.000Z</time>
      </trkpt>
      <trkpt lat="43.99645" lon="4.45983">
        <ele>136</ele>
        <time>2025-01-26T09:40:16.000Z</time>
      </trkpt>
      <trkpt lat="43.99652" lon="4.45987">
        <ele>136.4</ele>
        <time>2025-01-26T09:40:21.000Z</time>
      </trkpt>
      <trkpt lat="43.99652" lon="4.45989">
        <ele>136.6</ele>
        <time>2025-01-26T09:40:22.000Z</time>
      </trkpt>
      <trkpt lat="43.99656" lon="4.45996">
        <ele>137</ele>
        <time>2025-01-26T09:40:26.000Z</time>
      </trkpt>
      <trkpt lat="43.99663" lon="4.46004">
        <ele>137</ele>
        <time>2025-01-26T09:40:30.000Z</time>
      </trkpt>
      <trkpt lat="43.99663" lon="4.46006">
        <ele>137.2</ele>
        <time>2025-01-26T09:40:31.000Z</time>
      </trkpt>
      <trkpt lat="43.99664" lon="4.46013">
        <ele>137.2</ele>
        <time>2025-01-26T09:40:34.000Z</time>
      </trkpt>
      <trkpt lat="43.99665" lon="4.46015">
        <ele>137.2</ele>
        <time>2025-01-26T09:40:35.000Z</time>
      </trkpt>
      <trkpt lat="43.99666" lon="4.46031">
        <ele>138</ele>
        <time>2025-01-26T09:40:41.000Z</time>
      </trkpt>
      <trkpt lat="43.99668" lon="4.46051">
        <ele>139.2</ele>
        <time>2025-01-26T09:40:48.000Z</time>
      </trkpt>
      <trkpt lat="43.99672" lon="4.46063">
        <ele>140.2</ele>
        <time>2025-01-26T09:40:54.000Z</time>
      </trkpt>
      <trkpt lat="43.99673" lon="4.46065">
        <ele>140.4</ele>
        <time>2025-01-26T09:40:55.000Z</time>
      </trkpt>
      <trkpt lat="43.99674" lon="4.46067">
        <ele>140.4</ele>
        <time>2025-01-26T09:40:56.000Z</time>
      </trkpt>
      <trkpt lat="43.99677" lon="4.46075">
        <ele>140.8</ele>
        <time>2025-01-26T09:40:59.000Z</time>
      </trkpt>
      <trkpt lat="43.99687" lon="4.46083">
        <ele>141.6</ele>
        <time>2025-01-26T09:41:06.000Z</time>
      </trkpt>
      <trkpt lat="43.99688" lon="4.46082">
        <ele>142</ele>
        <time>2025-01-26T09:41:07.000Z</time>
      </trkpt>
      <trkpt lat="43.99691" lon="4.4608">
        <ele>142.6</ele>
        <time>2025-01-26T09:41:09.000Z</time>
      </trkpt>
      <trkpt lat="43.99697" lon="4.46072">
        <ele>143.6</ele>
        <time>2025-01-26T09:41:14.000Z</time>
      </trkpt>
      <trkpt lat="43.99698" lon="4.46072">
        <ele>143.6</ele>
        <time>2025-01-26T09:41:15.000Z</time>
      </trkpt>
      <trkpt lat="43.99704" lon="4.4607">
        <ele>143.8</ele>
        <time>2025-01-26T09:41:18.000Z</time>
      </trkpt>
      <trkpt lat="43.99706" lon="4.46068">
        <ele>143.8</ele>
        <time>2025-01-26T09:41:19.000Z</time>
      </trkpt>
      <trkpt lat="43.99713" lon="4.46065">
        <ele>143.8</ele>
        <time>2025-01-26T09:41:23.000Z</time>
      </trkpt>
      <trkpt lat="43.99726" lon="4.46062">
        <ele>144.6</ele>
        <time>2025-01-26T09:41:30.000Z</time>
      </trkpt>
      <trkpt lat="43.99729" lon="4.46063">
        <ele>145</ele>
        <time>2025-01-26T09:41:32.000Z</time>
      </trkpt>
      <trkpt lat="43.99734" lon="4.46064">
        <ele>145.4</ele>
        <time>2025-01-26T09:41:36.000Z</time>
      </trkpt>
      <trkpt lat="43.99736" lon="4.46064">
        <ele>145.6</ele>
        <time>2025-01-26T09:41:37.000Z</time>
      </trkpt>
      <trkpt lat="43.99743" lon="4.46063">
        <ele>146</ele>
        <time>2025-01-26T09:41:41.000Z</time>
      </trkpt>
      <trkpt lat="43.99746" lon="4.46064">
        <ele>146.2</ele>
        <time>2025-01-26T09:41:42.000Z</time>
      </trkpt>
      <trkpt lat="43.99755" lon="4.46071">
        <ele>146.4</ele>
        <time>2025-01-26T09:41:47.000Z</time>
      </trkpt>
      <trkpt lat="43.99765" lon="4.46081">
        <ele>147</ele>
        <time>2025-01-26T09:41:52.000Z</time>
      </trkpt>
      <trkpt lat="43.99768" lon="4.46082">
        <ele>147</ele>
        <time>2025-01-26T09:41:53.000Z</time>
      </trkpt>
      <trkpt lat="43.99776" lon="4.46085">
        <ele>147.2</ele>
        <time>2025-01-26T09:41:56.000Z</time>
      </trkpt>
      <trkpt lat="43.9979" lon="4.4609">
        <ele>148</ele>
        <time>2025-01-26T09:42:02.000Z</time>
      </trkpt>
      <trkpt lat="43.99793" lon="4.46091">
        <ele>148.2</ele>
        <time>2025-01-26T09:42:03.000Z</time>
      </trkpt>
      <trkpt lat="43.99804" lon="4.46097">
        <ele>149.4</ele>
        <time>2025-01-26T09:42:08.000Z</time>
      </trkpt>
      <trkpt lat="43.99815" lon="4.461">
        <ele>150.4</ele>
        <time>2025-01-26T09:42:13.000Z</time>
      </trkpt>
      <trkpt lat="43.99819" lon="4.46102">
        <ele>150.6</ele>
        <time>2025-01-26T09:42:15.000Z</time>
      </trkpt>
      <trkpt lat="43.99829" lon="4.46101">
        <ele>151.4</ele>
        <time>2025-01-26T09:42:21.000Z</time>
      </trkpt>
      <trkpt lat="43.99831" lon="4.46101">
        <ele>151.6</ele>
        <time>2025-01-26T09:42:22.000Z</time>
      </trkpt>
      <trkpt lat="43.99839" lon="4.46101">
        <ele>152.2</ele>
        <time>2025-01-26T09:42:26.000Z</time>
      </trkpt>
      <trkpt lat="43.99843" lon="4.461">
        <ele>152.6</ele>
        <time>2025-01-26T09:42:28.000Z</time>
      </trkpt>
      <trkpt lat="43.99854" lon="4.461">
        <ele>153</ele>
        <time>2025-01-26T09:42:33.000Z</time>
      </trkpt>
      <trkpt lat="43.99856" lon="4.461">
        <ele>153</ele>
        <time>2025-01-26T09:42:34.000Z</time>
      </trkpt>
      <trkpt lat="43.99863" lon="4.461">
        <ele>153.6</ele>
        <time>2025-01-26T09:42:38.000Z</time>
      </trkpt>
      <trkpt lat="43.99865" lon="4.46099">
        <ele>153.8</ele>
        <time>2025-01-26T09:42:39.000Z</time>
      </trkpt>
      <trkpt lat="43.9987" lon="4.46098">
        <ele>155</ele>
        <time>2025-01-26T09:42:42.000Z</time>
      </trkpt>
      <trkpt lat="43.99875" lon="4.461">
        <ele>155.8</ele>
        <time>2025-01-26T09:42:45.000Z</time>
      </trkpt>
      <trkpt lat="43.99883" lon="4.46102">
        <ele>156.2</ele>
        <time>2025-01-26T09:42:48.000Z</time>
      </trkpt>
      <trkpt lat="43.99885" lon="4.46101">
        <ele>156.4</ele>
        <time>2025-01-26T09:42:49.000Z</time>
      </trkpt>
      <trkpt lat="43.99895" lon="4.46101">
        <ele>156.8</ele>
        <time>2025-01-26T09:42:54.000Z</time>
      </trkpt>
      <trkpt lat="43.99899" lon="4.461">
        <ele>157.2</ele>
        <time>2025-01-26T09:42:56.000Z</time>
      </trkpt>
      <trkpt lat="43.99903" lon="4.461">
        <ele>157.6</ele>
        <time>2025-01-26T09:42:58.000Z</time>
      </trkpt>
      <trkpt lat="43.99905" lon="4.461">
        <ele>157.8</ele>
        <time>2025-01-26T09:42:59.000Z</time>
      </trkpt>
      <trkpt lat="43.99913" lon="4.461">
        <ele>158.4</ele>
        <time>2025-01-26T09:43:03.000Z</time>
      </trkpt>
      <trkpt lat="43.99917" lon="4.46101">
        <ele>158.8</ele>
        <time>2025-01-26T09:43:05.000Z</time>
      </trkpt>
      <trkpt lat="43.99918" lon="4.46101">
        <ele>159.4</ele>
        <time>2025-01-26T09:43:06.000Z</time>
      </trkpt>
      <trkpt lat="43.99926" lon="4.461">
        <ele>160</ele>
        <time>2025-01-26T09:43:10.000Z</time>
      </trkpt>
      <trkpt lat="43.99934" lon="4.46102">
        <ele>160.4</ele>
        <time>2025-01-26T09:43:14.000Z</time>
      </trkpt>
      <trkpt lat="43.99936" lon="4.46101">
        <ele>160.6</ele>
        <time>2025-01-26T09:43:15.000Z</time>
      </trkpt>
      <trkpt lat="43.99941" lon="4.46099">
        <ele>160.8</ele>
        <time>2025-01-26T09:43:17.000Z</time>
      </trkpt>
      <trkpt lat="43.99948" lon="4.46097">
        <ele>161.4</ele>
        <time>2025-01-26T09:43:21.000Z</time>
      </trkpt>
      <trkpt lat="43.9995" lon="4.46096">
        <ele>161.6</ele>
        <time>2025-01-26T09:43:22.000Z</time>
      </trkpt>
      <trkpt lat="43.99961" lon="4.46095">
        <ele>162.2</ele>
        <time>2025-01-26T09:43:27.000Z</time>
      </trkpt>
      <trkpt lat="43.99971" lon="4.46095">
        <ele>162.4</ele>
        <time>2025-01-26T09:43:32.000Z</time>
      </trkpt>
      <trkpt lat="43.99975" lon="4.46097">
        <ele>162.6</ele>
        <time>2025-01-26T09:43:34.000Z</time>
      </trkpt>
      <trkpt lat="43.99977" lon="4.46097">
        <ele>163.2</ele>
        <time>2025-01-26T09:43:35.000Z</time>
      </trkpt>
      <trkpt lat="43.99978" lon="4.46098">
        <ele>163.8</ele>
        <time>2025-01-26T09:43:36.000Z</time>
      </trkpt>
      <trkpt lat="43.9998" lon="4.46098">
        <ele>164</ele>
        <time>2025-01-26T09:43:37.000Z</time>
      </trkpt>
      <trkpt lat="43.99985" lon="4.46097">
        <ele>164.8</ele>
        <time>2025-01-26T09:43:39.000Z</time>
      </trkpt>
      <trkpt lat="43.99994" lon="4.46094">
        <ele>166</ele>
        <time>2025-01-26T09:43:43.000Z</time>
      </trkpt>
      <trkpt lat="43.99995" lon="4.46093">
        <ele>166.2</ele>
        <time>2025-01-26T09:43:44.000Z</time>
      </trkpt>
      <trkpt lat="44.00003" lon="4.46096">
        <ele>166.6</ele>
        <time>2025-01-26T09:43:48.000Z</time>
      </trkpt>
      <trkpt lat="44.00005" lon="4.46097">
        <ele>167</ele>
        <time>2025-01-26T09:43:49.000Z</time>
      </trkpt>
      <trkpt lat="44.00012" lon="4.46098">
        <ele>167.6</ele>
        <time>2025-01-26T09:43:54.000Z</time>
      </trkpt>
      <trkpt lat="44.00015" lon="4.46099">
        <ele>168</ele>
        <time>2025-01-26T09:43:55.000Z</time>
      </trkpt>
      <trkpt lat="44.00021" lon="4.46103">
        <ele>169</ele>
        <time>2025-01-26T09:43:59.000Z</time>
      </trkpt>
      <trkpt lat="44.00023" lon="4.46104">
        <ele>169</ele>
        <time>2025-01-26T09:44:00.000Z</time>
      </trkpt>
      <trkpt lat="44.00025" lon="4.46105">
        <ele>169</ele>
        <time>2025-01-26T09:44:01.000Z</time>
      </trkpt>
      <trkpt lat="44.0003" lon="4.4611">
        <ele>169.6</ele>
        <time>2025-01-26T09:44:04.000Z</time>
      </trkpt>
      <trkpt lat="44.00032" lon="4.46112">
        <ele>170.2</ele>
        <time>2025-01-26T09:44:05.000Z</time>
      </trkpt>
      <trkpt lat="44.00041" lon="4.46116">
        <ele>171</ele>
        <time>2025-01-26T09:44:09.000Z</time>
      </trkpt>
      <trkpt lat="44.00048" lon="4.4612">
        <ele>171.2</ele>
        <time>2025-01-26T09:44:14.000Z</time>
      </trkpt>
      <trkpt lat="44.0005" lon="4.46121">
        <ele>171.6</ele>
        <time>2025-01-26T09:44:15.000Z</time>
      </trkpt>
      <trkpt lat="44.00054" lon="4.46124">
        <ele>171.6</ele>
        <time>2025-01-26T09:44:17.000Z</time>
      </trkpt>
      <trkpt lat="44.00058" lon="4.46131">
        <ele>172</ele>
        <time>2025-01-26T09:44:21.000Z</time>
      </trkpt>
      <trkpt lat="44.00067" lon="4.46138">
        <ele>172.4</ele>
        <time>2025-01-26T09:44:26.000Z</time>
      </trkpt>
      <trkpt lat="44.00068" lon="4.46139">
        <ele>172.4</ele>
        <time>2025-01-26T09:44:27.000Z</time>
      </trkpt>
      <trkpt lat="44.0007" lon="4.46142">
        <ele>172.6</ele>
        <time>2025-01-26T09:44:29.000Z</time>
      </trkpt>
      <trkpt lat="44.00071" lon="4.46144">
        <ele>172.6</ele>
        <time>2025-01-26T09:44:30.000Z</time>
      </trkpt>
      <trkpt lat="44.00072" lon="4.46145">
        <ele>172.6</ele>
        <time>2025-01-26T09:44:31.000Z</time>
      </trkpt>
      <trkpt lat="44.00077" lon="4.46148">
        <ele>173.6</ele>
        <time>2025-01-26T09:44:35.000Z</time>
      </trkpt>
      <trkpt lat="44.00079" lon="4.4615">
        <ele>174.2</ele>
        <time>2025-01-26T09:44:37.000Z</time>
      </trkpt>
      <trkpt lat="44.00084" lon="4.46153">
        <ele>174.4</ele>
        <time>2025-01-26T09:44:40.000Z</time>
      </trkpt>
      <trkpt lat="44.00088" lon="4.46155">
        <ele>174.4</ele>
        <time>2025-01-26T09:44:42.000Z</time>
      </trkpt>
      <trkpt lat="44.00094" lon="4.46164">
        <ele>174.6</ele>
        <time>2025-01-26T09:44:47.000Z</time>
      </trkpt>
      <trkpt lat="44.00099" lon="4.4617">
        <ele>174.8</ele>
        <time>2025-01-26T09:44:50.000Z</time>
      </trkpt>
      <trkpt lat="44.00101" lon="4.46176">
        <ele>175</ele>
        <time>2025-01-26T09:44:52.000Z</time>
      </trkpt>
      <trkpt lat="44.00101" lon="4.46198">
        <ele>175.4</ele>
        <time>2025-01-26T09:45:00.000Z</time>
      </trkpt>
      <trkpt lat="44.00096" lon="4.46226">
        <ele>175.8</ele>
        <time>2025-01-26T09:45:08.000Z</time>
      </trkpt>
      <trkpt lat="44.00087" lon="4.46256">
        <ele>176.4</ele>
        <time>2025-01-26T09:45:17.000Z</time>
      </trkpt>
      <trkpt lat="44.00076" lon="4.46281">
        <ele>177</ele>
        <time>2025-01-26T09:45:25.000Z</time>
      </trkpt>
      <trkpt lat="44.00074" lon="4.46285">
        <ele>177.2</ele>
        <time>2025-01-26T09:45:26.000Z</time>
      </trkpt>
      <trkpt lat="44.00065" lon="4.46301">
        <ele>178.2</ele>
        <time>2025-01-26T09:45:31.000Z</time>
      </trkpt>
      <trkpt lat="44.0006" lon="4.4631">
        <ele>178.2</ele>
        <time>2025-01-26T09:45:34.000Z</time>
      </trkpt>
      <trkpt lat="44.0005" lon="4.46341">
        <ele>178.8</ele>
        <time>2025-01-26T09:45:43.000Z</time>
      </trkpt>
      <trkpt lat="44.00047" lon="4.46353">
        <ele>179.2</ele>
        <time>2025-01-26T09:45:46.000Z</time>
      </trkpt>
      <trkpt lat="44.00045" lon="4.46369">
        <ele>180</ele>
        <time>2025-01-26T09:45:50.000Z</time>
      </trkpt>
      <trkpt lat="44.00038" lon="4.46393">
        <ele>180.4</ele>
        <time>2025-01-26T09:45:56.000Z</time>
      </trkpt>
      <trkpt lat="44.00037" lon="4.46397">
        <ele>180.6</ele>
        <time>2025-01-26T09:45:57.000Z</time>
      </trkpt>
      <trkpt lat="44.00022" lon="4.46418">
        <ele>181.2</ele>
        <time>2025-01-26T09:46:03.000Z</time>
      </trkpt>
      <trkpt lat="43.99998" lon="4.46448">
        <ele>181.4</ele>
        <time>2025-01-26T09:46:11.000Z</time>
      </trkpt>
      <trkpt lat="43.99992" lon="4.46458">
        <ele>181.4</ele>
        <time>2025-01-26T09:46:13.000Z</time>
      </trkpt>
      <trkpt lat="43.99979" lon="4.46479">
        <ele>181.2</ele>
        <time>2025-01-26T09:46:17.000Z</time>
      </trkpt>
      <trkpt lat="43.99963" lon="4.465">
        <ele>180.8</ele>
        <time>2025-01-26T09:46:21.000Z</time>
      </trkpt>
      <trkpt lat="43.99954" lon="4.46508">
        <ele>180.4</ele>
        <time>2025-01-26T09:46:23.000Z</time>
      </trkpt>
      <trkpt lat="43.99943" lon="4.46518">
        <ele>180.2</ele>
        <time>2025-01-26T09:46:26.000Z</time>
      </trkpt>
      <trkpt lat="43.99936" lon="4.46525">
        <ele>180.2</ele>
        <time>2025-01-26T09:46:28.000Z</time>
      </trkpt>
      <trkpt lat="43.99922" lon="4.46555">
        <ele>180.8</ele>
        <time>2025-01-26T09:46:35.000Z</time>
      </trkpt>
      <trkpt lat="43.99917" lon="4.46563">
        <ele>181.6</ele>
        <time>2025-01-26T09:46:37.000Z</time>
      </trkpt>
      <trkpt lat="43.99909" lon="4.4658">
        <ele>182.2</ele>
        <time>2025-01-26T09:46:41.000Z</time>
      </trkpt>
      <trkpt lat="43.99906" lon="4.46587">
        <ele>182.6</ele>
        <time>2025-01-26T09:46:43.000Z</time>
      </trkpt>
      <trkpt lat="43.99904" lon="4.46598">
        <ele>182.8</ele>
        <time>2025-01-26T09:46:46.000Z</time>
      </trkpt>
      <trkpt lat="43.99902" lon="4.4661">
        <ele>184.2</ele>
        <time>2025-01-26T09:46:50.000Z</time>
      </trkpt>
      <trkpt lat="43.99901" lon="4.46618">
        <ele>185.4</ele>
        <time>2025-01-26T09:46:53.000Z</time>
      </trkpt>
      <trkpt lat="43.999" lon="4.4663">
        <ele>186.6</ele>
        <time>2025-01-26T09:46:57.000Z</time>
      </trkpt>
      <trkpt lat="43.99898" lon="4.46638">
        <ele>187.6</ele>
        <time>2025-01-26T09:47:00.000Z</time>
      </trkpt>
      <trkpt lat="43.99896" lon="4.46643">
        <ele>188</ele>
        <time>2025-01-26T09:47:02.000Z</time>
      </trkpt>
      <trkpt lat="43.9989" lon="4.46654">
        <ele>188.6</ele>
        <time>2025-01-26T09:47:07.000Z</time>
      </trkpt>
      <trkpt lat="43.99888" lon="4.46659">
        <ele>189.2</ele>
        <time>2025-01-26T09:47:09.000Z</time>
      </trkpt>
      <trkpt lat="43.99887" lon="4.46667">
        <ele>189.8</ele>
        <time>2025-01-26T09:47:12.000Z</time>
      </trkpt>
      <trkpt lat="43.99887" lon="4.46676">
        <ele>190.2</ele>
        <time>2025-01-26T09:47:16.000Z</time>
      </trkpt>
      <trkpt lat="43.99892" lon="4.46687">
        <ele>190.8</ele>
        <time>2025-01-26T09:47:21.000Z</time>
      </trkpt>
      <trkpt lat="43.99895" lon="4.4669">
        <ele>191.2</ele>
        <time>2025-01-26T09:47:23.000Z</time>
      </trkpt>
      <trkpt lat="43.99902" lon="4.46695">
        <ele>192</ele>
        <time>2025-01-26T09:47:27.000Z</time>
      </trkpt>
      <trkpt lat="43.99906" lon="4.46697">
        <ele>192.6</ele>
        <time>2025-01-26T09:47:29.000Z</time>
      </trkpt>
      <trkpt lat="43.99912" lon="4.467">
        <ele>193.2</ele>
        <time>2025-01-26T09:47:32.000Z</time>
      </trkpt>
      <trkpt lat="43.9992" lon="4.46705">
        <ele>193.8</ele>
        <time>2025-01-26T09:47:36.000Z</time>
      </trkpt>
      <trkpt lat="43.99929" lon="4.46711">
        <ele>194.4</ele>
        <time>2025-01-26T09:47:41.000Z</time>
      </trkpt>
      <trkpt lat="43.99933" lon="4.46713">
        <ele>194.6</ele>
        <time>2025-01-26T09:47:43.000Z</time>
      </trkpt>
      <trkpt lat="43.99946" lon="4.46719">
        <ele>195.4</ele>
        <time>2025-01-26T09:47:49.000Z</time>
      </trkpt>
      <trkpt lat="43.99952" lon="4.46721">
        <ele>195.8</ele>
        <time>2025-01-26T09:47:52.000Z</time>
      </trkpt>
      <trkpt lat="43.99965" lon="4.46726">
        <ele>196.6</ele>
        <time>2025-01-26T09:47:58.000Z</time>
      </trkpt>
      <trkpt lat="43.99969" lon="4.46729">
        <ele>196.8</ele>
        <time>2025-01-26T09:48:00.000Z</time>
      </trkpt>
      <trkpt lat="43.99984" lon="4.46734">
        <ele>197.6</ele>
        <time>2025-01-26T09:48:07.000Z</time>
      </trkpt>
      <trkpt lat="43.99992" lon="4.46736">
        <ele>198</ele>
        <time>2025-01-26T09:48:11.000Z</time>
      </trkpt>
      <trkpt lat="44.00009" lon="4.4674">
        <ele>198.6</ele>
        <time>2025-01-26T09:48:19.000Z</time>
      </trkpt>
      <trkpt lat="44.00011" lon="4.46741">
        <ele>198.6</ele>
        <time>2025-01-26T09:48:20.000Z</time>
      </trkpt>
      <trkpt lat="44.00023" lon="4.46749">
        <ele>199.2</ele>
        <time>2025-01-26T09:48:26.000Z</time>
      </trkpt>
      <trkpt lat="44.00031" lon="4.46754">
        <ele>200</ele>
        <time>2025-01-26T09:48:30.000Z</time>
      </trkpt>
      <trkpt lat="44.00035" lon="4.46756">
        <ele>200.2</ele>
        <time>2025-01-26T09:48:32.000Z</time>
      </trkpt>
      <trkpt lat="44.00045" lon="4.46763">
        <ele>201</ele>
        <time>2025-01-26T09:48:37.000Z</time>
      </trkpt>
      <trkpt lat="44.00051" lon="4.46767">
        <ele>201.2</ele>
        <time>2025-01-26T09:48:40.000Z</time>
      </trkpt>
      <trkpt lat="44.00066" lon="4.46775">
        <ele>201.8</ele>
        <time>2025-01-26T09:48:47.000Z</time>
      </trkpt>
      <trkpt lat="44.0007" lon="4.46778">
        <ele>202</ele>
        <time>2025-01-26T09:48:49.000Z</time>
      </trkpt>
      <trkpt lat="44.00081" lon="4.46786">
        <ele>202.6</ele>
        <time>2025-01-26T09:48:55.000Z</time>
      </trkpt>
      <trkpt lat="44.00097" lon="4.46795">
        <ele>203</ele>
        <time>2025-01-26T09:49:02.000Z</time>
      </trkpt>
      <trkpt lat="44.001" lon="4.46801">
        <ele>203</ele>
        <time>2025-01-26T09:49:04.000Z</time>
      </trkpt>
      <trkpt lat="44.00105" lon="4.46812">
        <ele>203.4</ele>
        <time>2025-01-26T09:49:08.000Z</time>
      </trkpt>
      <trkpt lat="44.00112" lon="4.46831">
        <ele>203.6</ele>
        <time>2025-01-26T09:49:14.000Z</time>
      </trkpt>
      <trkpt lat="44.00116" lon="4.46847">
        <ele>204</ele>
        <time>2025-01-26T09:49:19.000Z</time>
      </trkpt>
      <trkpt lat="44.00127" lon="4.46869">
        <ele>204</ele>
        <time>2025-01-26T09:49:25.000Z</time>
      </trkpt>
      <trkpt lat="44.00139" lon="4.46881">
        <ele>203.8</ele>
        <time>2025-01-26T09:49:30.000Z</time>
      </trkpt>
      <trkpt lat="44.00149" lon="4.46893">
        <ele>203.8</ele>
        <time>2025-01-26T09:49:34.000Z</time>
      </trkpt>
      <trkpt lat="44.00152" lon="4.46895">
        <ele>203.6</ele>
        <time>2025-01-26T09:49:35.000Z</time>
      </trkpt>
      <trkpt lat="44.00168" lon="4.46903">
        <ele>203.6</ele>
        <time>2025-01-26T09:49:40.000Z</time>
      </trkpt>
      <trkpt lat="44.00181" lon="4.46918">
        <ele>203.6</ele>
        <time>2025-01-26T09:49:45.000Z</time>
      </trkpt>
      <trkpt lat="44.00183" lon="4.46937">
        <ele>203.8</ele>
        <time>2025-01-26T09:49:51.000Z</time>
      </trkpt>
      <trkpt lat="44.00185" lon="4.46949">
        <ele>205.6</ele>
        <time>2025-01-26T09:49:55.000Z</time>
      </trkpt>
      <trkpt lat="44.00187" lon="4.46958">
        <ele>206.6</ele>
        <time>2025-01-26T09:49:58.000Z</time>
      </trkpt>
      <trkpt lat="44.00188" lon="4.46964">
        <ele>206.8</ele>
        <time>2025-01-26T09:50:00.000Z</time>
      </trkpt>
      <trkpt lat="44.00191" lon="4.46978">
        <ele>207.6</ele>
        <time>2025-01-26T09:50:05.000Z</time>
      </trkpt>
      <trkpt lat="44.00191" lon="4.46981">
        <ele>207.8</ele>
        <time>2025-01-26T09:50:06.000Z</time>
      </trkpt>
      <trkpt lat="44.00194" lon="4.46995">
        <ele>208.6</ele>
        <time>2025-01-26T09:50:11.000Z</time>
      </trkpt>
      <trkpt lat="44.00196" lon="4.47001">
        <ele>209</ele>
        <time>2025-01-26T09:50:13.000Z</time>
      </trkpt>
      <trkpt lat="44.00201" lon="4.47014">
        <ele>209.8</ele>
        <time>2025-01-26T09:50:18.000Z</time>
      </trkpt>
      <trkpt lat="44.00203" lon="4.47021">
        <ele>210.8</ele>
        <time>2025-01-26T09:50:21.000Z</time>
      </trkpt>
      <trkpt lat="44.00203" lon="4.4703">
        <ele>211.2</ele>
        <time>2025-01-26T09:50:24.000Z</time>
      </trkpt>
      <trkpt lat="44.00206" lon="4.4705">
        <ele>212.4</ele>
        <time>2025-01-26T09:50:32.000Z</time>
      </trkpt>
      <trkpt lat="44.00207" lon="4.47053">
        <ele>212.4</ele>
        <time>2025-01-26T09:50:33.000Z</time>
      </trkpt>
      <trkpt lat="44.00214" lon="4.47073">
        <ele>213.4</ele>
        <time>2025-01-26T09:50:41.000Z</time>
      </trkpt>
      <trkpt lat="44.00215" lon="4.47076">
        <ele>213.4</ele>
        <time>2025-01-26T09:50:42.000Z</time>
      </trkpt>
      <trkpt lat="44.00224" lon="4.47095">
        <ele>214.4</ele>
        <time>2025-01-26T09:50:49.000Z</time>
      </trkpt>
      <trkpt lat="44.0023" lon="4.4711">
        <ele>214.8</ele>
        <time>2025-01-26T09:50:54.000Z</time>
      </trkpt>
      <trkpt lat="44.0024" lon="4.47143">
        <ele>215.2</ele>
        <time>2025-01-26T09:51:04.000Z</time>
      </trkpt>
      <trkpt lat="44.00243" lon="4.47154">
        <ele>215.4</ele>
        <time>2025-01-26T09:51:07.000Z</time>
      </trkpt>
      <trkpt lat="44.00248" lon="4.47164">
        <ele>215.8</ele>
        <time>2025-01-26T09:51:10.000Z</time>
      </trkpt>
      <trkpt lat="44.00257" lon="4.47195">
        <ele>216.2</ele>
        <time>2025-01-26T09:51:18.000Z</time>
      </trkpt>
      <trkpt lat="44.00265" lon="4.47232">
        <ele>216.4</ele>
        <time>2025-01-26T09:51:26.000Z</time>
      </trkpt>
      <trkpt lat="44.00272" lon="4.47261">
        <ele>216.8</ele>
        <time>2025-01-26T09:51:33.000Z</time>
      </trkpt>
      <trkpt lat="44.00273" lon="4.47264">
        <ele>217</ele>
        <time>2025-01-26T09:51:34.000Z</time>
      </trkpt>
      <trkpt lat="44.0028" lon="4.47271">
        <ele>217</ele>
        <time>2025-01-26T09:51:38.000Z</time>
      </trkpt>
      <trkpt lat="44.00281" lon="4.47271">
        <ele>217</ele>
        <time>2025-01-26T09:51:39.000Z</time>
      </trkpt>
      <trkpt lat="44.00285" lon="4.47269">
        <ele>217.2</ele>
        <time>2025-01-26T09:51:41.000Z</time>
      </trkpt>
      <trkpt lat="44.0029" lon="4.47267">
        <ele>217.2</ele>
        <time>2025-01-26T09:51:43.000Z</time>
      </trkpt>
      <trkpt lat="44.00306" lon="4.47255">
        <ele>217.4</ele>
        <time>2025-01-26T09:51:49.000Z</time>
      </trkpt>
      <trkpt lat="44.00309" lon="4.47254">
        <ele>217.4</ele>
        <time>2025-01-26T09:51:50.000Z</time>
      </trkpt>
      <trkpt lat="44.00317" lon="4.47256">
        <ele>217.8</ele>
        <time>2025-01-26T09:51:53.000Z</time>
      </trkpt>
      <trkpt lat="44.00339" lon="4.47259">
        <ele>217.4</ele>
        <time>2025-01-26T09:52:00.000Z</time>
      </trkpt>
      <trkpt lat="44.00362" lon="4.47252">
        <ele>217.2</ele>
        <time>2025-01-26T09:52:07.000Z</time>
      </trkpt>
      <trkpt lat="44.00375" lon="4.47242">
        <ele>217.2</ele>
        <time>2025-01-26T09:52:13.000Z</time>
      </trkpt>
      <trkpt lat="44.00381" lon="4.4724">
        <ele>218.2</ele>
        <time>2025-01-26T09:52:16.000Z</time>
      </trkpt>
      <trkpt lat="44.00389" lon="4.47238">
        <ele>219.4</ele>
        <time>2025-01-26T09:52:20.000Z</time>
      </trkpt>
      <trkpt lat="44.00394" lon="4.47238">
        <ele>220</ele>
        <time>2025-01-26T09:52:22.000Z</time>
      </trkpt>
      <trkpt lat="44.00398" lon="4.4724">
        <ele>220.4</ele>
        <time>2025-01-26T09:52:24.000Z</time>
      </trkpt>
      <trkpt lat="44.00407" lon="4.47245">
        <ele>220.8</ele>
        <time>2025-01-26T09:52:28.000Z</time>
      </trkpt>
      <trkpt lat="44.00427" lon="4.47251">
        <ele>220.8</ele>
        <time>2025-01-26T09:52:34.000Z</time>
      </trkpt>
      <trkpt lat="44.0043" lon="4.47252">
        <ele>220.8</ele>
        <time>2025-01-26T09:52:35.000Z</time>
      </trkpt>
      <trkpt lat="44.00435" lon="4.47257">
        <ele>220.2</ele>
        <time>2025-01-26T09:52:37.000Z</time>
      </trkpt>
      <trkpt lat="44.00439" lon="4.47265">
        <ele>219.2</ele>
        <time>2025-01-26T09:52:39.000Z</time>
      </trkpt>
      <trkpt lat="44.00441" lon="4.47268">
        <ele>218.8</ele>
        <time>2025-01-26T09:52:40.000Z</time>
      </trkpt>
      <trkpt lat="44.00443" lon="4.47273">
        <ele>218</ele>
        <time>2025-01-26T09:52:41.000Z</time>
      </trkpt>
      <trkpt lat="44.00448" lon="4.47281">
        <ele>216.6</ele>
        <time>2025-01-26T09:52:43.000Z</time>
      </trkpt>
      <trkpt lat="44.00451" lon="4.47285">
        <ele>215.6</ele>
        <time>2025-01-26T09:52:44.000Z</time>
      </trkpt>
      <trkpt lat="44.00456" lon="4.47296">
        <ele>215</ele>
        <time>2025-01-26T09:52:47.000Z</time>
      </trkpt>
      <trkpt lat="44.00455" lon="4.47299">
        <ele>215</ele>
        <time>2025-01-26T09:52:48.000Z</time>
      </trkpt>
      <trkpt lat="44.00446" lon="4.47306">
        <ele>214.6</ele>
        <time>2025-01-26T09:52:51.000Z</time>
      </trkpt>
      <trkpt lat="44.00413" lon="4.47327">
        <ele>214.4</ele>
        <time>2025-01-26T09:53:01.000Z</time>
      </trkpt>
      <trkpt lat="44.00407" lon="4.4733">
        <ele>214.4</ele>
        <time>2025-01-26T09:53:03.000Z</time>
      </trkpt>
      <trkpt lat="44.00402" lon="4.47334">
        <ele>214.4</ele>
        <time>2025-01-26T09:53:05.000Z</time>
      </trkpt>
      <trkpt lat="44.004" lon="4.47338">
        <ele>214.4</ele>
        <time>2025-01-26T09:53:06.000Z</time>
      </trkpt>
      <trkpt lat="44.00388" lon="4.47358">
        <ele>214.8</ele>
        <time>2025-01-26T09:53:12.000Z</time>
      </trkpt>
      <trkpt lat="44.00382" lon="4.47359">
        <ele>214.8</ele>
        <time>2025-01-26T09:53:14.000Z</time>
      </trkpt>
      <trkpt lat="44.00372" lon="4.4736">
        <ele>215</ele>
        <time>2025-01-26T09:53:18.000Z</time>
      </trkpt>
      <trkpt lat="44.0037" lon="4.47361">
        <ele>215</ele>
        <time>2025-01-26T09:53:19.000Z</time>
      </trkpt>
      <trkpt lat="44.00367" lon="4.47364">
        <ele>215.2</ele>
        <time>2025-01-26T09:53:22.000Z</time>
      </trkpt>
      <trkpt lat="44.00367" lon="4.47365">
        <ele>215.2</ele>
        <time>2025-01-26T09:53:23.000Z</time>
      </trkpt>
      <trkpt lat="44.00367" lon="4.47367">
        <ele>215.8</ele>
        <time>2025-01-26T09:53:37.000Z</time>
      </trkpt>
      <trkpt lat="44.00367" lon="4.47368">
        <ele>215.8</ele>
        <time>2025-01-26T09:53:39.000Z</time>
      </trkpt>
      <trkpt lat="44.00368" lon="4.47371">
        <ele>215.8</ele>
        <time>2025-01-26T09:53:41.000Z</time>
      </trkpt>
      <trkpt lat="44.00372" lon="4.47376">
        <ele>215.8</ele>
        <time>2025-01-26T09:53:45.000Z</time>
      </trkpt>
      <trkpt lat="44.00374" lon="4.47378">
        <ele>215.8</ele>
        <time>2025-01-26T09:53:49.000Z</time>
      </trkpt>
      <trkpt lat="44.00374" lon="4.4738">
        <ele>215.8</ele>
        <time>2025-01-26T09:53:53.000Z</time>
      </trkpt>
      <trkpt lat="44.00383" lon="4.4739">
        <ele>216</ele>
        <time>2025-01-26T09:54:00.000Z</time>
      </trkpt>
      <trkpt lat="44.0039" lon="4.47401">
        <ele>215.8</ele>
        <time>2025-01-26T09:54:07.000Z</time>
      </trkpt>
      <trkpt lat="44.00394" lon="4.47409">
        <ele>215.8</ele>
        <time>2025-01-26T09:54:13.000Z</time>
      </trkpt>
      <trkpt lat="44.00395" lon="4.47409">
        <ele>215.8</ele>
        <time>2025-01-26T09:54:14.000Z</time>
      </trkpt>
      <trkpt lat="44.00395" lon="4.47411">
        <ele>215.8</ele>
        <time>2025-01-26T09:54:17.000Z</time>
      </trkpt>
      <trkpt lat="44.00395" lon="4.47413">
        <ele>215.6</ele>
        <time>2025-01-26T09:54:21.000Z</time>
      </trkpt>
      <trkpt lat="44.00395" lon="4.47413">
        <ele>215.6</ele>
        <time>2025-01-26T09:54:22.000Z</time>
      </trkpt>
      <trkpt lat="44.00396" lon="4.47411">
        <ele>216.6</ele>
        <time>2025-01-26T10:26:19.000Z</time>
      </trkpt>
      <trkpt lat="44.00395" lon="4.47409">
        <ele>216.6</ele>
        <time>2025-01-26T10:26:21.000Z</time>
      </trkpt>
      <trkpt lat="44.00393" lon="4.47407">
        <ele>216.6</ele>
        <time>2025-01-26T10:26:23.000Z</time>
      </trkpt>
      <trkpt lat="44.00391" lon="4.47404">
        <ele>216.6</ele>
        <time>2025-01-26T10:26:25.000Z</time>
      </trkpt>
      <trkpt lat="44.00385" lon="4.47394">
        <ele>216.6</ele>
        <time>2025-01-26T10:26:30.000Z</time>
      </trkpt>
      <trkpt lat="44.00379" lon="4.47384">
        <ele>216.8</ele>
        <time>2025-01-26T10:26:35.000Z</time>
      </trkpt>
      <trkpt lat="44.0037" lon="4.47368">
        <ele>217</ele>
        <time>2025-01-26T10:26:42.000Z</time>
      </trkpt>
      <trkpt lat="44.00362" lon="4.4736">
        <ele>217.2</ele>
        <time>2025-01-26T10:26:47.000Z</time>
      </trkpt>
      <trkpt lat="44.00348" lon="4.47363">
        <ele>217.4</ele>
        <time>2025-01-26T10:26:53.000Z</time>
      </trkpt>
      <trkpt lat="44.00346" lon="4.47363">
        <ele>217.4</ele>
        <time>2025-01-26T10:26:54.000Z</time>
      </trkpt>
      <trkpt lat="44.00329" lon="4.47365">
        <ele>217.4</ele>
        <time>2025-01-26T10:27:00.000Z</time>
      </trkpt>
      <trkpt lat="44.00309" lon="4.47364">
        <ele>217.4</ele>
        <time>2025-01-26T10:27:07.000Z</time>
      </trkpt>
      <trkpt lat="44.00307" lon="4.47367">
        <ele>217.4</ele>
        <time>2025-01-26T10:27:08.000Z</time>
      </trkpt>
      <trkpt lat="44.00306" lon="4.47373">
        <ele>217.4</ele>
        <time>2025-01-26T10:27:10.000Z</time>
      </trkpt>
      <trkpt lat="44.00306" lon="4.47395">
        <ele>217.2</ele>
        <time>2025-01-26T10:27:17.000Z</time>
      </trkpt>
      <trkpt lat="44.00297" lon="4.47413">
        <ele>217</ele>
        <time>2025-01-26T10:27:23.000Z</time>
      </trkpt>
      <trkpt lat="44.00287" lon="4.47436">
        <ele>216.8</ele>
        <time>2025-01-26T10:27:29.000Z</time>
      </trkpt>
      <trkpt lat="44.00274" lon="4.47481">
        <ele>215.6</ele>
        <time>2025-01-26T10:27:38.000Z</time>
      </trkpt>
      <trkpt lat="44.00258" lon="4.47519">
        <ele>214.6</ele>
        <time>2025-01-26T10:27:46.000Z</time>
      </trkpt>
      <trkpt lat="44.00244" lon="4.47555">
        <ele>213.6</ele>
        <time>2025-01-26T10:27:54.000Z</time>
      </trkpt>
      <trkpt lat="44.00241" lon="4.47569">
        <ele>213.6</ele>
        <time>2025-01-26T10:27:57.000Z</time>
      </trkpt>
      <trkpt lat="44.00241" lon="4.47574">
        <ele>213.6</ele>
        <time>2025-01-26T10:27:58.000Z</time>
      </trkpt>
      <trkpt lat="44.00249" lon="4.47583">
        <ele>213.6</ele>
        <time>2025-01-26T10:28:01.000Z</time>
      </trkpt>
      <trkpt lat="44.00252" lon="4.47585">
        <ele>213.6</ele>
        <time>2025-01-26T10:28:02.000Z</time>
      </trkpt>
      <trkpt lat="44.00273" lon="4.47603">
        <ele>212.4</ele>
        <time>2025-01-26T10:28:09.000Z</time>
      </trkpt>
      <trkpt lat="44.00276" lon="4.47606">
        <ele>212.4</ele>
        <time>2025-01-26T10:28:10.000Z</time>
      </trkpt>
      <trkpt lat="44.00285" lon="4.47616">
        <ele>212.4</ele>
        <time>2025-01-26T10:28:14.000Z</time>
      </trkpt>
      <trkpt lat="44.00286" lon="4.47619">
        <ele>212.4</ele>
        <time>2025-01-26T10:28:15.000Z</time>
      </trkpt>
      <trkpt lat="44.00281" lon="4.47636">
        <ele>212.4</ele>
        <time>2025-01-26T10:28:20.000Z</time>
      </trkpt>
      <trkpt lat="44.00278" lon="4.47663">
        <ele>212.4</ele>
        <time>2025-01-26T10:28:26.000Z</time>
      </trkpt>
      <trkpt lat="44.00277" lon="4.47673">
        <ele>212.4</ele>
        <time>2025-01-26T10:28:28.000Z</time>
      </trkpt>
      <trkpt lat="44.0028" lon="4.47682">
        <ele>212.2</ele>
        <time>2025-01-26T10:28:30.000Z</time>
      </trkpt>
      <trkpt lat="44.00286" lon="4.47698">
        <ele>211.2</ele>
        <time>2025-01-26T10:28:34.000Z</time>
      </trkpt>
      <trkpt lat="44.00286" lon="4.47703">
        <ele>211</ele>
        <time>2025-01-26T10:28:35.000Z</time>
      </trkpt>
      <trkpt lat="44.00282" lon="4.47723">
        <ele>210.6</ele>
        <time>2025-01-26T10:28:39.000Z</time>
      </trkpt>
      <trkpt lat="44.00284" lon="4.47745">
        <ele>210.4</ele>
        <time>2025-01-26T10:28:43.000Z</time>
      </trkpt>
      <trkpt lat="44.00286" lon="4.47756">
        <ele>210.2</ele>
        <time>2025-01-26T10:28:45.000Z</time>
      </trkpt>
      <trkpt lat="44.00291" lon="4.47764">
        <ele>210</ele>
        <time>2025-01-26T10:28:47.000Z</time>
      </trkpt>
      <trkpt lat="44.00303" lon="4.4777">
        <ele>209.2</ele>
        <time>2025-01-26T10:28:50.000Z</time>
      </trkpt>
      <trkpt lat="44.00307" lon="4.47771">
        <ele>208.8</ele>
        <time>2025-01-26T10:28:51.000Z</time>
      </trkpt>
      <trkpt lat="44.00319" lon="4.47783">
        <ele>208.8</ele>
        <time>2025-01-26T10:28:55.000Z</time>
      </trkpt>
      <trkpt lat="44.00322" lon="4.47788">
        <ele>208.8</ele>
        <time>2025-01-26T10:28:56.000Z</time>
      </trkpt>
      <trkpt lat="44.00325" lon="4.47796">
        <ele>208.8</ele>
        <time>2025-01-26T10:28:58.000Z</time>
      </trkpt>
      <trkpt lat="44.00325" lon="4.47801">
        <ele>208.8</ele>
        <time>2025-01-26T10:28:59.000Z</time>
      </trkpt>
      <trkpt lat="44.00323" lon="4.47821">
        <ele>209.2</ele>
        <time>2025-01-26T10:29:03.000Z</time>
      </trkpt>
      <trkpt lat="44.00325" lon="4.47825">
        <ele>209.2</ele>
        <time>2025-01-26T10:29:04.000Z</time>
      </trkpt>
      <trkpt lat="44.00338" lon="4.47832">
        <ele>209.2</ele>
        <time>2025-01-26T10:29:08.000Z</time>
      </trkpt>
      <trkpt lat="44.00347" lon="4.47844">
        <ele>209</ele>
        <time>2025-01-26T10:29:11.000Z</time>
      </trkpt>
      <trkpt lat="44.0035" lon="4.47848">
        <ele>209</ele>
        <time>2025-01-26T10:29:12.000Z</time>
      </trkpt>
      <trkpt lat="44.00362" lon="4.47864">
        <ele>209</ele>
        <time>2025-01-26T10:29:16.000Z</time>
      </trkpt>
      <trkpt lat="44.00374" lon="4.47875">
        <ele>208.8</ele>
        <time>2025-01-26T10:29:20.000Z</time>
      </trkpt>
      <trkpt lat="44.00377" lon="4.4788">
        <ele>208.8</ele>
        <time>2025-01-26T10:29:21.000Z</time>
      </trkpt>
      <trkpt lat="44.00382" lon="4.47894">
        <ele>208.8</ele>
        <time>2025-01-26T10:29:24.000Z</time>
      </trkpt>
      <trkpt lat="44.00383" lon="4.479">
        <ele>208.6</ele>
        <time>2025-01-26T10:29:25.000Z</time>
      </trkpt>
      <trkpt lat="44.00383" lon="4.47917">
        <ele>208.6</ele>
        <time>2025-01-26T10:29:28.000Z</time>
      </trkpt>
      <trkpt lat="44.00391" lon="4.47933">
        <ele>208.4</ele>
        <time>2025-01-26T10:29:31.000Z</time>
      </trkpt>
      <trkpt lat="44.00394" lon="4.47937">
        <ele>208.2</ele>
        <time>2025-01-26T10:29:32.000Z</time>
      </trkpt>
      <trkpt lat="44.004" lon="4.47961">
        <ele>207.6</ele>
        <time>2025-01-26T10:29:36.000Z</time>
      </trkpt>
      <trkpt lat="44.00402" lon="4.47967">
        <ele>207.4</ele>
        <time>2025-01-26T10:29:37.000Z</time>
      </trkpt>
      <trkpt lat="44.00406" lon="4.47978">
        <ele>207.2</ele>
        <time>2025-01-26T10:29:39.000Z</time>
      </trkpt>
      <trkpt lat="44.00412" lon="4.47987">
        <ele>206.8</ele>
        <time>2025-01-26T10:29:41.000Z</time>
      </trkpt>
      <trkpt lat="44.00418" lon="4.48002">
        <ele>206.2</ele>
        <time>2025-01-26T10:29:44.000Z</time>
      </trkpt>
      <trkpt lat="44.00419" lon="4.48008">
        <ele>206</ele>
        <time>2025-01-26T10:29:45.000Z</time>
      </trkpt>
      <trkpt lat="44.0042" lon="4.48014">
        <ele>206</ele>
        <time>2025-01-26T10:29:46.000Z</time>
      </trkpt>
      <trkpt lat="44.00426" lon="4.48033">
        <ele>205.4</ele>
        <time>2025-01-26T10:29:49.000Z</time>
      </trkpt>
      <trkpt lat="44.00432" lon="4.48043">
        <ele>205</ele>
        <time>2025-01-26T10:29:51.000Z</time>
      </trkpt>
      <trkpt lat="44.00435" lon="4.48055">
        <ele>204.6</ele>
        <time>2025-01-26T10:29:53.000Z</time>
      </trkpt>
      <trkpt lat="44.00437" lon="4.4806">
        <ele>204.2</ele>
        <time>2025-01-26T10:29:54.000Z</time>
      </trkpt>
      <trkpt lat="44.00438" lon="4.48064">
        <ele>204</ele>
        <time>2025-01-26T10:29:55.000Z</time>
      </trkpt>
      <trkpt lat="44.00437" lon="4.48067">
        <ele>203.6</ele>
        <time>2025-01-26T10:29:56.000Z</time>
      </trkpt>
      <trkpt lat="44.00428" lon="4.48069">
        <ele>203.4</ele>
        <time>2025-01-26T10:29:59.000Z</time>
      </trkpt>
      <trkpt lat="44.0042" lon="4.48072">
        <ele>203</ele>
        <time>2025-01-26T10:30:01.000Z</time>
      </trkpt>
      <trkpt lat="44.00416" lon="4.48074">
        <ele>202.8</ele>
        <time>2025-01-26T10:30:02.000Z</time>
      </trkpt>
      <trkpt lat="44.00409" lon="4.48079">
        <ele>202.6</ele>
        <time>2025-01-26T10:30:04.000Z</time>
      </trkpt>
      <trkpt lat="44.00405" lon="4.48081">
        <ele>202.6</ele>
        <time>2025-01-26T10:30:05.000Z</time>
      </trkpt>
      <trkpt lat="44.00397" lon="4.48086">
        <ele>202.4</ele>
        <time>2025-01-26T10:30:07.000Z</time>
      </trkpt>
      <trkpt lat="44.00386" lon="4.48097">
        <ele>201.8</ele>
        <time>2025-01-26T10:30:10.000Z</time>
      </trkpt>
      <trkpt lat="44.00378" lon="4.48105">
        <ele>201.6</ele>
        <time>2025-01-26T10:30:12.000Z</time>
      </trkpt>
      <trkpt lat="44.00366" lon="4.48108">
        <ele>201.6</ele>
        <time>2025-01-26T10:30:15.000Z</time>
      </trkpt>
      <trkpt lat="44.00355" lon="4.48096">
        <ele>201.4</ele>
        <time>2025-01-26T10:30:19.000Z</time>
      </trkpt>
      <trkpt lat="44.00339" lon="4.48073">
        <ele>201.4</ele>
        <time>2025-01-26T10:30:26.000Z</time>
      </trkpt>
      <trkpt lat="44.00327" lon="4.48056">
        <ele>201.6</ele>
        <time>2025-01-26T10:30:32.000Z</time>
      </trkpt>
      <trkpt lat="44.00312" lon="4.48037">
        <ele>202.2</ele>
        <time>2025-01-26T10:30:38.000Z</time>
      </trkpt>
      <trkpt lat="44.00308" lon="4.48036">
        <ele>202.2</ele>
        <time>2025-01-26T10:30:39.000Z</time>
      </trkpt>
      <trkpt lat="44.00287" lon="4.4804">
        <ele>202.4</ele>
        <time>2025-01-26T10:30:44.000Z</time>
      </trkpt>
      <trkpt lat="44.00265" lon="4.48045">
        <ele>202.8</ele>
        <time>2025-01-26T10:30:50.000Z</time>
      </trkpt>
      <trkpt lat="44.00262" lon="4.48045">
        <ele>203</ele>
        <time>2025-01-26T10:30:51.000Z</time>
      </trkpt>
      <trkpt lat="44.00242" lon="4.48051">
        <ele>203.8</ele>
        <time>2025-01-26T10:30:57.000Z</time>
      </trkpt>
      <trkpt lat="44.00241" lon="4.48055">
        <ele>204</ele>
        <time>2025-01-26T10:30:58.000Z</time>
      </trkpt>
      <trkpt lat="44.00238" lon="4.48068">
        <ele>204.4</ele>
        <time>2025-01-26T10:31:01.000Z</time>
      </trkpt>
      <trkpt lat="44.00232" lon="4.48074">
        <ele>204.6</ele>
        <time>2025-01-26T10:31:04.000Z</time>
      </trkpt>
      <trkpt lat="44.00223" lon="4.48069">
        <ele>204.8</ele>
        <time>2025-01-26T10:31:07.000Z</time>
      </trkpt>
      <trkpt lat="44.00217" lon="4.48064">
        <ele>204.8</ele>
        <time>2025-01-26T10:31:09.000Z</time>
      </trkpt>
      <trkpt lat="44.00209" lon="4.48059">
        <ele>205.2</ele>
        <time>2025-01-26T10:31:12.000Z</time>
      </trkpt>
      <trkpt lat="44.00202" lon="4.48059">
        <ele>205.2</ele>
        <time>2025-01-26T10:31:14.000Z</time>
      </trkpt>
      <trkpt lat="44.002" lon="4.48059">
        <ele>205.4</ele>
        <time>2025-01-26T10:31:15.000Z</time>
      </trkpt>
      <trkpt lat="44.00193" lon="4.48053">
        <ele>206</ele>
        <time>2025-01-26T10:31:18.000Z</time>
      </trkpt>
      <trkpt lat="44.00188" lon="4.48051">
        <ele>206.2</ele>
        <time>2025-01-26T10:31:20.000Z</time>
      </trkpt>
      <trkpt lat="44.00178" lon="4.48043">
        <ele>206.8</ele>
        <time>2025-01-26T10:31:24.000Z</time>
      </trkpt>
      <trkpt lat="44.00169" lon="4.48042">
        <ele>207.2</ele>
        <time>2025-01-26T10:31:27.000Z</time>
      </trkpt>
      <trkpt lat="44.00164" lon="4.48044">
        <ele>207.6</ele>
        <time>2025-01-26T10:31:29.000Z</time>
      </trkpt>
      <trkpt lat="44.00162" lon="4.48056">
        <ele>208.2</ele>
        <time>2025-01-26T10:31:33.000Z</time>
      </trkpt>
      <trkpt lat="44.00161" lon="4.48059">
        <ele>208.4</ele>
        <time>2025-01-26T10:31:34.000Z</time>
      </trkpt>
      <trkpt lat="44.00158" lon="4.48083">
        <ele>208.8</ele>
        <time>2025-01-26T10:31:40.000Z</time>
      </trkpt>
      <trkpt lat="44.00159" lon="4.48094">
        <ele>208.8</ele>
        <time>2025-01-26T10:31:43.000Z</time>
      </trkpt>
      <trkpt lat="44.00162" lon="4.481">
        <ele>208.8</ele>
        <time>2025-01-26T10:31:45.000Z</time>
      </trkpt>
      <trkpt lat="44.00166" lon="4.48114">
        <ele>209</ele>
        <time>2025-01-26T10:31:49.000Z</time>
      </trkpt>
      <trkpt lat="44.00173" lon="4.48126">
        <ele>209</ele>
        <time>2025-01-26T10:31:53.000Z</time>
      </trkpt>
      <trkpt lat="44.00184" lon="4.48148">
        <ele>208.8</ele>
        <time>2025-01-26T10:31:59.000Z</time>
      </trkpt>
      <trkpt lat="44.0018" lon="4.48167">
        <ele>208.2</ele>
        <time>2025-01-26T10:32:04.000Z</time>
      </trkpt>
      <trkpt lat="44.00177" lon="4.48179">
        <ele>208.2</ele>
        <time>2025-01-26T10:32:08.000Z</time>
      </trkpt>
      <trkpt lat="44.00179" lon="4.48197">
        <ele>208.2</ele>
        <time>2025-01-26T10:32:13.000Z</time>
      </trkpt>
      <trkpt lat="44.00187" lon="4.48224">
        <ele>208.2</ele>
        <time>2025-01-26T10:32:19.000Z</time>
      </trkpt>
      <trkpt lat="44.00195" lon="4.48248">
        <ele>208</ele>
        <time>2025-01-26T10:32:24.000Z</time>
      </trkpt>
      <trkpt lat="44.0021" lon="4.48272">
        <ele>207.2</ele>
        <time>2025-01-26T10:32:30.000Z</time>
      </trkpt>
      <trkpt lat="44.00212" lon="4.48277">
        <ele>207.2</ele>
        <time>2025-01-26T10:32:31.000Z</time>
      </trkpt>
      <trkpt lat="44.00214" lon="4.48282">
        <ele>207</ele>
        <time>2025-01-26T10:32:32.000Z</time>
      </trkpt>
      <trkpt lat="44.00223" lon="4.48294">
        <ele>206.6</ele>
        <time>2025-01-26T10:32:35.000Z</time>
      </trkpt>
      <trkpt lat="44.00224" lon="4.48316">
        <ele>206.2</ele>
        <time>2025-01-26T10:32:39.000Z</time>
      </trkpt>
      <trkpt lat="44.00224" lon="4.48321">
        <ele>206</ele>
        <time>2025-01-26T10:32:40.000Z</time>
      </trkpt>
      <trkpt lat="44.00222" lon="4.48335">
        <ele>205.4</ele>
        <time>2025-01-26T10:32:43.000Z</time>
      </trkpt>
      <trkpt lat="44.00225" lon="4.48345">
        <ele>204.8</ele>
        <time>2025-01-26T10:32:45.000Z</time>
      </trkpt>
      <trkpt lat="44.00229" lon="4.48357">
        <ele>204.6</ele>
        <time>2025-01-26T10:32:47.000Z</time>
      </trkpt>
      <trkpt lat="44.00239" lon="4.48378">
        <ele>204.2</ele>
        <time>2025-01-26T10:32:51.000Z</time>
      </trkpt>
      <trkpt lat="44.00242" lon="4.48382">
        <ele>204</ele>
        <time>2025-01-26T10:32:52.000Z</time>
      </trkpt>
      <trkpt lat="44.00246" lon="4.48392">
        <ele>203.2</ele>
        <time>2025-01-26T10:32:54.000Z</time>
      </trkpt>
      <trkpt lat="44.00247" lon="4.48398">
        <ele>202.6</ele>
        <time>2025-01-26T10:32:55.000Z</time>
      </trkpt>
      <trkpt lat="44.00251" lon="4.48418">
        <ele>201.6</ele>
        <time>2025-01-26T10:32:59.000Z</time>
      </trkpt>
      <trkpt lat="44.00246" lon="4.4843">
        <ele>200.8</ele>
        <time>2025-01-26T10:33:02.000Z</time>
      </trkpt>
      <trkpt lat="44.00237" lon="4.48433">
        <ele>200.4</ele>
        <time>2025-01-26T10:33:05.000Z</time>
      </trkpt>
      <trkpt lat="44.00231" lon="4.48434">
        <ele>200.2</ele>
        <time>2025-01-26T10:33:07.000Z</time>
      </trkpt>
      <trkpt lat="44.0022" lon="4.48435">
        <ele>199.4</ele>
        <time>2025-01-26T10:33:11.000Z</time>
      </trkpt>
      <trkpt lat="44.00214" lon="4.48435">
        <ele>199.2</ele>
        <time>2025-01-26T10:33:14.000Z</time>
      </trkpt>
      <trkpt lat="44.00201" lon="4.48434">
        <ele>199.2</ele>
        <time>2025-01-26T10:33:22.000Z</time>
      </trkpt>
      <trkpt lat="44.00198" lon="4.48433">
        <ele>199.2</ele>
        <time>2025-01-26T10:33:26.000Z</time>
      </trkpt>
      <trkpt lat="44.00196" lon="4.48434">
        <ele>199.4</ele>
        <time>2025-01-26T10:33:29.000Z</time>
      </trkpt>
      <trkpt lat="44.00193" lon="4.48434">
        <ele>199.4</ele>
        <time>2025-01-26T10:33:31.000Z</time>
      </trkpt>
      <trkpt lat="44.00188" lon="4.48434">
        <ele>199.4</ele>
        <time>2025-01-26T10:33:33.000Z</time>
      </trkpt>
      <trkpt lat="44.00179" lon="4.48433">
        <ele>199.4</ele>
        <time>2025-01-26T10:33:36.000Z</time>
      </trkpt>
      <trkpt lat="44.00169" lon="4.48431">
        <ele>199.4</ele>
        <time>2025-01-26T10:33:39.000Z</time>
      </trkpt>
      <trkpt lat="44.00149" lon="4.48425">
        <ele>199.6</ele>
        <time>2025-01-26T10:33:45.000Z</time>
      </trkpt>
      <trkpt lat="44.00126" lon="4.48429">
        <ele>199.8</ele>
        <time>2025-01-26T10:33:52.000Z</time>
      </trkpt>
      <trkpt lat="44.00102" lon="4.48445">
        <ele>200.2</ele>
        <time>2025-01-26T10:34:00.000Z</time>
      </trkpt>
      <trkpt lat="44.00089" lon="4.48466">
        <ele>200.2</ele>
        <time>2025-01-26T10:34:06.000Z</time>
      </trkpt>
      <trkpt lat="44.00081" lon="4.4848">
        <ele>200.4</ele>
        <time>2025-01-26T10:34:10.000Z</time>
      </trkpt>
      <trkpt lat="44.00073" lon="4.48492">
        <ele>200.6</ele>
        <time>2025-01-26T10:34:14.000Z</time>
      </trkpt>
      <trkpt lat="44.00056" lon="4.48509">
        <ele>201.4</ele>
        <time>2025-01-26T10:34:21.000Z</time>
      </trkpt>
      <trkpt lat="44.00051" lon="4.48514">
        <ele>201.6</ele>
        <time>2025-01-26T10:34:23.000Z</time>
      </trkpt>
      <trkpt lat="44.00036" lon="4.48531">
        <ele>202.4</ele>
        <time>2025-01-26T10:34:30.000Z</time>
      </trkpt>
      <trkpt lat="44.00031" lon="4.48536">
        <ele>202.6</ele>
        <time>2025-01-26T10:34:32.000Z</time>
      </trkpt>
      <trkpt lat="44.00017" lon="4.48556">
        <ele>203.4</ele>
        <time>2025-01-26T10:34:39.000Z</time>
      </trkpt>
      <trkpt lat="44.00015" lon="4.48559">
        <ele>203.6</ele>
        <time>2025-01-26T10:34:40.000Z</time>
      </trkpt>
      <trkpt lat="43.99994" lon="4.48588">
        <ele>203.8</ele>
        <time>2025-01-26T10:34:49.000Z</time>
      </trkpt>
      <trkpt lat="43.99974" lon="4.48612">
        <ele>203.2</ele>
        <time>2025-01-26T10:34:56.000Z</time>
      </trkpt>
      <trkpt lat="43.99951" lon="4.48638">
        <ele>202.6</ele>
        <time>2025-01-26T10:35:02.000Z</time>
      </trkpt>
      <trkpt lat="43.99947" lon="4.48644">
        <ele>202.4</ele>
        <time>2025-01-26T10:35:03.000Z</time>
      </trkpt>
      <trkpt lat="43.99932" lon="4.48671">
        <ele>201.2</ele>
        <time>2025-01-26T10:35:07.000Z</time>
      </trkpt>
      <trkpt lat="43.99928" lon="4.48679">
        <ele>200.8</ele>
        <time>2025-01-26T10:35:08.000Z</time>
      </trkpt>
      <trkpt lat="43.99921" lon="4.48696">
        <ele>200</ele>
        <time>2025-01-26T10:35:10.000Z</time>
      </trkpt>
      <trkpt lat="43.99909" lon="4.48721">
        <ele>198.6</ele>
        <time>2025-01-26T10:35:13.000Z</time>
      </trkpt>
      <trkpt lat="43.99904" lon="4.48729">
        <ele>198.2</ele>
        <time>2025-01-26T10:35:14.000Z</time>
      </trkpt>
      <trkpt lat="43.99899" lon="4.48736">
        <ele>197</ele>
        <time>2025-01-26T10:35:15.000Z</time>
      </trkpt>
      <trkpt lat="43.99889" lon="4.48751">
        <ele>195.6</ele>
        <time>2025-01-26T10:35:17.000Z</time>
      </trkpt>
      <trkpt lat="43.9988" lon="4.48765">
        <ele>194</ele>
        <time>2025-01-26T10:35:19.000Z</time>
      </trkpt>
      <trkpt lat="43.99872" lon="4.4878">
        <ele>193</ele>
        <time>2025-01-26T10:35:21.000Z</time>
      </trkpt>
      <trkpt lat="43.99855" lon="4.48811">
        <ele>192.4</ele>
        <time>2025-01-26T10:35:26.000Z</time>
      </trkpt>
      <trkpt lat="43.99853" lon="4.48817">
        <ele>192.4</ele>
        <time>2025-01-26T10:35:27.000Z</time>
      </trkpt>
      <trkpt lat="43.99839" lon="4.48866">
        <ele>193</ele>
        <time>2025-01-26T10:35:35.000Z</time>
      </trkpt>
      <trkpt lat="43.99832" lon="4.48903">
        <ele>193.8</ele>
        <time>2025-01-26T10:35:42.000Z</time>
      </trkpt>
      <trkpt lat="43.99832" lon="4.48913">
        <ele>194</ele>
        <time>2025-01-26T10:35:44.000Z</time>
      </trkpt>
      <trkpt lat="43.99835" lon="4.48939">
        <ele>195.2</ele>
        <time>2025-01-26T10:35:50.000Z</time>
      </trkpt>
      <trkpt lat="43.99836" lon="4.48968">
        <ele>196.2</ele>
        <time>2025-01-26T10:35:57.000Z</time>
      </trkpt>
      <trkpt lat="43.99836" lon="4.48972">
        <ele>196.4</ele>
        <time>2025-01-26T10:35:58.000Z</time>
      </trkpt>
      <trkpt lat="43.99835" lon="4.48998">
        <ele>197.2</ele>
        <time>2025-01-26T10:36:04.000Z</time>
      </trkpt>
      <trkpt lat="43.99835" lon="4.4902">
        <ele>197.8</ele>
        <time>2025-01-26T10:36:09.000Z</time>
      </trkpt>
      <trkpt lat="43.99834" lon="4.49037">
        <ele>198.4</ele>
        <time>2025-01-26T10:36:13.000Z</time>
      </trkpt>
      <trkpt lat="43.99832" lon="4.49051">
        <ele>198.8</ele>
        <time>2025-01-26T10:36:16.000Z</time>
      </trkpt>
      <trkpt lat="43.99831" lon="4.4906">
        <ele>199</ele>
        <time>2025-01-26T10:36:18.000Z</time>
      </trkpt>
      <trkpt lat="43.99828" lon="4.49087">
        <ele>199.4</ele>
        <time>2025-01-26T10:36:24.000Z</time>
      </trkpt>
      <trkpt lat="43.99827" lon="4.49103">
        <ele>199.4</ele>
        <time>2025-01-26T10:36:27.000Z</time>
      </trkpt>
      <trkpt lat="43.99822" lon="4.49137">
        <ele>199.4</ele>
        <time>2025-01-26T10:36:33.000Z</time>
      </trkpt>
      <trkpt lat="43.99819" lon="4.49162">
        <ele>198.8</ele>
        <time>2025-01-26T10:36:37.000Z</time>
      </trkpt>
      <trkpt lat="43.99821" lon="4.49168">
        <ele>198.6</ele>
        <time>2025-01-26T10:36:38.000Z</time>
      </trkpt>
      <trkpt lat="43.99833" lon="4.49179">
        <ele>198.2</ele>
        <time>2025-01-26T10:36:41.000Z</time>
      </trkpt>
      <trkpt lat="43.99838" lon="4.49182">
        <ele>198</ele>
        <time>2025-01-26T10:36:42.000Z</time>
      </trkpt>
      <trkpt lat="43.99856" lon="4.49188">
        <ele>197.6</ele>
        <time>2025-01-26T10:36:45.000Z</time>
      </trkpt>
      <trkpt lat="43.99862" lon="4.49191">
        <ele>197.2</ele>
        <time>2025-01-26T10:36:46.000Z</time>
      </trkpt>
      <trkpt lat="43.99883" lon="4.49199">
        <ele>196.2</ele>
        <time>2025-01-26T10:36:49.000Z</time>
      </trkpt>
      <trkpt lat="43.99891" lon="4.49203">
        <ele>195.6</ele>
        <time>2025-01-26T10:36:50.000Z</time>
      </trkpt>
      <trkpt lat="43.99898" lon="4.49206">
        <ele>195</ele>
        <time>2025-01-26T10:36:51.000Z</time>
      </trkpt>
      <trkpt lat="43.99914" lon="4.49212">
        <ele>193.8</ele>
        <time>2025-01-26T10:36:53.000Z</time>
      </trkpt>
      <trkpt lat="43.9993" lon="4.49217">
        <ele>192.2</ele>
        <time>2025-01-26T10:36:55.000Z</time>
      </trkpt>
      <trkpt lat="43.99938" lon="4.49218">
        <ele>191.6</ele>
        <time>2025-01-26T10:36:56.000Z</time>
      </trkpt>
      <trkpt lat="43.99946" lon="4.49218">
        <ele>190.8</ele>
        <time>2025-01-26T10:36:57.000Z</time>
      </trkpt>
      <trkpt lat="43.9996" lon="4.49216">
        <ele>189</ele>
        <time>2025-01-26T10:36:59.000Z</time>
      </trkpt>
      <trkpt lat="43.99973" lon="4.49214">
        <ele>187.6</ele>
        <time>2025-01-26T10:37:01.000Z</time>
      </trkpt>
      <trkpt lat="43.99984" lon="4.49213">
        <ele>186.4</ele>
        <time>2025-01-26T10:37:03.000Z</time>
      </trkpt>
      <trkpt lat="44.00005" lon="4.49213">
        <ele>185.8</ele>
        <time>2025-01-26T10:37:07.000Z</time>
      </trkpt>
      <trkpt lat="44.00021" lon="4.49217">
        <ele>185.8</ele>
        <time>2025-01-26T10:37:11.000Z</time>
      </trkpt>
      <trkpt lat="44.00025" lon="4.49219">
        <ele>185.8</ele>
        <time>2025-01-26T10:37:12.000Z</time>
      </trkpt>
      <trkpt lat="44.00039" lon="4.49235">
        <ele>186.2</ele>
        <time>2025-01-26T10:37:17.000Z</time>
      </trkpt>
      <trkpt lat="44.00042" lon="4.49255">
        <ele>186.4</ele>
        <time>2025-01-26T10:37:21.000Z</time>
      </trkpt>
      <trkpt lat="44.00049" lon="4.49273">
        <ele>186.6</ele>
        <time>2025-01-26T10:37:25.000Z</time>
      </trkpt>
      <trkpt lat="44.00056" lon="4.49281">
        <ele>186.6</ele>
        <time>2025-01-26T10:37:27.000Z</time>
      </trkpt>
      <trkpt lat="44.00065" lon="4.49288">
        <ele>186.6</ele>
        <time>2025-01-26T10:37:29.000Z</time>
      </trkpt>
      <trkpt lat="44.00069" lon="4.49288">
        <ele>186.6</ele>
        <time>2025-01-26T10:37:30.000Z</time>
      </trkpt>
      <trkpt lat="44.00086" lon="4.49288">
        <ele>185.6</ele>
        <time>2025-01-26T10:37:34.000Z</time>
      </trkpt>
      <trkpt lat="44.0009" lon="4.49289">
        <ele>185.2</ele>
        <time>2025-01-26T10:37:35.000Z</time>
      </trkpt>
      <trkpt lat="44.00099" lon="4.49295">
        <ele>184.6</ele>
        <time>2025-01-26T10:37:38.000Z</time>
      </trkpt>
      <trkpt lat="44.00102" lon="4.49299">
        <ele>184.4</ele>
        <time>2025-01-26T10:37:39.000Z</time>
      </trkpt>
      <trkpt lat="44.00105" lon="4.49308">
        <ele>184.2</ele>
        <time>2025-01-26T10:37:41.000Z</time>
      </trkpt>
      <trkpt lat="44.00105" lon="4.49313">
        <ele>184</ele>
        <time>2025-01-26T10:37:42.000Z</time>
      </trkpt>
      <trkpt lat="44.00104" lon="4.49319">
        <ele>184</ele>
        <time>2025-01-26T10:37:43.000Z</time>
      </trkpt>
      <trkpt lat="44.00102" lon="4.4933">
        <ele>183.8</ele>
        <time>2025-01-26T10:37:45.000Z</time>
      </trkpt>
      <trkpt lat="44.00099" lon="4.49345">
        <ele>183.8</ele>
        <time>2025-01-26T10:37:48.000Z</time>
      </trkpt>
      <trkpt lat="44.00096" lon="4.4935">
        <ele>183.8</ele>
        <time>2025-01-26T10:37:49.000Z</time>
      </trkpt>
      <trkpt lat="44.00091" lon="4.49363">
        <ele>183.4</ele>
        <time>2025-01-26T10:37:52.000Z</time>
      </trkpt>
      <trkpt lat="44.00088" lon="4.49367">
        <ele>183</ele>
        <time>2025-01-26T10:37:53.000Z</time>
      </trkpt>
      <trkpt lat="44.00078" lon="4.49376">
        <ele>181.8</ele>
        <time>2025-01-26T10:37:56.000Z</time>
      </trkpt>
      <trkpt lat="44.00067" lon="4.49389">
        <ele>180.4</ele>
        <time>2025-01-26T10:38:00.000Z</time>
      </trkpt>
      <trkpt lat="44.00062" lon="4.49396">
        <ele>179.6</ele>
        <time>2025-01-26T10:38:02.000Z</time>
      </trkpt>
      <trkpt lat="44.0006" lon="4.494">
        <ele>179.4</ele>
        <time>2025-01-26T10:38:03.000Z</time>
      </trkpt>
      <trkpt lat="44.00045" lon="4.49425">
        <ele>179</ele>
        <time>2025-01-26T10:38:09.000Z</time>
      </trkpt>
      <trkpt lat="44.00035" lon="4.49445">
        <ele>178.6</ele>
        <time>2025-01-26T10:38:14.000Z</time>
      </trkpt>
      <trkpt lat="44.0002" lon="4.49467">
        <ele>178.4</ele>
        <time>2025-01-26T10:38:20.000Z</time>
      </trkpt>
      <trkpt lat="44.00013" lon="4.49473">
        <ele>178.4</ele>
        <time>2025-01-26T10:38:22.000Z</time>
      </trkpt>
      <trkpt lat="44.00009" lon="4.49476">
        <ele>178.2</ele>
        <time>2025-01-26T10:38:23.000Z</time>
      </trkpt>
      <trkpt lat="44.00006" lon="4.4948">
        <ele>178</ele>
        <time>2025-01-26T10:38:24.000Z</time>
      </trkpt>
      <trkpt lat="44.00003" lon="4.49484">
        <ele>177.8</ele>
        <time>2025-01-26T10:38:25.000Z</time>
      </trkpt>
      <trkpt lat="43.99996" lon="4.49493">
        <ele>177.8</ele>
        <time>2025-01-26T10:38:27.000Z</time>
      </trkpt>
      <trkpt lat="43.99988" lon="4.49502">
        <ele>177.6</ele>
        <time>2025-01-26T10:38:29.000Z</time>
      </trkpt>
      <trkpt lat="43.99979" lon="4.49517">
        <ele>177.6</ele>
        <time>2025-01-26T10:38:33.000Z</time>
      </trkpt>
      <trkpt lat="43.99977" lon="4.4954">
        <ele>177.4</ele>
        <time>2025-01-26T10:38:38.000Z</time>
      </trkpt>
      <trkpt lat="43.99975" lon="4.49545">
        <ele>177.2</ele>
        <time>2025-01-26T10:38:39.000Z</time>
      </trkpt>
      <trkpt lat="43.99973" lon="4.4956">
        <ele>177.2</ele>
        <time>2025-01-26T10:38:42.000Z</time>
      </trkpt>
      <trkpt lat="43.99975" lon="4.49564">
        <ele>177</ele>
        <time>2025-01-26T10:38:43.000Z</time>
      </trkpt>
      <trkpt lat="43.99982" lon="4.4957">
        <ele>177</ele>
        <time>2025-01-26T10:38:47.000Z</time>
      </trkpt>
      <trkpt lat="43.99986" lon="4.49567">
        <ele>177</ele>
        <time>2025-01-26T10:38:50.000Z</time>
      </trkpt>
      <trkpt lat="43.99987" lon="4.49566">
        <ele>177</ele>
        <time>2025-01-26T10:38:51.000Z</time>
      </trkpt>
      <trkpt lat="43.99988" lon="4.49565">
        <ele>177</ele>
        <time>2025-01-26T10:38:52.000Z</time>
      </trkpt>
      <trkpt lat="44" lon="4.49556">
        <ele>177.8</ele>
        <time>2025-01-26T10:39:00.000Z</time>
      </trkpt>
      <trkpt lat="44.00003" lon="4.49553">
        <ele>178.4</ele>
        <time>2025-01-26T10:39:02.000Z</time>
      </trkpt>
      <trkpt lat="44.0001" lon="4.49548">
        <ele>179.4</ele>
        <time>2025-01-26T10:39:06.000Z</time>
      </trkpt>
      <trkpt lat="44.00016" lon="4.49546">
        <ele>180.4</ele>
        <time>2025-01-26T10:39:09.000Z</time>
      </trkpt>
      <trkpt lat="44.00021" lon="4.49547">
        <ele>181.2</ele>
        <time>2025-01-26T10:39:12.000Z</time>
      </trkpt>
      <trkpt lat="44.00025" lon="4.49549">
        <ele>181.6</ele>
        <time>2025-01-26T10:39:14.000Z</time>
      </trkpt>
      <trkpt lat="44.00035" lon="4.49554">
        <ele>182.6</ele>
        <time>2025-01-26T10:39:19.000Z</time>
      </trkpt>
      <trkpt lat="44.00037" lon="4.49555">
        <ele>183</ele>
        <time>2025-01-26T10:39:20.000Z</time>
      </trkpt>
      <trkpt lat="44.00042" lon="4.49558">
        <ele>183.8</ele>
        <time>2025-01-26T10:39:23.000Z</time>
      </trkpt>
      <trkpt lat="44.0005" lon="4.4956">
        <ele>185</ele>
        <time>2025-01-26T10:39:27.000Z</time>
      </trkpt>
      <trkpt lat="44.00052" lon="4.49561">
        <ele>185</ele>
        <time>2025-01-26T10:39:28.000Z</time>
      </trkpt>
      <trkpt lat="44.00061" lon="4.49565">
        <ele>186</ele>
        <time>2025-01-26T10:39:33.000Z</time>
      </trkpt>
      <trkpt lat="44.00063" lon="4.49566">
        <ele>186</ele>
        <time>2025-01-26T10:39:34.000Z</time>
      </trkpt>
      <trkpt lat="44.00076" lon="4.4957">
        <ele>187.2</ele>
        <time>2025-01-26T10:39:40.000Z</time>
      </trkpt>
      <trkpt lat="44.00095" lon="4.49573">
        <ele>188.2</ele>
        <time>2025-01-26T10:39:48.000Z</time>
      </trkpt>
      <trkpt lat="44.00106" lon="4.49566">
        <ele>188.6</ele>
        <time>2025-01-26T10:39:53.000Z</time>
      </trkpt>
      <trkpt lat="44.00115" lon="4.49557">
        <ele>189.2</ele>
        <time>2025-01-26T10:39:58.000Z</time>
      </trkpt>
      <trkpt lat="44.0012" lon="4.4955">
        <ele>189.6</ele>
        <time>2025-01-26T10:40:01.000Z</time>
      </trkpt>
      <trkpt lat="44.00126" lon="4.49541">
        <ele>190.4</ele>
        <time>2025-01-26T10:40:05.000Z</time>
      </trkpt>
      <trkpt lat="44.00133" lon="4.49532">
        <ele>190.8</ele>
        <time>2025-01-26T10:40:09.000Z</time>
      </trkpt>
      <trkpt lat="44.00136" lon="4.49522">
        <ele>191.4</ele>
        <time>2025-01-26T10:40:13.000Z</time>
      </trkpt>
      <trkpt lat="44.00138" lon="4.4952">
        <ele>191.6</ele>
        <time>2025-01-26T10:40:14.000Z</time>
      </trkpt>
      <trkpt lat="44.00141" lon="4.49514">
        <ele>191.6</ele>
        <time>2025-01-26T10:40:16.000Z</time>
      </trkpt>
      <trkpt lat="44.00142" lon="4.49509">
        <ele>192</ele>
        <time>2025-01-26T10:40:18.000Z</time>
      </trkpt>
      <trkpt lat="44.00148" lon="4.49502">
        <ele>192.6</ele>
        <time>2025-01-26T10:40:22.000Z</time>
      </trkpt>
      <trkpt lat="44.00153" lon="4.49495">
        <ele>193</ele>
        <time>2025-01-26T10:40:25.000Z</time>
      </trkpt>
      <trkpt lat="44.00154" lon="4.49493">
        <ele>193</ele>
        <time>2025-01-26T10:40:26.000Z</time>
      </trkpt>
      <trkpt lat="44.00155" lon="4.4949">
        <ele>193.2</ele>
        <time>2025-01-26T10:40:27.000Z</time>
      </trkpt>
      <trkpt lat="44.00165" lon="4.49474">
        <ele>193.6</ele>
        <time>2025-01-26T10:40:33.000Z</time>
      </trkpt>
      <trkpt lat="44.00167" lon="4.49472">
        <ele>193.8</ele>
        <time>2025-01-26T10:40:34.000Z</time>
      </trkpt>
      <trkpt lat="44.00181" lon="4.49455">
        <ele>194.2</ele>
        <time>2025-01-26T10:40:41.000Z</time>
      </trkpt>
      <trkpt lat="44.00191" lon="4.49448">
        <ele>194.6</ele>
        <time>2025-01-26T10:40:46.000Z</time>
      </trkpt>
      <trkpt lat="44.00197" lon="4.49443">
        <ele>194.8</ele>
        <time>2025-01-26T10:40:49.000Z</time>
      </trkpt>
      <trkpt lat="44.00201" lon="4.49442">
        <ele>195</ele>
        <time>2025-01-26T10:40:51.000Z</time>
      </trkpt>
      <trkpt lat="44.00209" lon="4.49434">
        <ele>195.4</ele>
        <time>2025-01-26T10:40:55.000Z</time>
      </trkpt>
      <trkpt lat="44.0022" lon="4.49421">
        <ele>195.8</ele>
        <time>2025-01-26T10:41:00.000Z</time>
      </trkpt>
      <trkpt lat="44.00225" lon="4.49416">
        <ele>196</ele>
        <time>2025-01-26T10:41:02.000Z</time>
      </trkpt>
      <trkpt lat="44.00242" lon="4.49401">
        <ele>196.6</ele>
        <time>2025-01-26T10:41:09.000Z</time>
      </trkpt>
      <trkpt lat="44.00247" lon="4.49397">
        <ele>196.8</ele>
        <time>2025-01-26T10:41:11.000Z</time>
      </trkpt>
      <trkpt lat="44.00256" lon="4.49391">
        <ele>197.2</ele>
        <time>2025-01-26T10:41:15.000Z</time>
      </trkpt>
      <trkpt lat="44.00266" lon="4.49374">
        <ele>197.8</ele>
        <time>2025-01-26T10:41:21.000Z</time>
      </trkpt>
      <trkpt lat="44.00275" lon="4.49357">
        <ele>198.4</ele>
        <time>2025-01-26T10:41:27.000Z</time>
      </trkpt>
      <trkpt lat="44.00283" lon="4.49349">
        <ele>198.8</ele>
        <time>2025-01-26T10:41:31.000Z</time>
      </trkpt>
      <trkpt lat="44.00288" lon="4.49346">
        <ele>199.2</ele>
        <time>2025-01-26T10:41:33.000Z</time>
      </trkpt>
      <trkpt lat="44.003" lon="4.49337">
        <ele>200</ele>
        <time>2025-01-26T10:41:38.000Z</time>
      </trkpt>
      <trkpt lat="44.0031" lon="4.49326">
        <ele>200.6</ele>
        <time>2025-01-26T10:41:44.000Z</time>
      </trkpt>
      <trkpt lat="44.00317" lon="4.49318">
        <ele>201.2</ele>
        <time>2025-01-26T10:41:48.000Z</time>
      </trkpt>
      <trkpt lat="44.00321" lon="4.49316">
        <ele>201.4</ele>
        <time>2025-01-26T10:41:50.000Z</time>
      </trkpt>
      <trkpt lat="44.00336" lon="4.49309">
        <ele>201.6</ele>
        <time>2025-01-26T10:41:56.000Z</time>
      </trkpt>
      <trkpt lat="44.00354" lon="4.4931">
        <ele>202</ele>
        <time>2025-01-26T10:42:02.000Z</time>
      </trkpt>
      <trkpt lat="44.00356" lon="4.49311">
        <ele>202.2</ele>
        <time>2025-01-26T10:42:03.000Z</time>
      </trkpt>
      <trkpt lat="44.00372" lon="4.49317">
        <ele>202.4</ele>
        <time>2025-01-26T10:42:09.000Z</time>
      </trkpt>
      <trkpt lat="44.00376" lon="4.4932">
        <ele>202.4</ele>
        <time>2025-01-26T10:42:11.000Z</time>
      </trkpt>
      <trkpt lat="44.00381" lon="4.49329">
        <ele>202.4</ele>
        <time>2025-01-26T10:42:14.000Z</time>
      </trkpt>
      <trkpt lat="44.00382" lon="4.49332">
        <ele>202.4</ele>
        <time>2025-01-26T10:42:15.000Z</time>
      </trkpt>
      <trkpt lat="44.00387" lon="4.49342">
        <ele>202.4</ele>
        <time>2025-01-26T10:42:19.000Z</time>
      </trkpt>
      <trkpt lat="44.00391" lon="4.49354">
        <ele>202.4</ele>
        <time>2025-01-26T10:42:23.000Z</time>
      </trkpt>
      <trkpt lat="44.00399" lon="4.49355">
        <ele>202.4</ele>
        <time>2025-01-26T10:42:27.000Z</time>
      </trkpt>
      <trkpt lat="44.00409" lon="4.49355">
        <ele>201.8</ele>
        <time>2025-01-26T10:42:32.000Z</time>
      </trkpt>
      <trkpt lat="44.00411" lon="4.49355">
        <ele>201.8</ele>
        <time>2025-01-26T10:42:33.000Z</time>
      </trkpt>
      <trkpt lat="44.00418" lon="4.49353">
        <ele>201.8</ele>
        <time>2025-01-26T10:42:36.000Z</time>
      </trkpt>
      <trkpt lat="44.00424" lon="4.49354">
        <ele>201.8</ele>
        <time>2025-01-26T10:42:38.000Z</time>
      </trkpt>
      <trkpt lat="44.00433" lon="4.49354">
        <ele>201.8</ele>
        <time>2025-01-26T10:42:41.000Z</time>
      </trkpt>
      <trkpt lat="44.00442" lon="4.49352">
        <ele>201.8</ele>
        <time>2025-01-26T10:42:45.000Z</time>
      </trkpt>
      <trkpt lat="44.00451" lon="4.49345">
        <ele>202</ele>
        <time>2025-01-26T10:42:50.000Z</time>
      </trkpt>
      <trkpt lat="44.00459" lon="4.49348">
        <ele>202.2</ele>
        <time>2025-01-26T10:42:53.000Z</time>
      </trkpt>
      <trkpt lat="44.00465" lon="4.49349">
        <ele>202.6</ele>
        <time>2025-01-26T10:42:55.000Z</time>
      </trkpt>
      <trkpt lat="44.00478" lon="4.49353">
        <ele>202.6</ele>
        <time>2025-01-26T10:42:59.000Z</time>
      </trkpt>
      <trkpt lat="44.00493" lon="4.49365">
        <ele>202.6</ele>
        <time>2025-01-26T10:43:04.000Z</time>
      </trkpt>
      <trkpt lat="44.00496" lon="4.49368">
        <ele>202.6</ele>
        <time>2025-01-26T10:43:05.000Z</time>
      </trkpt>
      <trkpt lat="44.00506" lon="4.49371">
        <ele>202.4</ele>
        <time>2025-01-26T10:43:08.000Z</time>
      </trkpt>
      <trkpt lat="44.0051" lon="4.49372">
        <ele>202.2</ele>
        <time>2025-01-26T10:43:11.000Z</time>
      </trkpt>
      <trkpt lat="44.00513" lon="4.49372">
        <ele>201.6</ele>
        <time>2025-01-26T10:44:27.000Z</time>
      </trkpt>
      <trkpt lat="44.00523" lon="4.49376">
        <ele>201.6</ele>
        <time>2025-01-26T10:44:32.000Z</time>
      </trkpt>
      <trkpt lat="44.00528" lon="4.49381">
        <ele>201.6</ele>
        <time>2025-01-26T10:44:34.000Z</time>
      </trkpt>
      <trkpt lat="44.00532" lon="4.49387">
        <ele>201.6</ele>
        <time>2025-01-26T10:44:36.000Z</time>
      </trkpt>
      <trkpt lat="44.00534" lon="4.49391">
        <ele>201.6</ele>
        <time>2025-01-26T10:44:37.000Z</time>
      </trkpt>
      <trkpt lat="44.00543" lon="4.49407">
        <ele>201.2</ele>
        <time>2025-01-26T10:44:42.000Z</time>
      </trkpt>
      <trkpt lat="44.00551" lon="4.49415">
        <ele>201.2</ele>
        <time>2025-01-26T10:44:45.000Z</time>
      </trkpt>
      <trkpt lat="44.00559" lon="4.49422">
        <ele>200.4</ele>
        <time>2025-01-26T10:44:48.000Z</time>
      </trkpt>
      <trkpt lat="44.00564" lon="4.49425">
        <ele>200.2</ele>
        <time>2025-01-26T10:44:50.000Z</time>
      </trkpt>
      <trkpt lat="44.0058" lon="4.49432">
        <ele>200</ele>
        <time>2025-01-26T10:44:55.000Z</time>
      </trkpt>
      <trkpt lat="44.00587" lon="4.49444">
        <ele>200</ele>
        <time>2025-01-26T10:44:59.000Z</time>
      </trkpt>
      <trkpt lat="44.0059" lon="4.49445">
        <ele>200</ele>
        <time>2025-01-26T10:45:00.000Z</time>
      </trkpt>
      <trkpt lat="44.006" lon="4.49446">
        <ele>200.2</ele>
        <time>2025-01-26T10:45:03.000Z</time>
      </trkpt>
      <trkpt lat="44.00604" lon="4.49447">
        <ele>200.2</ele>
        <time>2025-01-26T10:45:04.000Z</time>
      </trkpt>
      <trkpt lat="44.00615" lon="4.49447">
        <ele>200.2</ele>
        <time>2025-01-26T10:45:07.000Z</time>
      </trkpt>
      <trkpt lat="44.00617" lon="4.49445">
        <ele>200.2</ele>
        <time>2025-01-26T10:45:08.000Z</time>
      </trkpt>
      <trkpt lat="44.00623" lon="4.49435">
        <ele>200.6</ele>
        <time>2025-01-26T10:45:12.000Z</time>
      </trkpt>
      <trkpt lat="44.00631" lon="4.4944">
        <ele>201</ele>
        <time>2025-01-26T10:45:15.000Z</time>
      </trkpt>
      <trkpt lat="44.00636" lon="4.49445">
        <ele>201.6</ele>
        <time>2025-01-26T10:45:17.000Z</time>
      </trkpt>
      <trkpt lat="44.00661" lon="4.49462">
        <ele>202.4</ele>
        <time>2025-01-26T10:45:25.000Z</time>
      </trkpt>
      <trkpt lat="44.00678" lon="4.49465">
        <ele>202.6</ele>
        <time>2025-01-26T10:45:30.000Z</time>
      </trkpt>
      <trkpt lat="44.00688" lon="4.49468">
        <ele>202.6</ele>
        <time>2025-01-26T10:45:33.000Z</time>
      </trkpt>
      <trkpt lat="44.00712" lon="4.4948">
        <ele>203.4</ele>
        <time>2025-01-26T10:45:41.000Z</time>
      </trkpt>
      <trkpt lat="44.0072" lon="4.49486">
        <ele>203.6</ele>
        <time>2025-01-26T10:45:44.000Z</time>
      </trkpt>
      <trkpt lat="44.00733" lon="4.49492">
        <ele>204</ele>
        <time>2025-01-26T10:45:48.000Z</time>
      </trkpt>
      <trkpt lat="44.00756" lon="4.49505">
        <ele>204.2</ele>
        <time>2025-01-26T10:45:56.000Z</time>
      </trkpt>
      <trkpt lat="44.00776" lon="4.49517">
        <ele>204.6</ele>
        <time>2025-01-26T10:46:03.000Z</time>
      </trkpt>
      <trkpt lat="44.00779" lon="4.49518">
        <ele>204.6</ele>
        <time>2025-01-26T10:46:04.000Z</time>
      </trkpt>
      <trkpt lat="44.00792" lon="4.49524">
        <ele>204.6</ele>
        <time>2025-01-26T10:46:08.000Z</time>
      </trkpt>
      <trkpt lat="44.00807" lon="4.49533">
        <ele>204.8</ele>
        <time>2025-01-26T10:46:13.000Z</time>
      </trkpt>
      <trkpt lat="44.00825" lon="4.49538">
        <ele>204.8</ele>
        <time>2025-01-26T10:46:19.000Z</time>
      </trkpt>
      <trkpt lat="44.00846" lon="4.49539">
        <ele>205.2</ele>
        <time>2025-01-26T10:46:26.000Z</time>
      </trkpt>
      <trkpt lat="44.00859" lon="4.4953">
        <ele>205.4</ele>
        <time>2025-01-26T10:46:31.000Z</time>
      </trkpt>
      <trkpt lat="44.00865" lon="4.49517">
        <ele>205.6</ele>
        <time>2025-01-26T10:46:35.000Z</time>
      </trkpt>
      <trkpt lat="44.00866" lon="4.49515">
        <ele>205.8</ele>
        <time>2025-01-26T10:46:36.000Z</time>
      </trkpt>
      <trkpt lat="44.00869" lon="4.49513">
        <ele>205.8</ele>
        <time>2025-01-26T10:46:37.000Z</time>
      </trkpt>
      <trkpt lat="44.00878" lon="4.49516">
        <ele>206.4</ele>
        <time>2025-01-26T10:46:41.000Z</time>
      </trkpt>
      <trkpt lat="44.00884" lon="4.4952">
        <ele>206.8</ele>
        <time>2025-01-26T10:46:43.000Z</time>
      </trkpt>
      <trkpt lat="44.00902" lon="4.49534">
        <ele>207.2</ele>
        <time>2025-01-26T10:46:50.000Z</time>
      </trkpt>
      <trkpt lat="44.00918" lon="4.49546">
        <ele>207.2</ele>
        <time>2025-01-26T10:46:56.000Z</time>
      </trkpt>
      <trkpt lat="44.00942" lon="4.49562">
        <ele>207.8</ele>
        <time>2025-01-26T10:47:04.000Z</time>
      </trkpt>
      <trkpt lat="44.00961" lon="4.49577">
        <ele>208</ele>
        <time>2025-01-26T10:47:11.000Z</time>
      </trkpt>
      <trkpt lat="44.00968" lon="4.49581">
        <ele>208.4</ele>
        <time>2025-01-26T10:47:14.000Z</time>
      </trkpt>
      <trkpt lat="44.00975" lon="4.49574">
        <ele>208.4</ele>
        <time>2025-01-26T10:47:16.000Z</time>
      </trkpt>
      <trkpt lat="44.00978" lon="4.49556">
        <ele>208.8</ele>
        <time>2025-01-26T10:47:20.000Z</time>
      </trkpt>
      <trkpt lat="44.00977" lon="4.4953">
        <ele>209</ele>
        <time>2025-01-26T10:47:25.000Z</time>
      </trkpt>
      <trkpt lat="44.00979" lon="4.49507">
        <ele>209</ele>
        <time>2025-01-26T10:47:30.000Z</time>
      </trkpt>
      <trkpt lat="44.00987" lon="4.49484">
        <ele>209.2</ele>
        <time>2025-01-26T10:47:36.000Z</time>
      </trkpt>
      <trkpt lat="44.00992" lon="4.49468">
        <ele>210</ele>
        <time>2025-01-26T10:47:40.000Z</time>
      </trkpt>
      <trkpt lat="44.00994" lon="4.49456">
        <ele>210.4</ele>
        <time>2025-01-26T10:47:43.000Z</time>
      </trkpt>
      <trkpt lat="44.00997" lon="4.49441">
        <ele>211</ele>
        <time>2025-01-26T10:47:47.000Z</time>
      </trkpt>
      <trkpt lat="44.00998" lon="4.49434">
        <ele>211.2</ele>
        <time>2025-01-26T10:47:49.000Z</time>
      </trkpt>
      <trkpt lat="44.00999" lon="4.49415">
        <ele>212.2</ele>
        <time>2025-01-26T10:47:54.000Z</time>
      </trkpt>
      <trkpt lat="44.01" lon="4.49409">
        <ele>212.6</ele>
        <time>2025-01-26T10:47:56.000Z</time>
      </trkpt>
      <trkpt lat="44.01005" lon="4.49392">
        <ele>213.4</ele>
        <time>2025-01-26T10:48:01.000Z</time>
      </trkpt>
      <trkpt lat="44.01006" lon="4.49389">
        <ele>213.6</ele>
        <time>2025-01-26T10:48:02.000Z</time>
      </trkpt>
      <trkpt lat="44.01015" lon="4.49374">
        <ele>214.4</ele>
        <time>2025-01-26T10:48:07.000Z</time>
      </trkpt>
      <trkpt lat="44.01016" lon="4.49371">
        <ele>214.6</ele>
        <time>2025-01-26T10:48:08.000Z</time>
      </trkpt>
      <trkpt lat="44.01026" lon="4.49356">
        <ele>215.2</ele>
        <time>2025-01-26T10:48:13.000Z</time>
      </trkpt>
      <trkpt lat="44.01031" lon="4.49344">
        <ele>215.6</ele>
        <time>2025-01-26T10:48:16.000Z</time>
      </trkpt>
      <trkpt lat="44.01034" lon="4.4933">
        <ele>215.6</ele>
        <time>2025-01-26T10:48:19.000Z</time>
      </trkpt>
      <trkpt lat="44.01041" lon="4.49295">
        <ele>215.6</ele>
        <time>2025-01-26T10:48:26.000Z</time>
      </trkpt>
      <trkpt lat="44.01046" lon="4.49276">
        <ele>215.6</ele>
        <time>2025-01-26T10:48:30.000Z</time>
      </trkpt>
      <trkpt lat="44.01049" lon="4.49271">
        <ele>215.6</ele>
        <time>2025-01-26T10:48:31.000Z</time>
      </trkpt>
      <trkpt lat="44.0105" lon="4.49265">
        <ele>215.6</ele>
        <time>2025-01-26T10:48:32.000Z</time>
      </trkpt>
      <trkpt lat="44.01052" lon="4.49254">
        <ele>215.4</ele>
        <time>2025-01-26T10:48:34.000Z</time>
      </trkpt>
      <trkpt lat="44.01056" lon="4.49238">
        <ele>215</ele>
        <time>2025-01-26T10:48:37.000Z</time>
      </trkpt>
      <trkpt lat="44.01057" lon="4.49232">
        <ele>215</ele>
        <time>2025-01-26T10:48:38.000Z</time>
      </trkpt>
      <trkpt lat="44.01057" lon="4.49226">
        <ele>214.8</ele>
        <time>2025-01-26T10:48:39.000Z</time>
      </trkpt>
      <trkpt lat="44.01057" lon="4.49219">
        <ele>214.4</ele>
        <time>2025-01-26T10:48:40.000Z</time>
      </trkpt>
      <trkpt lat="44.01055" lon="4.49192">
        <ele>213.6</ele>
        <time>2025-01-26T10:48:44.000Z</time>
      </trkpt>
      <trkpt lat="44.01055" lon="4.49185">
        <ele>213.4</ele>
        <time>2025-01-26T10:48:45.000Z</time>
      </trkpt>
      <trkpt lat="44.01054" lon="4.49153">
        <ele>213</ele>
        <time>2025-01-26T10:48:50.000Z</time>
      </trkpt>
      <trkpt lat="44.01054" lon="4.49147">
        <ele>213</ele>
        <time>2025-01-26T10:48:51.000Z</time>
      </trkpt>
      <trkpt lat="44.01054" lon="4.49135">
        <ele>213</ele>
        <time>2025-01-26T10:48:53.000Z</time>
      </trkpt>
      <trkpt lat="44.01055" lon="4.49118">
        <ele>213.2</ele>
        <time>2025-01-26T10:48:56.000Z</time>
      </trkpt>
      <trkpt lat="44.01056" lon="4.49101">
        <ele>213.4</ele>
        <time>2025-01-26T10:48:59.000Z</time>
      </trkpt>
      <trkpt lat="44.01056" lon="4.49095">
        <ele>213.4</ele>
        <time>2025-01-26T10:49:00.000Z</time>
      </trkpt>
      <trkpt lat="44.01056" lon="4.49084">
        <ele>213.4</ele>
        <time>2025-01-26T10:49:02.000Z</time>
      </trkpt>
      <trkpt lat="44.01055" lon="4.49074">
        <ele>213.4</ele>
        <time>2025-01-26T10:49:04.000Z</time>
      </trkpt>
      <trkpt lat="44.01053" lon="4.49068">
        <ele>213.4</ele>
        <time>2025-01-26T10:49:05.000Z</time>
      </trkpt>
      <trkpt lat="44.01052" lon="4.49057">
        <ele>213.4</ele>
        <time>2025-01-26T10:49:07.000Z</time>
      </trkpt>
      <trkpt lat="44.01054" lon="4.49053">
        <ele>213.2</ele>
        <time>2025-01-26T10:49:08.000Z</time>
      </trkpt>
      <trkpt lat="44.01059" lon="4.49044">
        <ele>213</ele>
        <time>2025-01-26T10:49:10.000Z</time>
      </trkpt>
      <trkpt lat="44.01069" lon="4.49034">
        <ele>212.6</ele>
        <time>2025-01-26T10:49:13.000Z</time>
      </trkpt>
      <trkpt lat="44.01073" lon="4.49031">
        <ele>212.6</ele>
        <time>2025-01-26T10:49:14.000Z</time>
      </trkpt>
      <trkpt lat="44.01081" lon="4.49023">
        <ele>212.4</ele>
        <time>2025-01-26T10:49:16.000Z</time>
      </trkpt>
      <trkpt lat="44.01093" lon="4.4901">
        <ele>212.2</ele>
        <time>2025-01-26T10:49:19.000Z</time>
      </trkpt>
      <trkpt lat="44.01117" lon="4.48983">
        <ele>211.4</ele>
        <time>2025-01-26T10:49:25.000Z</time>
      </trkpt>
      <trkpt lat="44.01121" lon="4.48978">
        <ele>211.2</ele>
        <time>2025-01-26T10:49:26.000Z</time>
      </trkpt>
      <trkpt lat="44.01127" lon="4.48968">
        <ele>211.2</ele>
        <time>2025-01-26T10:49:28.000Z</time>
      </trkpt>
      <trkpt lat="44.01134" lon="4.48953">
        <ele>211.2</ele>
        <time>2025-01-26T10:49:31.000Z</time>
      </trkpt>
      <trkpt lat="44.0114" lon="4.48933">
        <ele>211.4</ele>
        <time>2025-01-26T10:49:36.000Z</time>
      </trkpt>
      <trkpt lat="44.01143" lon="4.48918">
        <ele>212.6</ele>
        <time>2025-01-26T10:49:40.000Z</time>
      </trkpt>
      <trkpt lat="44.01144" lon="4.48903">
        <ele>213.4</ele>
        <time>2025-01-26T10:49:44.000Z</time>
      </trkpt>
      <trkpt lat="44.01144" lon="4.48899">
        <ele>213.8</ele>
        <time>2025-01-26T10:49:45.000Z</time>
      </trkpt>
      <trkpt lat="44.01147" lon="4.48881">
        <ele>214.8</ele>
        <time>2025-01-26T10:49:50.000Z</time>
      </trkpt>
      <trkpt lat="44.01148" lon="4.48877">
        <ele>215</ele>
        <time>2025-01-26T10:49:51.000Z</time>
      </trkpt>
      <trkpt lat="44.01151" lon="4.48866">
        <ele>216</ele>
        <time>2025-01-26T10:49:54.000Z</time>
      </trkpt>
      <trkpt lat="44.01156" lon="4.48848">
        <ele>217</ele>
        <time>2025-01-26T10:49:59.000Z</time>
      </trkpt>
      <trkpt lat="44.01166" lon="4.4882">
        <ele>218.2</ele>
        <time>2025-01-26T10:50:07.000Z</time>
      </trkpt>
      <trkpt lat="44.0117" lon="4.4881">
        <ele>218.8</ele>
        <time>2025-01-26T10:50:10.000Z</time>
      </trkpt>
      <trkpt lat="44.01189" lon="4.48786">
        <ele>219</ele>
        <time>2025-01-26T10:50:18.000Z</time>
      </trkpt>
      <trkpt lat="44.0122" lon="4.48758">
        <ele>218.8</ele>
        <time>2025-01-26T10:50:28.000Z</time>
      </trkpt>
      <trkpt lat="44.0123" lon="4.48747">
        <ele>218.8</ele>
        <time>2025-01-26T10:50:31.000Z</time>
      </trkpt>
      <trkpt lat="44.01237" lon="4.48736">
        <ele>218.8</ele>
        <time>2025-01-26T10:50:33.000Z</time>
      </trkpt>
      <trkpt lat="44.0124" lon="4.48706">
        <ele>218.4</ele>
        <time>2025-01-26T10:50:37.000Z</time>
      </trkpt>
      <trkpt lat="44.01232" lon="4.48674">
        <ele>217</ele>
        <time>2025-01-26T10:50:41.000Z</time>
      </trkpt>
      <trkpt lat="44.0123" lon="4.48666">
        <ele>216.8</ele>
        <time>2025-01-26T10:50:42.000Z</time>
      </trkpt>
      <trkpt lat="44.01225" lon="4.48651">
        <ele>215.6</ele>
        <time>2025-01-26T10:50:44.000Z</time>
      </trkpt>
      <trkpt lat="44.01223" lon="4.48643">
        <ele>215</ele>
        <time>2025-01-26T10:50:45.000Z</time>
      </trkpt>
      <trkpt lat="44.01223" lon="4.48634">
        <ele>214.4</ele>
        <time>2025-01-26T10:50:46.000Z</time>
      </trkpt>
      <trkpt lat="44.01223" lon="4.48626">
        <ele>214.2</ele>
        <time>2025-01-26T10:50:47.000Z</time>
      </trkpt>
      <trkpt lat="44.0123" lon="4.48608">
        <ele>213.4</ele>
        <time>2025-01-26T10:50:50.000Z</time>
      </trkpt>
      <trkpt lat="44.01233" lon="4.48604">
        <ele>213.2</ele>
        <time>2025-01-26T10:50:51.000Z</time>
      </trkpt>
      <trkpt lat="44.01244" lon="4.48598">
        <ele>212.2</ele>
        <time>2025-01-26T10:50:54.000Z</time>
      </trkpt>
      <trkpt lat="44.01264" lon="4.48598">
        <ele>212</ele>
        <time>2025-01-26T10:51:00.000Z</time>
      </trkpt>
      <trkpt lat="44.01265" lon="4.48599">
        <ele>212</ele>
        <time>2025-01-26T10:51:01.000Z</time>
      </trkpt>
      <trkpt lat="44.01266" lon="4.486">
        <ele>212.2</ele>
        <time>2025-01-26T10:51:04.000Z</time>
      </trkpt>
      <trkpt lat="44.01268" lon="4.48602">
        <ele>214.4</ele>
        <time>2025-01-26T10:54:40.000Z</time>
      </trkpt>
      <trkpt lat="44.01274" lon="4.48602">
        <ele>214.4</ele>
        <time>2025-01-26T10:54:43.000Z</time>
      </trkpt>
      <trkpt lat="44.01276" lon="4.48603">
        <ele>214.4</ele>
        <time>2025-01-26T10:54:44.000Z</time>
      </trkpt>
      <trkpt lat="44.01294" lon="4.48613">
        <ele>214.4</ele>
        <time>2025-01-26T10:54:50.000Z</time>
      </trkpt>
      <trkpt lat="44.01312" lon="4.48625">
        <ele>214.4</ele>
        <time>2025-01-26T10:54:55.000Z</time>
      </trkpt>
      <trkpt lat="44.01317" lon="4.48627">
        <ele>214.2</ele>
        <time>2025-01-26T10:54:56.000Z</time>
      </trkpt>
      <trkpt lat="44.0133" lon="4.48629">
        <ele>214</ele>
        <time>2025-01-26T10:54:59.000Z</time>
      </trkpt>
      <trkpt lat="44.01342" lon="4.48627">
        <ele>213.6</ele>
        <time>2025-01-26T10:55:02.000Z</time>
      </trkpt>
      <trkpt lat="44.01356" lon="4.48611">
        <ele>213.4</ele>
        <time>2025-01-26T10:55:07.000Z</time>
      </trkpt>
      <trkpt lat="44.0136" lon="4.48597">
        <ele>213.4</ele>
        <time>2025-01-26T10:55:10.000Z</time>
      </trkpt>
      <trkpt lat="44.01363" lon="4.48583">
        <ele>214</ele>
        <time>2025-01-26T10:55:13.000Z</time>
      </trkpt>
      <trkpt lat="44.01364" lon="4.48568">
        <ele>214.6</ele>
        <time>2025-01-26T10:55:16.000Z</time>
      </trkpt>
      <trkpt lat="44.01366" lon="4.48549">
        <ele>215.4</ele>
        <time>2025-01-26T10:55:20.000Z</time>
      </trkpt>
      <trkpt lat="44.01367" lon="4.48533">
        <ele>215.8</ele>
        <time>2025-01-26T10:55:24.000Z</time>
      </trkpt>
      <trkpt lat="44.01369" lon="4.4851">
        <ele>216.8</ele>
        <time>2025-01-26T10:55:29.000Z</time>
      </trkpt>
      <trkpt lat="44.01372" lon="4.48501">
        <ele>217.2</ele>
        <time>2025-01-26T10:55:31.000Z</time>
      </trkpt>
      <trkpt lat="44.01375" lon="4.48492">
        <ele>217.2</ele>
        <time>2025-01-26T10:55:33.000Z</time>
      </trkpt>
      <trkpt lat="44.01385" lon="4.48481">
        <ele>217.2</ele>
        <time>2025-01-26T10:55:36.000Z</time>
      </trkpt>
      <trkpt lat="44.01401" lon="4.48475">
        <ele>217.2</ele>
        <time>2025-01-26T10:55:40.000Z</time>
      </trkpt>
      <trkpt lat="44.01406" lon="4.48475">
        <ele>217</ele>
        <time>2025-01-26T10:55:41.000Z</time>
      </trkpt>
      <trkpt lat="44.01441" lon="4.48473">
        <ele>216.2</ele>
        <time>2025-01-26T10:55:49.000Z</time>
      </trkpt>
      <trkpt lat="44.01458" lon="4.48457">
        <ele>216</ele>
        <time>2025-01-26T10:55:53.000Z</time>
      </trkpt>
      <trkpt lat="44.01461" lon="4.48451">
        <ele>216</ele>
        <time>2025-01-26T10:55:54.000Z</time>
      </trkpt>
      <trkpt lat="44.01466" lon="4.48439">
        <ele>215.6</ele>
        <time>2025-01-26T10:55:56.000Z</time>
      </trkpt>
      <trkpt lat="44.0147" lon="4.48426">
        <ele>215</ele>
        <time>2025-01-26T10:55:58.000Z</time>
      </trkpt>
      <trkpt lat="44.01471" lon="4.48419">
        <ele>214.6</ele>
        <time>2025-01-26T10:55:59.000Z</time>
      </trkpt>
      <trkpt lat="44.01473" lon="4.48397">
        <ele>214.2</ele>
        <time>2025-01-26T10:56:02.000Z</time>
      </trkpt>
      <trkpt lat="44.01472" lon="4.4839">
        <ele>214.2</ele>
        <time>2025-01-26T10:56:03.000Z</time>
      </trkpt>
      <trkpt lat="44.01471" lon="4.48377">
        <ele>214</ele>
        <time>2025-01-26T10:56:05.000Z</time>
      </trkpt>
      <trkpt lat="44.01471" lon="4.4837">
        <ele>213.8</ele>
        <time>2025-01-26T10:56:06.000Z</time>
      </trkpt>
      <trkpt lat="44.01473" lon="4.48358">
        <ele>213.6</ele>
        <time>2025-01-26T10:56:08.000Z</time>
      </trkpt>
      <trkpt lat="44.01485" lon="4.48333">
        <ele>213.6</ele>
        <time>2025-01-26T10:56:13.000Z</time>
      </trkpt>
      <trkpt lat="44.0151" lon="4.48304">
        <ele>213.4</ele>
        <time>2025-01-26T10:56:20.000Z</time>
      </trkpt>
      <trkpt lat="44.01528" lon="4.48283">
        <ele>213.4</ele>
        <time>2025-01-26T10:56:24.000Z</time>
      </trkpt>
      <trkpt lat="44.01536" lon="4.48269">
        <ele>213.2</ele>
        <time>2025-01-26T10:56:26.000Z</time>
      </trkpt>
      <trkpt lat="44.01543" lon="4.48254">
        <ele>212.8</ele>
        <time>2025-01-26T10:56:28.000Z</time>
      </trkpt>
      <trkpt lat="44.01545" lon="4.48238">
        <ele>212</ele>
        <time>2025-01-26T10:56:30.000Z</time>
      </trkpt>
      <trkpt lat="44.01545" lon="4.4823">
        <ele>211.6</ele>
        <time>2025-01-26T10:56:31.000Z</time>
      </trkpt>
      <trkpt lat="44.01544" lon="4.48223">
        <ele>211.2</ele>
        <time>2025-01-26T10:56:32.000Z</time>
      </trkpt>
      <trkpt lat="44.0154" lon="4.4821">
        <ele>210.4</ele>
        <time>2025-01-26T10:56:34.000Z</time>
      </trkpt>
      <trkpt lat="44.01538" lon="4.48204">
        <ele>209.8</ele>
        <time>2025-01-26T10:56:35.000Z</time>
      </trkpt>
      <trkpt lat="44.01529" lon="4.48191">
        <ele>209.6</ele>
        <time>2025-01-26T10:56:38.000Z</time>
      </trkpt>
      <trkpt lat="44.01523" lon="4.48184">
        <ele>209.6</ele>
        <time>2025-01-26T10:56:40.000Z</time>
      </trkpt>
      <trkpt lat="44.01506" lon="4.48154">
        <ele>211.6</ele>
        <time>2025-01-26T10:56:48.000Z</time>
      </trkpt>
      <trkpt lat="44.01494" lon="4.48143">
        <ele>212.4</ele>
        <time>2025-01-26T10:56:52.000Z</time>
      </trkpt>
      <trkpt lat="44.0148" lon="4.48134">
        <ele>212.6</ele>
        <time>2025-01-26T10:56:56.000Z</time>
      </trkpt>
      <trkpt lat="44.01451" lon="4.48119">
        <ele>212.6</ele>
        <time>2025-01-26T10:57:04.000Z</time>
      </trkpt>
      <trkpt lat="44.01444" lon="4.48113">
        <ele>212.6</ele>
        <time>2025-01-26T10:57:06.000Z</time>
      </trkpt>
      <trkpt lat="44.01433" lon="4.48096">
        <ele>212.6</ele>
        <time>2025-01-26T10:57:10.000Z</time>
      </trkpt>
      <trkpt lat="44.01428" lon="4.48087">
        <ele>212.8</ele>
        <time>2025-01-26T10:57:12.000Z</time>
      </trkpt>
      <trkpt lat="44.01413" lon="4.48065">
        <ele>213</ele>
        <time>2025-01-26T10:57:17.000Z</time>
      </trkpt>
      <trkpt lat="44.01405" lon="4.48057">
        <ele>213</ele>
        <time>2025-01-26T10:57:19.000Z</time>
      </trkpt>
      <trkpt lat="44.01401" lon="4.48053">
        <ele>213</ele>
        <time>2025-01-26T10:57:20.000Z</time>
      </trkpt>
      <trkpt lat="44.01381" lon="4.48038">
        <ele>213</ele>
        <time>2025-01-26T10:57:24.000Z</time>
      </trkpt>
      <trkpt lat="44.01364" lon="4.48019">
        <ele>212.6</ele>
        <time>2025-01-26T10:57:28.000Z</time>
      </trkpt>
      <trkpt lat="44.01358" lon="4.48009">
        <ele>211.6</ele>
        <time>2025-01-26T10:57:30.000Z</time>
      </trkpt>
      <trkpt lat="44.01355" lon="4.48003">
        <ele>211.4</ele>
        <time>2025-01-26T10:57:31.000Z</time>
      </trkpt>
      <trkpt lat="44.01351" lon="4.4799">
        <ele>211</ele>
        <time>2025-01-26T10:57:33.000Z</time>
      </trkpt>
      <trkpt lat="44.01349" lon="4.4796">
        <ele>210.4</ele>
        <time>2025-01-26T10:57:37.000Z</time>
      </trkpt>
      <trkpt lat="44.01354" lon="4.47933">
        <ele>210.4</ele>
        <time>2025-01-26T10:57:41.000Z</time>
      </trkpt>
      <trkpt lat="44.01357" lon="4.47921">
        <ele>210.4</ele>
        <time>2025-01-26T10:57:43.000Z</time>
      </trkpt>
      <trkpt lat="44.01361" lon="4.47908">
        <ele>210.6</ele>
        <time>2025-01-26T10:57:46.000Z</time>
      </trkpt>
      <trkpt lat="44.01364" lon="4.47907">
        <ele>210.6</ele>
        <time>2025-01-26T10:57:47.000Z</time>
      </trkpt>
      <trkpt lat="44.0137" lon="4.47915">
        <ele>210.8</ele>
        <time>2025-01-26T10:57:51.000Z</time>
      </trkpt>
      <trkpt lat="44.01376" lon="4.47915">
        <ele>211.2</ele>
        <time>2025-01-26T10:57:53.000Z</time>
      </trkpt>
      <trkpt lat="44.01386" lon="4.47916">
        <ele>211.2</ele>
        <time>2025-01-26T10:57:56.000Z</time>
      </trkpt>
      <trkpt lat="44.01402" lon="4.47914">
        <ele>211.2</ele>
        <time>2025-01-26T10:58:01.000Z</time>
      </trkpt>
      <trkpt lat="44.01404" lon="4.47918">
        <ele>210.6</ele>
        <time>2025-01-26T10:58:05.000Z</time>
      </trkpt>
      <trkpt lat="44.01407" lon="4.4792">
        <ele>210.2</ele>
        <time>2025-01-26T10:58:10.000Z</time>
      </trkpt>
      <trkpt lat="44.01409" lon="4.47922">
        <ele>210.2</ele>
        <time>2025-01-26T10:58:11.000Z</time>
      </trkpt>
      <trkpt lat="44.01416" lon="4.47936">
        <ele>210</ele>
        <time>2025-01-26T10:58:16.000Z</time>
      </trkpt>
      <trkpt lat="44.01423" lon="4.47937">
        <ele>209.8</ele>
        <time>2025-01-26T10:58:19.000Z</time>
      </trkpt>
      <trkpt lat="44.01425" lon="4.47935">
        <ele>209.6</ele>
        <time>2025-01-26T10:58:20.000Z</time>
      </trkpt>
      <trkpt lat="44.0143" lon="4.47932">
        <ele>209.4</ele>
        <time>2025-01-26T10:58:22.000Z</time>
      </trkpt>
      <trkpt lat="44.01433" lon="4.47932">
        <ele>209.2</ele>
        <time>2025-01-26T10:58:23.000Z</time>
      </trkpt>
      <trkpt lat="44.01436" lon="4.47933">
        <ele>209</ele>
        <time>2025-01-26T10:58:24.000Z</time>
      </trkpt>
      <trkpt lat="44.01447" lon="4.47933">
        <ele>208.4</ele>
        <time>2025-01-26T10:58:28.000Z</time>
      </trkpt>
      <trkpt lat="44.0145" lon="4.47933">
        <ele>208.4</ele>
        <time>2025-01-26T10:58:29.000Z</time>
      </trkpt>
      <trkpt lat="44.01459" lon="4.47937">
        <ele>207.8</ele>
        <time>2025-01-26T10:58:32.000Z</time>
      </trkpt>
      <trkpt lat="44.01467" lon="4.47937">
        <ele>207</ele>
        <time>2025-01-26T10:58:34.000Z</time>
      </trkpt>
      <trkpt lat="44.01472" lon="4.47937">
        <ele>206.6</ele>
        <time>2025-01-26T10:58:35.000Z</time>
      </trkpt>
      <trkpt lat="44.0148" lon="4.47938">
        <ele>205.8</ele>
        <time>2025-01-26T10:58:37.000Z</time>
      </trkpt>
      <trkpt lat="44.01491" lon="4.47941">
        <ele>204.6</ele>
        <time>2025-01-26T10:58:40.000Z</time>
      </trkpt>
      <trkpt lat="44.01498" lon="4.47944">
        <ele>203.6</ele>
        <time>2025-01-26T10:58:42.000Z</time>
      </trkpt>
      <trkpt lat="44.015" lon="4.47946">
        <ele>203</ele>
        <time>2025-01-26T10:58:43.000Z</time>
      </trkpt>
      <trkpt lat="44.01505" lon="4.4795">
        <ele>202.2</ele>
        <time>2025-01-26T10:58:45.000Z</time>
      </trkpt>
      <trkpt lat="44.01511" lon="4.47953">
        <ele>201.2</ele>
        <time>2025-01-26T10:58:47.000Z</time>
      </trkpt>
      <trkpt lat="44.01514" lon="4.47955">
        <ele>200.8</ele>
        <time>2025-01-26T10:58:48.000Z</time>
      </trkpt>
      <trkpt lat="44.01524" lon="4.47957">
        <ele>199.8</ele>
        <time>2025-01-26T10:58:51.000Z</time>
      </trkpt>
      <trkpt lat="44.01526" lon="4.47958">
        <ele>199.4</ele>
        <time>2025-01-26T10:58:52.000Z</time>
      </trkpt>
      <trkpt lat="44.01529" lon="4.47958">
        <ele>199.2</ele>
        <time>2025-01-26T10:58:53.000Z</time>
      </trkpt>
      <trkpt lat="44.01532" lon="4.47956">
        <ele>198.6</ele>
        <time>2025-01-26T10:58:55.000Z</time>
      </trkpt>
      <trkpt lat="44.01534" lon="4.47954">
        <ele>198.2</ele>
        <time>2025-01-26T10:58:56.000Z</time>
      </trkpt>
      <trkpt lat="44.01538" lon="4.47953">
        <ele>197.6</ele>
        <time>2025-01-26T10:58:58.000Z</time>
      </trkpt>
      <trkpt lat="44.01541" lon="4.4795">
        <ele>197.4</ele>
        <time>2025-01-26T10:59:00.000Z</time>
      </trkpt>
      <trkpt lat="44.01543" lon="4.47947">
        <ele>196.6</ele>
        <time>2025-01-26T10:59:02.000Z</time>
      </trkpt>
      <trkpt lat="44.01545" lon="4.47947">
        <ele>196.2</ele>
        <time>2025-01-26T10:59:03.000Z</time>
      </trkpt>
      <trkpt lat="44.01549" lon="4.47943">
        <ele>194.8</ele>
        <time>2025-01-26T10:59:06.000Z</time>
      </trkpt>
      <trkpt lat="44.0155" lon="4.47941">
        <ele>194.4</ele>
        <time>2025-01-26T10:59:07.000Z</time>
      </trkpt>
      <trkpt lat="44.01551" lon="4.47936">
        <ele>193.2</ele>
        <time>2025-01-26T10:59:09.000Z</time>
      </trkpt>
      <trkpt lat="44.0155" lon="4.47932">
        <ele>192.2</ele>
        <time>2025-01-26T10:59:11.000Z</time>
      </trkpt>
      <trkpt lat="44.0155" lon="4.4793">
        <ele>191</ele>
        <time>2025-01-26T10:59:13.000Z</time>
      </trkpt>
      <trkpt lat="44.0155" lon="4.47927">
        <ele>189.8</ele>
        <time>2025-01-26T10:59:15.000Z</time>
      </trkpt>
      <trkpt lat="44.01549" lon="4.47926">
        <ele>188.2</ele>
        <time>2025-01-26T10:59:17.000Z</time>
      </trkpt>
      <trkpt lat="44.01549" lon="4.47924">
        <ele>186.6</ele>
        <time>2025-01-26T10:59:19.000Z</time>
      </trkpt>
      <trkpt lat="44.01549" lon="4.47924">
        <ele>185.8</ele>
        <time>2025-01-26T10:59:20.000Z</time>
      </trkpt>
      <trkpt lat="44.01547" lon="4.47914">
        <ele>182.2</ele>
        <time>2025-01-26T10:59:47.000Z</time>
      </trkpt>
      <trkpt lat="44.01547" lon="4.4791">
        <ele>181.4</ele>
        <time>2025-01-26T10:59:52.000Z</time>
      </trkpt>
      <trkpt lat="44.01546" lon="4.47908">
        <ele>181</ele>
        <time>2025-01-26T10:59:55.000Z</time>
      </trkpt>
      <trkpt lat="44.01547" lon="4.47905">
        <ele>180.6</ele>
        <time>2025-01-26T10:59:57.000Z</time>
      </trkpt>
      <trkpt lat="44.01547" lon="4.47904">
        <ele>179.8</ele>
        <time>2025-01-26T10:59:59.000Z</time>
      </trkpt>
      <trkpt lat="44.01547" lon="4.47904">
        <ele>179.6</ele>
        <time>2025-01-26T11:00:00.000Z</time>
      </trkpt>
      <trkpt lat="44.0155" lon="4.47904">
        <ele>177.6</ele>
        <time>2025-01-26T11:00:06.000Z</time>
      </trkpt>
      <trkpt lat="44.01552" lon="4.47906">
        <ele>177.2</ele>
        <time>2025-01-26T11:00:08.000Z</time>
      </trkpt>
      <trkpt lat="44.01556" lon="4.47907">
        <ele>177</ele>
        <time>2025-01-26T11:00:10.000Z</time>
      </trkpt>
      <trkpt lat="44.01564" lon="4.47908">
        <ele>176.8</ele>
        <time>2025-01-26T11:00:14.000Z</time>
      </trkpt>
      <trkpt lat="44.01566" lon="4.47909">
        <ele>176.6</ele>
        <time>2025-01-26T11:00:15.000Z</time>
      </trkpt>
      <trkpt lat="44.01574" lon="4.47908">
        <ele>175.2</ele>
        <time>2025-01-26T11:00:19.000Z</time>
      </trkpt>
      <trkpt lat="44.01577" lon="4.47909">
        <ele>174.2</ele>
        <time>2025-01-26T11:00:22.000Z</time>
      </trkpt>
      <trkpt lat="44.01579" lon="4.4791">
        <ele>173.6</ele>
        <time>2025-01-26T11:00:24.000Z</time>
      </trkpt>
      <trkpt lat="44.01581" lon="4.47912">
        <ele>173.2</ele>
        <time>2025-01-26T11:00:25.000Z</time>
      </trkpt>
      <trkpt lat="44.01582" lon="4.47913">
        <ele>173</ele>
        <time>2025-01-26T11:00:26.000Z</time>
      </trkpt>
      <trkpt lat="44.01582" lon="4.47913">
        <ele>171.6</ele>
        <time>2025-01-26T11:00:28.000Z</time>
      </trkpt>
      <trkpt lat="44.01585" lon="4.47913">
        <ele>171.2</ele>
        <time>2025-01-26T11:00:30.000Z</time>
      </trkpt>
      <trkpt lat="44.0159" lon="4.47911">
        <ele>170.6</ele>
        <time>2025-01-26T11:00:33.000Z</time>
      </trkpt>
      <trkpt lat="44.01593" lon="4.4791">
        <ele>170.4</ele>
        <time>2025-01-26T11:00:35.000Z</time>
      </trkpt>
      <trkpt lat="44.01602" lon="4.47911">
        <ele>169.6</ele>
        <time>2025-01-26T11:00:39.000Z</time>
      </trkpt>
      <trkpt lat="44.01604" lon="4.47912">
        <ele>169.4</ele>
        <time>2025-01-26T11:00:40.000Z</time>
      </trkpt>
      <trkpt lat="44.01608" lon="4.47917">
        <ele>168.4</ele>
        <time>2025-01-26T11:00:43.000Z</time>
      </trkpt>
      <trkpt lat="44.0161" lon="4.47918">
        <ele>168.2</ele>
        <time>2025-01-26T11:00:44.000Z</time>
      </trkpt>
      <trkpt lat="44.01615" lon="4.47919">
        <ele>167.6</ele>
        <time>2025-01-26T11:00:46.000Z</time>
      </trkpt>
      <trkpt lat="44.01619" lon="4.47919">
        <ele>167.2</ele>
        <time>2025-01-26T11:00:47.000Z</time>
      </trkpt>
      <trkpt lat="44.01622" lon="4.47919">
        <ele>167</ele>
        <time>2025-01-26T11:00:48.000Z</time>
      </trkpt>
      <trkpt lat="44.01635" lon="4.47921">
        <ele>166.2</ele>
        <time>2025-01-26T11:00:52.000Z</time>
      </trkpt>
      <trkpt lat="44.01638" lon="4.47922">
        <ele>165.8</ele>
        <time>2025-01-26T11:00:53.000Z</time>
      </trkpt>
      <trkpt lat="44.01644" lon="4.47924">
        <ele>163.8</ele>
        <time>2025-01-26T11:00:56.000Z</time>
      </trkpt>
      <trkpt lat="44.01646" lon="4.47925">
        <ele>163.4</ele>
        <time>2025-01-26T11:00:57.000Z</time>
      </trkpt>
      <trkpt lat="44.01648" lon="4.47928">
        <ele>162.6</ele>
        <time>2025-01-26T11:00:59.000Z</time>
      </trkpt>
      <trkpt lat="44.01649" lon="4.4793">
        <ele>162</ele>
        <time>2025-01-26T11:01:00.000Z</time>
      </trkpt>
      <trkpt lat="44.01651" lon="4.47936">
        <ele>161.4</ele>
        <time>2025-01-26T11:01:02.000Z</time>
      </trkpt>
      <trkpt lat="44.01654" lon="4.47947">
        <ele>160.4</ele>
        <time>2025-01-26T11:01:05.000Z</time>
      </trkpt>
      <trkpt lat="44.01655" lon="4.4795">
        <ele>160.2</ele>
        <time>2025-01-26T11:01:06.000Z</time>
      </trkpt>
      <trkpt lat="44.01655" lon="4.47965">
        <ele>160</ele>
        <time>2025-01-26T11:01:11.000Z</time>
      </trkpt>
      <trkpt lat="44.01653" lon="4.47976">
        <ele>160</ele>
        <time>2025-01-26T11:01:15.000Z</time>
      </trkpt>
      <trkpt lat="44.01648" lon="4.47993">
        <ele>161.4</ele>
        <time>2025-01-26T11:01:22.000Z</time>
      </trkpt>
      <trkpt lat="44.01647" lon="4.47995">
        <ele>161.6</ele>
        <time>2025-01-26T11:01:23.000Z</time>
      </trkpt>
      <trkpt lat="44.01644" lon="4.48002">
        <ele>162.2</ele>
        <time>2025-01-26T11:01:27.000Z</time>
      </trkpt>
      <trkpt lat="44.01644" lon="4.48008">
        <ele>162.2</ele>
        <time>2025-01-26T11:01:29.000Z</time>
      </trkpt>
      <trkpt lat="44.0164" lon="4.4802">
        <ele>162.2</ele>
        <time>2025-01-26T11:01:33.000Z</time>
      </trkpt>
      <trkpt lat="44.01635" lon="4.48032">
        <ele>161.8</ele>
        <time>2025-01-26T11:01:37.000Z</time>
      </trkpt>
      <trkpt lat="44.01635" lon="4.48034">
        <ele>161.6</ele>
        <time>2025-01-26T11:01:38.000Z</time>
      </trkpt>
      <trkpt lat="44.01639" lon="4.48047">
        <ele>161.6</ele>
        <time>2025-01-26T11:01:44.000Z</time>
      </trkpt>
      <trkpt lat="44.01641" lon="4.48047">
        <ele>161.6</ele>
        <time>2025-01-26T11:01:45.000Z</time>
      </trkpt>
      <trkpt lat="44.01648" lon="4.48051">
        <ele>161.6</ele>
        <time>2025-01-26T11:01:49.000Z</time>
      </trkpt>
      <trkpt lat="44.01655" lon="4.48057">
        <ele>161.6</ele>
        <time>2025-01-26T11:01:52.000Z</time>
      </trkpt>
      <trkpt lat="44.01657" lon="4.48061">
        <ele>161.6</ele>
        <time>2025-01-26T11:01:53.000Z</time>
      </trkpt>
      <trkpt lat="44.01663" lon="4.48087">
        <ele>160.8</ele>
        <time>2025-01-26T11:01:59.000Z</time>
      </trkpt>
      <trkpt lat="44.01666" lon="4.48096">
        <ele>160.2</ele>
        <time>2025-01-26T11:02:01.000Z</time>
      </trkpt>
      <trkpt lat="44.01674" lon="4.48126">
        <ele>159.8</ele>
        <time>2025-01-26T11:02:07.000Z</time>
      </trkpt>
      <trkpt lat="44.01683" lon="4.48149">
        <ele>159.2</ele>
        <time>2025-01-26T11:02:12.000Z</time>
      </trkpt>
      <trkpt lat="44.01691" lon="4.48175">
        <ele>158.4</ele>
        <time>2025-01-26T11:02:17.000Z</time>
      </trkpt>
      <trkpt lat="44.01692" lon="4.48184">
        <ele>158</ele>
        <time>2025-01-26T11:02:19.000Z</time>
      </trkpt>
      <trkpt lat="44.01695" lon="4.48198">
        <ele>157</ele>
        <time>2025-01-26T11:02:23.000Z</time>
      </trkpt>
      <trkpt lat="44.01699" lon="4.48204">
        <ele>157</ele>
        <time>2025-01-26T11:02:25.000Z</time>
      </trkpt>
      <trkpt lat="44.01703" lon="4.48206">
        <ele>156.8</ele>
        <time>2025-01-26T11:02:27.000Z</time>
      </trkpt>
      <trkpt lat="44.01717" lon="4.48206">
        <ele>156.4</ele>
        <time>2025-01-26T11:02:33.000Z</time>
      </trkpt>
      <trkpt lat="44.01727" lon="4.4821">
        <ele>156.2</ele>
        <time>2025-01-26T11:02:37.000Z</time>
      </trkpt>
      <trkpt lat="44.01728" lon="4.48213">
        <ele>156</ele>
        <time>2025-01-26T11:02:38.000Z</time>
      </trkpt>
      <trkpt lat="44.0173" lon="4.48218">
        <ele>155.8</ele>
        <time>2025-01-26T11:02:40.000Z</time>
      </trkpt>
      <trkpt lat="44.01732" lon="4.48217">
        <ele>155.4</ele>
        <time>2025-01-26T11:02:42.000Z</time>
      </trkpt>
      <trkpt lat="44.01739" lon="4.48207">
        <ele>155.2</ele>
        <time>2025-01-26T11:02:45.000Z</time>
      </trkpt>
      <trkpt lat="44.01741" lon="4.48184">
        <ele>155</ele>
        <time>2025-01-26T11:02:49.000Z</time>
      </trkpt>
      <trkpt lat="44.01741" lon="4.48173">
        <ele>153.6</ele>
        <time>2025-01-26T11:02:51.000Z</time>
      </trkpt>
      <trkpt lat="44.01741" lon="4.48162">
        <ele>152.2</ele>
        <time>2025-01-26T11:02:53.000Z</time>
      </trkpt>
      <trkpt lat="44.0174" lon="4.4815">
        <ele>151.6</ele>
        <time>2025-01-26T11:02:55.000Z</time>
      </trkpt>
      <trkpt lat="44.0174" lon="4.48144">
        <ele>151.2</ele>
        <time>2025-01-26T11:02:56.000Z</time>
      </trkpt>
      <trkpt lat="44.01744" lon="4.48105">
        <ele>151</ele>
        <time>2025-01-26T11:03:03.000Z</time>
      </trkpt>
      <trkpt lat="44.0175" lon="4.48069">
        <ele>151.2</ele>
        <time>2025-01-26T11:03:10.000Z</time>
      </trkpt>
      <trkpt lat="44.01751" lon="4.48045">
        <ele>151.4</ele>
        <time>2025-01-26T11:03:16.000Z</time>
      </trkpt>
      <trkpt lat="44.01753" lon="4.48035">
        <ele>151.8</ele>
        <time>2025-01-26T11:03:18.000Z</time>
      </trkpt>
      <trkpt lat="44.01757" lon="4.48022">
        <ele>152</ele>
        <time>2025-01-26T11:03:20.000Z</time>
      </trkpt>
      <trkpt lat="44.01765" lon="4.47978">
        <ele>152</ele>
        <time>2025-01-26T11:03:25.000Z</time>
      </trkpt>
      <trkpt lat="44.01773" lon="4.47943">
        <ele>149.6</ele>
        <time>2025-01-26T11:03:29.000Z</time>
      </trkpt>
      <trkpt lat="44.01776" lon="4.47925">
        <ele>148</ele>
        <time>2025-01-26T11:03:31.000Z</time>
      </trkpt>
      <trkpt lat="44.01778" lon="4.47907">
        <ele>146.8</ele>
        <time>2025-01-26T11:03:33.000Z</time>
      </trkpt>
      <trkpt lat="44.0178" lon="4.47893">
        <ele>145.8</ele>
        <time>2025-01-26T11:03:35.000Z</time>
      </trkpt>
      <trkpt lat="44.01781" lon="4.47886">
        <ele>145.4</ele>
        <time>2025-01-26T11:03:36.000Z</time>
      </trkpt>
      <trkpt lat="44.01786" lon="4.47856">
        <ele>145.2</ele>
        <time>2025-01-26T11:03:41.000Z</time>
      </trkpt>
      <trkpt lat="44.0179" lon="4.47819">
        <ele>145.2</ele>
        <time>2025-01-26T11:03:48.000Z</time>
      </trkpt>
      <trkpt lat="44.0179" lon="4.47792">
        <ele>145.4</ele>
        <time>2025-01-26T11:03:53.000Z</time>
      </trkpt>
      <trkpt lat="44.01785" lon="4.47761">
        <ele>146</ele>
        <time>2025-01-26T11:03:59.000Z</time>
      </trkpt>
      <trkpt lat="44.01783" lon="4.47723">
        <ele>146.2</ele>
        <time>2025-01-26T11:04:05.000Z</time>
      </trkpt>
      <trkpt lat="44.01783" lon="4.47668">
        <ele>145.4</ele>
        <time>2025-01-26T11:04:12.000Z</time>
      </trkpt>
      <trkpt lat="44.01785" lon="4.47627">
        <ele>144.4</ele>
        <time>2025-01-26T11:04:18.000Z</time>
      </trkpt>
      <trkpt lat="44.01792" lon="4.47585">
        <ele>143.6</ele>
        <time>2025-01-26T11:04:24.000Z</time>
      </trkpt>
      <trkpt lat="44.01793" lon="4.47525">
        <ele>143.6</ele>
        <time>2025-01-26T11:04:33.000Z</time>
      </trkpt>
      <trkpt lat="44.01796" lon="4.4749">
        <ele>143.8</ele>
        <time>2025-01-26T11:04:38.000Z</time>
      </trkpt>
      <trkpt lat="44.01798" lon="4.47483">
        <ele>143.8</ele>
        <time>2025-01-26T11:04:39.000Z</time>
      </trkpt>
      <trkpt lat="44.018" lon="4.47477">
        <ele>143.8</ele>
        <time>2025-01-26T11:04:40.000Z</time>
      </trkpt>
      <trkpt lat="44.0181" lon="4.47453">
        <ele>143.8</ele>
        <time>2025-01-26T11:04:44.000Z</time>
      </trkpt>
      <trkpt lat="44.01814" lon="4.47441">
        <ele>143.6</ele>
        <time>2025-01-26T11:04:46.000Z</time>
      </trkpt>
      <trkpt lat="44.01817" lon="4.47429">
        <ele>143.2</ele>
        <time>2025-01-26T11:04:48.000Z</time>
      </trkpt>
      <trkpt lat="44.01819" lon="4.47422">
        <ele>143.2</ele>
        <time>2025-01-26T11:04:49.000Z</time>
      </trkpt>
      <trkpt lat="44.01823" lon="4.47382">
        <ele>142.4</ele>
        <time>2025-01-26T11:04:55.000Z</time>
      </trkpt>
      <trkpt lat="44.01824" lon="4.47375">
        <ele>142.2</ele>
        <time>2025-01-26T11:04:56.000Z</time>
      </trkpt>
      <trkpt lat="44.01827" lon="4.47342">
        <ele>141.2</ele>
        <time>2025-01-26T11:05:01.000Z</time>
      </trkpt>
      <trkpt lat="44.01828" lon="4.47322">
        <ele>140.6</ele>
        <time>2025-01-26T11:05:04.000Z</time>
      </trkpt>
      <trkpt lat="44.01832" lon="4.47277">
        <ele>140.4</ele>
        <time>2025-01-26T11:05:11.000Z</time>
      </trkpt>
      <trkpt lat="44.01833" lon="4.47263">
        <ele>140.2</ele>
        <time>2025-01-26T11:05:13.000Z</time>
      </trkpt>
      <trkpt lat="44.01835" lon="4.4725">
        <ele>140</ele>
        <time>2025-01-26T11:05:15.000Z</time>
      </trkpt>
      <trkpt lat="44.01836" lon="4.47235">
        <ele>140</ele>
        <time>2025-01-26T11:05:17.000Z</time>
      </trkpt>
      <trkpt lat="44.01842" lon="4.47181">
        <ele>139.4</ele>
        <time>2025-01-26T11:05:24.000Z</time>
      </trkpt>
      <trkpt lat="44.01844" lon="4.47165">
        <ele>139</ele>
        <time>2025-01-26T11:05:26.000Z</time>
      </trkpt>
      <trkpt lat="44.01851" lon="4.47124">
        <ele>138.2</ele>
        <time>2025-01-26T11:05:31.000Z</time>
      </trkpt>
      <trkpt lat="44.01852" lon="4.471">
        <ele>137.8</ele>
        <time>2025-01-26T11:05:34.000Z</time>
      </trkpt>
      <trkpt lat="44.01852" lon="4.47075">
        <ele>137</ele>
        <time>2025-01-26T11:05:37.000Z</time>
      </trkpt>
      <trkpt lat="44.01854" lon="4.47068">
        <ele>125.5</ele>
        <time>2025-01-26T11:05:39.000Z</time>
      </trkpt>
      <trkpt lat="44.01853" lon="4.47069">
        <ele>125.5</ele>
        <time>2025-01-26T11:05:39.158Z</time>
      </trkpt>
      <trkpt lat="44.01924" lon="4.47163">
        <ele>122.7</ele>
        <time>2025-01-26T11:05:50.161Z</time>
      </trkpt>
      <trkpt lat="44.01941" lon="4.47194">
        <ele>121.9</ele>
        <time>2025-01-26T11:05:53.224Z</time>
      </trkpt>
      <trkpt lat="44.01945" lon="4.47197">
        <ele>121.7</ele>
        <time>2025-01-26T11:05:53.775Z</time>
      </trkpt>
    </trkseg>
  </trk>
</gpx>